# Wetter Temperatur Luftdruck Luftfeuchtigkeit Sichtweite Windgeschwindigkeit Windrichtung Zeit
1 Rain 11 1020 88 10000 2.57 290 08:57 14.08.2022
2 Rain 10 1018 90 10000 1.54 0 06:53 14.08.2022
3 Rain 11 1017 88 8000 0.89 145 05:45 14.08.2022
4 Clouds 12 1015 77 10000 4.02 274 01:43 14.08.2022
5 Clouds 11 1015 78 10000 2.68 301 23:22 13.08.2022
6 Clouds 12 1014 76 10000 2.24 342 22:28 13.08.2022
7 Rain 11 1013 86 10000 3.09 330 20:51 13.08.2022
8 Clouds 11 1012 84 10000 3.09 250 19:49 13.08.2022
9 Rain 11 1012 83 10000 3.09 250 19:19 13.08.2022
10 Rain 13 1011 74 10000 11.83 340 17:22 13.08.2022
11 Clouds 15 1012 65 10000 9.26 340 14:51 13.08.2022
12 Clouds 15 1012 65 10000 9.26 340 14:24 13.08.2022
13 Clouds 15 1014 61 10000 9.26 330 13:34 13.08.2022
14 Clear 15 1015 61 10000 6.69 360 11:49 13.08.2022
15 Clear 11 1016 86 10000 3.09 30 09:27 13.08.2022
16 Clear 8 1015 82 10000 3.09 40 07:48 13.08.2022
17 Clouds 9 1017 88 10000 1.54 50 01:56 13.08.2022
18 Clouds 10 1018 84 10000 0.51 0 23:36 12.08.2022
19 Clouds 11 1018 82 10000 2.06 80 21:40 12.08.2022
20 Clouds 12 1018 68 10000 2.57 160 19:50 12.08.2022
21 Clouds 13 1018 64 10000 2.57 160 19:24 12.08.2022
22 Clouds 14 1018 61 10000 4.63 210 18:31 12.08.2022
23 Clouds 16 1018 57 10000 4.12 230 16:27 12.08.2022
24 Rain 16 1017 57 10000 4.63 230 15:23 12.08.2022
25 Clouds 16 1018 67 10000 2.68 309 13:50 12.08.2022
26 Clouds 15 1018 78 10000 3.09 330 12:50 12.08.2022
27 Rain 12 1017 89 3000 2.06 320 09:22 12.08.2022
28 Rain 12 1016 89 10000 3.6 340 07:47 12.08.2022
29 Rain 12 1016 88 10000 1.54 40 06:25 12.08.2022
30 Rain 13 1014 83 10000 6.17 360 01:22 12.08.2022
31 Clouds 14 1015 77 10000 5.66 340 00:18 12.08.2022
32 Clouds 14 1014 77 10000 7.72 340 23:27 11.08.2022
33 Clouds 14 1015 77 10000 4.63 350 21:57 11.08.2022
34 Clouds 14 1015 77 10000 4.63 350 21:34 11.08.2022
35 Clouds 14 1015 79 10000 4.92 315 20:31 11.08.2022
36 Clouds 14 1015 78 10000 4.63 330 19:41 11.08.2022
37 Clouds 14 1015 79 10000 4.63 330 19:21 11.08.2022
38 Clouds 15 1015 74 10000 6.17 320 17:34 11.08.2022
39 Clouds 15 1015 71 10000 4.47 287 16:19 11.08.2022
40 Clouds 16 1016 68 10000 7.72 320 15:20 11.08.2022
41 Clouds 17 1017 72 10000 6.17 320 12:39 11.08.2022
42 Clouds 13 1019 93 10000 5.14 30 09:29 11.08.2022
43 Clouds 12 1018 92 10000 2.57 50 06:59 11.08.2022
44 Clouds 13 1019 94 10000 3.09 360 03:25 11.08.2022
45 Clouds 13 1020 94 10000 3.6 340 00:35 11.08.2022
46 Clouds 13 1020 91 10000 2.24 313 22:21 10.08.2022
47 Clouds 13 1020 92 10000 3.6 350 21:20 10.08.2022
48 Clouds 13 1020 92 10000 4.63 340 20:43 10.08.2022
49 Clouds 13 1020 92 10000 4.63 340 20:43 10.08.2022
50 Clouds 14 1019 91 10000 6.69 350 18:55 10.08.2022
51 Rain 14 1019 91 10000 7.72 330 17:37 10.08.2022
52 Clouds 14 1019 90 10000 6.17 320 16:33 10.08.2022
53 Drizzle 14 1021 93 2500 4.63 340 13:35 10.08.2022
54 Drizzle 14 1021 91 2000 5.14 350 12:27 10.08.2022
55 Drizzle 13 1020 91 6000 4.63 10 08:55 10.08.2022
56 Drizzle 13 1020 91 6000 4.63 10 08:31 10.08.2022
57 Drizzle 13 1019 91 5000 7.72 360 06:22 10.08.2022
58 Drizzle 13 1019 91 10000 6.69 360 02:45 10.08.2022
59 Clouds 14 1018 82 10000 4.63 340 23:34 09.08.2022
60 Clouds 14 1018 80 10000 5.14 350 22:56 09.08.2022
61 Clouds 14 1017 82 10000 5.14 320 21:35 09.08.2022
62 Clear 14 1016 81 10000 7.72 330 19:35 09.08.2022
63 Clear 15 1015 80 10000 7.72 320 18:29 09.08.2022
64 Clear 16 1015 73 10000 6.69 330 17:27 09.08.2022
65 Clear 17 1015 73 10000 6.69 320 16:40 09.08.2022
66 Clear 18 1014 63 10000 7.2 320 15:46 09.08.2022
67 Clouds 19 1016 67 10000 2.24 32 12:48 09.08.2022
68 Clouds 13 1017 86 8000 1.03 0 09:30 09.08.2022
69 Clouds 12 1017 83 6000 1.03 0 08:33 09.08.2022
70 Fog 11 1016 87 1000 2.06 50 07:52 09.08.2022
71 Clear 12 1017 86 10000 1.79 219 03:34 09.08.2022
72 Clear 12 1018 89 10000 1.54 140 23:27 08.08.2022
73 Clear 12 1020 88 10000 1.54 140 22:54 08.08.2022
74 Clear 13 1020 84 10000 2.06 150 21:49 08.08.2022
75 Clear 13 1020 83 10000 1.54 120 20:59 08.08.2022
76 Clear 14 1021 78 10000 1.54 80 19:50 08.08.2022
77 Clear 15 1021 77 10000 2.68 193 18:38 08.08.2022
78 Clear 18 1020 65 10000 3.6 310 16:37 08.08.2022
79 Clear 18 1020 60 10000 3.6 300 15:39 08.08.2022
80 Clear 18 1021 59 10000 3.13 335 13:50 08.08.2022
81 Clouds 18 1023 60 10000 3.6 340 11:58 08.08.2022
82 Clouds 14 1023 78 10000 4.63 30 09:46 08.08.2022
83 Clouds 12 1021 90 10000 2.57 20 05:54 08.08.2022
84 Clear 11 1021 90 10000 2.57 330 02:55 08.08.2022
85 Clouds 13 1020 86 10000 3.6 40 22:32 07.08.2022
86 Clouds 14 1020 84 10000 3.09 360 21:39 07.08.2022
87 Clouds 15 1019 82 10000 3.6 10 20:26 07.08.2022
88 Clouds 15 1018 79 10000 5.14 360 19:56 07.08.2022
89 Clouds 15 1018 79 10000 5.14 360 19:38 07.08.2022
90 Clouds 16 1017 74 10000 4.63 360 18:23 07.08.2022
91 Clouds 17 1015 70 10000 5.14 20 16:54 07.08.2022
92 Clouds 17 1015 70 10000 5.14 20 16:35 07.08.2022
93 Clouds 17 1015 70 10000 5.14 20 16:35 07.08.2022
94 Clouds 18 1014 69 10000 2.68 307 15:20 07.08.2022
95 Clear 18 1014 63 10000 9.77 340 13:26 07.08.2022
96 Clear 17 1013 62 10000 6.69 320 11:54 07.08.2022
97 Clear 17 1012 63 10000 4.92 285 10:34 07.08.2022
98 Clear 11 1011 86 10000 1.54 340 07:38 07.08.2022
99 Clear 12 1012 84 10000 2.24 0 03:20 07.08.2022
100 Clear 12 1014 86 10000 2.24 0 00:57 07.08.2022
101 Clear 14 1015 78 10000 7.6 198 22:25 06.08.2022
102 Clear 14 1016 78 10000 8.49 190 21:18 06.08.2022
103 Clear 15 1016 74 10000 6.71 212 19:41 06.08.2022
104 Clouds 16 1016 70 10000 7.6 153 18:30 06.08.2022
105 Clouds 17 1016 65 10000 6.71 217 17:33 06.08.2022
106 Clouds 17 1018 67 10000 10.29 180 14:52 06.08.2022
107 Clouds 18 1018 64 10000 10.29 180 13:49 06.08.2022
108 Clear 17 1020 67 10000 8.75 170 11:59 06.08.2022
109 Clouds 16 1021 75 10000 8.23 170 10:33 06.08.2022
110 Clouds 14 1021 83 10000 7.2 190 09:21 06.08.2022
111 Rain 13 1022 92 10000 4.63 190 03:54 06.08.2022
112 Clouds 12 1022 90 10000 1.03 360 23:54 05.08.2022
113 Clouds 12 1022 88 10000 2.06 350 22:33 05.08.2022
114 Clouds 13 1022 85 10000 3.6 340 20:20 05.08.2022
115 Clear 14 1021 80 10000 4.12 330 18:47 05.08.2022
116 Clear 14 1021 80 10000 4.12 330 18:27 05.08.2022
117 Clouds 17 1021 68 10000 5.66 330 16:51 05.08.2022
118 Clouds 17 1021 72 10000 5.14 310 15:23 05.08.2022
119 Clouds 17 1021 71 10000 5.66 310 14:34 05.08.2022
120 Clouds 16 1022 76 10000 5.14 320 13:26 05.08.2022
121 Clouds 16 1023 77 10000 4.12 320 12:45 05.08.2022
122 Clouds 14 1023 86 10000 4.12 40 10:59 05.08.2022
123 Drizzle 12 1022 90 9000 5.66 20 08:45 05.08.2022
124 Rain 12 1021 88 10000 5.66 30 07:33 05.08.2022
125 Clouds 11 1021 87 10000 3.6 50 01:52 05.08.2022
126 Clouds 12 1021 88 10000 4.12 340 22:43 04.08.2022
127 Clouds 13 1020 85 10000 4.12 340 21:28 04.08.2022
128 Clouds 13 1021 83 10000 4.63 330 20:53 04.08.2022
129 Clouds 13 1021 82 10000 4.63 330 20:33 04.08.2022
130 Clouds 14 1021 80 10000 5.66 320 18:57 04.08.2022
131 Clouds 14 1021 79 10000 5.66 320 18:33 04.08.2022
132 Clouds 16 1020 66 10000 7.2 320 14:50 04.08.2022
133 Clouds 17 1020 63 10000 8.23 360 13:26 04.08.2022
134 Clouds 16 1022 66 10000 8.23 340 11:39 04.08.2022
135 Clouds 15 1022 69 10000 8.75 330 10:20 04.08.2022
136 Clouds 12 1021 84 10000 4.12 20 07:44 04.08.2022
137 Clouds 13 1021 81 10000 3.6 350 02:48 04.08.2022
138 Clouds 13 1020 81 10000 3.09 340 00:33 04.08.2022
139 Clouds 13 1020 80 10000 4.12 360 23:39 03.08.2022
140 Clouds 13 1020 81 10000 2.57 330 21:27 03.08.2022
141 Clouds 13 1020 79 10000 2.57 330 20:21 03.08.2022
142 Clouds 13 1019 79 10000 4.12 300 19:19 03.08.2022
143 Clouds 15 1018 69 10000 6.69 310 16:50 03.08.2022
144 Clouds 15 1018 69 10000 6.69 310 16:22 03.08.2022
145 Clouds 17 1018 67 10000 4.63 320 13:52 03.08.2022
146 Clouds 14 1019 82 10000 2.24 49 10:56 03.08.2022
147 Clouds 11 1018 88 10000 1.03 0 07:26 03.08.2022
148 Clouds 12 1018 87 10000 1.34 167 04:22 03.08.2022
149 Clouds 13 1018 87 10000 2.57 210 03:23 03.08.2022
150 Clouds 13 1019 87 10000 2.68 179 00:53 03.08.2022
151 Clear 13 1018 89 10000 3.13 157 22:43 02.08.2022
152 Clear 13 1018 89 10000 3.6 210 21:52 02.08.2022
153 Clear 13 1018 89 10000 4.63 210 20:32 02.08.2022
154 Clear 14 1018 85 10000 4.12 200 18:34 02.08.2022
155 Clear 17 1018 66 10000 5.66 190 15:27 02.08.2022
156 Clear 15 1021 67 10000 5.66 190 11:30 02.08.2022
157 Clear 12 1020 77 8000 5.36 214 08:59 02.08.2022
158 Clear 11 1021 80 10000 4.02 181 07:52 02.08.2022
159 Clear 10 1019 81 10000 4.47 187 06:42 02.08.2022
160 Mist 10 1020 80 5000 0.51 0 04:54 02.08.2022
161 Clear 12 1022 77 10000 3.58 203 23:35 01.08.2022
162 Clear 12 1022 77 10000 2.24 193 22:23 01.08.2022
163 Clear 13 1022 78 10000 3.13 219 20:51 01.08.2022
164 Clear 13 1023 79 10000 3.58 158 19:25 01.08.2022
165 Clear 14 1023 76 10000 4.63 190 18:31 01.08.2022
166 Clear 15 1024 61 10000 4.63 190 16:53 01.08.2022
167 Clear 17 1025 58 10000 5.14 190 15:52 01.08.2022
168 Clear 18 1025 57 10000 5.14 190 15:30 01.08.2022
169 Clear 16 1025 57 10000 2.68 148 14:43 01.08.2022
170 Clear 15 1027 55 10000 4.12 230 11:59 01.08.2022
171 Clear 13 1028 65 10000 4.02 186 09:40 01.08.2022
172 Clear 9 1028 76 10000 2.68 185 08:30 01.08.2022
173 Clear 10 1028 75 10000 4.47 150 04:54 01.08.2022
174 Clear 10 1028 77 10000 3.58 222 03:49 01.08.2022
175 Clear 10 1029 80 10000 3.13 210 00:36 01.08.2022
176 Clear 11 1029 79 10000 4.63 170 22:40 31.07.2022
177 Clear 11 1029 77 10000 5.14 170 21:29 31.07.2022
178 Clear 12 1028 70 10000 6.17 180 19:53 31.07.2022
179 Clear 13 1028 65 10000 7.2 180 17:57 31.07.2022
180 Clouds 15 1028 54 10000 6.69 190 15:45 31.07.2022
181 Clouds 15 1029 53 10000 6.17 190 13:44 31.07.2022
182 Clouds 14 1029 63 10000 4.12 180 11:59 31.07.2022
183 Clouds 12 1029 81 10000 2.24 138 09:55 31.07.2022
184 Clouds 8 1028 85 10000 1.54 40 08:18 31.07.2022
185 Clouds 8 1026 92 10000 2.06 30 03:28 31.07.2022
186 Fog 9 1025 92 4500 2.06 40 23:46 30.07.2022
187 Clouds 9 1025 91 10000 2.06 30 22:19 30.07.2022
188 Clouds 10 1025 91 10000 1.54 10 21:49 30.07.2022
189 Clouds 10 1024 88 10000 1.54 0 20:58 30.07.2022
190 Rain 11 1024 85 10000 1.54 320 19:59 30.07.2022
191 Clouds 12 1023 80 10000 3.6 310 18:57 30.07.2022
192 Clouds 13 1022 74 10000 3.09 310 17:45 30.07.2022
193 Rain 14 1022 71 10000 5.66 310 15:54 30.07.2022
194 Rain 13 1022 72 10000 5.66 310 15:24 30.07.2022
195 Clouds 16 1022 57 10000 7.2 300 13:20 30.07.2022
196 Clear 15 1022 61 10000 2.68 307 12:20 30.07.2022
197 Clouds 13 1022 74 10000 3.6 50 10:35 30.07.2022
198 Clouds 12 1022 83 10000 2.06 60 09:57 30.07.2022
199 Rain 9 1021 90 10000 3.6 40 07:55 30.07.2022
200 Rain 9 1021 90 10000 3.6 40 07:55 30.07.2022
201 Clouds 9 1020 90 10000 3.09 40 05:29 30.07.2022
202 Rain 10 1020 89 10000 2.57 50 02:31 30.07.2022
203 Clouds 11 1020 83 10000 1.54 320 22:54 29.07.2022
204 Clouds 12 1019 80 10000 1.54 0 21:28 29.07.2022
205 Clouds 12 1019 78 10000 0.51 0 20:50 29.07.2022
206 Clouds 13 1019 76 10000 1.03 0 19:29 29.07.2022
207 Clouds 15 1017 66 10000 5.14 240 16:43 29.07.2022
208 Clouds 16 1016 68 10000 7.72 300 13:46 29.07.2022
209 Clouds 15 1016 79 10000 5.66 320 12:32 29.07.2022
210 Rain 14 1014 82 4500 9.26 350 08:51 29.07.2022
211 Rain 14 1013 82 10000 9.26 360 08:21 29.07.2022
212 Rain 13 1013 84 8000 9.77 340 03:55 29.07.2022
213 Clouds 15 1012 83 10000 8.23 350 23:30 28.07.2022
214 Clouds 15 1012 81 10000 8.75 340 21:38 28.07.2022
215 Clouds 15 1011 84 10000 8.75 330 20:50 28.07.2022
216 Clouds 15 1011 85 10000 8.75 330 20:18 28.07.2022
217 Clear 15 1010 78 10000 7.2 320 19:26 28.07.2022
218 Clear 18 1009 58 10000 8.75 320 17:46 28.07.2022
219 Clear 19 1009 55 10000 8.75 320 17:23 28.07.2022
220 Clear 19 1008 51 10000 6.17 330 16:40 28.07.2022
221 Clear 23 1009 41 10000 3.13 312 13:56 28.07.2022
222 Clear 22 1010 44 10000 2.57 350 12:39 28.07.2022
223 Clear 13 1012 74 10000 2.06 30 08:49 28.07.2022
224 Clear 11 1012 80 10000 1.03 0 05:41 28.07.2022
225 Clear 11 1012 79 10000 1.03 0 05:20 28.07.2022
226 Clear 13 1017 75 10000 1.54 0 23:20 27.07.2022
227 Clear 14 1017 73 10000 3.6 230 21:31 27.07.2022
228 Clear 15 1018 71 10000 5.66 190 19:53 27.07.2022
229 Clear 15 1018 75 10000 3.58 226 19:20 27.07.2022
230 Clear 19 1018 55 10000 6.69 190 16:31 27.07.2022
231 Clear 19 1017 50 10000 8.23 170 15:51 27.07.2022
232 Clear 19 1018 52 10000 6.69 150 14:41 27.07.2022
233 Clear 19 1020 55 10000 7.72 170 13:45 27.07.2022
234 Clear 16 1023 69 10000 6.17 160 10:39 27.07.2022
235 Clear 11 1022 82 6000 4.02 238 07:53 27.07.2022
236 Fog 10 1021 86 200 1.54 100 04:54 27.07.2022
237 Clouds 12 1021 83 10000 1.54 60 23:25 26.07.2022
238 Clouds 13 1020 82 10000 2.57 120 21:52 26.07.2022
239 Clouds 14 1019 81 7000 3.6 100 20:58 26.07.2022
240 Clouds 14 1018 79 10000 2.57 130 19:32 26.07.2022
241 Clear 15 1017 74 10000 2.57 150 18:40 26.07.2022
242 Clear 16 1016 68 10000 4.63 150 17:54 26.07.2022
243 Clear 20 1015 48 10000 5.66 170 15:46 26.07.2022
244 Clear 21 1015 45 10000 5.66 180 14:43 26.07.2022
245 Clear 21 1015 43 10000 1.03 0 12:33 26.07.2022
246 Clear 17 1015 56 10000 1.03 0 10:32 26.07.2022
247 Clear 11 1015 65 10000 1.54 70 08:28 26.07.2022
248 Clear 11 1015 72 7000 2.06 70 02:25 26.07.2022
249 Clear 12 1016 71 10000 2.24 134 00:21 26.07.2022
250 Clear 13 1017 68 10000 1.79 132 22:40 25.07.2022
251 Clear 13 1017 64 10000 1.79 142 21:44 25.07.2022
252 Clear 13 1017 62 10000 2.24 158 20:46 25.07.2022
253 Clear 13 1017 63 10000 2.24 141 20:24 25.07.2022
254 Clear 14 1017 59 10000 2.06 120 19:25 25.07.2022
255 Clear 16 1018 46 10000 2.24 191 18:18 25.07.2022
256 Clear 19 1018 40 10000 3.09 160 17:23 25.07.2022
257 Clear 20 1020 38 10000 1.54 0 13:36 25.07.2022
258 Clear 16 1021 55 10000 1.34 131 10:56 25.07.2022
259 Clear 10 1022 75 10000 2.24 124 08:22 25.07.2022
260 Clear 11 1024 77 10000 4.02 193 01:44 25.07.2022
261 Clear 12 1026 78 10000 2.57 230 23:46 24.07.2022
262 Clear 13 1026 75 10000 4.47 221 22:49 24.07.2022
263 Clear 13 1026 75 10000 5.81 211 22:24 24.07.2022
264 Clear 13 1026 71 10000 4.92 192 21:18 24.07.2022
265 Clear 14 1026 71 10000 5.36 181 20:45 24.07.2022
266 Clear 14 1026 68 10000 4.47 216 19:37 24.07.2022
267 Clear 15 1026 66 10000 4.47 201 18:27 24.07.2022
268 Clear 18 1028 52 10000 6.69 170 15:57 24.07.2022
269 Clear 18 1027 50 10000 6.69 170 15:31 24.07.2022
270 Clear 18 1028 51 10000 5.66 140 13:51 24.07.2022
271 Clear 17 1029 52 10000 7.72 140 12:50 24.07.2022
272 Clear 16 1030 58 10000 6.69 140 11:35 24.07.2022
273 Clouds 15 1030 64 10000 7.2 150 10:26 24.07.2022
274 Clear 11 1029 75 10000 4.12 160 08:29 24.07.2022
275 Clear 10 1029 75 10000 4.12 160 07:44 24.07.2022
276 Clear 11 1028 73 10000 5.14 160 03:35 24.07.2022
277 Clouds 12 1029 68 10000 4.63 150 23:36 23.07.2022
278 Clouds 13 1028 73 10000 6.17 170 20:51 23.07.2022
279 Clouds 12 1028 74 10000 4.63 160 19:31 23.07.2022
280 Clouds 13 1027 70 10000 6.69 180 18:49 23.07.2022
281 Clouds 14 1026 69 10000 8.23 170 17:28 23.07.2022
282 Clouds 15 1026 67 10000 6.17 170 16:30 23.07.2022
283 Clouds 15 1025 65 10000 2.24 236 15:22 23.07.2022
284 Clouds 15 1025 65 10000 7.72 170 14:55 23.07.2022
285 Clouds 15 1025 63 10000 7.72 170 14:24 23.07.2022
286 Clouds 15 1025 63 10000 5.66 190 12:22 23.07.2022
287 Clouds 14 1025 79 10000 3.6 210 10:44 23.07.2022
288 Rain 12 1024 87 10000 2.57 200 09:53 23.07.2022
289 Rain 12 1023 89 10000 1.34 167 08:30 23.07.2022
290 Rain 12 1021 90 10000 1.54 40 03:38 23.07.2022
291 Rain 13 1020 91 10000 3.09 50 00:39 23.07.2022
292 Rain 14 1019 86 10000 4.12 20 21:41 22.07.2022
293 Clouds 14 1019 83 10000 3.6 20 20:39 22.07.2022
294 Clouds 14 1019 83 10000 4.12 360 19:32 22.07.2022
295 Clouds 15 1019 79 10000 1.79 301 18:23 22.07.2022
296 Clouds 16 1019 70 10000 5.14 320 16:46 22.07.2022
297 Clouds 17 1018 67 10000 3.13 284 14:20 22.07.2022
298 Clear 14 1021 82 10000 2.57 60 10:41 22.07.2022
299 Mist 11 1021 87 4000 2.06 60 09:25 22.07.2022
300 Mist 10 1021 84 5000 2.57 40 08:27 22.07.2022
301 Clear 10 1020 85 10000 1.54 30 04:48 22.07.2022
302 Clear 12 1022 81 10000 1.79 131 23:45 21.07.2022
303 Clear 12 1022 80 10000 3.09 220 22:25 21.07.2022
304 Clear 12 1023 85 10000 2.06 160 20:48 21.07.2022
305 Clear 13 1023 79 10000 2.57 170 19:23 21.07.2022
306 Clear 15 1023 73 10000 4.12 140 17:39 21.07.2022
307 Clouds 15 1023 71 10000 1.79 115 17:19 21.07.2022
308 Clear 17 1024 58 10000 1.34 342 14:52 21.07.2022
309 Clear 17 1024 58 10000 1.03 0 14:24 21.07.2022
310 Clear 16 1026 57 10000 2.06 230 12:27 21.07.2022
311 Clear 14 1027 63 10000 1.54 20 10:48 21.07.2022
312 Clear 10 1027 77 10000 1.54 40 09:18 21.07.2022
313 Clear 9 1027 74 10000 1.54 60 08:45 21.07.2022
314 Clear 12 1027 58 10000 3.09 60 07:23 21.07.2022
315 Clear 8 1026 78 10000 2.57 40 03:55 21.07.2022
316 Clear 8 1027 79 10000 1.03 0 23:26 20.07.2022
317 Clear 9 1027 65 10000 1.54 0 22:21 20.07.2022
318 Clear 10 1027 67 10000 2.57 210 20:51 20.07.2022
319 Clear 11 1026 65 10000 2.57 190 19:49 20.07.2022
320 Clear 11 1026 64 10000 2.57 190 19:20 20.07.2022
321 Clouds 12 1026 61 10000 4.12 180 18:33 20.07.2022
322 Clouds 13 1025 58 10000 5.14 180 17:54 20.07.2022
323 Clouds 15 1025 55 10000 5.14 170 16:19 20.07.2022
324 Clouds 16 1025 52 10000 5.66 190 15:31 20.07.2022
325 Clouds 16 1026 55 10000 4.63 210 13:57 20.07.2022
326 Clouds 15 1027 65 10000 4.63 220 11:33 20.07.2022
327 Clouds 11 1026 81 10000 3.6 190 08:46 20.07.2022
328 Clouds 10 1026 83 10000 2.57 160 03:25 20.07.2022
329 Clouds 10 1026 83 10000 3.13 186 00:48 20.07.2022
330 Clouds 11 1026 82 10000 2.68 212 23:41 19.07.2022
331 Clouds 11 1026 81 10000 3.6 170 22:31 19.07.2022
332 Clouds 12 1025 76 10000 3.09 170 21:23 19.07.2022
333 Clouds 12 1025 77 10000 4.12 170 20:28 19.07.2022
334 Clouds 13 1024 73 10000 5.14 180 18:44 19.07.2022
335 Clouds 14 1023 69 10000 7.2 180 17:58 19.07.2022
336 Clouds 15 1022 64 10000 6.69 180 16:37 19.07.2022
337 Clouds 16 1021 61 10000 7.2 180 14:53 19.07.2022
338 Clouds 16 1022 58 10000 6.17 180 11:43 19.07.2022
339 Clouds 16 1022 63 10000 3.13 224 10:52 19.07.2022
340 Clouds 14 1020 72 10000 2.57 230 09:23 19.07.2022
341 Clouds 12 1020 78 10000 2.68 170 08:38 19.07.2022
342 Clear 12 1019 80 10000 2.24 202 07:19 19.07.2022
343 Clouds 13 1019 81 10000 3.6 180 05:28 19.07.2022
344 Clouds 13 1019 79 10000 5.14 200 04:55 19.07.2022
345 Clear 12 1019 81 10000 3.09 240 01:19 19.07.2022
346 Clear 13 1019 80 10000 3.09 220 23:47 18.07.2022
347 Clear 12 1019 80 10000 3.58 155 23:18 18.07.2022
348 Clouds 12 1019 82 10000 3.58 195 22:18 18.07.2022
349 Clouds 13 1019 82 10000 4.12 180 20:51 18.07.2022
350 Clouds 13 1019 82 10000 4.63 180 19:33 18.07.2022
351 Clouds 15 1019 79 10000 4.12 170 17:38 18.07.2022
352 Clouds 15 1018 81 10000 5.14 180 15:57 18.07.2022
353 Rain 15 1018 84 10000 5.14 180 15:18 18.07.2022
354 Rain 16 1019 84 10000 4.63 180 13:24 18.07.2022
355 Clouds 16 1020 83 10000 3.09 40 11:31 18.07.2022
356 Rain 14 1020 88 10000 3.09 30 09:43 18.07.2022
357 Clouds 14 1019 90 10000 5.14 30 07:45 18.07.2022
358 Clouds 14 1019 89 10000 5.66 20 02:21 18.07.2022
359 Clouds 14 1018 88 10000 4.12 360 22:51 17.07.2022
360 Clouds 14 1018 88 10000 4.12 360 22:25 17.07.2022
361 Clouds 15 1018 88 10000 5.14 350 21:26 17.07.2022
362 Clouds 15 1018 87 10000 5.66 340 20:44 17.07.2022
363 Clouds 15 1018 87 10000 6.69 340 19:49 17.07.2022
364 Clouds 15 1017 87 10000 6.69 340 19:20 17.07.2022
365 Clear 16 1016 83 10000 6.17 310 17:39 17.07.2022
366 Clear 17 1016 78 10000 6.69 320 16:53 17.07.2022
367 Clear 17 1015 78 10000 6.69 320 16:27 17.07.2022
368 Clear 18 1015 75 10000 6.17 310 15:37 17.07.2022
369 Clear 18 1016 72 10000 5.14 320 13:51 17.07.2022
370 Clouds 17 1017 77 10000 6.69 340 12:40 17.07.2022
371 Clear 17 1017 71 10000 3.58 341 10:18 17.07.2022
372 Clear 16 1015 54 10000 3.13 305 06:58 17.07.2022
373 Clear 16 1015 51 10000 4.12 40 02:34 17.07.2022
374 Clear 17 1016 54 10000 3.6 360 23:23 16.07.2022
375 Clear 17 1017 58 10000 3.6 10 21:59 16.07.2022
376 Clear 16 1017 62 10000 2.57 40 20:28 16.07.2022
377 Clear 19 1017 54 10000 3.09 330 18:54 16.07.2022
378 Clear 24 1017 35 10000 2.68 295 17:25 16.07.2022
379 Clear 24 1017 35 10000 4.63 360 15:54 16.07.2022
380 Clear 23 1019 42 10000 5.14 30 12:26 16.07.2022
381 Clear 18 1020 64 10000 4.63 30 10:18 16.07.2022
382 Clear 14 1020 80 10000 1.03 0 09:25 16.07.2022
383 Clear 12 1019 78 10000 0.51 0 08:40 16.07.2022
384 Clear 12 1019 79 10000 2.06 70 06:57 16.07.2022
385 Clouds 12 1019 84 7000 1.34 132 03:33 16.07.2022
386 Fog 13 1020 88 200 1.03 0 00:23 16.07.2022
387 Fog 13 1021 84 1500 1.79 137 22:54 15.07.2022
388 Clear 13 1021 89 10000 1.34 134 22:24 15.07.2022
389 Clouds 14 1021 87 9000 1.79 143 20:40 15.07.2022
390 Clear 16 1021 79 10000 3.58 217 18:55 15.07.2022
391 Clear 15 1022 79 10000 3.13 176 18:23 15.07.2022
392 Clear 18 1022 68 10000 2.24 207 16:53 15.07.2022
393 Clear 19 1022 60 10000 3.6 220 14:19 15.07.2022
394 Clear 17 1024 68 10000 3.09 210 12:28 15.07.2022
395 Clear 16 1025 76 10000 4.47 141 10:52 15.07.2022
396 Mist 11 1025 86 4000 2.68 139 07:48 15.07.2022
397 Clear 12 1025 82 10000 3.09 230 03:41 15.07.2022
398 Clear 13 1026 82 7000 2.57 220 00:40 15.07.2022
399 Clear 12 1026 83 6000 2.06 210 23:24 14.07.2022
400 Mist 12 1027 86 5000 2.06 200 22:24 14.07.2022
401 Mist 12 1027 88 4000 1.54 170 21:40 14.07.2022
402 Mist 13 1027 88 4000 1.54 170 21:21 14.07.2022
403 Mist 13 1027 88 2500 2.06 150 20:43 14.07.2022
404 Mist 13 1026 88 2500 2.06 150 20:18 14.07.2022
405 Clouds 15 1026 80 10000 2.57 140 18:24 14.07.2022
406 Clouds 17 1025 69 10000 3.6 150 16:19 14.07.2022
407 Clouds 18 1025 65 10000 2.06 250 15:26 14.07.2022
408 Clouds 18 1026 69 10000 2.68 0 13:51 14.07.2022
409 Clouds 17 1026 80 10000 2.24 313 12:36 14.07.2022
410 Clouds 15 1026 89 10000 2.57 20 11:28 14.07.2022
411 Clouds 15 1026 94 10000 2.06 350 10:58 14.07.2022
412 Rain 14 1025 96 5000 2.06 330 09:29 14.07.2022
413 Drizzle 14 1023 94 10000 3.6 340 05:18 14.07.2022
414 Drizzle 14 1023 93 7000 8.23 340 01:22 14.07.2022
415 Drizzle 14 1023 93 7000 8.23 340 01:21 14.07.2022
416 Drizzle 14 1023 93 6000 7.2 340 00:51 14.07.2022
417 Drizzle 13 1023 93 7000 7.2 350 22:31 13.07.2022
418 Rain 13 1023 93 4000 6.17 350 21:47 13.07.2022
419 Rain 13 1023 92 9000 7.2 340 20:44 13.07.2022
420 Rain 13 1022 91 10000 7.2 350 18:48 13.07.2022
421 Rain 14 1022 88 10000 9.26 340 17:34 13.07.2022
422 Rain 14 1023 83 7000 8.23 320 16:19 13.07.2022
423 Rain 16 1022 71 10000 7.2 360 14:54 13.07.2022
424 Clouds 15 1023 71 10000 9.77 360 11:56 13.07.2022
425 Clouds 15 1024 75 10000 8.75 350 10:45 13.07.2022
426 Clouds 14 1024 76 10000 6.69 20 09:56 13.07.2022
427 Clouds 14 1024 77 10000 6.69 20 09:20 13.07.2022
428 Clouds 12 1022 86 10000 6.17 20 05:29 13.07.2022
429 Clear 11 1024 92 10000 0.89 327 01:27 13.07.2022
430 Clear 12 1023 88 10000 3.09 50 23:39 12.07.2022
431 Clear 13 1024 85 10000 3.09 340 21:54 12.07.2022
432 Clear 13 1024 82 10000 0.45 351 21:18 12.07.2022
433 Clear 12 1024 88 10000 4.63 340 20:41 12.07.2022
434 Clouds 14 1023 76 10000 4.63 330 18:56 12.07.2022
435 Clouds 14 1024 75 10000 4.63 310 17:49 12.07.2022
436 Clouds 17 1024 68 10000 5.14 310 15:43 12.07.2022
437 Clouds 16 1025 72 10000 4.63 300 14:30 12.07.2022
438 Clouds 16 1027 76 10000 3.09 290 12:29 12.07.2022
439 Clouds 14 1027 84 10000 2.06 320 11:22 12.07.2022
440 Clouds 13 1027 87 10000 2.06 10 09:28 12.07.2022
441 Clouds 11 1026 90 10000 3.6 30 08:19 12.07.2022
442 Drizzle 11 1026 93 4500 2.06 30 06:29 12.07.2022
443 Drizzle 11 1026 93 10000 3.6 10 05:39 12.07.2022
444 Clouds 12 1026 92 10000 4.12 40 02:21 12.07.2022
445 Rain 12 1025 92 10000 4.12 20 23:18 11.07.2022
446 Rain 12 1025 92 10000 4.12 20 22:30 11.07.2022
447 Drizzle 12 1025 89 6000 4.12 310 20:33 11.07.2022
448 Drizzle 13 1024 83 10000 4.63 350 19:36 11.07.2022
449 Rain 14 1023 77 10000 5.66 340 18:32 11.07.2022
450 Rain 14 1022 74 10000 7.2 320 17:46 11.07.2022
451 Rain 15 1021 68 10000 6.17 320 16:19 11.07.2022
452 Clouds 15 1021 64 10000 7.2 330 14:41 11.07.2022
453 Clouds 14 1023 72 10000 8.23 350 11:58 11.07.2022
454 Clouds 13 1022 76 10000 7.2 360 10:35 11.07.2022
455 Clouds 13 1022 80 10000 7.2 350 09:43 11.07.2022
456 Clouds 12 1021 82 10000 5.66 360 08:34 11.07.2022
457 Rain 12 1021 86 10000 4.12 360 05:52 11.07.2022
458 Clear 10 1021 90 10000 1.54 10 00:22 11.07.2022
459 Clear 11 1021 89 10000 0.45 260 22:58 10.07.2022
460 Clear 11 1021 89 10000 0.89 197 21:55 10.07.2022
461 Clouds 12 1021 88 10000 3.09 200 20:54 10.07.2022
462 Clouds 12 1021 89 10000 4.12 190 19:50 10.07.2022
463 Clouds 12 1021 89 10000 4.12 190 19:50 10.07.2022
464 Clouds 13 1020 87 10000 5.66 200 18:50 10.07.2022
465 Clouds 14 1020 85 10000 6.69 190 17:40 10.07.2022
466 Clouds 14 1019 84 10000 7.72 170 16:57 10.07.2022
467 Clouds 15 1019 80 10000 7.72 170 16:19 10.07.2022
468 Clouds 15 1019 79 10000 8.75 170 14:33 10.07.2022
469 Rain 14 1019 87 10000 6.69 170 12:33 10.07.2022
470 Clouds 14 1018 88 10000 4.47 190 11:34 10.07.2022
471 Clouds 13 1017 93 10000 1.03 350 08:46 10.07.2022
472 Clouds 12 1017 92 10000 1.03 350 08:24 10.07.2022
473 Rain 13 1015 88 10000 3.6 20 03:38 10.07.2022
474 Clouds 14 1015 85 10000 5.66 10 23:32 09.07.2022
475 Clouds 14 1015 86 10000 6.17 10 22:26 09.07.2022
476 Clouds 14 1015 86 10000 6.17 10 22:26 09.07.2022
477 Clouds 14 1015 89 10000 4.12 10 21:31 09.07.2022
478 Rain 14 1014 89 10000 6.69 350 18:59 09.07.2022
479 Rain 14 1013 89 10000 6.69 350 18:22 09.07.2022
480 Rain 15 1012 82 10000 8.23 360 16:59 09.07.2022
481 Rain 16 1013 77 10000 8.23 10 15:54 09.07.2022
482 Clouds 16 1012 77 10000 8.23 10 15:35 09.07.2022
483 Clouds 15 1013 75 10000 6.69 30 13:54 09.07.2022
484 Clouds 16 1014 72 10000 5.66 20 13:28 09.07.2022
485 Clear 16 1012 61 10000 6.17 360 11:34 09.07.2022
486 Clear 15 1012 58 10000 5.66 360 10:24 09.07.2022
487 Clear 15 1010 59 10000 2.57 10 09:23 09.07.2022
488 Clear 15 1009 61 10000 4.63 40 07:00 09.07.2022
489 Clear 13 1011 67 10000 3.09 20 04:38 09.07.2022
490 Clear 12 1015 77 10000 0 0 23:33 08.07.2022
491 Clear 12 1014 77 10000 1.54 80 22:18 08.07.2022
492 Clear 14 1015 74 10000 1.34 150 21:21 08.07.2022
493 Clear 13 1015 75 10000 1.54 150 20:35 08.07.2022
494 Clear 15 1016 67 10000 2.06 180 18:45 08.07.2022
495 Clear 16 1017 66 10000 3.09 170 17:45 08.07.2022
496 Clear 19 1016 56 10000 2.06 170 16:24 08.07.2022
497 Clear 20 1017 49 10000 1.03 0 14:50 08.07.2022
498 Clear 18 1019 62 10000 2.24 123 12:42 08.07.2022
499 Clear 16 1021 75 10000 2.57 200 10:47 08.07.2022
500 Clear 14 1021 82 10000 1.79 200 09:58 08.07.2022
501 Clear 13 1021 84 10000 3.6 220 07:53 08.07.2022
502 Mist 12 1021 87 3500 1.34 179 05:37 08.07.2022
503 Clouds 14 1023 88 10000 1.79 165 00:40 08.07.2022
504 Clouds 14 1023 93 10000 1.54 360 22:52 07.07.2022
505 Clouds 14 1023 86 10000 2.06 330 21:48 07.07.2022
506 Rain 14 1023 92 10000 2.06 320 19:34 07.07.2022
507 Rain 15 1022 83 10000 5.14 310 17:50 07.07.2022
508 Rain 15 1022 77 10000 6.69 310 16:23 07.07.2022
509 Rain 15 1022 76 10000 6.69 310 14:21 07.07.2022
510 Rain 15 1023 74 10000 5.14 20 12:43 07.07.2022
511 Rain 15 1022 74 10000 2.24 0 12:23 07.07.2022
512 Clouds 14 1023 74 10000 7.2 10 11:33 07.07.2022
513 Rain 14 1023 76 10000 6.69 10 10:45 07.07.2022
514 Rain 14 1023 76 10000 6.69 10 10:27 07.07.2022
515 Rain 13 1023 77 10000 2.06 20 09:32 07.07.2022
516 Clouds 12 1021 78 10000 8.23 20 06:26 07.07.2022
517 Clouds 12 1020 75 10000 1.79 23 00:28 07.07.2022
518 Clouds 12 1021 77 10000 1.79 332 23:36 06.07.2022
519 Clouds 12 1021 78 10000 1.79 337 23:18 06.07.2022
520 Clear 12 1021 79 10000 5.14 350 22:51 06.07.2022
521 Clear 12 1021 79 10000 5.14 350 22:51 06.07.2022
522 Clear 12 1021 78 10000 5.14 350 22:33 06.07.2022
523 Clear 13 1021 74 10000 5.14 330 20:23 06.07.2022
524 Clear 13 1021 75 10000 5.66 330 19:18 06.07.2022
525 Clouds 14 1020 72 10000 5.14 340 17:21 06.07.2022
526 Clouds 15 1020 67 10000 5.66 330 15:55 06.07.2022
527 Clear 15 1022 71 10000 5.66 20 12:44 06.07.2022
528 Clear 14 1023 76 10000 5.14 30 11:52 06.07.2022
529 Clear 12 1024 87 10000 3.6 50 10:54 06.07.2022
530 Clouds 10 1024 90 10000 2.06 350 09:25 06.07.2022
531 Fog 9 1022 88 500 4.63 50 07:44 06.07.2022
532 Clouds 9 1023 88 8000 4.12 50 06:44 06.07.2022
533 Mist 10 1024 89 5000 2.06 40 00:24 06.07.2022
534 Clear 10 1024 91 10000 2.06 10 22:43 05.07.2022
535 Clear 12 1024 92 10000 1.54 0 20:49 05.07.2022
536 Clear 13 1024 85 10000 1.79 193 20:21 05.07.2022
537 Clouds 13 1023 87 10000 1.79 197 19:37 05.07.2022
538 Clouds 15 1023 72 10000 3.09 240 17:50 05.07.2022
539 Clouds 16 1023 66 10000 3.09 240 17:19 05.07.2022
540 Clouds 16 1023 66 10000 2.06 240 16:18 05.07.2022
541 Clouds 17 1022 63 10000 3.09 200 14:54 05.07.2022
542 Clear 17 1023 60 10000 2.06 220 13:34 05.07.2022
543 Clear 17 1023 61 10000 2.24 145 12:22 05.07.2022
544 Clear 15 1022 71 10000 2.68 226 10:45 05.07.2022
545 Clear 14 1022 78 10000 1.34 309 09:52 05.07.2022
546 Clear 10 1020 84 10000 1.03 0 08:21 05.07.2022
547 Clear 12 1020 80 10000 3.13 264 06:51 05.07.2022
548 Clear 13 1020 75 10000 5.14 190 04:35 05.07.2022
549 Clear 13 1020 72 10000 4.47 192 01:26 05.07.2022
550 Clear 14 1021 76 10000 4.63 210 23:37 04.07.2022
551 Clear 13 1021 77 10000 5.66 200 22:55 04.07.2022
552 Clear 13 1021 77 10000 5.66 200 22:18 04.07.2022
553 Clear 14 1020 68 10000 4.12 190 20:56 04.07.2022
554 Clear 14 1020 69 10000 4.12 190 20:36 04.07.2022
555 Clear 14 1020 72 10000 3.6 190 19:56 04.07.2022
556 Clear 13 1020 81 10000 2.57 170 19:37 04.07.2022
557 Clear 14 1020 76 10000 2.06 150 18:35 04.07.2022
558 Clouds 16 1021 61 10000 1.54 0 16:51 04.07.2022
559 Clouds 18 1021 56 10000 2.57 320 15:35 04.07.2022
560 Clouds 17 1022 53 10000 1.79 326 13:44 04.07.2022
561 Clear 17 1022 59 10000 2.06 360 12:42 04.07.2022
562 Clear 14 1023 77 10000 4.12 30 10:40 04.07.2022
563 Clear 14 1023 80 10000 4.12 30 10:22 04.07.2022
564 Clouds 11 1023 87 10000 3.6 40 08:33 04.07.2022
565 Clouds 10 1023 92 10000 4.63 20 06:26 04.07.2022
566 Clouds 11 1023 91 10000 4.63 30 01:49 04.07.2022
567 Clouds 11 1023 90 10000 1.54 90 23:39 03.07.2022
568 Clouds 12 1023 87 10000 1.54 0 22:29 03.07.2022
569 Clouds 12 1022 89 10000 2.57 60 20:45 03.07.2022
570 Clouds 12 1022 86 10000 1.54 0 19:43 03.07.2022
571 Clouds 13 1022 86 10000 1.79 316 19:24 03.07.2022
572 Clouds 13 1021 86 10000 4.12 340 18:23 03.07.2022
573 Clouds 14 1020 81 10000 7.2 330 17:31 03.07.2022
574 Clouds 15 1019 77 10000 5.66 320 15:26 03.07.2022
575 Clouds 14 1020 78 10000 4.12 300 14:53 03.07.2022
576 Rain 14 1020 82 10000 4.63 310 13:50 03.07.2022
577 Rain 13 1020 84 10000 6.17 340 12:44 03.07.2022
578 Rain 12 1020 85 10000 4.63 330 11:47 03.07.2022
579 Rain 13 1020 83 10000 4.63 350 10:51 03.07.2022
580 Rain 13 1020 82 10000 4.63 350 10:33 03.07.2022
581 Clouds 12 1018 90 10000 3.58 327 07:38 03.07.2022
582 Rain 12 1018 90 10000 5.66 340 06:34 03.07.2022
583 Rain 14 1017 82 10000 6.17 340 00:38 03.07.2022
584 Rain 13 1017 86 10000 6.17 340 23:36 02.07.2022
585 Clouds 13 1016 86 10000 5.66 330 22:31 02.07.2022
586 Rain 14 1016 86 10000 6.69 300 20:26 02.07.2022
587 Rain 14 1015 85 10000 7.72 330 19:49 02.07.2022
588 Clouds 15 1014 77 10000 3.13 343 18:24 02.07.2022
589 Clouds 15 1014 78 10000 8.23 330 17:38 02.07.2022
590 Clouds 15 1013 82 10000 10.29 330 15:56 02.07.2022
591 Rain 15 1013 83 10000 10.8 340 13:35 02.07.2022
592 Rain 16 1014 83 2500 11.32 340 11:49 02.07.2022
593 Rain 16 1013 83 10000 9.77 360 10:51 02.07.2022
594 Rain 15 1013 83 10000 10.29 360 10:21 02.07.2022
595 Rain 15 1013 82 10000 12.35 360 08:37 02.07.2022
596 Rain 15 1013 84 10000 12.35 360 08:19 02.07.2022
597 Clouds 16 1012 81 10000 8.75 330 02:59 02.07.2022
598 Clouds 17 1012 67 10000 8.23 330 00:28 02.07.2022
599 Clouds 17 1012 65 10000 7.2 340 23:26 01.07.2022
600 Clear 17 1012 64 10000 5.66 350 22:33 01.07.2022
601 Clear 18 1011 61 10000 8.23 340 21:38 01.07.2022
602 Clear 18 1011 58 10000 7.2 350 20:58 01.07.2022
603 Clear 18 1012 58 10000 7.2 350 20:34 01.07.2022
604 Clear 19 1012 54 10000 7.72 350 19:38 01.07.2022
605 Clouds 20 1012 52 10000 3.58 23 17:18 01.07.2022
606 Clear 23 1012 37 10000 8.23 350 14:34 01.07.2022
607 Clear 24 1012 34 10000 8.75 360 13:54 01.07.2022
608 Clear 21 1013 41 10000 5.66 40 11:22 01.07.2022
609 Clouds 21 1013 40 10000 2.68 23 10:19 01.07.2022
610 Clear 17 1013 52 10000 3.6 80 07:38 01.07.2022
611 Clear 19 1015 42 10000 3.13 309 02:43 01.07.2022
612 Clear 19 1016 40 10000 2.57 40 00:22 01.07.2022
613 Clear 18 1017 44 10000 4.63 20 22:52 30.06.2022
614 Clear 19 1017 42 10000 4.63 20 22:32 30.06.2022
615 Clear 20 1018 40 10000 4.12 30 21:55 30.06.2022
616 Clear 19 1017 44 10000 2.06 40 20:58 30.06.2022
617 Clear 20 1018 41 10000 2.06 40 20:22 30.06.2022
618 Clear 20 1018 42 10000 4.12 340 19:51 30.06.2022
619 Clear 20 1018 41 10000 4.12 340 19:18 30.06.2022
620 Clear 20 1018 41 10000 4.63 30 18:34 30.06.2022
621 Clear 22 1018 39 10000 3.09 320 17:37 30.06.2022
622 Clear 23 1018 36 10000 4.63 310 16:28 30.06.2022
623 Clear 24 1019 31 10000 8.23 10 14:47 30.06.2022
624 Clear 24 1020 31 10000 8.75 20 13:30 30.06.2022
625 Clear 24 1021 32 10000 7.72 30 12:34 30.06.2022
626 Clear 21 1022 37 10000 7.2 30 11:28 30.06.2022
627 Clear 19 1023 43 10000 6.17 40 09:53 30.06.2022
628 Clear 17 1023 50 10000 6.17 40 09:31 30.06.2022
629 Clear 16 1023 54 10000 4.12 60 07:41 30.06.2022
630 Clear 13 1023 63 10000 1.54 0 05:47 30.06.2022
631 Clear 15 1024 60 10000 2.06 40 00:31 30.06.2022
632 Clear 16 1024 60 10000 3.6 40 23:21 29.06.2022
633 Clear 16 1024 57 10000 3.6 40 22:39 29.06.2022
634 Clear 18 1025 55 10000 2.06 40 21:34 29.06.2022
635 Clear 18 1025 53 10000 1.54 0 20:33 29.06.2022
636 Clear 18 1025 56 10000 1.54 360 19:37 29.06.2022
637 Clear 21 1026 45 10000 3.6 330 17:43 29.06.2022
638 Clear 24 1025 33 10000 4.12 320 16:37 29.06.2022
639 Clear 26 1026 29 10000 4.63 340 14:56 29.06.2022
640 Clear 24 1026 34 10000 6.17 20 12:40 29.06.2022
641 Clear 21 1028 39 10000 4.12 30 10:56 29.06.2022
642 Clear 18 1027 49 10000 3.09 40 09:32 29.06.2022
643 Clear 16 1027 49 10000 4.12 60 07:44 29.06.2022
644 Clear 17 1027 49 10000 3.09 30 04:54 29.06.2022
645 Clear 16 1027 52 10000 3.09 40 00:58 29.06.2022
646 Clear 17 1027 52 10000 3.09 40 00:36 29.06.2022
647 Clear 16 1028 56 10000 3.09 50 22:54 28.06.2022
648 Clear 17 1027 54 10000 3.09 50 22:30 28.06.2022
649 Clear 17 1027 55 10000 3.09 50 21:54 28.06.2022
650 Clear 17 1027 53 10000 3.09 50 21:32 28.06.2022
651 Clear 19 1027 47 10000 1.54 60 20:35 28.06.2022
652 Clear 20 1027 39 10000 2.06 30 19:34 28.06.2022
653 Clear 20 1026 45 10000 3.09 360 18:46 28.06.2022
654 Clear 22 1027 40 10000 3.6 300 17:40 28.06.2022
655 Clear 25 1026 32 10000 5.14 20 15:59 28.06.2022
656 Clear 25 1026 31 10000 5.14 20 15:38 28.06.2022
657 Clear 25 1026 31 10000 7.2 20 14:21 28.06.2022
658 Clear 25 1026 31 10000 7.2 20 14:21 28.06.2022
659 Clear 25 1027 33 10000 5.14 10 13:52 28.06.2022
660 Clear 25 1028 32 10000 5.14 20 12:57 28.06.2022
661 Clear 23 1029 30 10000 3.6 350 11:18 28.06.2022
662 Clear 16 1029 59 10000 2.06 30 09:30 28.06.2022
663 Clear 15 1029 44 10000 4.12 30 08:44 28.06.2022
664 Clear 17 1028 50 10000 4.63 30 07:42 28.06.2022
665 Clear 14 1028 59 10000 4.12 40 06:56 28.06.2022
666 Clear 14 1030 63 10000 3.6 70 00:58 28.06.2022
667 Clear 16 1029 60 10000 2.06 80 23:41 27.06.2022
668 Clear 15 1029 58 10000 3.09 60 22:52 27.06.2022
669 Clear 15 1029 60 10000 1.03 80 21:38 27.06.2022
670 Clear 15 1029 62 10000 1.79 153 20:52 27.06.2022
671 Clear 16 1028 59 10000 1.34 136 19:33 27.06.2022
672 Clear 18 1028 53 10000 3.09 170 18:26 27.06.2022
673 Clear 22 1029 46 10000 2.57 150 16:27 27.06.2022
674 Clear 25 1028 37 10000 2.06 150 15:23 27.06.2022
675 Clear 23 1029 43 10000 1.54 0 13:39 27.06.2022
676 Clear 22 1030 44 10000 2.06 170 12:56 27.06.2022
677 Clear 16 1032 75 10000 2.24 125 10:35 27.06.2022
678 Clear 13 1030 73 10000 2.24 181 09:21 27.06.2022
679 Clear 11 1030 77 10000 1.79 158 08:30 27.06.2022
680 Clear 9 1030 84 10000 2.06 0 07:38 27.06.2022
681 Fog 11 1030 81 300 2.24 166 03:58 27.06.2022
682 Fog 12 1031 79 6000 1.54 0 01:18 27.06.2022
683 Clear 14 1030 79 10000 4.02 172 22:22 26.06.2022
684 Clear 15 1030 72 10000 4.12 210 20:53 26.06.2022
685 Clear 14 1030 75 10000 4.63 210 19:44 26.06.2022
686 Clear 16 1030 68 10000 2.57 230 18:32 26.06.2022
687 Clear 17 1030 65 10000 4.12 230 17:22 26.06.2022
688 Clear 18 1031 66 10000 6.69 200 15:27 26.06.2022
689 Clear 17 1032 66 10000 7.72 200 13:55 26.06.2022
690 Clear 17 1032 67 10000 7.72 200 13:23 26.06.2022
691 Clear 16 1033 72 10000 5.81 123 11:27 26.06.2022
692 Clear 15 1033 76 10000 4.92 224 10:28 26.06.2022
693 Clear 14 1032 77 10000 4.92 227 09:39 26.06.2022
694 Clear 11 1032 86 10000 3.09 240 07:45 26.06.2022
695 Clear 12 1030 79 10000 2.24 172 03:19 26.06.2022
696 Clear 12 1030 86 10000 2.06 220 00:36 26.06.2022
697 Clear 12 1030 86 10000 2.06 220 00:18 26.06.2022
698 Clear 13 1030 85 10000 3.6 230 23:24 25.06.2022
699 Clear 13 1031 79 10000 4.12 230 22:28 25.06.2022
700 Clear 13 1031 82 10000 4.63 230 21:50 25.06.2022
701 Clear 14 1031 78 10000 4.63 230 21:20 25.06.2022
702 Clear 14 1031 81 10000 5.81 207 20:30 25.06.2022
703 Clear 14 1031 78 10000 5.14 210 19:55 25.06.2022
704 Clear 14 1031 78 10000 5.14 210 19:55 25.06.2022
705 Clear 14 1031 78 10000 5.14 210 19:55 25.06.2022
706 Clear 14 1030 78 10000 3.09 190 18:21 25.06.2022
707 Clear 15 1030 70 10000 6.17 190 17:25 25.06.2022
708 Clear 16 1030 68 10000 6.69 190 16:24 25.06.2022
709 Clear 17 1030 61 10000 5.66 180 13:51 25.06.2022
710 Clear 17 1032 64 10000 5.14 190 12:39 25.06.2022
711 Clouds 16 1032 68 10000 6.17 170 11:34 25.06.2022
712 Clear 12 1032 76 6000 1.34 246 09:24 25.06.2022
713 Fog 11 1031 77 3000 0.89 147 08:48 25.06.2022
714 Fog 10 1031 79 3000 1.34 174 08:20 25.06.2022
715 Clear 11 1029 82 10000 2.57 190 05:26 25.06.2022
716 Clear 13 1030 75 10000 2.68 169 00:44 25.06.2022
717 Clear 13 1030 75 10000 2.68 169 00:44 25.06.2022
718 Clear 13 1030 75 10000 4.12 200 23:32 24.06.2022
719 Clear 13 1031 77 10000 4.63 190 21:59 24.06.2022
720 Clear 14 1031 73 10000 4.92 206 21:21 24.06.2022
721 Clear 14 1031 74 10000 5.14 190 20:22 24.06.2022
722 Clear 14 1030 72 10000 5.14 190 19:23 24.06.2022
723 Clear 14 1030 69 10000 6.17 180 18:50 24.06.2022
724 Clear 14 1030 69 10000 6.17 180 18:30 24.06.2022
725 Clear 15 1030 68 10000 8.75 180 17:46 24.06.2022
726 Clear 16 1030 66 10000 7.72 180 16:32 24.06.2022
727 Clear 17 1030 59 10000 5.66 190 14:29 24.06.2022
728 Clear 17 1030 57 10000 6.69 180 13:55 24.06.2022
729 Clear 17 1031 56 10000 6.17 170 12:26 24.06.2022
730 Clear 16 1031 58 10000 7.72 150 11:40 24.06.2022
731 Clear 15 1031 62 10000 5.66 150 10:26 24.06.2022
732 Clouds 14 1031 68 10000 5.14 150 09:41 24.06.2022
733 Clouds 12 1030 71 10000 2.68 167 08:53 24.06.2022
734 Clouds 13 1030 72 10000 5.14 140 07:33 24.06.2022
735 Clouds 13 1030 75 10000 3.09 140 06:42 24.06.2022
736 Clouds 13 1030 74 10000 3.13 94 06:18 24.06.2022
737 Clouds 13 1029 70 10000 2.68 148 03:33 24.06.2022
738 Rain 14 1028 74 10000 9.26 180 22:58 23.06.2022
739 Clouds 14 1028 73 10000 9.26 180 22:40 23.06.2022
740 Clouds 14 1027 67 10000 11.32 180 20:57 23.06.2022
741 Clouds 14 1027 67 10000 11.32 180 20:32 23.06.2022
742 Clouds 14 1026 71 10000 10.29 180 19:33 23.06.2022
743 Clouds 13 1025 85 10000 4.63 160 17:52 23.06.2022
744 Rain 13 1024 87 10000 3.6 140 16:58 23.06.2022
745 Rain 13 1023 83 10000 6.17 140 15:50 23.06.2022
746 Rain 13 1023 81 10000 6.17 140 15:24 23.06.2022
747 Rain 13 1023 80 6000 9.26 200 13:40 23.06.2022
748 Clouds 16 1022 83 10000 2.68 0 11:27 23.06.2022
749 Clouds 16 1021 86 10000 2.24 0 10:37 23.06.2022
750 Clouds 15 1021 92 10000 2.06 160 09:18 23.06.2022
751 Mist 15 1018 95 3000 3.09 340 03:39 23.06.2022
752 Clouds 14 1018 92 6000 2.57 20 00:26 23.06.2022
753 Clouds 14 1018 93 6000 1.03 40 23:41 22.06.2022
754 Mist 14 1018 92 3000 1.54 80 22:41 22.06.2022
755 Clear 15 1018 87 10000 1.03 0 21:22 22.06.2022
756 Clear 15 1018 87 10000 1.03 0 20:43 22.06.2022
757 Clear 15 1018 82 10000 2.57 110 19:56 22.06.2022
758 Clear 16 1017 79 10000 2.06 140 18:47 22.06.2022
759 Clear 19 1017 68 10000 2.57 170 17:28 22.06.2022
760 Clear 21 1017 61 10000 1.79 51 16:29 22.06.2022
761 Clear 21 1017 59 10000 2.57 300 15:26 22.06.2022
762 Clear 21 1017 57 10000 3.09 310 14:21 22.06.2022
763 Clear 21 1017 59 10000 1.54 0 13:41 22.06.2022
764 Clear 21 1018 61 10000 1.54 0 13:23 22.06.2022
765 Clear 20 1020 71 10000 1.03 0 11:50 22.06.2022
766 Clear 20 1020 71 10000 1.03 0 11:50 22.06.2022
767 Clear 18 1020 78 10000 1.54 0 10:57 22.06.2022
768 Clouds 16 1020 83 7000 0.51 0 10:19 22.06.2022
769 Fog 14 1020 85 2000 2.06 60 08:37 22.06.2022
770 Fog 13 1020 90 300 1.34 181 05:38 22.06.2022
771 Mist 15 1022 87 5000 1.79 145 01:39 22.06.2022
772 Clouds 14 1023 90 10000 1.54 80 00:36 22.06.2022
773 Clouds 15 1023 85 10000 2.06 240 22:37 21.06.2022
774 Clear 16 1022 74 10000 3.6 300 19:57 21.06.2022
775 Clear 17 1021 70 10000 3.09 250 18:51 21.06.2022
776 Clouds 17 1020 67 10000 3.09 260 17:40 21.06.2022
777 Clear 19 1019 62 10000 5.14 160 14:42 21.06.2022
778 Clear 17 1020 65 10000 8.23 150 11:55 21.06.2022
779 Clear 16 1022 74 10000 6.69 170 10:20 21.06.2022
780 Clear 14 1022 77 10000 6.71 185 08:50 21.06.2022
781 Clear 14 1022 79 10000 5.36 186 07:35 21.06.2022
782 Clear 12 1022 78 10000 3.6 220 03:21 21.06.2022
783 Clear 14 1022 74 10000 3.09 180 23:27 20.06.2022
784 Clear 14 1023 72 10000 4.02 207 21:58 20.06.2022
785 Clear 14 1023 75 10000 3.6 240 21:31 20.06.2022
786 Clear 16 1022 65 10000 4.47 205 19:57 20.06.2022
787 Clear 16 1021 66 10000 3.6 150 18:54 20.06.2022
788 Clear 17 1021 62 10000 4.02 188 18:24 20.06.2022
789 Clear 17 1021 61 10000 4.02 179 17:40 20.06.2022
790 Clear 18 1021 54 10000 4.63 140 16:21 20.06.2022
791 Clear 19 1021 47 10000 3.6 180 14:29 20.06.2022
792 Clear 17 1024 55 10000 3.6 130 11:46 20.06.2022
793 Clouds 14 1025 68 10000 5.36 129 09:49 20.06.2022
794 Clouds 12 1025 74 10000 4.47 186 08:45 20.06.2022
795 Clouds 12 1025 75 10000 5.36 173 07:35 20.06.2022
796 Clear 13 1025 72 10000 6.17 150 04:30 20.06.2022
797 Clear 12 1025 77 10000 5.66 160 01:32 20.06.2022
798 Clear 12 1026 74 10000 5.14 150 23:48 19.06.2022
799 Clear 12 1026 74 10000 4.63 150 22:19 19.06.2022
800 Clear 13 1025 72 10000 6.69 150 21:42 19.06.2022
801 Clear 13 1025 75 10000 5.14 170 20:49 19.06.2022
802 Clear 13 1025 77 10000 4.63 180 19:49 19.06.2022
803 Clear 13 1025 77 10000 4.63 180 19:25 19.06.2022
804 Clear 14 1024 73 10000 5.66 180 18:32 19.06.2022
805 Clear 14 1024 71 10000 7.2 180 17:43 19.06.2022
806 Clear 15 1023 69 10000 7.2 180 17:20 19.06.2022
807 Clear 16 1023 64 10000 7.2 190 16:28 19.06.2022
808 Clouds 17 1023 57 10000 5.14 180 15:35 19.06.2022
809 Clouds 16 1022 56 10000 4.63 170 14:42 19.06.2022
810 Clouds 17 1023 58 10000 3.09 150 13:52 19.06.2022
811 Clouds 16 1024 65 10000 1.54 0 12:22 19.06.2022
812 Clouds 14 1024 76 10000 2.57 20 10:53 19.06.2022
813 Clouds 11 1023 91 10000 5.14 30 09:31 19.06.2022
814 Clouds 10 1022 94 10000 4.12 50 08:32 19.06.2022
815 Clouds 10 1021 92 10000 3.6 20 07:26 19.06.2022
816 Clouds 9 1020 93 10000 4.12 40 04:27 19.06.2022
817 Rain 11 1019 86 10000 3.6 40 01:28 19.06.2022
818 Clouds 11 1019 84 10000 3.6 340 00:23 19.06.2022
819 Clouds 12 1018 84 10000 3.09 10 23:35 18.06.2022
820 Rain 12 1018 85 10000 2.57 320 22:33 18.06.2022
821 Rain 13 1017 82 10000 2.57 360 20:55 18.06.2022
822 Clouds 13 1016 83 10000 2.57 360 20:24 18.06.2022
823 Rain 14 1016 78 10000 3.6 320 19:25 18.06.2022
824 Rain 14 1015 74 10000 5.14 310 18:44 18.06.2022
825 Clouds 15 1015 67 10000 7.72 290 17:30 18.06.2022
826 Clouds 15 1015 67 10000 7.72 290 17:30 18.06.2022
827 Clouds 15 1015 67 10000 7.72 290 17:30 18.06.2022
828 Clouds 16 1014 64 10000 8.75 290 16:23 18.06.2022
829 Clouds 17 1013 64 10000 4.47 302 15:18 18.06.2022
830 Clouds 17 1013 64 10000 9.77 310 14:42 18.06.2022
831 Clouds 17 1013 66 10000 6.17 310 12:51 18.06.2022
832 Rain 17 1013 64 10000 6.17 290 11:31 18.06.2022
833 Clouds 16 1012 73 10000 4.12 320 10:25 18.06.2022
834 Rain 15 1011 79 7000 5.66 310 09:19 18.06.2022
835 Clouds 14 1010 83 10000 6.17 340 08:18 18.06.2022
836 Rain 14 1009 88 8000 6.69 300 06:26 18.06.2022
837 Rain 14 1007 89 3000 9.77 360 02:54 18.06.2022
838 Rain 14 1007 88 10000 10.8 10 01:24 18.06.2022
839 Rain 14 1007 88 10000 10.8 10 00:42 18.06.2022
840 Rain 14 1008 90 10000 9.77 10 23:45 17.06.2022
841 Rain 13 1008 89 10000 10.8 10 22:55 17.06.2022
842 Rain 14 1009 83 10000 10.8 20 20:42 17.06.2022
843 Clouds 15 1009 78 10000 9.26 360 19:29 17.06.2022
844 Clouds 15 1009 75 10000 6.69 340 18:25 17.06.2022
845 Clouds 16 1008 71 10000 8.75 320 17:34 17.06.2022
846 Clouds 17 1008 69 10000 7.72 310 16:42 17.06.2022
847 Clouds 17 1008 70 10000 9.77 320 15:42 17.06.2022
848 Clear 18 1008 64 10000 6.69 310 14:50 17.06.2022
849 Clear 18 1008 56 10000 6.69 310 14:19 17.06.2022
850 Clear 19 1009 51 10000 5.81 308 13:44 17.06.2022
851 Clear 19 1009 45 10000 6.69 20 12:45 17.06.2022
852 Clear 19 1010 43 10000 7.72 360 11:56 17.06.2022
853 Clear 18 1010 42 10000 7.72 360 11:35 17.06.2022
854 Clear 18 1010 42 10000 5.66 10 10:48 17.06.2022
855 Clear 15 1009 49 10000 5.66 10 08:29 17.06.2022
856 Clear 13 1009 56 10000 6.17 20 06:58 17.06.2022
857 Clear 14 1008 52 10000 5.66 360 05:35 17.06.2022
858 Clear 14 1010 49 10000 5.66 30 02:42 17.06.2022
859 Clear 15 1010 43 10000 4.63 40 00:36 17.06.2022
860 Clear 15 1010 50 10000 3.09 40 22:44 16.06.2022
861 Clear 14 1011 61 10000 1.03 0 21:36 16.06.2022
862 Clouds 14 1011 61 10000 1.34 165 21:18 16.06.2022
863 Clear 14 1011 67 10000 3.6 60 20:36 16.06.2022
864 Clear 14 1012 64 10000 1.54 70 19:55 16.06.2022
865 Clear 14 1012 66 10000 2.06 100 18:28 16.06.2022
866 Clear 15 1012 59 10000 2.06 230 17:43 16.06.2022
867 Clear 17 1013 53 10000 2.06 180 16:40 16.06.2022
868 Clear 18 1014 43 10000 3.6 70 15:24 16.06.2022
869 Clear 18 1014 42 10000 4.12 40 14:46 16.06.2022
870 Clear 18 1016 41 10000 1.34 114 13:45 16.06.2022
871 Clear 16 1017 47 10000 1.34 169 12:37 16.06.2022
872 Clear 15 1018 55 10000 1.54 0 11:53 16.06.2022
873 Clear 14 1019 62 10000 1.54 0 11:18 16.06.2022
874 Rain 13 1019 68 10000 1.34 59 10:32 16.06.2022
875 Clear 11 1019 71 10000 1.54 0 09:22 16.06.2022
876 Clear 10 1019 74 10000 2.06 60 08:36 16.06.2022
877 Clear 9 1020 76 10000 3.09 60 07:28 16.06.2022
878 Clear 9 1021 79 10000 1.54 60 05:31 16.06.2022
879 Clear 9 1021 78 10000 1.03 340 02:52 16.06.2022
880 Clear 10 1021 76 10000 1.79 197 01:51 16.06.2022
881 Clear 10 1021 74 10000 1.79 174 01:21 16.06.2022
882 Clear 10 1021 74 10000 1.79 174 01:21 16.06.2022
883 Clear 11 1022 73 10000 2.24 193 23:49 15.06.2022
884 Clear 10 1023 80 10000 1.34 203 22:44 15.06.2022
885 Clear 10 1023 78 10000 2.06 210 21:23 15.06.2022
886 Clear 10 1023 80 10000 1.54 0 20:56 15.06.2022
887 Clear 10 1024 78 10000 1.79 193 20:35 15.06.2022
888 Clear 11 1023 75 10000 1.34 184 19:30 15.06.2022
889 Clear 12 1023 72 10000 3.09 170 18:29 15.06.2022
890 Clouds 13 1023 64 10000 2.57 210 17:42 15.06.2022
891 Rain 14 1023 68 10000 3.6 160 15:51 15.06.2022
892 Clouds 15 1024 62 10000 4.12 150 14:30 15.06.2022
893 Clouds 15 1024 66 10000 1.54 0 12:57 15.06.2022
894 Clouds 15 1025 69 10000 1.54 0 12:33 15.06.2022
895 Rain 12 1025 88 10000 2.57 40 10:53 15.06.2022
896 Rain 11 1025 88 10000 2.57 40 10:20 15.06.2022
897 Rain 9 1023 92 7000 2.57 60 08:57 15.06.2022
898 Rain 9 1022 94 10000 3.09 50 07:21 15.06.2022
899 Rain 9 1021 92 8000 3.09 260 05:24 15.06.2022
900 Clouds 8 1020 91 10000 2.06 20 02:31 15.06.2022
901 Rain 11 1019 80 10000 2.57 40 01:33 15.06.2022
902 Clouds 10 1018 87 10000 1.54 140 23:55 14.06.2022
903 Clouds 10 1018 87 10000 1.54 140 23:37 14.06.2022
904 Rain 11 1018 86 10000 3.09 280 22:33 14.06.2022
905 Clouds 11 1018 90 10000 1.34 53 21:42 14.06.2022
906 Rain 11 1016 91 10000 3.09 30 20:57 14.06.2022
907 Rain 11 1016 91 10000 3.09 30 20:34 14.06.2022
908 Rain 11 1015 89 10000 2.06 140 19:32 14.06.2022
909 Rain 12 1014 88 10000 2.06 250 18:32 14.06.2022
910 Rain 13 1012 84 10000 4.63 290 16:50 14.06.2022
911 Rain 14 1011 81 10000 2.06 360 15:52 14.06.2022
912 Clouds 13 1011 80 10000 2.24 270 15:34 14.06.2022
913 Clouds 13 1011 80 10000 2.24 270 15:34 14.06.2022
914 Rain 13 1010 84 10000 3.6 210 14:53 14.06.2022
915 Rain 13 1010 83 10000 2.24 214 13:53 14.06.2022
916 Rain 13 1009 86 8000 3.13 238 12:58 14.06.2022
917 Rain 12 1009 89 6000 3.6 270 11:54 14.06.2022
918 Rain 12 1008 90 6000 1.34 180 10:51 14.06.2022
919 Rain 12 1007 90 6000 1.34 305 10:25 14.06.2022
920 Rain 12 1008 90 6000 3.58 302 10:25 14.06.2022
921 Rain 12 1006 90 4000 7.2 340 08:52 14.06.2022
922 Rain 12 1005 90 10000 8.23 360 08:23 14.06.2022
923 Rain 12 1005 92 5000 6.17 340 06:19 14.06.2022
924 Rain 12 1005 88 2000 5.66 340 03:39 14.06.2022
925 Rain 12 1005 90 2000 6.69 20 01:36 14.06.2022
926 Rain 13 1005 90 10000 2.68 297 00:21 14.06.2022
927 Rain 13 1005 90 10000 5.66 350 22:39 13.06.2022
928 Rain 13 1005 90 10000 5.66 350 22:19 13.06.2022
929 Rain 12 1005 95 8000 4.12 10 21:24 13.06.2022
930 Rain 12 1005 93 4000 2.68 284 19:48 13.06.2022
931 Rain 12 1006 92 2000 2.06 0 18:52 13.06.2022
932 Rain 13 1006 90 10000 8.23 330 17:52 13.06.2022
933 Rain 14 1005 93 1500 5.66 330 17:23 13.06.2022
934 Rain 14 1005 94 7000 5.66 340 16:30 13.06.2022
935 Rain 14 1006 93 4000 6.69 330 14:48 13.06.2022
936 Rain 14 1006 92 7000 5.66 330 14:23 13.06.2022
937 Rain 14 1007 92 7000 7.72 340 13:31 13.06.2022
938 Rain 14 1008 93 7000 7.2 320 12:22 13.06.2022
939 Rain 14 1008 92 6000 6.69 350 10:36 13.06.2022
940 Rain 14 1008 94 1500 5.66 340 09:43 13.06.2022
941 Rain 14 1008 93 6000 7.2 340 08:40 13.06.2022
942 Rain 14 1008 94 10000 7.72 360 06:36 13.06.2022
943 Rain 15 1009 92 4000 5.66 360 04:43 13.06.2022
944 Rain 16 1010 86 10000 9.77 350 01:45 13.06.2022
945 Rain 16 1010 85 10000 9.77 350 01:18 13.06.2022
946 Clouds 16 1011 86 10000 8.75 350 23:43 12.06.2022
947 Rain 15 1011 89 10000 9.26 350 22:39 12.06.2022
948 Rain 15 1011 88 6000 6.17 350 21:46 12.06.2022
949 Rain 16 1011 86 10000 6.69 330 20:53 12.06.2022
950 Rain 17 1010 79 10000 11.32 330 19:58 12.06.2022
951 Clouds 18 1011 76 10000 11.32 330 19:25 12.06.2022
952 Clouds 19 1010 59 10000 11.32 320 17:36 12.06.2022
953 Clear 21 1009 36 10000 12.86 340 15:52 12.06.2022
954 Clear 22 1009 34 10000 10.29 340 14:51 12.06.2022
955 Clear 22 1009 33 10000 10.29 340 14:19 12.06.2022
956 Clear 22 1009 32 10000 9.77 350 13:46 12.06.2022
957 Clear 21 1009 35 10000 9.26 350 12:31 12.06.2022
958 Clear 21 1009 29 10000 9.26 340 11:19 12.06.2022
959 Clear 19 1010 36 10000 5.14 320 10:20 12.06.2022
960 Clear 17 1009 46 10000 2.24 285 08:51 12.06.2022
961 Clear 16 1009 50 10000 3.09 50 08:33 12.06.2022
962 Clear 16 1009 62 10000 3.58 291 06:49 12.06.2022
963 Clear 16 1009 62 10000 3.58 291 06:49 12.06.2022
964 Clear 16 1010 70 10000 3.6 320 04:35 12.06.2022
965 Clear 18 1010 50 10000 4.12 310 02:32 12.06.2022
966 Clear 18 1011 52 10000 4.12 360 01:36 12.06.2022
967 Clouds 18 1011 51 10000 2.24 0 00:57 12.06.2022
968 Clouds 18 1011 51 10000 1.79 290 00:19 12.06.2022
969 Clouds 18 1011 51 10000 1.79 290 00:19 12.06.2022
970 Clear 19 1011 47 10000 6.17 340 23:21 11.06.2022
971 Clear 19 1011 42 10000 6.69 340 22:38 11.06.2022
972 Clear 19 1011 43 10000 3.6 30 21:36 11.06.2022
973 Clear 19 1011 47 10000 3.09 40 20:27 11.06.2022
974 Clear 19 1010 49 10000 5.66 340 19:37 11.06.2022
975 Clear 18 1010 54 10000 5.66 310 18:50 11.06.2022
976 Clear 18 1010 55 10000 5.66 310 18:32 11.06.2022
977 Clear 20 1010 45 10000 4.47 330 17:49 11.06.2022
978 Clear 22 1010 35 10000 4.92 295 17:26 11.06.2022
979 Clear 22 1010 40 10000 5.14 320 16:50 11.06.2022
980 Clear 22 1010 38 10000 5.14 320 16:26 11.06.2022
981 Clear 23 1010 37 10000 6.17 340 15:27 11.06.2022
982 Clear 25 1010 30 10000 4.92 320 13:53 11.06.2022
983 Clear 26 1012 26 10000 10.8 340 12:25 11.06.2022
984 Clear 24 1012 29 10000 4.47 302 10:46 11.06.2022
985 Clear 22 1012 30 10000 4.02 297 09:43 11.06.2022
986 Clear 18 1012 39 10000 2.24 340 08:46 11.06.2022
987 Clear 17 1013 38 10000 2.06 160 06:47 11.06.2022
988 Clear 16 1013 39 10000 2.06 160 06:24 11.06.2022
989 Clear 21 1014 30 10000 6.17 20 03:46 11.06.2022
990 Clear 20 1014 30 10000 1.34 310 01:52 11.06.2022
991 Clear 20 1014 31 10000 1.34 357 01:26 11.06.2022
992 Clear 19 1014 41 10000 3.13 297 23:29 10.06.2022
993 Clear 17 1014 48 10000 1.34 98 22:29 10.06.2022
994 Clear 17 1015 48 10000 0.51 0 21:50 10.06.2022
995 Clear 19 1015 46 10000 1.34 162 20:39 10.06.2022
996 Clear 18 1015 46 10000 2.06 90 20:21 10.06.2022
997 Clear 18 1016 50 10000 2.06 100 19:19 10.06.2022
998 Clear 18 1016 51 10000 2.06 100 19:19 10.06.2022
999 Clear 19 1016 47 10000 1.54 150 18:55 10.06.2022
1000 Clear 20 1016 48 10000 2.06 330 17:55 10.06.2022
1001 Clear 20 1017 48 10000 2.06 330 17:32 10.06.2022
1002 Clear 23 1017 39 10000 3.6 300 16:36 10.06.2022
1003 Clear 25 1017 34 10000 6.17 10 15:40 10.06.2022
1004 Clear 28 1016 23 10000 5.66 20 14:29 10.06.2022
1005 Clear 26 1018 24 10000 5.14 20 13:23 10.06.2022
1006 Clear 23 1019 35 10000 1.54 0 11:59 10.06.2022
1007 Clear 20 1021 50 10000 2.06 30 10:59 10.06.2022
1008 Clear 17 1021 66 10000 2.06 20 10:24 10.06.2022
1009 Clear 13 1021 69 10000 3.09 80 09:21 10.06.2022
1010 Clear 13 1021 76 10000 0.51 0 07:51 10.06.2022
1011 Clear 13 1021 71 10000 2.06 50 06:47 10.06.2022
1012 Clear 13 1021 71 10000 2.06 50 06:28 10.06.2022
1013 Mist 12 1021 79 5000 2.06 70 04:55 10.06.2022
1014 Fog 12 1022 85 300 1.03 0 02:31 10.06.2022
1015 Fog 12 1022 84 1200 1.34 190 01:37 10.06.2022
1016 Clear 14 1024 80 10000 3.09 230 23:58 09.06.2022
1017 Clear 14 1025 82 10000 4.12 220 22:43 09.06.2022
1018 Clear 14 1025 83 10000 3.09 220 21:43 09.06.2022
1019 Clear 15 1024 80 10000 3.58 188 21:24 09.06.2022
1020 Clear 15 1025 78 10000 4.02 185 20:38 09.06.2022
1021 Clear 15 1025 77 10000 3.6 180 19:46 09.06.2022
1022 Clear 16 1025 70 10000 2.68 217 18:37 09.06.2022
1023 Clear 17 1025 63 10000 5.66 170 17:31 09.06.2022
1024 Clear 19 1025 59 10000 4.63 170 16:28 09.06.2022
1025 Clouds 20 1025 56 10000 1.54 0 14:52 09.06.2022
1026 Clouds 20 1026 56 10000 1.54 0 14:28 09.06.2022
1027 Clouds 20 1025 53 10000 2.57 160 13:30 09.06.2022
1028 Clouds 20 1025 53 10000 2.57 160 13:30 09.06.2022
1029 Clouds 20 1027 54 10000 3.6 210 12:55 09.06.2022
1030 Clear 20 1027 56 10000 2.57 160 11:35 09.06.2022
1031 Clear 16 1027 79 10000 1.03 0 09:55 09.06.2022
1032 Clear 16 1027 78 10000 1.03 0 09:55 09.06.2022
1033 Clear 15 1027 82 10000 1.03 0 09:37 09.06.2022
1034 Fog 13 1026 89 400 1.54 160 08:38 09.06.2022
1035 Fog 13 1026 88 900 1.34 126 07:29 09.06.2022
1036 Smoke 14 1025 90 2000 1.54 0 04:30 09.06.2022
1037 Smoke 15 1023 90 2000 3.6 300 00:35 09.06.2022
1038 Clear 15 1022 87 10000 3.09 330 23:18 08.06.2022
1039 Clear 16 1022 82 10000 3.6 270 22:43 08.06.2022
1040 Clear 16 1022 82 10000 3.6 270 22:24 08.06.2022
1041 Clear 17 1021 79 10000 2.06 30 21:40 08.06.2022
1042 Clear 17 1021 78 10000 1.54 0 20:25 08.06.2022
1043 Clear 18 1020 74 10000 2.57 40 19:42 08.06.2022
1044 Clouds 19 1019 63 10000 3.13 105 18:48 08.06.2022
1045 Clear 21 1018 56 10000 7.72 310 17:46 08.06.2022
1046 Clear 23 1017 36 10000 6.17 300 15:56 08.06.2022
1047 Clear 25 1017 33 10000 5.66 320 14:44 08.06.2022
1048 Clear 25 1018 31 10000 5.14 300 12:55 08.06.2022
1049 Clear 25 1018 31 10000 5.14 300 12:55 08.06.2022
1050 Clear 25 1018 31 10000 5.14 300 12:55 08.06.2022
1051 Clear 25 1018 31 10000 5.14 300 12:55 08.06.2022
1052 Clear 25 1018 31 10000 5.14 300 12:55 08.06.2022
1053 Clear 25 1018 31 10000 3.6 330 11:41 08.06.2022
1054 Clear 24 1018 32 10000 3.6 330 11:19 08.06.2022
1055 Clear 19 1018 46 10000 3.6 40 09:30 08.06.2022
1056 Clear 19 1018 44 10000 4.12 30 08:55 08.06.2022
1057 Clear 17 1018 52 10000 2.06 50 07:21 08.06.2022
1058 Clear 18 1018 44 10000 3.09 10 04:49 08.06.2022
1059 Clear 18 1019 50 10000 4.63 60 01:27 08.06.2022
1060 Clear 17 1020 65 10000 3.09 60 23:33 07.06.2022
1061 Clear 18 1020 60 10000 0.51 0 22:58 07.06.2022
1062 Clear 18 1019 61 10000 0.51 0 22:37 07.06.2022
1063 Clear 18 1019 62 10000 1.54 0 21:41 07.06.2022
1064 Clear 19 1019 58 10000 1.54 0 21:23 07.06.2022
1065 Clear 19 1019 57 10000 1.54 0 20:42 07.06.2022
1066 Clear 19 1020 56 10000 3.6 170 19:58 07.06.2022
1067 Clear 21 1019 45 10000 4.12 310 18:38 07.06.2022
1068 Clear 25 1019 35 10000 5.66 320 17:36 07.06.2022
1069 Clear 26 1019 31 10000 5.66 330 16:49 07.06.2022
1070 Clear 27 1020 31 10000 5.66 330 16:31 07.06.2022
1071 Clear 28 1019 29 10000 4.12 310 15:38 07.06.2022
1072 Clear 28 1019 28 10000 4.47 298 15:19 07.06.2022
1073 Clear 28 1018 28 10000 6.17 350 14:44 07.06.2022
1074 Clear 30 1019 23 10000 7.72 10 13:46 07.06.2022
1075 Clear 29 1019 23 10000 7.72 10 13:26 07.06.2022
1076 Clear 27 1021 25 10000 3.6 20 11:56 07.06.2022
1077 Clear 27 1021 25 10000 3.6 20 11:56 07.06.2022
1078 Clear 24 1021 32 10000 5.14 20 10:57 07.06.2022
1079 Clear 17 1022 60 10000 5.66 30 09:28 07.06.2022
1080 Clear 18 1021 42 10000 5.14 40 08:28 07.06.2022
1081 Clear 17 1021 45 10000 4.63 50 07:19 07.06.2022
1082 Clear 16 1022 46 10000 4.12 60 05:19 07.06.2022
1083 Clear 17 1022 52 10000 2.06 80 01:43 07.06.2022
1084 Clear 17 1022 50 10000 2.06 170 23:59 06.06.2022
1085 Clouds 18 1021 50 10000 0.89 122 22:59 06.06.2022
1086 Clouds 17 1021 51 10000 1.34 146 22:30 06.06.2022
1087 Clear 18 1021 46 10000 1.34 136 21:33 06.06.2022
1088 Clear 19 1022 38 10000 1.54 200 19:37 06.06.2022
1089 Clear 20 1022 38 10000 1.54 200 19:19 06.06.2022
1090 Clear 21 1022 34 10000 2.06 230 18:34 06.06.2022
1091 Clear 24 1021 33 10000 2.57 180 17:31 06.06.2022
1092 Clear 25 1022 39 10000 2.24 169 16:21 06.06.2022
1093 Clear 27 1023 40 10000 3.09 170 15:33 06.06.2022
1094 Clear 24 1022 38 10000 2.06 150 14:36 06.06.2022
1095 Clear 27 1022 30 10000 1.54 0 13:27 06.06.2022
1096 Clear 26 1023 33 10000 1.54 0 12:37 06.06.2022
1097 Clear 25 1024 34 10000 2.06 100 11:54 06.06.2022
1098 Clear 24 1023 37 10000 2.06 100 11:28 06.06.2022
1099 Clear 16 1024 67 10000 1.03 80 09:40 06.06.2022
1100 Clear 10 1024 62 10000 2.57 70 08:35 06.06.2022
1101 Clear 14 1023 55 10000 3.09 60 07:28 06.06.2022
1102 Clear 14 1023 56 10000 2.57 70 05:29 06.06.2022
1103 Clear 14 1023 56 10000 2.57 70 05:29 06.06.2022
1104 Clear 14 1023 56 10000 2.57 70 05:29 06.06.2022
1105 Clear 14 1023 64 10000 1.54 90 03:46 06.06.2022
1106 Clear 14 1024 68 10000 1.54 70 01:29 06.06.2022
1107 Clear 14 1024 69 10000 1.54 60 00:42 06.06.2022
1108 Clear 15 1024 69 10000 2.06 70 23:49 05.06.2022
1109 Clear 15 1024 69 10000 2.06 110 22:52 05.06.2022
1110 Clear 16 1024 68 10000 0.51 0 20:59 05.06.2022
1111 Clear 16 1024 64 10000 1.79 139 19:52 05.06.2022
1112 Clear 19 1023 57 10000 2.06 170 18:31 05.06.2022
1113 Clear 19 1023 57 10000 2.06 170 18:31 05.06.2022
1114 Clear 20 1023 54 10000 1.79 160 17:56 05.06.2022
1115 Clear 21 1023 51 10000 1.79 143 17:27 05.06.2022
1116 Clear 22 1023 49 10000 2.57 180 16:57 05.06.2022
1117 Clear 22 1023 47 10000 2.57 180 16:37 05.06.2022
1118 Clear 22 1023 47 10000 2.57 180 16:37 05.06.2022
1119 Clear 22 1023 47 10000 2.57 180 16:37 05.06.2022
1120 Clear 23 1023 45 10000 2.06 180 14:46 05.06.2022
1121 Clear 21 1024 52 10000 3.09 210 12:59 05.06.2022
1122 Clear 20 1025 58 10000 3.09 210 11:51 05.06.2022
1123 Clear 18 1025 65 10000 2.24 166 10:43 05.06.2022
1124 Clear 17 1025 67 10000 2.24 127 10:23 05.06.2022
1125 Clear 14 1025 78 10000 2.06 140 08:41 05.06.2022
1126 Clear 13 1026 80 10000 2.06 140 08:20 05.06.2022
1127 Clear 14 1026 81 10000 4.12 170 05:23 05.06.2022
1128 Clear 15 1025 82 10000 8.23 160 04:30 05.06.2022
1129 Clear 16 1026 83 10000 8.75 180 01:45 05.06.2022
1130 Clear 16 1026 84 10000 8.75 180 01:45 05.06.2022
1131 Clear 16 1026 84 10000 8.75 180 01:45 05.06.2022
1132 Clear 16 1026 83 10000 8.75 180 01:45 05.06.2022
1133 Clear 16 1026 83 10000 8.75 180 01:45 05.06.2022
1134 Clear 16 1026 83 10000 8.75 180 01:45 05.06.2022
1135 Clear 16 1026 83 10000 8.75 180 01:23 05.06.2022
1136 Clear 16 1026 83 10000 8.75 180 01:23 05.06.2022
1137 Clear 16 1026 83 10000 4.47 207 22:44 04.06.2022
1138 Clear 16 1027 84 10000 6.69 180 21:21 04.06.2022
1139 Clouds 16 1026 82 10000 5.66 180 18:54 04.06.2022
1140 Clouds 18 1025 72 10000 7.2 180 16:48 04.06.2022
1141 Clouds 18 1025 71 10000 7.2 180 16:19 04.06.2022
1142 Clouds 20 1024 64 10000 5.66 170 15:27 04.06.2022
1143 Clear 20 1023 59 10000 4.12 170 13:54 04.06.2022
1144 Clear 18 1024 68 10000 1.03 0 11:23 04.06.2022
1145 Clear 17 1024 73 10000 1.54 0 10:52 04.06.2022
1146 Clouds 14 1024 84 10000 0.45 24 09:46 04.06.2022
1147 Clear 12 1023 84 10000 1.03 340 08:44 04.06.2022
1148 Clear 11 1023 83 10000 2.57 60 07:59 04.06.2022
1149 Fog 11 1022 80 300 1.54 0 06:20 04.06.2022
1150 Clear 11 1021 85 10000 0.51 0 02:57 04.06.2022
1151 Fog 12 1021 82 700 1.54 140 00:20 04.06.2022
1152 Clouds 11 1021 91 7000 1.03 170 22:49 03.06.2022
1153 Clouds 13 1021 88 7000 0.89 164 21:46 03.06.2022
1154 Clouds 13 1020 87 6000 3.09 120 20:40 03.06.2022
1155 Clear 14 1020 83 10000 4.63 120 19:19 03.06.2022
1156 Clear 18 1019 56 10000 1.79 167 16:54 03.06.2022
1157 Clear 21 1019 36 10000 4.12 270 15:51 03.06.2022
1158 Clear 20 1019 45 10000 2.24 322 13:58 03.06.2022
1159 Clear 18 1021 59 10000 2.06 330 11:54 03.06.2022
1160 Clear 14 1021 79 10000 2.06 50 09:56 03.06.2022
1161 Clear 12 1021 82 10000 2.57 60 09:29 03.06.2022
1162 Clear 12 1021 74 10000 1.54 60 07:43 03.06.2022
1163 Clear 11 1021 74 10000 2.57 40 06:49 03.06.2022
1164 Clear 11 1021 75 10000 2.57 40 06:27 03.06.2022
1165 Clear 10 1022 85 10000 1.03 320 02:58 03.06.2022
1166 Clear 14 1023 72 10000 3.09 240 23:39 02.06.2022
1167 Clear 14 1023 73 10000 2.57 220 21:58 02.06.2022
1168 Clear 14 1023 74 10000 2.57 210 20:38 02.06.2022
1169 Clear 14 1023 72 10000 3.13 203 19:55 02.06.2022
1170 Clear 14 1023 72 10000 2.68 162 19:37 02.06.2022
1171 Clear 15 1024 72 10000 3.6 150 18:41 02.06.2022
1172 Clear 18 1023 61 10000 3.6 150 16:28 02.06.2022
1173 Clear 20 1023 53 10000 2.68 143 15:47 02.06.2022
1174 Clear 20 1024 53 10000 2.06 190 13:31 02.06.2022
1175 Clouds 19 1025 55 10000 1.54 0 12:49 02.06.2022
1176 Clouds 17 1027 66 10000 1.03 0 10:36 02.06.2022
1177 Clouds 14 1027 85 10000 1.54 0 09:30 02.06.2022
1178 Clouds 12 1027 90 10000 1.03 0 08:44 02.06.2022
1179 Clouds 11 1027 92 10000 1.54 0 08:23 02.06.2022
1180 Clouds 11 1027 92 10000 1.54 0 08:23 02.06.2022
1181 Clouds 12 1026 87 10000 1.03 0 06:21 02.06.2022
1182 Clouds 11 1026 87 10000 1.54 40 03:50 02.06.2022
1183 Clouds 12 1027 86 10000 1.54 30 00:55 02.06.2022
1184 Clear 13 1027 85 10000 1.03 80 22:58 01.06.2022
1185 Clear 12 1027 90 10000 1.03 80 22:18 01.06.2022
1186 Clear 12 1027 88 10000 1.03 0 21:24 01.06.2022
1187 Clear 13 1027 87 10000 1.03 0 20:38 01.06.2022
1188 Clear 14 1027 83 10000 1.54 310 19:52 01.06.2022
1189 Clouds 15 1027 80 10000 2.06 350 18:41 01.06.2022
1190 Clouds 18 1026 68 10000 3.6 320 16:58 01.06.2022
1191 Clouds 20 1027 62 10000 2.57 330 15:45 01.06.2022
1192 Clouds 19 1027 62 10000 4.12 290 14:50 01.06.2022
1193 Clouds 19 1028 64 10000 2.06 300 13:39 01.06.2022
1194 Clouds 17 1030 69 10000 2.06 40 11:24 01.06.2022
1195 Clouds 14 1029 81 10000 2.06 20 09:34 01.06.2022
1196 Clouds 11 1029 85 10000 3.6 50 08:28 01.06.2022
1197 Clear 12 1029 81 10000 4.12 40 07:20 01.06.2022
1198 Clear 11 1028 84 10000 2.06 70 04:53 01.06.2022
1199 Clear 12 1029 84 10000 1.54 0 23:50 31.05.2022
1200 Clear 12 1029 87 10000 2.57 70 22:43 31.05.2022
1201 Clear 12 1030 87 10000 2.57 70 22:25 31.05.2022
1202 Clear 12 1030 84 10000 1.79 335 21:44 31.05.2022
1203 Clear 13 1030 81 10000 2.57 330 20:44 31.05.2022
1204 Clear 13 1030 80 10000 2.57 330 20:44 31.05.2022
1205 Clear 13 1030 80 10000 2.57 330 20:44 31.05.2022
1206 Clear 14 1029 78 10000 3.6 360 19:46 31.05.2022
1207 Clouds 15 1029 77 10000 2.06 350 18:33 31.05.2022
1208 Clouds 16 1029 70 10000 4.63 320 17:46 31.05.2022
1209 Clouds 17 1029 67 10000 3.58 271 16:21 31.05.2022
1210 Clouds 18 1029 65 10000 7.2 320 15:37 31.05.2022
1211 Clouds 18 1030 63 10000 5.66 320 13:37 31.05.2022
1212 Clouds 17 1031 66 10000 5.66 320 12:19 31.05.2022
1213 Clouds 15 1031 76 10000 4.63 30 10:52 31.05.2022
1214 Clouds 11 1030 83 10000 4.63 40 08:35 31.05.2022
1215 Clouds 11 1029 84 10000 4.63 50 06:38 31.05.2022
1216 Clouds 11 1028 88 10000 5.14 30 04:34 31.05.2022
1217 Clouds 12 1028 83 10000 3.6 20 23:49 30.05.2022
1218 Rain 12 1028 83 10000 3.6 20 23:25 30.05.2022
1219 Rain 13 1028 81 10000 2.57 350 22:42 30.05.2022
1220 Clouds 15 1027 71 10000 6.69 310 21:42 30.05.2022
1221 Rain 14 1027 74 10000 6.69 310 21:21 30.05.2022
1222 Clouds 15 1026 65 10000 6.17 360 19:51 30.05.2022
1223 Clouds 15 1025 63 10000 8.23 340 18:26 30.05.2022
1224 Clouds 15 1025 62 10000 6.17 340 17:23 30.05.2022
1225 Clouds 16 1026 61 10000 6.69 330 16:36 30.05.2022
1226 Clear 17 1026 53 10000 7.2 320 13:44 30.05.2022
1227 Clouds 16 1028 54 10000 5.66 350 11:54 30.05.2022
1228 Clear 14 1028 65 10000 4.12 30 10:26 30.05.2022
1229 Clear 11 1028 73 10000 1.79 328 09:19 30.05.2022
1230 Clear 10 1027 76 10000 2.06 350 06:28 30.05.2022
1231 Clear 10 1027 75 10000 3.09 40 05:38 30.05.2022
1232 Clear 11 1027 75 10000 2.06 40 01:32 30.05.2022
1233 Clear 12 1027 70 10000 0.51 0 22:50 29.05.2022
1234 Clear 12 1027 70 10000 0.51 0 22:31 29.05.2022
1235 Clouds 12 1027 71 10000 2.57 190 20:51 29.05.2022
1236 Clouds 13 1026 65 10000 3.09 210 19:30 29.05.2022
1237 Clouds 14 1025 59 10000 3.6 210 18:35 29.05.2022
1238 Clouds 15 1024 54 10000 5.66 210 17:23 29.05.2022
1239 Clouds 17 1023 54 10000 6.69 210 15:48 29.05.2022
1240 Clouds 17 1022 55 10000 7.72 210 14:57 29.05.2022
1241 Rain 16 1021 66 10000 5.66 230 13:46 29.05.2022
1242 Rain 15 1021 68 10000 8.23 210 11:41 29.05.2022
1243 Clouds 16 1020 61 10000 7.72 230 10:38 29.05.2022
1244 Rain 15 1017 81 10000 5.14 240 08:47 29.05.2022
1245 Rain 15 1013 88 7000 8.75 310 05:48 29.05.2022
1246 Rain 15 1013 88 10000 10.29 340 04:43 29.05.2022
1247 Rain 15 1014 88 10000 7.2 340 02:50 29.05.2022
1248 Clouds 15 1014 87 10000 6.17 360 23:49 28.05.2022
1249 Clouds 15 1014 86 10000 6.17 360 23:26 28.05.2022
1250 Rain 15 1014 87 10000 8.23 350 22:33 28.05.2022
1251 Clouds 15 1014 88 10000 7.2 340 21:34 28.05.2022
1252 Clouds 16 1014 87 10000 7.72 340 19:41 28.05.2022
1253 Clouds 15 1013 92 10000 7.72 330 18:47 28.05.2022
1254 Clouds 15 1013 91 10000 6.17 320 17:36 28.05.2022
1255 Rain 16 1012 86 10000 9.77 330 16:37 28.05.2022
1256 Rain 17 1012 82 10000 8.75 340 15:39 28.05.2022
1257 Rain 17 1013 83 10000 9.26 340 14:23 28.05.2022
1258 Clouds 18 1014 75 10000 6.69 20 12:44 28.05.2022
1259 Clouds 17 1014 76 10000 6.69 20 12:18 28.05.2022
1260 Clouds 15 1015 86 10000 3.09 360 10:51 28.05.2022
1261 Clouds 14 1015 88 10000 6.17 40 09:57 28.05.2022
1262 Clouds 13 1014 92 6000 6.69 30 08:45 28.05.2022
1263 Clouds 12 1014 92 10000 7.2 40 07:23 28.05.2022
1264 Clouds 13 1013 93 10000 5.66 350 05:28 28.05.2022
1265 Clear 13 1013 88 10000 4.12 350 02:44 28.05.2022
1266 Fog 14 1014 86 100 2.06 40 00:32 28.05.2022
1267 Fog 14 1014 90 200 1.03 0 22:53 27.05.2022
1268 Mist 15 1015 84 2000 1.79 122 21:44 27.05.2022
1269 Clear 15 1015 88 10000 2.57 200 20:50 27.05.2022
1270 Clear 15 1015 87 10000 2.57 200 20:24 27.05.2022
1271 Clear 16 1015 85 10000 2.57 200 19:42 27.05.2022
1272 Clear 16 1015 85 10000 2.57 200 19:24 27.05.2022
1273 Clear 17 1016 74 10000 3.09 180 17:54 27.05.2022
1274 Clear 19 1016 70 10000 4.12 170 16:38 27.05.2022
1275 Clear 22 1015 59 10000 3.09 170 15:22 27.05.2022
1276 Clear 22 1016 58 10000 3.6 180 14:25 27.05.2022
1277 Clear 22 1018 62 10000 1.03 0 12:43 27.05.2022
1278 Clear 19 1019 72 10000 1.34 127 11:34 27.05.2022
1279 Clear 18 1019 78 10000 2.24 160 10:56 27.05.2022
1280 Clear 17 1019 83 10000 1.79 141 10:31 27.05.2022
1281 Clear 15 1019 85 10000 0.51 60 09:35 27.05.2022
1282 Mist 12 1019 85 3000 1.54 50 07:52 27.05.2022
1283 Fog 12 1019 86 800 1.54 50 05:44 27.05.2022
1284 Clear 14 1020 84 10000 0.51 0 02:26 27.05.2022
1285 Clear 15 1021 88 10000 3.09 220 00:29 27.05.2022
1286 Clear 15 1022 85 10000 3.13 149 22:43 26.05.2022
1287 Clear 15 1023 85 10000 3.6 240 21:40 26.05.2022
1288 Clear 16 1023 84 10000 4.92 219 20:53 26.05.2022
1289 Clear 16 1023 83 10000 4.02 194 19:24 26.05.2022
1290 Clear 17 1023 78 10000 3.6 180 18:18 26.05.2022
1291 Clouds 18 1022 71 10000 5.14 180 16:42 26.05.2022
1292 Rain 19 1023 71 10000 4.63 180 15:46 26.05.2022
1293 Clouds 19 1023 73 10000 3.13 192 14:43 26.05.2022
1294 Clouds 18 1024 77 10000 2.57 180 12:50 26.05.2022
1295 Clouds 17 1024 87 10000 2.06 220 11:29 26.05.2022
1296 Clouds 16 1024 96 9000 2.57 230 10:19 26.05.2022
1297 Clouds 15 1024 97 7000 2.57 210 09:33 26.05.2022
1298 Mist 15 1023 97 3000 1.79 160 08:35 26.05.2022
1299 Mist 15 1022 97 2000 1.54 350 04:41 26.05.2022
1300 Clouds 15 1021 97 10000 3.6 330 00:57 26.05.2022
1301 Rain 16 1021 94 6000 5.66 330 23:40 25.05.2022
1302 Rain 15 1021 94 10000 1.79 295 22:22 25.05.2022
1303 Rain 15 1021 94 10000 4.12 340 21:33 25.05.2022
1304 Rain 16 1021 88 10000 3.6 310 20:37 25.05.2022
1305 Clouds 16 1020 87 10000 3.09 340 19:29 25.05.2022
1306 Clouds 17 1019 83 10000 3.6 320 17:46 25.05.2022
1307 Clouds 19 1019 78 10000 3.6 330 16:40 25.05.2022
1308 Clouds 19 1019 77 10000 3.6 320 15:57 25.05.2022
1309 Clouds 18 1019 81 10000 5.66 310 14:55 25.05.2022
1310 Clouds 18 1019 81 10000 5.66 310 14:33 25.05.2022
1311 Clouds 19 1020 79 10000 5.66 320 13:56 25.05.2022
1312 Clouds 17 1020 87 10000 4.63 330 12:45 25.05.2022
1313 Clouds 16 1021 89 7000 3.6 340 10:54 25.05.2022
1314 Mist 16 1021 91 4000 4.12 340 10:20 25.05.2022
1315 Clouds 14 1019 94 10000 1.34 360 08:41 25.05.2022
1316 Rain 15 1018 93 10000 1.79 329 07:23 25.05.2022
1317 Clouds 15 1017 90 10000 2.57 330 05:18 25.05.2022
1318 Fog 15 1017 95 300 2.57 330 00:28 25.05.2022
1319 Rain 15 1018 94 10000 3.09 330 23:47 24.05.2022
1320 Clouds 15 1018 94 10000 2.06 330 22:52 24.05.2022
1321 Clouds 15 1018 95 10000 3.09 340 21:46 24.05.2022
1322 Clouds 15 1018 94 10000 3.09 340 21:21 24.05.2022
1323 Clouds 15 1018 94 10000 3.09 310 20:38 24.05.2022
1324 Rain 15 1017 94 10000 4.12 320 18:57 24.05.2022
1325 Clouds 16 1017 90 10000 4.12 340 16:58 24.05.2022
1326 Clouds 16 1017 91 10000 6.17 330 16:28 24.05.2022
1327 Drizzle 16 1017 92 3500 6.17 310 15:20 24.05.2022
1328 Drizzle 17 1017 88 3000 4.12 310 14:34 24.05.2022
1329 Drizzle 17 1017 87 2500 5.14 310 13:27 24.05.2022
1330 Drizzle 17 1017 86 4000 6.69 350 11:53 24.05.2022
1331 Rain 16 1017 84 10000 5.14 20 09:49 24.05.2022
1332 Rain 16 1017 86 10000 5.66 360 08:51 24.05.2022
1333 Rain 16 1016 85 10000 6.17 340 07:30 24.05.2022
1334 Clouds 15 1016 86 10000 4.12 20 06:27 24.05.2022
1335 Clouds 15 1016 87 10000 4.63 340 02:58 24.05.2022
1336 Clouds 15 1016 88 10000 4.63 340 01:44 24.05.2022
1337 Clouds 15 1016 87 10000 4.63 360 23:59 23.05.2022
1338 Clear 15 1015 87 10000 4.63 360 22:24 23.05.2022
1339 Clear 15 1015 85 10000 5.66 350 21:45 23.05.2022
1340 Clouds 15 1015 85 10000 5.14 350 20:45 23.05.2022
1341 Clear 15 1016 84 10000 3.6 350 19:47 23.05.2022
1342 Clear 16 1015 83 10000 3.6 350 19:18 23.05.2022
1343 Clear 16 1016 83 10000 4.12 320 18:40 23.05.2022
1344 Clear 17 1016 80 10000 5.66 310 17:56 23.05.2022
1345 Clear 18 1016 73 10000 6.17 310 16:28 23.05.2022
1346 Clouds 19 1016 66 10000 7.2 310 14:18 23.05.2022
1347 Clouds 18 1018 72 10000 4.63 320 11:52 23.05.2022
1348 Clouds 17 1019 78 10000 3.13 342 10:47 23.05.2022
1349 Rain 15 1019 85 10000 2.57 30 09:47 23.05.2022
1350 Clear 14 1019 90 10000 3.6 40 08:46 23.05.2022
1351 Clear 14 1019 90 10000 3.6 40 08:46 23.05.2022
1352 Clear 14 1019 90 10000 3.6 40 08:46 23.05.2022
1353 Clear 13 1018 89 10000 2.57 20 07:31 23.05.2022
1354 Clear 12 1019 94 10000 2.06 350 06:40 23.05.2022
1355 Clouds 13 1019 91 10000 3.6 60 03:41 23.05.2022
1356 Clear 13 1020 87 10000 1.03 0 01:52 23.05.2022
1357 Clear 14 1020 87 10000 1.03 0 01:29 23.05.2022
1358 Clear 14 1021 86 10000 2.06 40 23:18 22.05.2022
1359 Clear 14 1021 87 10000 1.03 340 22:27 22.05.2022
1360 Clear 15 1021 83 10000 1.54 0 21:52 22.05.2022
1361 Clear 14 1021 84 10000 2.57 310 20:46 22.05.2022
1362 Clear 15 1021 81 10000 2.57 310 20:23 22.05.2022
1363 Clear 16 1021 76 10000 3.6 330 19:39 22.05.2022
1364 Clear 15 1021 80 10000 3.09 320 18:52 22.05.2022
1365 Clear 16 1021 78 10000 3.09 320 18:21 22.05.2022
1366 Clear 18 1021 72 10000 4.12 300 17:26 22.05.2022
1367 Clouds 19 1022 68 10000 4.12 310 15:57 22.05.2022
1368 Clouds 19 1022 68 10000 4.63 310 14:47 22.05.2022
1369 Clouds 19 1023 67 10000 3.6 310 13:22 22.05.2022
1370 Clouds 19 1024 66 10000 2.68 291 12:48 22.05.2022
1371 Clouds 18 1024 69 10000 2.06 320 11:29 22.05.2022
1372 Clouds 14 1024 85 10000 2.57 40 09:41 22.05.2022
1373 Clouds 10 1024 89 10000 2.57 30 08:21 22.05.2022
1374 Clear 10 1024 90 10000 2.57 40 07:21 22.05.2022
1375 Clear 10 1023 89 10000 2.57 40 05:22 22.05.2022
1376 Clear 11 1024 88 10000 1.03 350 01:26 22.05.2022
1377 Clear 11 1024 84 10000 0.51 0 00:43 22.05.2022
1378 Clear 12 1025 83 10000 1.03 360 23:52 21.05.2022
1379 Clear 12 1025 81 10000 0.51 140 22:26 21.05.2022
1380 Clear 13 1025 80 10000 1.54 80 21:42 21.05.2022
1381 Clear 13 1025 79 10000 1.03 130 20:51 21.05.2022
1382 Clear 13 1025 78 10000 1.03 130 20:21 21.05.2022
1383 Clear 14 1025 76 10000 2.06 160 19:25 21.05.2022
1384 Clouds 16 1024 65 10000 4.12 190 17:48 21.05.2022
1385 Clouds 18 1024 63 10000 3.09 180 15:54 21.05.2022
1386 Clouds 19 1024 60 10000 3.6 190 14:37 21.05.2022
1387 Clouds 18 1025 63 10000 3.09 180 13:42 21.05.2022
1388 Clouds 18 1026 65 10000 2.57 180 12:49 21.05.2022
1389 Clouds 17 1026 69 10000 1.34 349 11:58 21.05.2022
1390 Clouds 16 1026 77 10000 1.54 0 10:24 21.05.2022
1391 Clouds 14 1027 83 10000 0.89 130 09:41 21.05.2022
1392 Clouds 13 1026 89 10000 1.54 60 08:52 21.05.2022
1393 Clouds 11 1026 90 10000 0.89 342 07:53 21.05.2022
1394 Clouds 12 1025 86 10000 2.57 240 03:58 21.05.2022
1395 Clouds 13 1025 76 10000 2.57 210 23:53 20.05.2022
1396 Clouds 13 1025 81 10000 1.54 0 22:57 20.05.2022
1397 Clouds 12 1024 82 10000 1.54 0 22:23 20.05.2022
1398 Clouds 12 1025 82 10000 1.03 0 21:41 20.05.2022
1399 Clear 13 1024 77 10000 2.57 210 20:54 20.05.2022
1400 Clouds 13 1024 76 10000 3.6 190 19:59 20.05.2022
1401 Clouds 14 1024 74 10000 3.6 190 19:26 20.05.2022
1402 Clouds 15 1023 72 10000 5.14 210 18:44 20.05.2022
1403 Clouds 15 1023 72 10000 6.17 170 16:54 20.05.2022
1404 Clouds 15 1022 71 10000 6.17 170 16:19 20.05.2022
1405 Clouds 16 1022 68 10000 5.66 170 15:47 20.05.2022
1406 Rain 16 1022 65 10000 6.17 180 14:30 20.05.2022
1407 Clouds 16 1022 65 10000 5.66 180 13:55 20.05.2022
1408 Clouds 17 1022 65 10000 4.12 160 11:34 20.05.2022
1409 Clouds 14 1022 78 10000 2.24 214 09:52 20.05.2022
1410 Clouds 12 1021 88 8000 1.03 0 08:45 20.05.2022
1411 Clear 10 1021 84 10000 0.89 186 07:18 20.05.2022
1412 Clouds 11 1020 82 10000 1.34 125 06:32 20.05.2022
1413 Clouds 11 1020 75 10000 0.45 0 04:42 20.05.2022
1414 Clear 12 1019 71 10000 2.24 144 00:48 20.05.2022
1415 Clear 12 1019 67 10000 2.24 181 22:48 19.05.2022
1416 Clear 12 1019 65 10000 2.24 210 22:20 19.05.2022
1417 Clouds 13 1019 65 10000 3.6 180 21:48 19.05.2022
1418 Clouds 13 1019 65 10000 3.6 180 21:22 19.05.2022
1419 Clouds 13 1019 65 10000 4.63 170 20:34 19.05.2022
1420 Clouds 13 1019 67 10000 4.63 160 19:50 19.05.2022
1421 Clouds 14 1018 67 10000 5.14 190 18:31 19.05.2022
1422 Clouds 16 1017 62 10000 7.72 180 16:51 19.05.2022
1423 Clouds 17 1017 60 10000 6.69 170 15:19 19.05.2022
1424 Clouds 17 1016 62 10000 6.17 170 14:25 19.05.2022
1425 Clouds 16 1016 64 10000 6.17 170 13:23 19.05.2022
1426 Clouds 16 1017 66 10000 3.09 160 11:41 19.05.2022
1427 Clouds 13 1016 90 10000 0.89 307 09:29 19.05.2022
1428 Drizzle 12 1015 89 10000 2.57 270 07:52 19.05.2022
1429 Rain 13 1014 89 10000 0.51 30 06:18 19.05.2022
1430 Clouds 13 1013 93 10000 2.06 20 02:27 19.05.2022
1431 Clouds 14 1013 90 10000 2.57 340 00:40 19.05.2022
1432 Rain 15 1012 90 7000 3.09 320 22:51 18.05.2022
1433 Rain 15 1012 90 7000 3.09 320 22:24 18.05.2022
1434 Rain 15 1012 90 7000 5.66 320 21:30 18.05.2022
1435 Rain 15 1011 89 9000 4.63 330 20:50 18.05.2022
1436 Rain 16 1011 89 4000 3.13 333 20:18 18.05.2022
1437 Rain 16 1011 89 3000 3.13 321 20:18 18.05.2022
1438 Rain 16 1009 92 5000 6.17 310 18:33 18.05.2022
1439 Rain 16 1009 92 5000 6.17 310 18:33 18.05.2022
1440 Rain 17 1010 92 8000 5.66 340 17:41 18.05.2022
1441 Rain 17 1010 92 8000 5.66 340 17:23 18.05.2022
1442 Rain 17 1010 87 10000 7.2 340 16:34 18.05.2022
1443 Rain 18 1009 82 10000 7.2 340 15:42 18.05.2022
1444 Clouds 19 1010 79 10000 7.72 340 14:48 18.05.2022
1445 Clouds 19 1010 77 10000 7.2 330 13:44 18.05.2022
1446 Clouds 19 1010 74 10000 10.29 330 12:49 18.05.2022
1447 Clouds 20 1009 62 10000 9.77 320 11:37 18.05.2022
1448 Clouds 20 1010 56 10000 9.77 320 11:19 18.05.2022
1449 Clear 20 1008 53 10000 9.77 330 09:56 18.05.2022
1450 Clear 20 1008 53 10000 6.17 290 07:54 18.05.2022
1451 Clear 20 1007 51 10000 6.17 280 06:48 18.05.2022
1452 Clear 18 1010 51 10000 1.54 0 01:53 18.05.2022
1453 Clear 20 1010 47 10000 5.14 10 00:23 18.05.2022
1454 Clear 21 1010 40 10000 2.57 50 22:18 17.05.2022
1455 Clear 22 1011 43 10000 1.03 0 21:20 17.05.2022
1456 Clear 20 1010 63 10000 1.54 0 20:29 17.05.2022
1457 Clear 19 1010 69 10000 1.34 0 19:28 17.05.2022
1458 Clear 21 1012 61 10000 2.06 210 17:52 17.05.2022
1459 Clear 21 1012 61 10000 2.06 210 17:18 17.05.2022
1460 Clear 22 1012 64 10000 2.68 142 16:31 17.05.2022
1461 Clear 23 1013 64 10000 2.57 160 15:32 17.05.2022
1462 Clear 28 1012 21 10000 3.09 300 14:31 17.05.2022
1463 Clear 28 1013 21 10000 2.57 320 13:38 17.05.2022
1464 Clear 26 1015 32 10000 2.06 30 12:23 17.05.2022
1465 Clear 20 1016 52 10000 0.89 335 09:53 17.05.2022
1466 Clear 18 1015 46 10000 1.54 300 08:43 17.05.2022
1467 Clouds 15 1015 64 10000 0.89 0 07:18 17.05.2022
1468 Clear 17 1015 58 10000 5.66 340 04:28 17.05.2022
1469 Clear 18 1016 51 10000 4.12 350 00:47 17.05.2022
1470 Clear 19 1016 47 10000 3.6 320 22:44 16.05.2022
1471 Clear 20 1016 45 10000 3.6 320 22:18 16.05.2022
1472 Clear 20 1016 45 10000 4.63 290 20:50 16.05.2022
1473 Clear 22 1015 34 10000 3.58 326 19:59 16.05.2022
1474 Clear 23 1015 31 10000 3.6 300 18:32 16.05.2022
1475 Clear 24 1015 43 10000 4.12 310 16:37 16.05.2022
1476 Clear 33 1015 11 10000 3.6 20 14:46 16.05.2022
1477 Clear 31 1015 13 10000 4.63 360 13:26 16.05.2022
1478 Clear 26 1018 33 10000 3.09 70 11:34 16.05.2022
1479 Clear 21 1018 55 10000 1.54 0 10:24 16.05.2022
1480 Clear 11 1018 81 10000 1.54 100 07:45 16.05.2022
1481 Clear 12 1018 82 10000 2.57 70 05:40 16.05.2022
1482 Fog 14 1020 87 600 3.13 136 23:59 15.05.2022
1483 Fog 14 1021 83 600 2.24 132 22:39 15.05.2022
1484 Clear 14 1021 84 10000 1.79 141 21:48 15.05.2022
1485 Clear 14 1021 83 10000 2.24 124 21:21 15.05.2022
1486 Clear 16 1021 75 10000 2.06 190 20:35 15.05.2022
1487 Clear 17 1021 72 10000 3.13 195 18:30 15.05.2022
1488 Clear 20 1022 55 10000 3.6 190 16:37 15.05.2022
1489 Clear 23 1021 42 10000 2.68 165 14:18 15.05.2022
1490 Clear 22 1022 48 10000 2.57 200 13:35 15.05.2022
1491 Clear 20 1024 58 10000 3.13 172 11:55 15.05.2022
1492 Clear 17 1025 71 10000 3.13 193 10:40 15.05.2022
1493 Clear 13 1025 84 10000 4.02 187 08:57 15.05.2022
1494 Clear 13 1023 80 10000 2.24 143 07:22 15.05.2022
1495 Clear 11 1023 85 10000 0.51 0 06:42 15.05.2022
1496 Clear 14 1024 76 10000 4.02 155 02:38 15.05.2022
1497 Clear 14 1025 75 10000 4.47 187 23:59 14.05.2022
1498 Clear 15 1025 75 10000 3.6 200 23:35 14.05.2022
1499 Clear 15 1025 75 10000 3.6 200 23:35 14.05.2022
1500 Clear 15 1024 75 10000 4.47 189 21:45 14.05.2022
1501 Clear 15 1024 76 10000 4.02 216 21:24 14.05.2022
1502 Clear 16 1024 73 10000 4.63 180 20:25 14.05.2022
1503 Clear 16 1024 72 10000 4.63 190 19:20 14.05.2022
1504 Clear 16 1024 68 10000 4.63 190 18:57 14.05.2022
1505 Clear 17 1023 63 10000 6.17 180 17:44 14.05.2022
1506 Clouds 19 1023 54 10000 5.14 190 15:58 14.05.2022
1507 Clouds 19 1023 62 10000 4.12 190 14:38 14.05.2022
1508 Clouds 19 1024 67 10000 3.09 190 13:24 14.05.2022
1509 Rain 19 1025 69 10000 2.24 0 11:42 14.05.2022
1510 Clouds 17 1024 81 10000 1.54 0 10:39 14.05.2022
1511 Clouds 16 1024 83 10000 1.54 0 10:18 14.05.2022
1512 Clouds 14 1024 93 10000 1.03 0 09:23 14.05.2022
1513 Clouds 12 1023 93 10000 2.06 40 07:26 14.05.2022
1514 Clouds 12 1022 90 10000 2.06 10 04:32 14.05.2022
1515 Clouds 12 1022 91 10000 2.57 20 00:25 14.05.2022
1516 Clouds 12 1022 89 10000 3.09 30 23:25 13.05.2022
1517 Clouds 13 1022 89 10000 3.09 10 22:54 13.05.2022
1518 Clouds 13 1022 89 10000 3.09 10 22:21 13.05.2022
1519 Clouds 14 1021 85 10000 2.57 340 20:59 13.05.2022
1520 Clouds 15 1021 83 10000 2.57 340 20:37 13.05.2022
1521 Clouds 15 1021 83 10000 2.57 340 20:19 13.05.2022
1522 Clouds 15 1021 80 10000 3.6 320 18:56 13.05.2022
1523 Clouds 16 1020 79 10000 4.63 310 17:42 13.05.2022
1524 Clouds 17 1020 76 10000 4.63 310 17:22 13.05.2022
1525 Rain 18 1020 73 10000 5.14 320 15:46 13.05.2022
1526 Clouds 17 1020 79 10000 5.66 310 14:38 13.05.2022
1527 Clouds 16 1021 85 10000 3.6 20 12:51 13.05.2022
1528 Clouds 15 1021 89 10000 3.09 360 11:54 13.05.2022
1529 Clouds 14 1020 94 10000 5.66 30 09:54 13.05.2022
1530 Clouds 14 1020 94 10000 5.66 30 09:26 13.05.2022
1531 Rain 13 1020 94 10000 5.66 20 07:51 13.05.2022
1532 Clouds 14 1019 94 10000 5.14 40 06:50 13.05.2022
1533 Rain 14 1020 94 10000 4.12 40 04:54 13.05.2022
1534 Rain 14 1020 90 7000 3.6 360 00:59 13.05.2022
1535 Rain 15 1020 77 10000 6.69 330 22:59 12.05.2022
1536 Rain 16 1020 75 10000 6.69 330 22:34 12.05.2022
1537 Clouds 16 1020 75 10000 6.17 330 21:24 12.05.2022
1538 Clouds 15 1019 74 10000 4.63 320 19:49 12.05.2022
1539 Clouds 16 1018 70 10000 7.2 320 18:27 12.05.2022
1540 Clouds 17 1018 65 10000 8.23 320 16:45 12.05.2022
1541 Clouds 19 1018 54 10000 8.75 310 14:57 12.05.2022
1542 Clouds 18 1018 59 10000 7.72 320 13:50 12.05.2022
1543 Clouds 17 1019 67 10000 3.6 300 11:55 12.05.2022
1544 Clouds 15 1019 75 10000 4.12 50 10:34 12.05.2022
1545 Clouds 12 1018 90 10000 3.09 60 08:56 12.05.2022
1546 Clouds 12 1018 91 10000 3.09 60 08:35 12.05.2022
1547 Clouds 11 1018 92 10000 2.06 30 07:25 12.05.2022
1548 Clouds 10 1017 92 10000 1.54 30 04:45 12.05.2022
1549 Clear 11 1018 92 10000 1.03 20 01:37 12.05.2022
1550 Clear 11 1018 88 10000 2.06 50 23:36 11.05.2022
1551 Clear 12 1018 90 10000 1.03 50 22:21 11.05.2022
1552 Clear 12 1018 86 10000 2.06 30 21:26 11.05.2022
1553 Clear 12 1018 86 10000 2.06 30 21:26 11.05.2022
1554 Clear 14 1019 82 10000 1.54 0 20:45 11.05.2022
1555 Clouds 17 1018 70 10000 5.14 280 17:43 11.05.2022
1556 Clouds 19 1019 65 10000 5.66 300 16:39 11.05.2022
1557 Clouds 19 1019 63 10000 6.69 290 14:49 11.05.2022
1558 Clouds 19 1018 66 10000 6.69 290 14:25 11.05.2022
1559 Clouds 18 1019 68 10000 6.69 290 13:37 11.05.2022
1560 Clouds 18 1020 77 10000 3.09 20 11:48 11.05.2022
1561 Rain 15 1019 93 10000 3.6 40 09:34 11.05.2022
1562 Clouds 14 1018 94 10000 2.06 350 07:52 11.05.2022
1563 Clouds 14 1017 95 10000 4.12 320 03:38 11.05.2022
1564 Rain 15 1016 92 10000 2.24 256 23:48 10.05.2022
1565 Rain 15 1016 90 8000 6.17 300 22:30 10.05.2022
1566 Rain 16 1015 89 9000 7.2 330 21:43 10.05.2022
1567 Rain 16 1015 85 9000 7.72 340 20:48 10.05.2022
1568 Clouds 16 1015 77 10000 9.26 330 19:25 10.05.2022
1569 Clouds 16 1013 73 10000 8.23 330 17:44 10.05.2022
1570 Clouds 18 1013 69 10000 7.72 330 16:39 10.05.2022
1571 Clear 17 1013 71 10000 8.23 310 13:54 10.05.2022
1572 Clear 17 1014 73 10000 8.23 310 12:30 10.05.2022
1573 Clear 17 1015 72 10000 6.69 320 11:42 10.05.2022
1574 Clear 17 1015 74 10000 6.69 320 11:18 10.05.2022
1575 Clear 13 1015 87 10000 4.12 340 09:52 10.05.2022
1576 Clear 9 1015 92 10000 3.09 30 08:29 10.05.2022
1577 Clear 7 1015 93 10000 2.06 40 06:35 10.05.2022
1578 Clear 7 1017 93 10000 2.57 50 02:48 10.05.2022
1579 Clear 11 1018 90 10000 2.06 50 00:23 10.05.2022
1580 Clear 12 1019 86 10000 0 0 22:43 09.05.2022
1581 Clear 12 1019 85 10000 1.03 0 21:48 09.05.2022
1582 Clear 13 1019 84 10000 2.06 330 20:23 09.05.2022
1583 Clear 14 1019 80 10000 4.63 330 18:43 09.05.2022
1584 Clear 16 1019 70 10000 4.63 330 17:39 09.05.2022
1585 Clear 18 1018 62 10000 5.14 310 16:29 09.05.2022
1586 Clear 18 1018 55 10000 6.17 320 15:49 09.05.2022
1587 Clear 18 1018 60 10000 6.17 310 14:47 09.05.2022
1588 Clear 18 1019 63 10000 6.17 310 14:22 09.05.2022
1589 Clear 18 1019 64 10000 5.66 310 13:32 09.05.2022
1590 Clear 18 1020 68 10000 4.63 340 11:56 09.05.2022
1591 Clear 16 1020 76 10000 4.12 340 10:51 09.05.2022
1592 Clear 15 1021 79 10000 4.12 340 10:31 09.05.2022
1593 Clear 10 1020 94 10000 2.57 40 08:23 09.05.2022
1594 Clear 10 1020 92 10000 1.54 50 07:43 09.05.2022
1595 Mist 12 1021 88 4000 1.03 20 02:44 09.05.2022
1596 Clear 14 1021 84 10000 0.89 188 23:29 08.05.2022
1597 Clear 13 1022 84 10000 2.06 170 22:47 08.05.2022
1598 Clear 14 1022 83 10000 2.24 181 21:47 08.05.2022
1599 Clear 14 1022 83 10000 3.09 140 20:33 08.05.2022
1600 Clear 14 1022 76 10000 3.09 120 19:37 08.05.2022
1601 Clear 16 1022 72 10000 2.57 140 18:49 08.05.2022
1602 Clear 17 1021 63 10000 3.6 300 17:52 08.05.2022
1603 Clear 20 1020 54 10000 2.06 170 16:33 08.05.2022
1604 Clear 21 1020 50 10000 2.06 230 15:25 08.05.2022
1605 Clear 21 1021 49 10000 2.57 200 14:27 08.05.2022
1606 Clear 18 1023 64 10000 2.57 260 11:53 08.05.2022
1607 Clear 16 1024 73 10000 3.09 250 10:27 08.05.2022
1608 Clear 15 1023 77 10000 2.57 240 09:55 08.05.2022
1609 Clear 14 1024 81 10000 5.14 230 08:52 08.05.2022
1610 Clear 12 1023 86 10000 4.12 200 06:51 08.05.2022
1611 Clear 14 1023 81 10000 6.69 160 03:25 08.05.2022
1612 Clear 14 1023 84 10000 6.69 180 02:23 08.05.2022
1613 Clear 14 1023 80 10000 7.2 170 00:21 08.05.2022
1614 Clear 13 1023 83 10000 5.14 170 23:46 07.05.2022
1615 Clear 14 1023 80 10000 5.36 181 22:46 07.05.2022
1616 Clear 14 1023 78 10000 4.47 206 21:57 07.05.2022
1617 Clear 14 1023 76 10000 5.36 173 21:33 07.05.2022
1618 Clouds 15 1022 72 10000 5.14 150 20:27 07.05.2022
1619 Clear 15 1021 66 10000 7.72 160 18:59 07.05.2022
1620 Clear 16 1021 57 10000 10.29 170 17:33 07.05.2022
1621 Clouds 18 1021 57 10000 10.29 170 15:34 07.05.2022
1622 Clouds 19 1022 59 10000 8.75 150 12:34 07.05.2022
1623 Clouds 16 1022 71 10000 8.23 160 10:23 07.05.2022
1624 Clouds 14 1021 84 10000 6.17 170 08:52 07.05.2022
1625 Clouds 14 1021 88 10000 5.14 180 07:43 07.05.2022
1626 Clouds 13 1021 89 10000 5.66 180 06:43 07.05.2022
1627 Clouds 13 1020 90 10000 5.14 160 04:24 07.05.2022
1628 Clouds 14 1020 90 10000 8.23 190 00:50 07.05.2022
1629 Clouds 14 1020 90 10000 6.17 190 23:28 06.05.2022
1630 Clouds 14 1020 89 10000 4.92 217 22:21 06.05.2022
1631 Clouds 14 1020 90 10000 4.92 211 21:36 06.05.2022
1632 Rain 14 1020 91 10000 3.09 210 20:20 06.05.2022
1633 Clouds 14 1019 91 10000 4.02 203 19:28 06.05.2022
1634 Rain 13 1018 90 8000 3.09 140 18:54 06.05.2022
1635 Rain 14 1019 93 8000 5.66 180 17:38 06.05.2022
1636 Rain 14 1018 93 3500 6.17 180 15:56 06.05.2022
1637 Drizzle 14 1018 95 4000 7.2 180 15:33 06.05.2022
1638 Rain 15 1017 93 9000 4.02 251 14:22 06.05.2022
1639 Rain 16 1019 94 2000 2.57 250 12:52 06.05.2022
1640 Rain 15 1019 93 3000 1.54 300 12:30 06.05.2022
1641 Rain 16 1019 91 3000 1.54 0 11:33 06.05.2022
1642 Clouds 15 1018 93 10000 4.12 30 09:49 06.05.2022
1643 Clouds 14 1018 93 10000 1.34 240 09:19 06.05.2022
1644 Clouds 13 1017 93 10000 3.09 40 07:56 06.05.2022
1645 Clouds 12 1016 96 10000 2.24 320 06:29 06.05.2022
1646 Clear 10 1016 93 10000 1.54 0 04:32 06.05.2022
1647 Clouds 10 1016 93 8000 1.03 350 02:40 06.05.2022
1648 Mist 11 1017 100 2000 1.03 360 23:34 05.05.2022
1649 Mist 13 1016 90 1500 1.03 0 21:52 05.05.2022
1650 Clouds 14 1017 89 6000 2.57 320 20:48 05.05.2022
1651 Clouds 14 1016 88 6000 1.54 0 19:42 05.05.2022
1652 Clear 21 1016 58 10000 7.72 320 16:53 05.05.2022
1653 Clear 21 1015 52 10000 6.17 330 15:52 05.05.2022
1654 Clear 20 1015 60 10000 5.66 330 14:37 05.05.2022
1655 Clear 21 1015 56 10000 6.17 310 13:18 05.05.2022
1656 Clear 24 1017 61 10000 2.57 320 11:48 05.05.2022
1657 Clear 18 1018 88 10000 1.54 0 10:28 05.05.2022
1658 Clear 14 1017 100 10000 1.54 0 09:32 05.05.2022
1659 Fog 13 1017 93 100 1.54 0 06:49 05.05.2022
1660 Fog 13 1019 92 100 1.03 160 02:30 05.05.2022
1661 Fog 14 1017 90 100 2.24 142 01:47 05.05.2022
1662 Clouds 14 1017 91 10000 1.79 142 01:20 05.05.2022
1663 Fog 15 1018 92 100 2.24 124 23:28 04.05.2022
1664 Fog 16 1018 91 100 3.13 134 22:25 04.05.2022
1665 Fog 16 1018 91 300 2.24 146 21:48 04.05.2022
1666 Fog 16 1018 90 300 2.24 151 21:22 04.05.2022
1667 Clouds 17 1019 86 10000 4.02 133 20:22 04.05.2022
1668 Clear 17 1019 87 10000 4.12 210 19:51 04.05.2022
1669 Clear 17 1019 83 10000 3.58 197 18:45 04.05.2022
1670 Clear 18 1019 84 10000 3.13 187 18:20 04.05.2022
1671 Clear 19 1019 77 10000 4.12 200 17:28 04.05.2022
1672 Clear 23 1019 58 10000 4.12 190 15:38 04.05.2022
1673 Clear 24 1019 53 10000 3.09 190 14:49 04.05.2022
1674 Clear 24 1019 53 10000 3.09 190 14:20 04.05.2022
1675 Clear 23 1020 63 10000 3.6 230 12:58 04.05.2022
1676 Clear 22 1020 64 10000 3.6 230 12:28 04.05.2022
1677 Clear 19 1021 79 10000 2.68 132 10:33 04.05.2022
1678 Clouds 16 1022 89 9000 0.89 0 09:28 04.05.2022
1679 Clear 15 1021 89 10000 3.13 194 08:33 04.05.2022
1680 Clouds 16 1020 87 6000 4.92 188 05:50 04.05.2022
1681 Clear 16 1021 90 8000 3.6 210 02:43 04.05.2022
1682 Clouds 17 1020 90 6000 5.14 220 23:31 03.05.2022
1683 Fog 17 1020 90 350 5.14 230 22:20 03.05.2022
1684 Fog 17 1020 89 600 5.66 230 21:33 03.05.2022
1685 Fog 18 1020 90 800 5.66 210 20:52 03.05.2022
1686 Mist 18 1020 87 5000 4.92 178 19:44 03.05.2022
1687 Clear 18 1019 85 10000 4.63 220 18:50 03.05.2022
1688 Clear 20 1019 80 10000 5.66 190 17:38 03.05.2022
1689 Clear 20 1019 80 10000 8.23 180 16:35 03.05.2022
1690 Clear 22 1018 66 10000 5.66 220 14:51 03.05.2022
1691 Clear 22 1019 65 10000 6.71 169 12:47 03.05.2022
1692 Clear 22 1019 66 10000 6.69 210 12:25 03.05.2022
1693 Clear 22 1019 65 10000 6.69 210 12:25 03.05.2022
1694 Clouds 21 1019 74 10000 6.71 218 10:52 03.05.2022
1695 Clouds 18 1021 85 10000 6.17 210 08:58 03.05.2022
1696 Clouds 17 1020 89 7000 5.81 193 06:46 03.05.2022
1697 Fog 16 1018 91 500 4.92 166 04:58 03.05.2022
1698 Clear 16 1017 73 10000 4.12 180 23:44 02.05.2022
1699 Clouds 18 1016 53 10000 1.79 127 22:36 02.05.2022
1700 Clear 18 1017 55 10000 1.54 110 21:49 02.05.2022
1701 Clear 18 1017 56 10000 2.06 110 20:51 02.05.2022
1702 Clear 20 1017 54 10000 1.54 120 18:37 02.05.2022
1703 Clear 22 1017 50 10000 2.06 160 17:53 02.05.2022
1704 Clear 23 1017 48 10000 2.06 160 17:33 02.05.2022
1705 Clear 25 1016 44 10000 3.6 190 16:20 02.05.2022
1706 Clear 26 1016 35 10000 4.12 160 15:19 02.05.2022
1707 Clear 28 1018 32 10000 2.57 170 13:50 02.05.2022
1708 Clear 26 1018 42 10000 2.06 190 12:18 02.05.2022
1709 Clear 20 1019 65 10000 1.03 0 10:25 02.05.2022
1710 Clear 15 1019 80 10000 1.54 110 08:46 02.05.2022
1711 Clear 10 1019 93 10000 2.06 70 07:39 02.05.2022
1712 Clear 13 1020 83 10000 2.24 149 02:51 02.05.2022
1713 Clear 14 1023 83 10000 1.54 0 00:24 02.05.2022
1714 Clear 15 1023 79 10000 2.68 158 23:47 01.05.2022
1715 Clear 16 1024 79 10000 4.12 240 22:20 01.05.2022
1716 Clear 16 1024 78 10000 4.12 230 21:18 01.05.2022
1717 Clear 17 1024 76 10000 5.14 230 19:50 01.05.2022
1718 Clear 18 1024 73 10000 5.66 200 18:55 01.05.2022
1719 Clear 18 1023 72 10000 5.81 176 18:22 01.05.2022
1720 Clear 19 1024 67 10000 7.15 186 17:18 01.05.2022
1721 Clear 19 1024 66 10000 9.26 190 16:23 01.05.2022
1722 Clear 21 1024 61 10000 8.23 190 15:23 01.05.2022
1723 Clear 21 1024 59 10000 7.72 190 13:42 01.05.2022
1724 Clear 19 1026 67 10000 5.81 205 10:53 01.05.2022
1725 Clear 16 1026 80 10000 4.47 177 08:53 01.05.2022
1726 Clear 15 1025 78 10000 3.6 220 07:53 01.05.2022
1727 Clear 14 1025 84 10000 3.09 200 03:26 01.05.2022
1728 Clear 14 1025 80 10000 3.09 180 23:23 30.04.2022
1729 Clear 15 1025 79 10000 2.06 180 21:44 30.04.2022
1730 Clear 16 1025 74 10000 3.6 180 20:45 30.04.2022
1731 Clear 16 1025 74 10000 3.09 180 19:41 30.04.2022
1732 Clear 16 1025 74 10000 3.09 180 19:41 30.04.2022
1733 Clear 18 1024 67 10000 5.66 180 17:45 30.04.2022
1734 Clear 19 1023 62 10000 6.69 180 16:42 30.04.2022
1735 Clouds 21 1023 59 10000 6.17 180 15:24 30.04.2022
1736 Clouds 20 1023 57 10000 2.24 326 14:34 30.04.2022
1737 Clouds 20 1024 64 10000 2.24 349 12:42 30.04.2022
1738 Clouds 19 1024 68 10000 1.54 0 11:33 30.04.2022
1739 Clear 17 1024 78 10000 1.54 0 10:43 30.04.2022
1740 Fog 13 1023 90 200 2.06 40 08:59 30.04.2022
1741 Clouds 12 1022 92 10000 2.57 40 06:43 30.04.2022
1742 Clouds 14 1021 90 10000 1.79 296 01:53 30.04.2022
1743 Clouds 14 1021 90 10000 2.57 340 23:37 29.04.2022
1744 Clouds 15 1022 87 10000 1.09 186 22:31 29.04.2022
1745 Clouds 15 1021 86 10000 3.6 330 21:34 29.04.2022
1746 Clouds 15 1020 86 10000 3.6 310 20:40 29.04.2022
1747 Clouds 15 1019 85 10000 4.12 320 19:43 29.04.2022
1748 Clouds 16 1018 79 10000 5.14 320 17:54 29.04.2022
1749 Clouds 17 1018 77 10000 5.14 320 17:21 29.04.2022
1750 Clouds 18 1018 71 10000 4.63 320 15:23 29.04.2022
1751 Clouds 18 1018 72 10000 4.12 320 14:22 29.04.2022
1752 Drizzle 17 1019 84 6000 5.14 320 12:52 29.04.2022
1753 Drizzle 15 1018 90 10000 5.14 330 11:40 29.04.2022
1754 Clouds 15 1016 88 10000 5.14 40 08:46 29.04.2022
1755 Clouds 14 1016 88 10000 4.63 40 07:27 29.04.2022
1756 Clouds 14 1016 87 10000 5.14 30 06:39 29.04.2022
1757 Clouds 14 1014 89 10000 2.57 330 04:53 29.04.2022
1758 Clouds 16 1012 88 10000 6.17 200 00:39 29.04.2022
1759 Clouds 15 1011 87 10000 5.66 220 23:27 28.04.2022
1760 Clouds 15 1011 85 10000 4.12 210 22:41 28.04.2022
1761 Clouds 15 1010 85 10000 4.12 220 21:47 28.04.2022
1762 Clouds 15 1010 86 10000 4.12 220 21:19 28.04.2022
1763 Clear 16 1009 86 10000 4.47 119 20:25 28.04.2022
1764 Clear 15 1010 86 10000 5.36 166 19:41 28.04.2022
1765 Clear 16 1010 86 10000 5.36 174 19:22 28.04.2022
1766 Clear 16 1011 83 10000 5.81 175 18:35 28.04.2022
1767 Clear 18 1011 74 10000 6.17 210 17:24 28.04.2022
1768 Clear 19 1011 72 10000 6.69 210 16:40 28.04.2022
1769 Clear 20 1011 70 10000 6.69 210 16:18 28.04.2022
1770 Clear 21 1011 68 10000 6.17 210 15:28 28.04.2022
1771 Clear 22 1011 64 10000 6.17 220 14:19 28.04.2022
1772 Clear 20 1013 65 10000 5.66 220 12:44 28.04.2022
1773 Clear 19 1013 67 10000 5.36 174 11:59 28.04.2022
1774 Clear 19 1013 69 10000 5.66 210 10:46 28.04.2022
1775 Clouds 18 1014 74 10000 5.81 136 09:56 28.04.2022
1776 Clouds 16 1014 82 10000 5.14 220 08:44 28.04.2022
1777 Clear 14 1015 87 10000 5.66 220 07:36 28.04.2022
1778 Clouds 15 1013 87 10000 5.36 138 05:56 28.04.2022
1779 Clouds 14 1014 87 8000 5.66 210 05:38 28.04.2022
1780 Clouds 14 1014 87 6000 5.14 220 04:40 28.04.2022
1781 Clear 15 1017 86 10000 5.36 138 00:36 28.04.2022
1782 Clear 15 1017 85 10000 4.12 200 22:45 27.04.2022
1783 Clear 15 1017 82 10000 4.12 200 21:56 27.04.2022
1784 Clear 15 1017 78 10000 4.12 200 21:26 27.04.2022
1785 Clear 17 1017 66 10000 3.58 166 20:38 27.04.2022
1786 Clear 18 1017 62 10000 3.13 199 19:38 27.04.2022
1787 Clear 18 1017 63 10000 3.13 151 19:18 27.04.2022
1788 Clear 18 1017 55 10000 3.6 160 18:25 27.04.2022
1789 Clear 20 1017 51 10000 4.12 170 17:26 27.04.2022
1790 Clear 24 1017 37 10000 3.6 170 15:22 27.04.2022
1791 Clear 23 1019 40 10000 2.06 0 12:31 27.04.2022
1792 Clear 21 1020 49 10000 1.54 0 11:23 27.04.2022
1793 Clear 17 1021 64 10000 2.06 190 09:59 27.04.2022
1794 Clear 12 1019 80 10000 1.03 0 07:26 27.04.2022
1795 Clear 13 1020 76 10000 2.57 220 05:50 27.04.2022
1796 Clear 15 1022 73 10000 8.23 160 01:52 27.04.2022
1797 Clear 15 1023 73 10000 6.26 156 00:57 27.04.2022
1798 Clear 16 1023 70 10000 8.75 190 23:58 26.04.2022
1799 Clear 16 1023 70 10000 8.75 190 23:23 26.04.2022
1800 Clear 16 1024 72 10000 8.23 170 22:42 26.04.2022
1801 Clear 16 1024 73 10000 7.2 190 21:49 26.04.2022
1802 Clear 16 1024 72 10000 7.72 180 20:56 26.04.2022
1803 Clear 16 1024 71 10000 7.72 180 20:35 26.04.2022
1804 Clear 16 1024 71 10000 8.75 180 19:34 26.04.2022
1805 Clear 17 1023 68 10000 8.75 180 18:51 26.04.2022
1806 Clear 17 1022 65 10000 8.75 180 18:18 26.04.2022
1807 Clear 18 1021 61 10000 9.77 180 17:33 26.04.2022
1808 Clouds 20 1022 57 10000 10.29 180 14:46 26.04.2022
1809 Clouds 20 1022 56 10000 7.72 190 13:34 26.04.2022
1810 Clouds 20 1023 57 10000 7.2 180 12:25 26.04.2022
1811 Clouds 18 1023 60 10000 9.26 170 10:46 26.04.2022
1812 Clouds 18 1023 64 10000 6.69 170 09:50 26.04.2022
1813 Clouds 15 1023 73 10000 7.72 160 08:28 26.04.2022
1814 Clear 15 1021 74 10000 6.71 150 04:37 26.04.2022
1815 Clear 15 1022 71 10000 6.71 312 02:40 26.04.2022
1816 Clear 15 1023 70 10000 5.36 200 00:28 26.04.2022
1817 Clear 15 1023 74 10000 3.09 220 22:50 25.04.2022
1818 Clear 15 1023 72 10000 4.63 180 21:44 25.04.2022
1819 Clear 15 1023 72 10000 4.63 180 21:44 25.04.2022
1820 Clear 15 1023 71 10000 6.17 180 20:46 25.04.2022
1821 Clear 16 1023 70 10000 6.69 190 19:39 25.04.2022
1822 Clear 16 1022 69 10000 7.72 190 18:25 25.04.2022
1823 Clear 17 1022 60 10000 8.23 190 17:32 25.04.2022
1824 Clear 19 1022 50 10000 8.75 190 15:38 25.04.2022
1825 Clear 19 1022 50 10000 8.75 190 15:18 25.04.2022
1826 Clouds 20 1023 46 10000 6.69 180 13:59 25.04.2022
1827 Clouds 19 1024 49 10000 4.12 170 12:22 25.04.2022
1828 Clear 18 1025 60 10000 4.63 170 10:29 25.04.2022
1829 Clear 16 1025 70 10000 3.13 207 09:23 25.04.2022
1830 Clear 13 1023 76 10000 3.13 194 07:19 25.04.2022
1831 Clouds 14 1023 74 10000 3.58 169 05:32 25.04.2022
1832 Clouds 14 1023 79 10000 4.63 130 01:24 25.04.2022
1833 Clouds 13 1023 80 10000 2.24 205 23:53 24.04.2022
1834 Clouds 14 1023 79 10000 3.6 210 22:53 24.04.2022
1835 Clouds 14 1023 79 10000 3.6 210 22:32 24.04.2022
1836 Clouds 14 1023 79 10000 3.6 210 22:32 24.04.2022
1837 Clouds 14 1022 77 10000 4.12 210 21:54 24.04.2022
1838 Clouds 14 1022 77 10000 4.12 210 21:20 24.04.2022
1839 Clouds 15 1022 77 10000 4.63 190 20:38 24.04.2022
1840 Clouds 15 1022 75 10000 5.14 190 19:50 24.04.2022
1841 Clouds 16 1021 70 10000 6.17 180 18:28 24.04.2022
1842 Clouds 16 1021 70 10000 7.72 180 17:40 24.04.2022
1843 Clouds 17 1020 65 10000 7.72 180 17:19 24.04.2022
1844 Clouds 17 1020 65 10000 6.69 180 16:48 24.04.2022
1845 Clouds 17 1020 66 10000 6.69 180 16:20 24.04.2022
1846 Clouds 19 1020 57 10000 6.69 190 15:32 24.04.2022
1847 Clouds 19 1020 55 10000 5.66 170 14:30 24.04.2022
1848 Clouds 18 1020 57 10000 4.63 180 13:26 24.04.2022
1849 Rain 18 1020 59 10000 4.63 190 12:37 24.04.2022
1850 Clouds 18 1020 61 10000 4.12 190 11:39 24.04.2022
1851 Clouds 17 1020 65 10000 2.06 170 10:32 24.04.2022
1852 Clouds 16 1020 68 10000 1.54 0 09:39 24.04.2022
1853 Clouds 10 1018 80 10000 1.54 80 07:31 24.04.2022
1854 Clear 12 1017 72 10000 3.6 210 04:44 24.04.2022
1855 Clear 13 1017 73 10000 2.57 190 01:39 24.04.2022
1856 Clear 13 1017 73 10000 4.12 160 00:33 24.04.2022
1857 Clouds 14 1017 71 10000 4.63 170 23:45 23.04.2022
1858 Clouds 14 1017 71 10000 4.63 170 23:22 23.04.2022
1859 Clouds 15 1018 67 10000 6.17 180 21:54 23.04.2022
1860 Clouds 15 1017 67 10000 6.17 180 21:34 23.04.2022
1861 Clouds 15 1017 67 10000 9.26 170 20:57 23.04.2022
1862 Clear 15 1017 64 10000 8.23 180 19:49 23.04.2022
1863 Clear 15 1017 64 10000 8.23 180 19:19 23.04.2022
1864 Clear 15 1017 62 10000 9.26 190 18:53 23.04.2022
1865 Clear 16 1017 63 10000 9.26 190 18:24 23.04.2022
1866 Clear 16 1016 61 10000 10.29 190 17:43 23.04.2022
1867 Clear 17 1016 58 10000 11.32 180 16:43 23.04.2022
1868 Clear 18 1016 55 10000 11.32 180 15:32 23.04.2022
1869 Clear 18 1017 57 10000 8.23 190 12:49 23.04.2022
1870 Clouds 17 1017 62 10000 7.72 170 10:50 23.04.2022
1871 Clear 16 1017 67 10000 7.72 190 09:38 23.04.2022
1872 Clear 13 1017 73 10000 6.69 180 07:21 23.04.2022
1873 Clouds 14 1017 70 10000 9.26 160 03:54 23.04.2022
1874 Clouds 15 1017 73 10000 9.26 180 01:32 23.04.2022
1875 Clouds 15 1018 70 10000 9.77 170 23:32 22.04.2022
1876 Clouds 15 1018 71 10000 7.2 180 22:22 22.04.2022
1877 Clouds 15 1019 71 10000 8.23 170 21:44 22.04.2022
1878 Clear 16 1019 69 10000 6.71 140 20:54 22.04.2022
1879 Clouds 16 1019 67 10000 9.26 170 20:27 22.04.2022
1880 Clouds 16 1019 66 10000 9.77 170 19:21 22.04.2022
1881 Clouds 16 1019 66 10000 10.29 170 18:45 22.04.2022
1882 Clouds 17 1018 66 10000 11.32 170 17:48 22.04.2022
1883 Clouds 18 1018 62 10000 11.83 180 16:46 22.04.2022
1884 Clouds 18 1018 68 10000 12.35 180 15:45 22.04.2022
1885 Clouds 18 1018 64 10000 7.6 182 15:18 22.04.2022
1886 Clouds 21 1018 50 10000 6.69 150 13:54 22.04.2022
1887 Clouds 21 1019 49 10000 8.23 170 12:59 22.04.2022
1888 Clouds 20 1019 51 10000 8.23 170 12:28 22.04.2022
1889 Clouds 19 1019 53 10000 7.72 170 11:22 22.04.2022
1890 Clouds 19 1019 54 10000 6.69 160 10:51 22.04.2022
1891 Clouds 19 1019 63 10000 6.17 160 10:31 22.04.2022
1892 Clouds 18 1019 68 10000 4.63 180 09:53 22.04.2022
1893 Clouds 17 1019 75 10000 3.6 170 08:51 22.04.2022
1894 Clouds 16 1018 76 10000 4.12 180 07:33 22.04.2022
1895 Clouds 16 1016 88 10000 6.17 190 03:47 22.04.2022
1896 Clouds 16 1015 88 10000 5.14 190 00:52 22.04.2022
1897 Clouds 16 1015 86 10000 3.6 180 23:26 21.04.2022
1898 Clear 16 1015 79 10000 3.6 180 22:29 21.04.2022
1899 Clear 17 1015 71 10000 5.14 190 20:43 21.04.2022
1900 Clear 17 1015 71 10000 5.14 190 20:24 21.04.2022
1901 Clear 18 1014 67 10000 6.17 170 18:44 21.04.2022
1902 Clear 19 1014 66 10000 2.68 154 18:19 21.04.2022
1903 Clear 21 1014 60 10000 6.69 170 16:47 21.04.2022
1904 Clouds 21 1013 62 10000 6.69 180 15:22 21.04.2022
1905 Clouds 22 1013 61 10000 5.14 170 14:50 21.04.2022
1906 Clouds 22 1014 64 10000 5.14 180 13:24 21.04.2022
1907 Clouds 21 1014 65 10000 5.14 170 12:59 21.04.2022
1908 Clouds 20 1015 74 10000 3.6 170 10:57 21.04.2022
1909 Mist 18 1015 85 4000 1.79 141 08:57 21.04.2022
1910 Mist 16 1014 90 1200 2.06 160 07:49 21.04.2022
1911 Mist 16 1013 93 4000 1.79 167 05:44 21.04.2022
1912 Clouds 17 1013 90 8000 3.6 160 03:33 21.04.2022
1913 Mist 17 1014 92 3000 4.12 160 02:48 21.04.2022
1914 Mist 17 1014 92 3000 4.12 160 02:48 21.04.2022
1915 Fog 17 1014 93 800 2.57 150 01:41 21.04.2022
1916 Fog 17 1014 87 2000 2.06 130 23:51 20.04.2022
1917 Mist 17 1014 88 5000 2.57 170 23:23 20.04.2022
1918 Fog 17 1014 84 100 2.57 160 22:51 20.04.2022
1919 Fog 17 1014 79 100 2.57 160 22:32 20.04.2022
1920 Clear 18 1014 66 10000 2.06 140 21:33 20.04.2022
1921 Clear 18 1014 62 10000 2.06 100 20:41 20.04.2022
1922 Clear 19 1013 60 10000 1.54 0 19:53 20.04.2022
1923 Clear 20 1013 49 10000 2.24 110 19:22 20.04.2022
1924 Clear 24 1013 39 10000 1.54 0 18:26 20.04.2022
1925 Clear 25 1012 34 10000 7.72 320 16:57 20.04.2022
1926 Clear 26 1012 33 10000 7.72 320 16:38 20.04.2022
1927 Clear 30 1012 19 10000 6.69 320 14:26 20.04.2022
1928 Clear 30 1014 22 10000 6.17 350 11:55 20.04.2022
1929 Clear 31 1014 19 10000 6.17 350 11:25 20.04.2022
1930 Clear 26 1014 31 10000 2.06 260 10:24 20.04.2022
1931 Clear 26 1013 32 10000 2.57 330 09:26 20.04.2022
1932 Clear 23 1014 40 10000 4.63 30 08:22 20.04.2022
1933 Clear 22 1013 42 10000 5.14 30 07:42 20.04.2022
1934 Clear 22 1013 42 10000 5.14 30 07:42 20.04.2022
1935 Clear 16 1014 82 10000 2.57 50 03:54 20.04.2022
1936 Clear 19 1015 61 10000 2.68 151 00:38 20.04.2022
1937 Clear 19 1015 60 10000 2.68 127 00:20 20.04.2022
1938 Clear 20 1016 54 10000 2.24 132 22:28 19.04.2022
1939 Clear 19 1016 63 10000 1.79 117 21:57 19.04.2022
1940 Clear 19 1016 64 10000 1.79 130 21:34 19.04.2022
1941 Clear 20 1016 62 10000 1.79 110 20:56 19.04.2022
1942 Clear 20 1016 60 10000 1.54 0 20:34 19.04.2022
1943 Clear 20 1017 64 10000 2.57 220 19:24 19.04.2022
1944 Clear 23 1017 56 10000 3.09 180 17:59 19.04.2022
1945 Clear 27 1017 46 10000 3.09 170 16:44 19.04.2022
1946 Clear 27 1017 38 10000 3.09 170 16:24 19.04.2022
1947 Clear 27 1017 38 10000 3.6 190 15:20 19.04.2022
1948 Clear 27 1017 40 10000 3.6 200 14:31 19.04.2022
1949 Clear 27 1018 43 10000 2.24 143 12:52 19.04.2022
1950 Clear 26 1018 41 10000 2.24 163 12:26 19.04.2022
1951 Clear 24 1019 53 10000 2.24 218 11:23 19.04.2022
1952 Clear 17 1019 82 10000 3.58 141 09:26 19.04.2022
1953 Clear 13 1018 89 10000 1.34 206 07:26 19.04.2022
1954 Clear 15 1019 85 10000 3.58 142 04:19 19.04.2022
1955 Clear 15 1022 90 10000 3.09 210 00:56 19.04.2022
1956 Clear 15 1020 88 10000 3.13 117 23:38 18.04.2022
1957 Clear 15 1020 85 10000 6.69 220 21:56 18.04.2022
1958 Clear 15 1022 86 10000 6.69 220 21:24 18.04.2022
1959 Clear 16 1021 83 10000 5.66 220 20:38 18.04.2022
1960 Clear 16 1021 84 10000 5.81 204 19:59 18.04.2022
1961 Clear 16 1021 84 10000 6.71 195 19:29 18.04.2022
1962 Clear 17 1021 82 10000 6.71 176 18:34 18.04.2022
1963 Clear 19 1021 74 10000 5.14 210 17:39 18.04.2022
1964 Clear 19 1021 74 10000 5.14 210 17:39 18.04.2022
1965 Clear 20 1021 72 10000 5.14 210 17:19 18.04.2022
1966 Clear 22 1020 66 10000 5.36 181 16:36 18.04.2022
1967 Clear 22 1020 65 10000 5.66 220 15:30 18.04.2022
1968 Clear 22 1021 60 10000 5.14 230 13:55 18.04.2022
1969 Clear 21 1022 62 10000 5.14 220 12:41 18.04.2022
1970 Clear 21 1022 62 10000 4.92 174 11:48 18.04.2022
1971 Clear 20 1022 63 10000 4.02 155 10:46 18.04.2022
1972 Clear 18 1021 68 10000 3.09 190 09:31 18.04.2022
1973 Clear 16 1021 81 10000 3.09 240 08:39 18.04.2022
1974 Clear 15 1020 82 10000 5.36 188 06:44 18.04.2022
1975 Clear 16 1021 79 10000 9.77 170 02:27 18.04.2022
1976 Clear 16 1021 82 10000 7.15 212 22:55 17.04.2022
1977 Clear 16 1021 82 10000 7.6 167 22:32 17.04.2022
1978 Clear 17 1021 81 10000 6.71 209 21:34 17.04.2022
1979 Clear 17 1021 84 10000 6.71 200 20:51 17.04.2022
1980 Clear 17 1021 84 10000 6.71 285 20:18 17.04.2022
1981 Clear 17 1020 76 10000 6.71 198 18:42 17.04.2022
1982 Clear 18 1020 73 10000 6.26 126 17:26 17.04.2022
1983 Clear 22 1020 57 10000 5.14 220 15:34 17.04.2022
1984 Clear 23 1020 49 10000 4.92 160 14:45 17.04.2022
1985 Clear 23 1021 44 10000 4.12 180 13:29 17.04.2022
1986 Clear 23 1020 39 10000 5.14 180 12:45 17.04.2022
1987 Clear 20 1020 51 10000 4.63 210 10:58 17.04.2022
1988 Clear 20 1021 52 10000 4.63 210 10:29 17.04.2022
1989 Clear 18 1021 58 10000 3.13 128 09:51 17.04.2022
1990 Clear 17 1021 62 10000 3.13 143 09:20 17.04.2022
1991 Clear 17 1021 63 10000 4.92 143 08:31 17.04.2022
1992 Clear 14 1021 73 10000 2.68 133 06:29 17.04.2022
1993 Clear 15 1022 72 10000 4.92 181 02:26 17.04.2022
1994 Clear 15 1022 70 10000 6.26 212 00:41 17.04.2022
1995 Clear 15 1023 70 10000 5.81 152 23:30 16.04.2022
1996 Clear 16 1023 65 10000 5.81 160 21:47 16.04.2022
1997 Clear 17 1023 62 10000 6.17 140 20:54 16.04.2022
1998 Clear 18 1022 57 10000 5.36 198 19:28 16.04.2022
1999 Clear 18 1022 55 10000 7.72 140 18:43 16.04.2022
2000 Clear 22 1021 40 10000 7.2 140 17:20 16.04.2022
2001 Clear 23 1022 37 10000 6.69 140 15:51 16.04.2022
2002 Clear 23 1023 35 10000 6.69 150 14:58 16.04.2022
2003 Clear 24 1024 33 10000 6.69 150 14:40 16.04.2022
2004 Clear 23 1024 33 10000 4.63 160 13:50 16.04.2022
2005 Clear 23 1025 35 10000 4.63 160 13:18 16.04.2022
2006 Clear 21 1025 36 10000 2.68 0 11:43 16.04.2022
2007 Clear 19 1026 45 10000 2.57 140 10:33 16.04.2022
2008 Clear 17 1026 52 10000 4.92 204 09:37 16.04.2022
2009 Clear 17 1026 52 10000 4.92 204 09:37 16.04.2022
2010 Clear 15 1025 59 10000 5.81 248 08:52 16.04.2022
2011 Clear 14 1025 69 10000 5.36 235 07:22 16.04.2022
2012 Clear 15 1025 67 10000 6.26 129 05:38 16.04.2022
2013 Clear 15 1026 68 10000 7.2 150 01:47 16.04.2022
2014 Clear 15 1026 66 10000 6.69 140 23:52 15.04.2022
2015 Clear 15 1027 65 10000 7.72 150 22:51 15.04.2022
2016 Clear 15 1027 60 10000 7.72 150 22:29 15.04.2022
2017 Clear 15 1027 61 10000 9.26 150 21:25 15.04.2022
2018 Clear 15 1026 59 10000 9.26 140 20:38 15.04.2022
2019 Clouds 16 1026 57 10000 8.23 140 19:46 15.04.2022
2020 Clouds 16 1026 57 10000 8.23 140 19:23 15.04.2022
2021 Clouds 16 1025 60 10000 9.26 160 18:42 15.04.2022
2022 Clouds 17 1025 59 10000 9.26 160 18:22 15.04.2022
2023 Clouds 18 1025 52 10000 9.77 170 17:27 15.04.2022
2024 Clouds 19 1025 47 10000 10.29 170 16:25 15.04.2022
2025 Clouds 20 1025 42 10000 11.32 170 15:46 15.04.2022
2026 Clouds 19 1025 43 10000 12.35 160 14:20 15.04.2022
2027 Clouds 19 1025 49 10000 9.77 150 12:53 15.04.2022
2028 Clouds 19 1025 50 10000 9.77 150 12:26 15.04.2022
2029 Clouds 19 1025 52 10000 9.26 150 11:52 15.04.2022
2030 Clouds 18 1025 56 10000 8.23 150 10:48 15.04.2022
2031 Clouds 18 1025 57 10000 8.23 150 10:21 15.04.2022
2032 Clouds 16 1024 71 10000 4.92 147 09:23 15.04.2022
2033 Clouds 16 1023 72 10000 6.26 143 08:49 15.04.2022
2034 Clouds 14 1022 76 10000 6.69 160 06:52 15.04.2022
2035 Clouds 15 1021 77 10000 4.12 170 05:56 15.04.2022
2036 Rain 15 1019 73 10000 4.63 190 01:27 15.04.2022
2037 Clouds 15 1018 76 10000 2.68 0 23:29 14.04.2022
2038 Clouds 15 1018 68 10000 4.12 210 22:46 14.04.2022
2039 Clouds 16 1017 67 10000 4.12 210 22:27 14.04.2022
2040 Clouds 16 1017 67 10000 5.14 210 21:53 14.04.2022
2041 Clouds 16 1016 71 10000 6.69 210 19:53 14.04.2022
2042 Clouds 16 1015 70 10000 6.69 210 19:22 14.04.2022
2043 Clouds 18 1014 63 10000 7.2 190 17:48 14.04.2022
2044 Clouds 18 1014 63 10000 7.2 190 17:27 14.04.2022
2045 Clouds 19 1014 60 10000 7.2 190 16:32 14.04.2022
2046 Clouds 19 1014 62 10000 8.75 170 13:55 14.04.2022
2047 Clouds 20 1014 60 10000 8.75 170 13:26 14.04.2022
2048 Clouds 19 1014 61 10000 7.72 180 12:38 14.04.2022
2049 Clouds 20 1013 55 10000 7.72 180 12:19 14.04.2022
2050 Clouds 19 1014 64 10000 8.23 160 11:21 14.04.2022
2051 Clouds 19 1014 67 10000 8.75 170 10:36 14.04.2022
2052 Clouds 17 1014 78 10000 8.75 170 09:54 14.04.2022
2053 Clouds 17 1013 82 10000 8.23 170 08:39 14.04.2022
2054 Clear 17 1012 85 10000 8.23 170 06:26 14.04.2022
2055 Clear 18 1012 85 10000 7.2 180 01:49 14.04.2022
2056 Clear 18 1013 84 10000 8.75 170 22:45 13.04.2022
2057 Clear 18 1013 84 10000 8.75 180 21:44 13.04.2022
2058 Clear 18 1013 88 10000 9.77 180 20:53 13.04.2022
2059 Clear 19 1013 88 10000 9.77 180 20:22 13.04.2022
2060 Clear 19 1012 88 10000 8.75 180 19:23 13.04.2022
2061 Clouds 20 1012 82 10000 8.75 180 17:54 13.04.2022
2062 Clouds 21 1012 81 10000 8.75 180 17:23 13.04.2022
2063 Clouds 21 1012 76 10000 8.23 190 16:33 13.04.2022
2064 Clouds 23 1012 69 10000 7.72 180 15:32 13.04.2022
2065 Clouds 24 1012 67 10000 6.17 180 14:50 13.04.2022
2066 Clouds 23 1012 66 10000 6.17 180 14:18 13.04.2022
2067 Clouds 23 1012 67 10000 3.58 213 13:19 13.04.2022
2068 Clouds 22 1013 71 10000 4.63 180 12:20 13.04.2022
2069 Clouds 22 1013 79 7000 4.63 200 10:47 13.04.2022
2070 Fog 17 1013 89 700 4.63 210 08:58 13.04.2022
2071 Fog 18 1012 90 900 4.12 220 08:33 13.04.2022
2072 Fog 17 1012 95 500 4.12 190 06:51 13.04.2022
2073 Fog 16 1013 96 500 4.12 190 06:25 13.04.2022
2074 Fog 16 1012 95 500 6.17 160 04:55 13.04.2022
2075 Clouds 17 1013 86 10000 2.06 130 00:21 13.04.2022
2076 Clouds 17 1013 86 6000 2.57 210 23:29 12.04.2022
2077 Mist 17 1015 89 4000 4.12 180 21:58 12.04.2022
2078 Mist 18 1015 89 1500 3.09 190 20:57 12.04.2022
2079 Clouds 18 1015 88 10000 3.6 170 20:38 12.04.2022
2080 Clear 19 1014 82 10000 4.12 160 19:48 12.04.2022
2081 Clear 19 1014 80 10000 4.12 160 19:30 12.04.2022
2082 Clear 20 1014 79 10000 5.66 170 18:26 12.04.2022
2083 Clear 23 1013 64 10000 6.17 160 17:23 12.04.2022
2084 Clear 25 1013 55 10000 3.13 152 16:22 12.04.2022
2085 Clear 26 1013 51 10000 4.63 140 15:29 12.04.2022
2086 Clear 28 1013 39 10000 5.14 190 14:26 12.04.2022
2087 Clear 28 1014 37 10000 3.09 190 13:36 12.04.2022
2088 Clear 28 1014 36 10000 3.09 190 12:52 12.04.2022
2089 Clear 27 1015 38 10000 1.54 0 11:46 12.04.2022
2090 Clear 25 1016 45 10000 1.03 0 10:35 12.04.2022
2091 Clear 22 1015 50 10000 1.54 0 09:21 12.04.2022
2092 Clear 19 1015 62 10000 2.57 60 07:55 12.04.2022
2093 Clear 17 1015 66 10000 2.06 50 06:24 12.04.2022
2094 Clear 17 1015 67 10000 2.57 50 05:31 12.04.2022
2095 Clear 20 1016 55 10000 2.24 194 00:46 12.04.2022
2096 Clear 21 1017 51 10000 3.6 190 22:47 11.04.2022
2097 Clear 20 1017 53 10000 3.6 170 21:41 11.04.2022
2098 Clear 21 1017 54 10000 3.58 187 20:57 11.04.2022
2099 Clear 21 1017 54 10000 2.57 140 20:29 11.04.2022
2100 Clear 21 1017 57 10000 2.24 127 19:54 11.04.2022
2101 Clear 22 1017 48 10000 2.24 110 19:18 11.04.2022
2102 Clear 23 1016 51 10000 4.12 150 18:47 11.04.2022
2103 Clear 25 1016 47 10000 5.66 170 17:57 11.04.2022
2104 Clear 28 1016 39 10000 5.66 170 16:54 11.04.2022
2105 Clear 28 1016 39 10000 5.66 170 16:54 11.04.2022
2106 Clear 29 1016 9 10000 4.63 190 15:58 11.04.2022
2107 Clear 29 1015 26 10000 5.14 190 14:33 11.04.2022
2108 Clear 30 1016 28 10000 2.68 300 12:53 11.04.2022
2109 Clear 30 1016 27 10000 2.68 319 12:33 11.04.2022
2110 Clear 28 1017 34 10000 1.54 0 11:37 11.04.2022
2111 Clear 24 1017 52 10000 1.03 0 10:31 11.04.2022
2112 Clear 20 1016 64 10000 1.34 134 09:20 11.04.2022
2113 Clear 16 1015 75 10000 1.54 0 06:44 11.04.2022
2114 Clear 18 1016 71 10000 1.79 131 02:30 11.04.2022
2115 Clear 19 1018 74 10000 4.12 230 22:39 10.04.2022
2116 Clear 20 1017 70 10000 3.6 220 21:55 10.04.2022
2117 Clear 19 1018 72 10000 3.6 220 21:32 10.04.2022
2118 Clear 20 1017 70 10000 5.14 220 20:31 10.04.2022
2119 Clear 21 1017 66 10000 4.12 210 19:45 10.04.2022
2120 Clear 20 1017 69 10000 4.47 193 19:22 10.04.2022
2121 Clear 21 1017 62 10000 5.66 210 18:43 10.04.2022
2122 Clear 24 1016 53 10000 5.66 220 17:55 10.04.2022
2123 Clear 25 1017 48 10000 5.66 220 17:35 10.04.2022
2124 Clear 28 1016 29 10000 6.17 210 16:25 10.04.2022
2125 Clear 28 1016 34 10000 5.14 200 15:20 10.04.2022
2126 Clear 29 1016 32 10000 4.12 190 14:25 10.04.2022
2127 Clear 26 1017 39 10000 3.13 169 12:35 10.04.2022
2128 Clear 25 1018 46 10000 3.58 181 11:49 10.04.2022
2129 Clear 25 1018 47 10000 4.02 203 11:29 10.04.2022
2130 Clear 23 1018 49 10000 4.02 200 10:54 10.04.2022
2131 Clear 23 1018 49 10000 4.02 200 10:54 10.04.2022
2132 Clear 21 1018 56 10000 3.58 200 09:56 10.04.2022
2133 Clear 21 1018 56 10000 2.68 162 09:37 10.04.2022
2134 Clear 17 1019 70 10000 1.34 0 08:22 10.04.2022
2135 Clear 15 1018 76 10000 1.34 0 07:27 10.04.2022
2136 Clear 15 1018 77 10000 2.06 230 05:46 10.04.2022
2137 Clear 16 1019 74 10000 4.12 240 02:25 10.04.2022
2138 Clear 17 1018 70 10000 4.92 116 00:27 10.04.2022
2139 Clear 17 1018 70 10000 4.92 151 23:48 09.04.2022
2140 Clear 17 1018 71 10000 5.81 186 22:47 09.04.2022
2141 Clear 18 1018 69 10000 5.36 190 21:35 09.04.2022
2142 Clear 18 1018 66 10000 7.2 130 20:49 09.04.2022
2143 Clear 19 1017 63 10000 7.2 130 20:26 09.04.2022
2144 Clear 19 1018 63 10000 6.69 130 19:42 09.04.2022
2145 Clear 21 1017 55 10000 6.69 140 18:59 09.04.2022
2146 Clear 23 1017 46 10000 6.69 140 18:20 09.04.2022
2147 Clear 24 1017 37 10000 5.81 191 17:39 09.04.2022
2148 Clear 25 1017 35 10000 5.14 150 16:52 09.04.2022
2149 Clear 26 1018 28 10000 6.17 170 15:55 09.04.2022
2150 Clear 26 1018 28 10000 6.17 170 15:30 09.04.2022
2151 Clear 25 1018 33 10000 4.92 237 14:44 09.04.2022
2152 Clear 25 1018 38 10000 4.47 211 14:23 09.04.2022
2153 Clear 25 1018 31 10000 4.02 195 13:18 09.04.2022
2154 Clear 25 1019 31 10000 4.47 191 12:41 09.04.2022
2155 Clear 22 1019 43 10000 4.47 167 11:22 09.04.2022
2156 Clear 19 1021 55 10000 4.02 243 10:21 09.04.2022
2157 Clear 19 1021 57 10000 3.58 212 09:38 09.04.2022
2158 Clear 16 1022 65 10000 4.02 184 08:54 09.04.2022
2159 Clear 14 1022 71 10000 4.02 205 07:21 09.04.2022
2160 Clear 15 1022 69 10000 5.36 230 02:20 09.04.2022
2161 Clear 16 1023 63 10000 4.63 150 23:53 08.04.2022
2162 Clear 16 1023 63 10000 7.2 130 22:55 08.04.2022
2163 Clear 17 1024 60 10000 6.69 130 21:29 08.04.2022
2164 Clear 17 1024 62 10000 7.72 130 20:39 08.04.2022
2165 Clear 19 1023 57 10000 9.77 130 19:20 08.04.2022
2166 Clear 20 1023 53 10000 8.23 140 18:30 08.04.2022
2167 Clear 21 1023 47 10000 8.23 140 17:52 08.04.2022
2168 Clear 22 1023 45 10000 8.23 140 17:26 08.04.2022
2169 Clear 23 1023 41 10000 7.72 130 16:49 08.04.2022
2170 Clear 24 1023 36 10000 7.72 140 15:57 08.04.2022
2171 Clear 24 1023 36 10000 7.72 140 15:26 08.04.2022
2172 Clear 24 1023 36 10000 8.75 150 14:33 08.04.2022
2173 Clouds 24 1024 36 10000 5.14 160 13:48 08.04.2022
2174 Clouds 23 1023 34 10000 5.14 160 13:29 08.04.2022
2175 Clouds 22 1026 42 10000 5.66 130 12:18 08.04.2022
2176 Clouds 20 1027 52 10000 6.69 140 10:37 08.04.2022
2177 Clouds 18 1026 56 10000 6.69 140 09:38 08.04.2022
2178 Clear 16 1026 63 10000 5.36 187 08:58 08.04.2022
2179 Clear 15 1026 69 10000 5.14 170 07:31 08.04.2022
2180 Clear 15 1025 67 10000 7.72 150 05:23 08.04.2022
2181 Clear 15 1026 68 10000 8.75 160 01:29 08.04.2022
2182 Clear 15 1026 69 10000 9.26 160 00:25 08.04.2022
2183 Clear 15 1026 73 10000 5.66 170 22:59 07.04.2022
2184 Clear 15 1026 73 10000 5.66 170 22:59 07.04.2022
2185 Clear 15 1027 73 10000 5.66 170 22:40 07.04.2022
2186 Clear 15 1027 73 10000 5.66 170 22:22 07.04.2022
2187 Clear 15 1027 71 10000 5.81 196 21:56 07.04.2022
2188 Clear 15 1027 70 10000 5.66 150 21:19 07.04.2022
2189 Clear 16 1027 69 10000 8.23 160 20:38 07.04.2022
2190 Clear 16 1026 63 10000 7.72 170 18:48 07.04.2022
2191 Clouds 18 1025 59 10000 9.26 170 17:27 07.04.2022
2192 Clouds 19 1025 56 10000 8.75 170 16:45 07.04.2022
2193 Clear 20 1025 51 10000 4.47 190 16:23 07.04.2022
2194 Clouds 20 1026 50 10000 6.69 160 15:19 07.04.2022
2195 Clouds 19 1026 55 10000 7.72 170 13:45 07.04.2022
2196 Clouds 19 1026 56 10000 7.72 170 13:22 07.04.2022
2197 Clouds 19 1026 62 10000 4.63 140 11:40 07.04.2022
2198 Clouds 17 1026 69 10000 6.69 150 10:27 07.04.2022
2199 Clouds 14 1025 87 10000 1.03 150 08:39 07.04.2022
2200 Clouds 13 1024 86 10000 1.54 130 06:58 07.04.2022
2201 Clouds 12 1023 84 10000 1.03 0 04:26 07.04.2022
2202 Clouds 12 1024 82 10000 1.03 40 02:29 07.04.2022
2203 Clouds 14 1024 75 10000 2.06 310 00:42 07.04.2022
2204 Clouds 14 1023 74 10000 2.06 240 22:58 06.04.2022
2205 Clouds 14 1023 73 10000 2.06 240 22:39 06.04.2022
2206 Clouds 14 1024 74 10000 1.54 290 21:47 06.04.2022
2207 Clouds 14 1024 74 10000 1.54 290 21:47 06.04.2022
2208 Clouds 15 1022 68 10000 2.57 240 20:43 06.04.2022
2209 Clouds 15 1022 66 10000 3.13 311 19:59 06.04.2022
2210 Clouds 15 1022 66 10000 3.09 240 19:19 06.04.2022
2211 Clouds 16 1021 60 10000 5.14 210 18:47 06.04.2022
2212 Clouds 17 1021 55 10000 4.63 210 17:35 06.04.2022
2213 Clouds 17 1021 54 10000 7.2 230 16:39 06.04.2022
2214 Clouds 17 1021 59 10000 7.2 220 15:57 06.04.2022
2215 Clouds 18 1021 58 10000 7.2 220 15:39 06.04.2022
2216 Clouds 17 1020 72 10000 5.14 240 13:31 06.04.2022
2217 Clouds 16 1020 81 10000 3.09 270 12:29 06.04.2022
2218 Rain 16 1019 89 2000 4.12 290 10:57 06.04.2022
2219 Rain 15 1019 90 10000 4.63 320 10:33 06.04.2022
2220 Rain 15 1019 89 10000 4.63 330 09:46 06.04.2022
2221 Rain 14 1018 91 10000 4.63 330 08:51 06.04.2022
2222 Rain 14 1017 90 10000 5.14 340 07:58 06.04.2022
2223 Clouds 14 1017 87 10000 3.09 310 05:23 06.04.2022
2224 Clouds 14 1017 87 10000 4.63 320 00:20 06.04.2022
2225 Clouds 14 1017 86 10000 4.63 340 23:47 05.04.2022
2226 Clouds 14 1016 86 10000 4.12 320 21:48 05.04.2022
2227 Clouds 15 1016 86 10000 4.63 320 20:59 05.04.2022
2228 Clouds 15 1016 86 10000 4.63 320 20:23 05.04.2022
2229 Rain 16 1015 81 10000 5.66 310 18:31 05.04.2022
2230 Rain 17 1016 76 10000 6.17 300 17:21 05.04.2022
2231 Rain 18 1015 72 10000 5.66 320 16:42 05.04.2022
2232 Clouds 18 1014 74 10000 5.66 320 15:51 05.04.2022
2233 Clouds 17 1014 76 10000 5.66 320 15:31 05.04.2022
2234 Rain 18 1014 76 10000 7.2 310 13:49 05.04.2022
2235 Rain 18 1014 77 10000 6.69 290 12:33 05.04.2022
2236 Rain 18 1014 83 10000 7.2 320 11:43 05.04.2022
2237 Clouds 17 1013 87 10000 7.2 320 11:25 05.04.2022
2238 Rain 15 1013 90 10000 7.72 330 09:40 05.04.2022
2239 Rain 15 1013 89 10000 5.66 340 08:47 05.04.2022
2240 Clouds 15 1011 90 10000 4.63 350 04:19 05.04.2022
2241 Clouds 16 1013 88 10000 5.14 330 23:48 04.04.2022
2242 Rain 16 1012 89 10000 3.6 330 22:41 04.04.2022
2243 Rain 16 1012 88 10000 3.09 320 21:51 04.04.2022
2244 Clouds 16 1011 86 10000 2.24 319 21:20 04.04.2022
2245 Clouds 16 1011 87 10000 4.63 330 20:48 04.04.2022
2246 Clouds 17 1010 85 10000 5.14 320 19:38 04.04.2022
2247 Clouds 17 1010 80 10000 6.17 310 18:46 04.04.2022
2248 Clouds 19 1010 75 10000 7.72 320 17:39 04.04.2022
2249 Clouds 20 1009 70 10000 8.23 310 16:36 04.04.2022
2250 Clouds 20 1009 73 10000 4.12 320 15:34 04.04.2022
2251 Clouds 20 1010 77 10000 6.17 310 14:49 04.04.2022
2252 Clouds 20 1010 75 10000 6.17 310 14:31 04.04.2022
2253 Clouds 21 1010 69 10000 7.2 330 13:18 04.04.2022
2254 Clouds 19 1010 68 10000 5.66 320 11:48 04.04.2022
2255 Clouds 19 1010 70 10000 6.17 300 11:27 04.04.2022
2256 Clouds 14 1009 85 10000 3.09 340 07:46 04.04.2022
2257 Clouds 14 1009 86 10000 3.09 340 07:46 04.04.2022
2258 Clouds 15 1008 78 10000 4.63 360 03:19 04.04.2022
2259 Clouds 17 1008 87 10000 1.54 0 00:25 04.04.2022
2260 Clear 18 1007 82 10000 4.63 240 22:33 03.04.2022
2261 Clear 18 1007 81 10000 6.17 240 21:38 03.04.2022
2262 Clouds 18 1007 79 10000 4.63 230 20:41 03.04.2022
2263 Clouds 18 1007 78 10000 5.66 240 19:45 03.04.2022
2264 Clouds 19 1007 73 10000 6.17 220 18:31 03.04.2022
2265 Clouds 21 1007 66 10000 5.66 220 17:46 03.04.2022
2266 Clouds 23 1007 60 10000 6.69 210 16:50 03.04.2022
2267 Clouds 23 1007 59 10000 6.69 210 16:31 03.04.2022
2268 Clouds 24 1008 54 10000 4.63 200 14:38 03.04.2022
2269 Clouds 25 1009 52 10000 6.69 190 13:47 03.04.2022
2270 Clear 24 1008 48 10000 3.13 155 12:38 03.04.2022
2271 Clear 21 1010 60 10000 4.47 156 10:58 03.04.2022
2272 Clear 19 1010 68 10000 4.92 199 09:36 03.04.2022
2273 Clear 17 1010 72 10000 4.92 172 08:27 03.04.2022
2274 Clear 16 1012 75 10000 2.68 270 04:37 03.04.2022
2275 Clear 17 1013 71 10000 5.14 160 01:53 03.04.2022
2276 Clear 17 1015 72 10000 6.69 160 23:21 02.04.2022
2277 Clouds 18 1015 71 10000 6.69 160 21:58 02.04.2022
2278 Clouds 18 1015 71 10000 6.69 160 21:36 02.04.2022
2279 Clouds 18 1015 71 10000 6.69 160 21:18 02.04.2022
2280 Clouds 19 1014 63 10000 7.72 150 19:53 02.04.2022
2281 Clouds 21 1014 59 10000 9.26 140 18:23 02.04.2022
2282 Clouds 21 1014 59 10000 9.26 140 18:23 02.04.2022
2283 Clouds 21 1014 59 10000 10.29 170 17:53 02.04.2022
2284 Clouds 23 1014 54 10000 8.23 140 16:27 02.04.2022
2285 Clouds 24 1015 50 10000 8.23 140 15:22 02.04.2022
2286 Clouds 24 1015 48 10000 8.23 140 14:49 02.04.2022
2287 Clouds 24 1017 52 10000 7.72 140 13:36 02.04.2022
2288 Clear 23 1018 55 10000 3.13 225 12:47 02.04.2022
2289 Clouds 22 1018 58 10000 11.83 180 11:33 02.04.2022
2290 Clouds 19 1018 65 10000 7.72 170 09:30 02.04.2022
2291 Clouds 17 1018 69 10000 8.75 160 06:51 02.04.2022
2292 Clouds 17 1018 69 10000 8.75 160 06:51 02.04.2022
2293 Clear 17 1018 66 10000 7.2 160 03:55 02.04.2022
2294 Clear 17 1020 71 10000 1.34 0 00:19 02.04.2022
2295 Clear 17 1019 71 10000 10.29 160 23:40 01.04.2022
2296 Clear 17 1019 75 10000 8.75 170 21:52 01.04.2022
2297 Clouds 17 1018 81 10000 10.8 180 20:52 01.04.2022
2298 Clouds 17 1018 81 10000 10.8 180 20:31 01.04.2022
2299 Clouds 18 1018 78 10000 10.29 170 19:38 01.04.2022
2300 Clouds 18 1018 75 10000 10.8 170 18:52 01.04.2022
2301 Clear 19 1018 71 10000 11.83 170 17:59 01.04.2022
2302 Clear 20 1018 66 10000 12.35 170 17:35 01.04.2022
2303 Clear 21 1018 65 10000 12.86 180 15:43 01.04.2022
2304 Clear 22 1018 60 10000 11.83 180 14:39 01.04.2022
2305 Clear 23 1018 53 10000 9.77 170 13:35 01.04.2022
2306 Clear 22 1018 53 10000 10.29 160 12:33 01.04.2022
2307 Clear 22 1019 55 10000 10.8 160 11:44 01.04.2022
2308 Clear 20 1019 60 10000 10.8 160 10:19 01.04.2022
2309 Clear 19 1019 66 10000 9.26 160 09:30 01.04.2022
2310 Clear 16 1018 76 10000 7.72 180 06:55 01.04.2022
2311 Clouds 16 1018 73 10000 8.23 190 04:54 01.04.2022
2312 Clouds 16 1018 73 10000 8.23 190 04:36 01.04.2022
2313 Clear 16 1019 73 10000 8.23 180 01:59 01.04.2022
2314 Clear 17 1019 70 10000 9.26 180 00:44 01.04.2022
2315 Clear 17 1019 73 10000 8.75 170 21:55 31.03.2022
2316 Clear 17 1019 73 10000 8.75 170 21:37 31.03.2022
2317 Clouds 17 1018 73 10000 8.23 170 20:30 31.03.2022
2318 Clouds 18 1019 74 10000 2.24 293 19:50 31.03.2022
2319 Clear 18 1017 72 10000 10.8 180 18:57 31.03.2022
2320 Clear 19 1017 70 10000 10.29 180 17:55 31.03.2022
2321 Clear 21 1018 64 10000 10.29 180 16:45 31.03.2022
2322 Clear 21 1017 56 10000 10.8 180 15:50 31.03.2022
2323 Clear 21 1016 57 10000 10.8 180 15:21 31.03.2022
2324 Clear 21 1017 57 10000 11.32 180 14:44 31.03.2022
2325 Clear 21 1018 55 10000 10.29 190 13:27 31.03.2022
2326 Clear 21 1019 57 10000 9.26 190 11:29 31.03.2022
2327 Clear 20 1019 64 10000 7.2 180 10:19 31.03.2022
2328 Clear 17 1018 82 10000 3.09 180 08:52 31.03.2022
2329 Mist 14 1017 88 5000 2.57 170 07:24 31.03.2022
2330 Clear 15 1017 88 10000 1.03 0 00:46 31.03.2022
2331 Clouds 15 1017 86 10000 1.54 300 23:23 30.03.2022
2332 Clouds 16 1017 85 10000 1.54 330 21:50 30.03.2022
2333 Clouds 16 1017 85 10000 1.54 330 21:27 30.03.2022
2334 Clouds 16 1017 83 10000 2.57 320 20:22 30.03.2022
2335 Clouds 17 1016 81 10000 2.06 320 19:43 30.03.2022
2336 Clouds 18 1016 79 10000 4.63 340 18:40 30.03.2022
2337 Clouds 18 1015 77 10000 4.63 300 17:49 30.03.2022
2338 Clouds 18 1015 77 10000 5.14 300 16:58 30.03.2022
2339 Clouds 18 1015 76 10000 5.14 300 16:39 30.03.2022
2340 Clouds 19 1015 69 10000 6.69 290 15:38 30.03.2022
2341 Clouds 20 1015 68 10000 6.45 311 14:18 30.03.2022
2342 Clouds 21 1014 66 10000 9.26 320 13:19 30.03.2022
2343 Clouds 21 1014 65 10000 8.23 330 11:41 30.03.2022
2344 Clouds 20 1014 69 10000 8.23 350 10:38 30.03.2022
2345 Clouds 18 1014 77 10000 9.26 340 09:28 30.03.2022
2346 Clouds 16 1013 85 10000 7.2 350 07:59 30.03.2022
2347 Rain 16 1012 82 10000 8.23 350 05:41 30.03.2022
2348 Rain 16 1012 82 10000 8.23 350 05:23 30.03.2022
2349 Clouds 16 1012 89 10000 5.14 330 00:43 30.03.2022
2350 Clouds 17 1012 86 10000 6.69 340 22:35 29.03.2022
2351 Clouds 17 1012 86 10000 7.72 340 21:46 29.03.2022
2352 Clouds 17 1011 85 10000 7.2 340 20:55 29.03.2022
2353 Clouds 17 1011 84 10000 7.2 340 20:24 29.03.2022
2354 Clouds 18 1011 79 10000 5.14 330 19:20 29.03.2022
2355 Clouds 19 1010 75 10000 7.72 330 18:48 29.03.2022
2356 Clouds 20 1010 73 10000 8.23 330 17:39 29.03.2022
2357 Rain 20 1010 72 10000 9.26 330 16:59 29.03.2022
2358 Rain 19 1010 75 10000 9.26 330 16:59 29.03.2022
2359 Rain 19 1010 77 10000 9.26 330 16:20 29.03.2022
2360 Rain 18 1010 82 10000 7.72 330 14:53 29.03.2022
2361 Rain 18 1010 83 10000 7.72 330 14:24 29.03.2022
2362 Rain 17 1011 90 8000 9.26 330 12:57 29.03.2022
2363 Drizzle 16 1010 90 1800 7.2 310 11:46 29.03.2022
2364 Rain 16 1010 89 2000 7.2 300 10:58 29.03.2022
2365 Drizzle 17 1010 85 3000 6.69 330 09:50 29.03.2022
2366 Clouds 18 1009 77 10000 6.69 360 08:20 29.03.2022
2367 Clouds 18 1009 77 10000 5.14 10 05:38 29.03.2022
2368 Clouds 18 1010 73 10000 4.12 20 01:25 29.03.2022
2369 Clouds 18 1011 71 10000 6.17 350 23:25 28.03.2022
2370 Clouds 18 1011 68 10000 4.63 360 22:54 28.03.2022
2371 Clouds 18 1011 68 10000 4.63 360 22:28 28.03.2022
2372 Clouds 19 1010 64 10000 6.17 340 20:59 28.03.2022
2373 Clouds 19 1010 64 10000 6.17 340 20:31 28.03.2022
2374 Clouds 19 1010 64 10000 6.17 330 19:46 28.03.2022
2375 Clouds 19 1010 64 10000 6.17 330 19:28 28.03.2022
2376 Clouds 20 1010 62 10000 8.75 330 18:40 28.03.2022
2377 Clouds 20 1010 63 10000 9.77 320 17:39 28.03.2022
2378 Clouds 21 1010 61 10000 10.29 320 16:38 28.03.2022
2379 Clouds 21 1010 63 10000 11.32 300 14:49 28.03.2022
2380 Clouds 21 1010 64 10000 11.32 300 14:22 28.03.2022
2381 Clouds 22 1011 61 10000 7.72 340 12:41 28.03.2022
2382 Clouds 21 1011 67 10000 6.69 330 11:38 28.03.2022
2383 Clouds 18 1011 76 10000 6.69 360 09:43 28.03.2022
2384 Clouds 18 1011 77 10000 6.69 350 09:19 28.03.2022
2385 Clouds 15 1011 80 10000 5.14 320 08:22 28.03.2022
2386 Clouds 15 1010 76 10000 7.72 330 07:40 28.03.2022
2387 Clear 16 1010 73 10000 5.14 350 04:27 28.03.2022
2388 Clear 18 1011 65 10000 2.57 50 23:43 27.03.2022
2389 Clear 19 1011 62 10000 1.54 320 22:25 27.03.2022
2390 Clear 19 1011 59 10000 1.03 70 21:42 27.03.2022
2391 Clear 20 1011 46 10000 1.03 120 20:58 27.03.2022
2392 Clear 22 1011 40 10000 2.06 160 19:53 27.03.2022
2393 Clear 22 1011 33 10000 2.06 160 19:30 27.03.2022
2394 Clear 26 1010 34 10000 3.6 170 18:28 27.03.2022
2395 Clear 27 1010 27 10000 4.12 160 17:40 27.03.2022
2396 Clear 27 1010 30 10000 4.12 160 17:20 27.03.2022
2397 Clear 28 1011 28 10000 4.12 330 15:28 27.03.2022
2398 Clear 29 1012 30 10000 4.12 190 13:56 27.03.2022
2399 Clear 30 1013 35 10000 2.57 260 12:41 27.03.2022
2400 Clear 26 1013 44 10000 1.54 0 11:21 27.03.2022
2401 Clear 20 1013 65 10000 1.03 0 09:21 27.03.2022
2402 Clear 15 1012 78 10000 1.54 190 05:56 27.03.2022
2403 Clear 17 1013 70 10000 3.09 230 01:41 27.03.2022
2404 Clear 18 1014 69 10000 5.14 200 00:24 27.03.2022
2405 Clear 19 1013 67 10000 4.63 200 22:43 26.03.2022
2406 Clear 18 1014 68 10000 4.63 250 21:46 26.03.2022
2407 Clear 19 1014 67 10000 4.63 250 21:25 26.03.2022
2408 Clear 20 1013 64 10000 5.14 230 19:31 26.03.2022
2409 Clear 21 1012 61 10000 6.69 220 17:54 26.03.2022
2410 Clear 21 1012 61 10000 6.69 220 17:33 26.03.2022
2411 Clouds 23 1013 55 10000 6.69 200 16:27 26.03.2022
2412 Clear 24 1012 42 10000 5.5 174 15:23 26.03.2022
2413 Clear 25 1013 50 10000 6.17 220 13:54 26.03.2022
2414 Clear 25 1013 49 10000 6.17 220 13:19 26.03.2022
2415 Clear 24 1014 52 10000 7.2 170 11:41 26.03.2022
2416 Clear 23 1014 56 10000 7.2 190 10:32 26.03.2022
2417 Clear 19 1013 66 10000 4.63 220 08:44 26.03.2022
2418 Clear 16 1013 74 10000 4.12 230 06:30 26.03.2022
2419 Clear 16 1013 74 10000 4.12 230 05:28 26.03.2022
2420 Clear 17 1014 66 10000 4.12 140 00:41 26.03.2022
2421 Clear 18 1014 65 10000 6.69 150 21:56 25.03.2022
2422 Clear 18 1014 64 10000 8.23 150 20:46 25.03.2022
2423 Clear 19 1014 61 10000 8.23 150 20:20 25.03.2022
2424 Clouds 20 1013 55 10000 7.2 140 18:51 25.03.2022
2425 Clouds 19 1013 56 10000 7.72 140 17:53 25.03.2022
2426 Clouds 21 1013 50 10000 7.72 140 17:27 25.03.2022
2427 Clouds 23 1013 51 10000 7.89 152 16:19 25.03.2022
2428 Clouds 24 1013 50 10000 8.23 140 14:54 25.03.2022
2429 Clouds 24 1014 50 10000 8.23 140 13:26 25.03.2022
2430 Clouds 21 1015 58 10000 11.32 160 10:35 25.03.2022
2431 Clouds 21 1015 60 10000 9.77 160 09:28 25.03.2022
2432 Clouds 19 1015 62 10000 10.29 160 08:24 25.03.2022
2433 Clouds 18 1015 67 10000 9.26 160 07:30 25.03.2022
2434 Clouds 17 1015 70 10000 9.77 160 06:29 25.03.2022
2435 Clouds 17 1015 70 10000 9.77 160 06:29 25.03.2022
2436 Clouds 17 1016 71 10000 9.77 150 01:32 25.03.2022
2437 Clouds 17 1016 75 10000 7.72 170 22:55 24.03.2022
2438 Clouds 18 1015 74 10000 8.75 170 21:52 24.03.2022
2439 Clouds 17 1015 79 10000 8.23 180 20:40 24.03.2022
2440 Clouds 17 1015 80 10000 8.23 170 19:48 24.03.2022
2441 Clouds 19 1014 76 10000 9.77 160 17:50 24.03.2022
2442 Clouds 19 1014 75 10000 9.77 160 17:29 24.03.2022
2443 Clouds 23 1013 49 10000 5.14 180 15:52 24.03.2022
2444 Clouds 24 1014 58 10000 7.2 180 14:51 24.03.2022
2445 Clouds 24 1014 56 10000 7.2 180 14:21 24.03.2022
2446 Clouds 25 1014 44 10000 5.66 190 13:26 24.03.2022
2447 Clouds 25 1015 40 10000 4.63 200 11:59 24.03.2022
2448 Clouds 23 1015 56 10000 6.17 190 10:28 24.03.2022
2449 Clouds 23 1015 60 10000 6.69 190 09:23 24.03.2022
2450 Clouds 20 1014 75 10000 5.66 190 07:39 24.03.2022
2451 Clouds 19 1013 86 10000 6.69 190 04:34 24.03.2022
2452 Clear 20 1014 80 10000 8.23 180 23:38 23.03.2022
2453 Clouds 20 1014 75 10000 5.98 165 22:18 23.03.2022
2454 Clear 20 1014 75 10000 6.17 180 21:20 23.03.2022
2455 Clouds 20 1013 76 10000 8.75 170 19:50 23.03.2022
2456 Clouds 20 1013 76 10000 8.75 170 19:25 23.03.2022
2457 Clouds 21 1012 76 10000 8.75 190 17:39 23.03.2022
2458 Clouds 22 1011 69 10000 9.77 180 16:55 23.03.2022
2459 Clouds 23 1011 61 10000 8.75 190 15:21 23.03.2022
2460 Clear 25 1011 58 10000 7.2 200 14:41 23.03.2022
2461 Clouds 28 1011 44 10000 5.14 200 13:30 23.03.2022
2462 Clear 25 1013 66 10000 4.63 220 10:37 23.03.2022
2463 Clouds 21 1012 78 10000 3.6 160 07:56 23.03.2022
2464 Rain 20 1012 80 10000 4.63 220 05:40 23.03.2022
2465 Rain 19 1012 83 10000 6.69 230 01:41 23.03.2022
2466 Clear 19 1013 81 10000 5.66 230 00:24 23.03.2022
2467 Clear 20 1013 78 10000 3.09 190 21:33 22.03.2022
2468 Clear 20 1013 77 10000 3.6 260 20:55 22.03.2022
2469 Clear 21 1011 76 10000 6.69 220 19:59 22.03.2022
2470 Clear 20 1011 76 10000 6.69 220 19:25 22.03.2022
2471 Clear 21 1011 74 10000 7.72 240 18:45 22.03.2022
2472 Clear 22 1011 70 10000 8.23 240 17:42 22.03.2022
2473 Clear 23 1011 49 10000 7.2 230 16:35 22.03.2022
2474 Clear 25 1011 48 10000 7.2 230 15:40 22.03.2022
2475 Clear 26 1011 43 10000 7.2 230 15:19 22.03.2022
2476 Clear 26 1012 46 10000 7.2 210 14:42 22.03.2022
2477 Clouds 26 1013 47 10000 7.2 220 13:42 22.03.2022
2478 Clear 25 1015 51 10000 7.72 210 11:52 22.03.2022
2479 Clear 25 1015 57 10000 10.29 170 10:53 22.03.2022
2480 Clouds 22 1015 69 10000 8.23 190 08:43 22.03.2022
2481 Clear 19 1015 82 10000 5.66 220 07:30 22.03.2022
2482 Clear 18 1014 88 10000 6.69 240 03:55 22.03.2022
2483 Clear 18 1014 88 10000 6.69 240 03:55 22.03.2022
2484 Clear 19 1014 81 10000 6.69 210 00:46 22.03.2022
2485 Clear 20 1015 77 10000 8.75 170 22:46 21.03.2022
2486 Clear 19 1015 79 10000 8.23 210 21:25 21.03.2022
2487 Clear 19 1015 81 10000 7.72 220 20:43 21.03.2022
2488 Clear 19 1015 80 10000 7.72 220 20:23 21.03.2022
2489 Clouds 19 1015 79 10000 7.72 200 19:35 21.03.2022
2490 Clouds 19 1015 79 10000 7.72 200 19:35 21.03.2022
2491 Clouds 20 1014 76 10000 9.26 200 18:47 21.03.2022
2492 Clear 21 1014 69 10000 8.75 210 17:35 21.03.2022
2493 Clear 22 1014 63 10000 8.23 210 16:59 21.03.2022
2494 Clear 23 1014 59 10000 8.23 210 16:27 21.03.2022
2495 Clear 23 1015 58 10000 8.75 210 15:43 21.03.2022
2496 Clear 24 1015 55 10000 7.72 190 14:36 21.03.2022
2497 Clear 25 1015 55 10000 8.23 210 13:20 21.03.2022
2498 Clear 26 1015 49 10000 5.14 210 11:58 21.03.2022
2499 Clear 26 1015 49 10000 5.14 210 11:25 21.03.2022
2500 Clear 26 1015 53 10000 2.57 200 09:49 21.03.2022
2501 Clear 19 1015 83 10000 4.12 220 07:33 21.03.2022
2502 Clear 18 1015 88 10000 5.14 230 06:18 21.03.2022
2503 Clear 18 1016 85 10000 4.12 230 01:42 21.03.2022
2504 Clear 19 1016 81 10000 5.66 230 22:57 20.03.2022
2505 Clear 19 1016 79 10000 5.66 230 22:25 20.03.2022
2506 Clear 20 1016 77 10000 6.17 230 21:38 20.03.2022
2507 Clear 20 1015 77 10000 7.72 230 20:55 20.03.2022
2508 Clear 19 1015 77 10000 7.72 230 20:29 20.03.2022
2509 Clear 20 1015 74 10000 7.72 230 19:49 20.03.2022
2510 Clear 20 1015 73 10000 7.72 230 19:19 20.03.2022
2511 Clear 21 1015 64 10000 7.72 230 17:48 20.03.2022
2512 Clear 22 1015 61 10000 7.72 230 17:26 20.03.2022
2513 Clear 23 1015 56 10000 6.69 220 16:35 20.03.2022
2514 Clear 25 1016 50 10000 7.2 220 14:42 20.03.2022
2515 Clear 26 1016 50 10000 6.17 220 13:38 20.03.2022
2516 Clear 26 1017 48 10000 6.17 220 12:19 20.03.2022
2517 Clear 25 1018 57 10000 5.14 200 09:59 20.03.2022
2518 Clear 22 1017 73 10000 5.14 230 08:21 20.03.2022
2519 Clear 19 1017 84 10000 5.66 210 06:37 20.03.2022
2520 Clear 18 1016 87 10000 5.66 230 03:18 20.03.2022
2521 Clear 20 1017 81 10000 6.17 220 00:54 20.03.2022
2522 Clear 20 1017 81 10000 6.17 220 00:54 20.03.2022
2523 Clear 21 1017 79 10000 6.17 220 00:34 20.03.2022
2524 Clear 21 1017 78 10000 5.66 190 22:31 19.03.2022
2525 Clear 21 1017 77 10000 3.6 230 21:26 19.03.2022
2526 Clouds 21 1017 79 10000 6.69 240 19:39 19.03.2022
2527 Clouds 21 1016 76 10000 7.72 240 18:44 19.03.2022
2528 Clouds 22 1016 71 10000 7.2 220 17:52 19.03.2022
2529 Clouds 22 1016 70 10000 7.2 220 17:33 19.03.2022
2530 Clear 25 1016 56 10000 7.2 220 15:40 19.03.2022
2531 Clear 26 1016 49 10000 5.66 240 14:21 19.03.2022
2532 Clear 28 1017 39 10000 5.14 210 12:56 19.03.2022
2533 Clear 28 1017 39 10000 5.14 210 12:37 19.03.2022
2534 Clear 29 1018 35 10000 4.12 180 11:46 19.03.2022
2535 Clear 27 1018 44 10000 4.63 140 09:55 19.03.2022
2536 Clear 18 1016 80 10000 3.6 210 05:48 19.03.2022
2537 Clear 18 1015 82 10000 6.17 220 02:37 19.03.2022
2538 Clear 18 1016 84 10000 6.69 220 00:54 19.03.2022
2539 Clouds 19 1016 78 10000 4 148 23:19 18.03.2022
2540 Clear 19 1016 78 10000 6.17 230 22:22 18.03.2022
2541 Clear 20 1016 82 10000 6.69 230 20:40 18.03.2022
2542 Clear 20 1016 82 10000 6.17 220 19:48 18.03.2022
2543 Clear 20 1016 82 10000 6.17 220 19:19 18.03.2022
2544 Clear 20 1016 82 10000 6.17 220 19:19 18.03.2022
2545 Clouds 21 1016 71 10000 8.75 210 17:27 18.03.2022
2546 Clouds 22 1016 65 10000 9.26 200 16:42 18.03.2022
2547 Clear 24 1016 62 10000 9.77 190 14:30 18.03.2022
2548 Clear 24 1016 60 10000 9.77 190 13:41 18.03.2022
2549 Clear 24 1016 55 10000 5.66 210 12:18 18.03.2022
2550 Clear 23 1017 71 10000 6.17 220 10:27 18.03.2022
2551 Clear 22 1016 66 10000 6.17 210 09:20 18.03.2022
2552 Clear 21 1016 70 10000 4.12 200 07:43 18.03.2022
2553 Clear 18 1015 79 10000 2.06 190 05:39 18.03.2022
2554 Clear 18 1014 74 10000 0.51 90 02:44 18.03.2022
2555 Clear 20 1015 66 10000 1.03 0 00:21 18.03.2022
2556 Clear 20 1016 67 10000 1.54 150 22:54 17.03.2022
2557 Clear 20 1016 70 10000 1.54 150 22:21 17.03.2022
2558 Clear 20 1016 73 10000 2.06 180 21:47 17.03.2022
2559 Clear 20 1016 74 10000 2.06 180 21:18 17.03.2022
2560 Clear 21 1016 73 10000 2.57 210 20:30 17.03.2022
2561 Clear 21 1016 58 10000 3.09 180 19:39 17.03.2022
2562 Clear 23 1015 43 10000 5.14 200 18:55 17.03.2022
2563 Clear 26 1014 26 10000 5.14 180 17:47 17.03.2022
2564 Clear 27 1014 24 10000 5.66 160 16:34 17.03.2022
2565 Clear 27 1014 9 10000 5.14 180 15:44 17.03.2022
2566 Clear 27 1014 7 10000 4.59 192 15:21 17.03.2022
2567 Clear 30 1014 21 10000 5.66 170 13:48 17.03.2022
2568 Clear 30 1015 26 10000 5.66 190 12:49 17.03.2022
2569 Clear 30 1015 27 10000 2.57 140 11:53 17.03.2022
2570 Clear 30 1015 28 10000 2.57 140 11:22 17.03.2022
2571 Clear 28 1016 38 10000 1.54 0 09:47 17.03.2022
2572 Clear 23 1016 55 10000 1.54 0 08:31 17.03.2022
2573 Clear 20 1016 64 10000 1.03 0 07:32 17.03.2022
2574 Clear 17 1015 76 10000 1.54 0 05:39 17.03.2022
2575 Clear 17 1015 76 10000 1.54 0 05:39 17.03.2022
2576 Clear 19 1016 71 10000 3.09 190 00:45 17.03.2022
2577 Clear 19 1016 71 10000 4.12 160 22:59 16.03.2022
2578 Clear 19 1016 71 10000 4.12 160 22:40 16.03.2022
2579 Clear 19 1016 71 10000 4.12 160 22:19 16.03.2022
2580 Clear 20 1016 70 10000 7.2 170 21:29 16.03.2022
2581 Clear 19 1016 71 10000 5.14 240 19:26 16.03.2022
2582 Clear 20 1015 69 10000 7.2 180 18:58 16.03.2022
2583 Clear 20 1015 69 10000 7.2 180 18:24 16.03.2022
2584 Clear 22 1015 63 10000 7.72 190 17:37 16.03.2022
2585 Clear 22 1015 61 10000 8.75 170 16:50 16.03.2022
2586 Clouds 23 1015 50 10000 11.32 160 15:41 16.03.2022
2587 Clouds 25 1017 46 10000 10.29 180 13:44 16.03.2022
2588 Clouds 25 1017 46 10000 10.29 180 13:22 16.03.2022
2589 Clouds 25 1017 50 10000 9.26 170 11:51 16.03.2022
2590 Clouds 25 1017 51 10000 9.26 170 11:19 16.03.2022
2591 Clouds 23 1018 57 10000 11.32 150 09:59 16.03.2022
2592 Clouds 21 1018 62 10000 11.32 160 08:38 16.03.2022
2593 Clouds 21 1018 64 10000 11.32 160 08:37 16.03.2022
2594 Clear 17 1016 76 10000 7.72 170 04:35 16.03.2022
2595 Clear 17 1018 81 10000 6.17 190 00:42 16.03.2022
2596 Clear 18 1018 78 10000 6.17 200 22:37 15.03.2022
2597 Clear 18 1018 76 10000 7.2 190 21:50 15.03.2022
2598 Clouds 18 1017 76 10000 7.72 190 19:47 15.03.2022
2599 Clouds 18 1017 78 10000 9.26 180 18:45 15.03.2022
2600 Clouds 21 1017 68 10000 7.72 190 16:52 15.03.2022
2601 Clouds 21 1017 55 10000 7.72 190 16:18 15.03.2022
2602 Clear 23 1017 47 10000 9.26 180 14:57 15.03.2022
2603 Clear 23 1017 45 10000 9.26 180 14:31 15.03.2022
2604 Clear 23 1018 38 10000 8.23 190 13:27 15.03.2022
2605 Clear 24 1018 35 10000 1.54 0 11:56 15.03.2022
2606 Clear 24 1018 35 10000 1.54 0 11:19 15.03.2022
2607 Clear 21 1019 44 10000 1.54 0 09:37 15.03.2022
2608 Clear 19 1019 55 10000 1.03 0 08:32 15.03.2022
2609 Clear 18 1019 62 10000 1.03 0 07:50 15.03.2022
2610 Clear 15 1019 73 10000 1.54 120 06:35 15.03.2022
2611 Clear 16 1019 70 10000 8.23 160 02:36 15.03.2022
2612 Clear 16 1020 67 10000 8.23 160 23:38 14.03.2022
2613 Clear 16 1020 66 10000 8.23 160 23:20 14.03.2022
2614 Clear 16 1021 74 10000 5.66 160 21:59 14.03.2022
2615 Clear 16 1021 72 10000 9.61 151 21:20 14.03.2022
2616 Clear 16 1021 73 10000 8.23 170 20:34 14.03.2022
2617 Clouds 16 1020 71 10000 6.69 160 19:47 14.03.2022
2618 Clouds 17 1020 64 10000 8.75 170 18:30 14.03.2022
2619 Clouds 18 1020 59 10000 9.77 170 17:43 14.03.2022
2620 Clouds 19 1019 57 10000 10.8 190 16:57 14.03.2022
2621 Clouds 19 1020 52 10000 9.77 190 15:29 14.03.2022
2622 Clouds 20 1020 47 10000 9.26 180 14:24 14.03.2022
2623 Clouds 20 1021 49 10000 6.17 180 11:53 14.03.2022
2624 Clouds 19 1021 49 10000 5.66 160 10:35 14.03.2022
2625 Clouds 18 1021 56 10000 3.09 130 09:38 14.03.2022
2626 Clouds 18 1021 56 10000 3.09 130 09:20 14.03.2022
2627 Clouds 17 1020 58 10000 1.03 0 08:49 14.03.2022
2628 Clouds 16 1019 59 10000 2.06 270 07:21 14.03.2022
2629 Clouds 14 1017 69 10000 3.09 210 04:27 14.03.2022
2630 Clouds 13 1018 69 10000 2.57 190 01:52 14.03.2022
2631 Clouds 14 1018 63 10000 3.6 200 00:40 14.03.2022
2632 Clouds 16 1017 59 10000 4.63 190 21:56 13.03.2022
2633 Clouds 16 1017 58 10000 4.63 190 21:28 13.03.2022
2634 Clouds 17 1016 60 10000 6.69 190 20:53 13.03.2022
2635 Clouds 17 1016 59 10000 6.69 190 20:29 13.03.2022
2636 Clouds 17 1015 63 10000 6.17 200 19:48 13.03.2022
2637 Clouds 17 1015 63 10000 6.17 200 19:25 13.03.2022
2638 Clouds 17 1014 63 10000 7.72 190 18:50 13.03.2022
2639 Clouds 17 1014 62 10000 7.72 190 18:30 13.03.2022
2640 Clouds 18 1013 62 10000 6.17 180 17:40 13.03.2022
2641 Clouds 19 1012 49 10000 6.17 180 16:49 13.03.2022
2642 Clouds 19 1012 49 10000 6.17 180 16:27 13.03.2022
2643 Clouds 20 1012 62 10000 3.09 150 15:44 13.03.2022
2644 Clouds 18 1012 74 10000 2.57 140 14:51 13.03.2022
2645 Clouds 17 1012 78 10000 3.09 160 13:33 13.03.2022
2646 Clouds 17 1012 77 10000 2.57 130 12:37 13.03.2022
2647 Rain 17 1012 81 10000 3.09 130 11:51 13.03.2022
2648 Rain 17 1012 84 10000 3.09 130 11:31 13.03.2022
2649 Drizzle 15 1013 94 6000 3.6 190 10:46 13.03.2022
2650 Rain 16 1012 93 3000 4.63 190 09:59 13.03.2022
2651 Rain 16 1012 93 3000 4.63 190 09:40 13.03.2022
2652 Drizzle 16 1011 93 5000 5.66 200 08:45 13.03.2022
2653 Drizzle 16 1011 93 4000 6.17 200 07:40 13.03.2022
2654 Rain 17 1009 89 3000 4.63 310 05:40 13.03.2022
2655 Clear 17 1007 85 10000 3.6 10 02:27 13.03.2022
2656 Clear 17 1009 84 10000 2.57 310 23:33 12.03.2022
2657 Clear 18 1009 73 10000 2.55 321 21:53 12.03.2022
2658 Clouds 19 1008 74 10000 3.09 350 20:29 12.03.2022
2659 Clouds 19 1007 74 10000 3.09 330 19:47 12.03.2022
2660 Clouds 20 1006 74 10000 4.63 340 18:55 12.03.2022
2661 Clouds 21 1006 58 10000 3.39 269 18:22 12.03.2022
2662 Clouds 21 1006 58 10000 4.63 310 17:23 12.03.2022
2663 Clouds 21 1005 83 10000 6.69 330 16:23 12.03.2022
2664 Clouds 23 1005 73 10000 8.23 330 15:22 12.03.2022
2665 Clouds 23 1005 68 10000 8.23 320 14:27 12.03.2022
2666 Clouds 24 1006 37 10000 8.23 320 12:45 12.03.2022
2667 Clouds 27 1007 7 10000 11.32 310 11:56 12.03.2022
2668 Clouds 27 1007 7 10000 11.32 310 11:34 12.03.2022
2669 Clear 27 1006 57 10000 7.72 310 10:52 12.03.2022
2670 Clear 26 1007 47 10000 7.2 310 09:45 12.03.2022
2671 Clear 26 1007 44 10000 7.2 350 08:55 12.03.2022
2672 Clear 23 1007 67 10000 4.12 330 07:19 12.03.2022
2673 Clear 18 1007 88 10000 1.03 0 02:34 12.03.2022
2674 Clear 20 1009 79 10000 0.51 0 23:56 11.03.2022
2675 Clear 20 1009 76 10000 1.54 160 22:56 11.03.2022
2676 Clear 22 1010 65 10000 2.57 150 21:35 11.03.2022
2677 Clear 24 1009 69 10000 1.03 0 20:54 11.03.2022
2678 Clear 24 1009 68 10000 1.03 0 20:29 11.03.2022
2679 Clear 26 1008 63 10000 1.54 0 19:42 11.03.2022
2680 Clear 26 1008 51 10000 1.54 0 19:20 11.03.2022
2681 Clear 27 1009 48 10000 6.69 40 17:29 11.03.2022
2682 Clear 27 1010 49 10000 5.14 30 16:27 11.03.2022
2683 Clouds 27 1011 50 10000 3.6 20 15:53 11.03.2022
2684 Rain 26 1012 31 10000 4.12 320 14:19 11.03.2022
2685 Thunderstorm 27 1012 23 10000 8.23 320 12:44 11.03.2022
2686 Thunderstorm 29 1012 6 10000 8.23 320 12:21 11.03.2022
2687 Thunderstorm 32 1011 8 10000 6.69 330 11:51 11.03.2022
2688 Clear 29 1010 39 10000 1.03 0 09:40 11.03.2022
2689 Clear 26 1010 56 10000 1.03 0 08:47 11.03.2022
2690 Clear 24 1010 58 10000 1.03 0 08:20 11.03.2022
2691 Clear 21 1010 73 10000 0.51 0 07:40 11.03.2022
2692 Clear 16 1010 86 10000 1.03 90 05:44 11.03.2022
2693 Clear 18 1010 84 10000 0.51 0 03:41 11.03.2022
2694 Clear 19 1013 71 10000 4.12 210 23:31 10.03.2022
2695 Clear 19 1013 69 10000 4.12 220 22:29 10.03.2022
2696 Clear 20 1013 76 10000 6.17 230 21:27 10.03.2022
2697 Clear 20 1013 66 10000 7.2 230 20:49 10.03.2022
2698 Clear 20 1013 62 10000 7.72 240 19:23 10.03.2022
2699 Clear 21 1013 59 10000 7.72 230 18:40 10.03.2022
2700 Clear 23 1013 47 10000 8.23 210 16:54 10.03.2022
2701 Clear 24 1013 40 10000 7.72 210 15:49 10.03.2022
2702 Clear 25 1014 44 10000 8.23 200 14:24 10.03.2022
2703 Clear 25 1015 44 10000 8.23 200 12:50 10.03.2022
2704 Clouds 25 1015 47 10000 8.75 200 11:42 10.03.2022
2705 Clouds 24 1015 56 10000 8.23 190 10:24 10.03.2022
2706 Clouds 22 1015 64 10000 7.72 210 08:49 10.03.2022
2707 Clouds 18 1014 88 10000 7.2 200 06:36 10.03.2022
2708 Clouds 19 1014 82 10000 7.2 200 03:52 10.03.2022
2709 Clear 19 1014 88 10000 9.26 190 00:51 10.03.2022
2710 Clouds 20 1014 88 10000 8.23 190 22:46 09.03.2022
2711 Clouds 20 1014 88 10000 8.75 200 21:48 09.03.2022
2712 Clouds 20 1014 88 10000 8.75 200 21:24 09.03.2022
2713 Clouds 21 1013 88 10000 6.69 190 19:42 09.03.2022
2714 Clouds 22 1012 78 10000 8.23 190 18:25 09.03.2022
2715 Clouds 24 1012 78 10000 8.75 190 17:26 09.03.2022
2716 Clouds 24 1011 73 10000 11.32 180 16:24 09.03.2022
2717 Clear 25 1010 65 10000 8.23 170 14:56 09.03.2022
2718 Clear 26 1011 65 10000 9.26 170 13:52 09.03.2022
2719 Clear 27 1010 47 10000 6.17 180 12:39 09.03.2022
2720 Clear 28 1010 39 10000 4.63 320 11:52 09.03.2022
2721 Clear 28 1010 39 10000 4.63 320 11:32 09.03.2022
2722 Clear 26 1010 47 10000 3.6 310 09:50 09.03.2022
2723 Clear 24 1010 64 10000 1.54 0 08:49 09.03.2022
2724 Clear 19 1009 82 10000 1.54 0 07:27 09.03.2022
2725 Clear 19 1009 81 10000 3.6 210 01:54 09.03.2022
2726 Clear 20 1010 76 10000 4.12 200 00:27 09.03.2022
2727 Clear 20 1011 71 10000 4.12 210 22:47 08.03.2022
2728 Clear 20 1011 71 10000 4.63 200 21:55 08.03.2022
2729 Clear 21 1011 70 10000 4.63 200 21:22 08.03.2022
2730 Clear 21 1011 67 10000 5.14 210 20:24 08.03.2022
2731 Clear 21 1011 65 10000 5.66 210 19:25 08.03.2022
2732 Clear 23 1011 59 10000 5.14 220 18:23 08.03.2022
2733 Clear 26 1011 47 10000 8.23 170 16:59 08.03.2022
2734 Clear 26 1012 40 10000 6.17 210 14:58 08.03.2022
2735 Clear 27 1013 40 10000 9.26 180 13:54 08.03.2022
2736 Clear 28 1013 39 10000 8.23 170 12:41 08.03.2022
2737 Clear 27 1014 43 10000 9.26 170 11:44 08.03.2022
2738 Clear 26 1014 46 10000 8.23 180 10:37 08.03.2022
2739 Clear 23 1014 58 10000 7.2 190 08:58 08.03.2022
2740 Clear 18 1014 81 10000 6.17 220 06:31 08.03.2022
2741 Clouds 19 1013 78 10000 6.69 200 04:25 08.03.2022
2742 Clear 19 1015 79 10000 10.8 190 22:57 07.03.2022
2743 Clear 19 1015 79 10000 10.29 180 21:46 07.03.2022
2744 Clear 19 1015 79 10000 10.29 180 21:27 07.03.2022
2745 Clouds 20 1015 75 10000 11.32 180 20:39 07.03.2022
2746 Clouds 20 1014 76 10000 10.29 180 19:55 07.03.2022
2747 Clouds 20 1014 75 10000 10.29 180 19:29 07.03.2022
2748 Clouds 20 1014 72 10000 11.32 180 18:38 07.03.2022
2749 Clouds 21 1014 71 10000 12.35 180 17:33 07.03.2022
2750 Clouds 22 1014 69 10000 12.86 180 16:55 07.03.2022
2751 Clouds 23 1014 62 10000 12.86 190 15:27 07.03.2022
2752 Clouds 25 1014 55 10000 12.35 180 12:48 07.03.2022
2753 Clouds 25 1014 52 10000 12.35 180 12:20 07.03.2022
2754 Clouds 24 1015 60 10000 11.32 180 10:35 07.03.2022
2755 Clouds 22 1014 74 10000 8.75 190 08:39 07.03.2022
2756 Mist 21 1011 92 5000 7.72 190 02:58 07.03.2022
2757 Mist 21 1012 89 4000 7.2 190 00:22 07.03.2022
2758 Clouds 21 1012 86 10000 7.2 190 23:29 06.03.2022
2759 Clouds 21 1012 83 10000 5.66 190 22:32 06.03.2022
2760 Clouds 22 1012 81 10000 6.69 190 21:45 06.03.2022
2761 Clouds 22 1012 79 10000 7.72 190 20:30 06.03.2022
2762 Clouds 22 1011 81 10000 7.72 190 19:50 06.03.2022
2763 Clear 22 1010 78 10000 7.2 180 18:51 06.03.2022
2764 Clear 23 1010 72 10000 7.72 180 17:54 06.03.2022
2765 Clear 24 1010 68 10000 7.72 180 17:20 06.03.2022
2766 Clear 25 1010 62 10000 7.72 180 16:41 06.03.2022
2767 Clouds 26 1011 57 10000 8.75 180 15:45 06.03.2022
2768 Clear 26 1011 55 10000 8.75 170 14:49 06.03.2022
2769 Clear 26 1011 59 10000 8.75 170 14:30 06.03.2022
2770 Clear 27 1011 52 10000 5.14 170 12:44 06.03.2022
2771 Clear 28 1012 46 10000 6.17 170 11:56 06.03.2022
2772 Clear 30 1011 29 10000 4.12 300 10:52 06.03.2022
2773 Clear 30 1011 33 10000 3.09 320 09:43 06.03.2022
2774 Clear 26 1011 61 10000 1.54 0 08:29 06.03.2022
2775 Clear 20 1011 83 10000 0.51 0 07:34 06.03.2022
2776 Clear 19 1010 84 10000 2.57 240 04:45 06.03.2022
2777 Clear 20 1011 71 10000 2.06 220 00:44 06.03.2022
2778 Clear 20 1011 71 10000 2.06 220 00:25 06.03.2022
2779 Clear 21 1012 64 10000 3.09 210 23:20 05.03.2022
2780 Clear 22 1012 60 10000 5.14 200 22:43 05.03.2022
2781 Clear 22 1012 60 10000 5.66 220 21:45 05.03.2022
2782 Clear 22 1012 60 10000 5.66 220 21:19 05.03.2022
2783 Clear 23 1012 57 10000 6.69 220 19:24 05.03.2022
2784 Clear 24 1011 53 10000 6.17 220 18:51 05.03.2022
2785 Clear 25 1011 48 10000 6.69 220 17:43 05.03.2022
2786 Clear 26 1012 50 10000 7.72 220 16:26 05.03.2022
2787 Clear 26 1012 46 10000 6.17 220 15:30 05.03.2022
2788 Clear 27 1013 44 10000 6.69 210 14:44 05.03.2022
2789 Clear 28 1013 42 10000 6.69 210 14:24 05.03.2022
2790 Clear 27 1014 43 10000 6.69 210 12:59 05.03.2022
2791 Clear 28 1015 45 10000 5.66 200 11:46 05.03.2022
2792 Clear 27 1015 37 10000 5.66 200 11:18 05.03.2022
2793 Clear 26 1015 42 10000 5.14 220 09:58 05.03.2022
2794 Clear 24 1015 48 10000 4.12 220 08:57 05.03.2022
2795 Clear 21 1015 66 10000 3.6 230 07:37 05.03.2022
2796 Clear 19 1015 74 10000 3.6 230 05:42 05.03.2022
2797 Clear 20 1015 72 10000 1.54 0 02:20 05.03.2022
2798 Clear 21 1017 70 10000 8.75 180 23:37 04.03.2022
2799 Clouds 20 1016 73 10000 9.26 160 22:42 04.03.2022
2800 Clouds 20 1017 77 10000 8.75 180 21:48 04.03.2022
2801 Clouds 20 1016 79 10000 8.75 180 20:52 04.03.2022
2802 Clouds 20 1016 79 10000 8.75 180 20:22 04.03.2022
2803 Clouds 20 1016 79 10000 9.77 180 19:35 04.03.2022
2804 Clouds 21 1015 74 10000 9.77 180 18:43 04.03.2022
2805 Clouds 22 1014 66 10000 11.83 180 17:31 04.03.2022
2806 Clouds 23 1014 69 10000 12.35 180 16:46 04.03.2022
2807 Clouds 24 1014 67 10000 11.32 180 15:29 04.03.2022
2808 Clear 24 1015 52 10000 7.5 175 14:19 04.03.2022
2809 Clouds 25 1015 49 10000 10.8 180 13:26 04.03.2022
2810 Clouds 25 1015 45 10000 7.72 180 11:41 04.03.2022
2811 Clouds 24 1015 46 10000 6.69 200 10:50 04.03.2022
2812 Clouds 23 1015 56 10000 5.66 180 09:42 04.03.2022
2813 Clouds 21 1015 70 10000 4.12 190 08:39 04.03.2022
2814 Clouds 19 1015 82 10000 2.57 200 07:34 04.03.2022
2815 Clear 17 1014 85 10000 2.06 170 03:53 04.03.2022
2816 Clouds 18 1015 83 10000 3.09 190 00:28 04.03.2022
2817 Clouds 18 1015 81 10000 3.09 160 22:27 03.03.2022
2818 Clouds 19 1015 78 10000 3.6 150 21:42 03.03.2022
2819 Clouds 19 1015 77 10000 3.6 150 21:24 03.03.2022
2820 Clouds 19 1013 71 10000 6.17 180 19:55 03.03.2022
2821 Clouds 20 1013 69 10000 7.2 180 18:54 03.03.2022
2822 Clouds 20 1013 68 10000 7.2 180 18:24 03.03.2022
2823 Clouds 21 1013 53 10000 7.2 180 17:30 03.03.2022
2824 Clouds 22 1012 60 10000 6.69 170 16:24 03.03.2022
2825 Clouds 24 1013 46 10000 7.2 180 15:24 03.03.2022
2826 Clouds 24 1013 48 10000 6.69 160 14:43 03.03.2022
2827 Clouds 24 1013 48 10000 6.69 160 14:20 03.03.2022
2828 Clouds 24 1013 48 10000 6.69 160 14:20 03.03.2022
2829 Clouds 24 1013 48 10000 6.69 160 14:20 03.03.2022
2830 Clouds 24 1014 60 10000 5.14 190 12:23 03.03.2022
2831 Clouds 23 1014 59 10000 5.66 180 10:48 03.03.2022
2832 Clouds 22 1014 68 10000 3.6 200 09:41 03.03.2022
2833 Clouds 19 1013 86 10000 3.09 310 07:50 03.03.2022
2834 Clouds 18 1013 91 10000 2.06 350 06:37 03.03.2022
2835 Clouds 19 1012 91 10000 2.06 310 02:42 03.03.2022
2836 Clouds 20 1012 83 10000 2.06 320 23:39 02.03.2022
2837 Clouds 19 1012 85 10000 3.6 330 22:53 02.03.2022
2838 Clouds 19 1012 89 10000 3.09 340 21:35 02.03.2022
2839 Clouds 20 1011 87 10000 3.6 320 20:55 02.03.2022
2840 Clouds 20 1011 72 10000 3.6 320 20:24 02.03.2022
2841 Clouds 20 1011 86 10000 4.63 340 19:37 02.03.2022
2842 Clouds 20 1010 83 10000 4.63 320 18:57 02.03.2022
2843 Clouds 21 1010 82 10000 4.63 320 18:26 02.03.2022
2844 Clouds 22 1010 77 10000 7.2 310 17:36 02.03.2022
2845 Clouds 23 1010 72 10000 7.2 300 16:51 02.03.2022
2846 Clouds 24 1010 69 10000 8.23 320 14:59 02.03.2022
2847 Clouds 24 1010 69 10000 8.75 310 13:35 02.03.2022
2848 Clouds 25 1010 63 10000 6.17 310 12:45 02.03.2022
2849 Clouds 24 1010 64 10000 6.17 310 12:21 02.03.2022
2850 Clouds 24 1011 61 10000 8.23 330 11:26 02.03.2022
2851 Clouds 23 1010 66 10000 5.14 350 10:30 02.03.2022
2852 Clouds 22 1010 76 10000 7.72 340 09:35 02.03.2022
2853 Rain 21 1010 83 10000 4.12 350 08:28 02.03.2022
2854 Rain 20 1010 80 10000 6.17 360 07:23 02.03.2022
2855 Clouds 20 1009 83 10000 4.63 10 04:46 02.03.2022
2856 Clouds 19 1010 82 10000 5.14 340 00:40 02.03.2022
2857 Clouds 19 1010 82 10000 5.14 340 00:40 02.03.2022
2858 Clouds 19 1011 90 10000 2.57 330 23:24 01.03.2022
2859 Clouds 19 1011 87 10000 3.6 330 22:37 01.03.2022
2860 Clouds 19 1011 89 10000 4.63 340 21:37 01.03.2022
2861 Clouds 19 1011 89 10000 5.66 340 20:40 01.03.2022
2862 Clouds 19 1011 89 10000 5.66 340 20:19 01.03.2022
2863 Clouds 20 1010 71 10000 6.69 330 18:53 01.03.2022
2864 Clouds 21 1010 45 10000 6.69 330 18:24 01.03.2022
2865 Clouds 22 1009 58 10000 7.2 320 17:42 01.03.2022
2866 Clouds 24 1009 55 10000 8.75 310 16:36 01.03.2022
2867 Clouds 24 1009 65 10000 8.23 310 15:47 01.03.2022
2868 Clouds 25 1010 60 10000 8.23 310 14:54 01.03.2022
2869 Clouds 25 1010 59 10000 8.23 310 14:31 01.03.2022
2870 Clouds 26 1010 55 10000 8.23 300 13:26 01.03.2022
2871 Clouds 26 1011 56 10000 7.72 300 12:36 01.03.2022
2872 Clouds 25 1012 58 10000 6.17 320 11:35 01.03.2022
2873 Clouds 24 1012 60 10000 5.14 360 09:52 01.03.2022
2874 Clouds 22 1012 62 10000 5.14 20 08:25 01.03.2022
2875 Clouds 20 1012 78 10000 5.66 10 07:19 01.03.2022
2876 Clouds 18 1011 89 10000 2.06 10 03:27 01.03.2022
2877 Clouds 19 1012 91 10000 3.09 340 00:48 01.03.2022
2878 Clouds 19 1012 88 10000 2.57 320 23:46 28.02.2022
2879 Clear 19 1012 77 10000 1.54 320 22:43 28.02.2022
2880 Clear 19 1012 76 10000 1.54 0 21:48 28.02.2022
2881 Clear 20 1012 72 10000 3.6 300 20:54 28.02.2022
2882 Clear 21 1011 70 10000 3.6 330 19:51 28.02.2022
2883 Clear 21 1010 68 10000 2.57 350 18:57 28.02.2022
2884 Clear 22 1010 74 10000 7.72 320 17:43 28.02.2022
2885 Clear 23 1010 69 10000 7.72 320 17:23 28.02.2022
2886 Clear 24 1010 63 10000 6.69 320 16:32 28.02.2022
2887 Clear 26 1010 55 10000 6.17 310 15:19 28.02.2022
2888 Clear 26 1010 55 10000 5.14 330 14:29 28.02.2022
2889 Clouds 26 1011 57 10000 4.63 320 13:24 28.02.2022
2890 Clouds 25 1012 58 10000 5.66 320 12:29 28.02.2022
2891 Clouds 24 1012 64 10000 6.69 360 11:21 28.02.2022
2892 Clouds 22 1013 67 10000 6.17 330 10:24 28.02.2022
2893 Clouds 22 1013 71 10000 5.66 350 09:53 28.02.2022
2894 Clouds 21 1013 66 10000 5.66 350 09:24 28.02.2022
2895 Clouds 21 1013 66 10000 5.66 350 09:24 28.02.2022
2896 Clouds 20 1012 80 10000 6.69 350 08:22 28.02.2022
2897 Clouds 20 1012 80 10000 6.69 350 08:22 28.02.2022
2898 Clouds 19 1011 82 10000 6.17 340 06:44 28.02.2022
2899 Clouds 19 1010 82 10000 4.12 330 04:31 28.02.2022
2900 Clouds 19 1010 88 10000 6.17 340 02:41 28.02.2022
2901 Mist 19 1010 92 4000 5.14 330 23:19 27.02.2022
2902 Clouds 19 1010 90 10000 5.14 320 22:33 27.02.2022
2903 Clouds 19 1010 90 9000 4.12 320 21:46 27.02.2022
2904 Clear 19 1010 88 10000 5.14 310 20:54 27.02.2022
2905 Clear 19 1010 87 10000 5.14 310 20:25 27.02.2022
2906 Clear 19 1009 81 10000 4.12 310 19:50 27.02.2022
2907 Clear 20 1009 61 10000 4.12 310 19:26 27.02.2022
2908 Clear 23 1009 41 10000 5.14 310 18:39 27.02.2022
2909 Clear 26 1008 44 10000 4.12 300 17:53 27.02.2022
2910 Clouds 26 1008 56 10000 3.6 320 16:36 27.02.2022
2911 Clouds 28 1009 39 10000 4.63 320 15:42 27.02.2022
2912 Clear 32 1009 32 10000 3.09 280 12:53 27.02.2022
2913 Clear 32 1009 33 10000 3.09 280 12:29 27.02.2022
2914 Clear 30 1010 34 10000 4.12 310 10:50 27.02.2022
2915 Clear 29 1010 26 10000 3.09 300 09:58 27.02.2022
2916 Clear 27 1010 41 10000 3.09 300 09:29 27.02.2022
2917 Clear 27 1010 40 10000 2.06 310 09:00 27.02.2022
2918 Clear 21 1009 74 10000 1.03 120 06:43 27.02.2022
2919 Clear 20 1009 72 10000 1.03 0 05:35 27.02.2022
2920 Clear 22 1010 67 10000 3.09 230 00:52 27.02.2022
2921 Clear 23 1010 63 10000 4.63 240 22:56 26.02.2022
2922 Clear 23 1010 62 10000 5.66 230 21:39 26.02.2022
2923 Clear 23 1010 63 10000 6.17 230 20:48 26.02.2022
2924 Clear 23 1010 63 10000 6.17 230 20:19 26.02.2022
2925 Clear 23 1010 63 10000 7.2 230 19:41 26.02.2022
2926 Clear 23 1010 62 10000 7.2 230 19:19 26.02.2022
2927 Clear 24 1010 57 10000 7.2 210 17:45 26.02.2022
2928 Clear 26 1011 52 10000 6.69 210 16:51 26.02.2022
2929 Clear 26 1011 50 10000 7.72 210 15:57 26.02.2022
2930 Clear 27 1011 47 10000 7.72 210 15:23 26.02.2022
2931 Clear 27 1011 49 10000 6.69 220 14:54 26.02.2022
2932 Clear 28 1011 47 10000 6.69 220 14:33 26.02.2022
2933 Clear 28 1012 42 10000 7.2 220 13:19 26.02.2022
2934 Clear 28 1013 41 10000 6.17 220 12:29 26.02.2022
2935 Clear 27 1013 45 10000 5.66 220 11:28 26.02.2022
2936 Clear 27 1014 45 10000 6.17 190 10:49 26.02.2022
2937 Clear 23 1014 69 10000 5.14 230 08:55 26.02.2022
2938 Clear 21 1014 79 10000 5.14 230 07:37 26.02.2022
2939 Clouds 19 1014 87 10000 7.2 190 01:27 26.02.2022
2940 Clear 19 1014 84 10000 7.72 200 22:55 25.02.2022
2941 Clear 20 1015 83 10000 8.75 200 21:46 25.02.2022
2942 Clear 20 1015 82 10000 8.75 200 21:26 25.02.2022
2943 Clear 20 1015 79 10000 8.75 200 20:33 25.02.2022
2944 Clouds 21 1014 73 10000 9.26 190 19:21 25.02.2022
2945 Clouds 24 1013 56 10000 9.77 180 17:30 25.02.2022
2946 Clouds 25 1013 53 10000 10.8 170 16:35 25.02.2022
2947 Clouds 25 1014 52 10000 11.83 180 15:48 25.02.2022
2948 Clouds 25 1014 51 10000 11.83 180 15:22 25.02.2022
2949 Clouds 25 1014 51 10000 11.83 180 15:22 25.02.2022
2950 Clouds 25 1016 56 10000 11.32 180 14:42 25.02.2022
2951 Clouds 25 1016 58 10000 11.83 180 13:58 25.02.2022
2952 Clouds 25 1016 58 10000 11.83 180 13:20 25.02.2022
2953 Clouds 24 1016 67 10000 9.26 190 11:28 25.02.2022
2954 Clouds 25 1016 72 10000 10.8 170 10:48 25.02.2022
2955 Clouds 25 1016 72 10000 10.8 170 10:22 25.02.2022
2956 Clouds 24 1016 75 10000 9.77 180 09:31 25.02.2022
2957 Clouds 22 1016 79 10000 7.72 190 07:44 25.02.2022
2958 Clear 19 1016 88 10000 5.66 220 05:58 25.02.2022
2959 Clear 19 1014 87 10000 5.66 220 05:31 25.02.2022
2960 Clear 20 1016 83 10000 5.66 220 00:30 25.02.2022
2961 Clear 20 1016 84 10000 7.72 210 22:20 24.02.2022
2962 Clear 20 1017 84 10000 7.2 210 21:42 24.02.2022
2963 Clear 20 1017 84 10000 7.2 210 21:20 24.02.2022
2964 Clear 20 1016 83 10000 6.17 230 20:30 24.02.2022
2965 Clouds 21 1016 79 10000 9.77 190 18:52 24.02.2022
2966 Clouds 22 1016 76 10000 9.77 190 18:19 24.02.2022
2967 Clouds 22 1016 70 10000 11.32 180 17:46 24.02.2022
2968 Clouds 23 1017 65 10000 12.35 190 16:56 24.02.2022
2969 Clouds 23 1017 65 10000 12.35 190 16:25 24.02.2022
2970 Clouds 23 1017 65 10000 12.35 190 16:25 24.02.2022
2971 Clouds 24 1017 62 10000 11.32 190 15:31 24.02.2022
2972 Clear 25 1016 61 10000 9.26 200 14:43 24.02.2022
2973 Clear 26 1016 54 10000 7.72 200 13:45 24.02.2022
2974 Clear 26 1016 55 10000 7.72 200 13:27 24.02.2022
2975 Clear 26 1017 50 10000 4.12 230 10:48 24.02.2022
2976 Clear 24 1017 54 10000 4.12 220 09:41 24.02.2022
2977 Clear 23 1017 62 10000 4.12 180 08:42 24.02.2022
2978 Clear 19 1016 83 10000 3.6 240 06:27 24.02.2022
2979 Clear 18 1016 84 10000 4.63 240 05:36 24.02.2022
2980 Clear 20 1017 80 10000 6.69 200 00:30 24.02.2022
2981 Clear 20 1018 77 10000 7.2 190 21:56 23.02.2022
2982 Clear 20 1018 76 10000 7.2 180 20:43 23.02.2022
2983 Clear 21 1018 75 10000 7.2 180 20:19 23.02.2022
2984 Clear 21 1017 72 10000 7.2 190 19:23 23.02.2022
2985 Clear 23 1016 64 10000 8.23 180 17:56 23.02.2022
2986 Clear 26 1015 46 10000 5.01 191 16:18 23.02.2022
2987 Clouds 26 1017 59 10000 9.77 180 13:45 23.02.2022
2988 Clear 25 1015 48 10000 7.72 180 12:31 23.02.2022
2989 Clear 25 1015 50 10000 5.66 180 10:56 23.02.2022
2990 Clear 24 1016 57 10000 5.14 170 09:38 23.02.2022
2991 Clear 23 1015 63 10000 5.14 200 08:54 23.02.2022
2992 Clear 22 1015 66 10000 4.63 210 07:47 23.02.2022
2993 Clear 18 1014 83 10000 4.12 210 02:31 23.02.2022
2994 Clear 19 1015 75 10000 6.17 220 23:50 22.02.2022
2995 Clear 19 1015 74 10000 6.17 220 23:32 22.02.2022
2996 Clear 20 1015 71 10000 5.14 220 22:28 22.02.2022
2997 Clear 19 1015 80 10000 5.66 200 21:44 22.02.2022
2998 Clear 20 1015 78 10000 5.66 200 21:21 22.02.2022
2999 Clear 20 1015 70 10000 6.17 190 20:43 22.02.2022
3000 Clear 20 1015 70 10000 6.17 190 20:25 22.02.2022
3001 Clear 20 1015 69 10000 7.72 190 19:34 22.02.2022
3002 Clear 21 1015 61 10000 8.23 180 18:42 22.02.2022
3003 Clear 24 1015 51 10000 8.75 170 17:35 22.02.2022
3004 Clear 24 1014 45 10000 8.75 170 16:57 22.02.2022
3005 Clear 25 1014 41 10000 5.67 187 16:22 22.02.2022
3006 Clear 25 1014 42 10000 7.72 170 15:36 22.02.2022
3007 Clear 25 1014 41 10000 7.72 160 14:37 22.02.2022
3008 Clear 24 1015 43 10000 5.14 180 11:41 22.02.2022
3009 Clear 24 1016 48 10000 6.17 190 10:22 22.02.2022
3010 Clear 20 1016 76 10000 3.6 210 07:41 22.02.2022
3011 Clear 19 1016 74 10000 3.6 210 07:23 22.02.2022
3012 Clear 17 1016 83 10000 4.12 220 02:51 22.02.2022
3013 Clear 18 1017 75 10000 3.6 190 23:48 21.02.2022
3014 Clear 18 1017 73 10000 3.09 190 22:38 21.02.2022
3015 Clear 19 1017 72 10000 2.57 150 21:24 21.02.2022
3016 Clouds 20 1016 64 10000 0.89 0 19:36 21.02.2022
3017 Clouds 22 1016 59 10000 7.2 180 18:39 21.02.2022
3018 Clouds 25 1015 53 10000 4.63 240 16:40 21.02.2022
3019 Clouds 25 1016 57 10000 4.12 310 14:24 21.02.2022
3020 Clouds 25 1015 56 10000 5.14 330 13:55 21.02.2022
3021 Clouds 24 1015 57 10000 4.63 320 12:57 21.02.2022
3022 Clouds 25 1016 56 10000 4.63 320 12:22 21.02.2022
3023 Clouds 24 1017 60 10000 4.12 310 10:32 21.02.2022
3024 Clouds 21 1017 71 10000 1.03 0 08:31 21.02.2022
3025 Clouds 19 1016 86 10000 1.54 140 00:56 21.02.2022
3026 Clouds 19 1016 76 10000 2.57 160 22:40 20.02.2022
3027 Clouds 19 1016 74 10000 2.57 170 21:54 20.02.2022
3028 Clouds 20 1016 72 10000 2.57 170 21:25 20.02.2022
3029 Clouds 20 1016 71 10000 3.6 170 20:50 20.02.2022
3030 Clouds 21 1015 66 10000 4.12 160 19:59 20.02.2022
3031 Clouds 22 1015 58 10000 5.14 190 18:58 20.02.2022
3032 Clouds 23 1015 56 10000 5.14 190 18:37 20.02.2022
3033 Clouds 23 1015 55 10000 7.2 180 17:56 20.02.2022
3034 Clouds 24 1015 52 10000 7.2 180 17:30 20.02.2022
3035 Clouds 24 1013 56 10000 2.57 0 15:29 20.02.2022
3036 Clouds 25 1014 51 10000 3.09 300 14:20 20.02.2022
3037 Clouds 25 1014 52 10000 3.09 0 12:51 20.02.2022
3038 Clouds 25 1015 52 10000 3.09 340 11:56 20.02.2022
3039 Clouds 24 1016 55 10000 2.57 0 10:21 20.02.2022
3040 Clouds 24 1016 55 10000 2.57 0 10:21 20.02.2022
3041 Clouds 23 1016 60 10000 1.54 0 09:52 20.02.2022
3042 Clouds 19 1016 77 10000 1.79 0 06:44 20.02.2022
3043 Clouds 20 1015 76 10000 4.63 180 00:33 20.02.2022
3044 Clouds 20 1015 77 10000 4.63 190 23:39 19.02.2022
3045 Clouds 21 1015 76 10000 5.14 200 22:25 19.02.2022
3046 Clouds 21 1014 76 10000 6.17 190 21:54 19.02.2022
3047 Clouds 21 1014 81 10000 6.69 190 20:48 19.02.2022
3048 Clouds 20 1013 71 10000 4.63 190 19:36 19.02.2022
3049 Clouds 21 1012 63 10000 2.06 0 18:41 19.02.2022
3050 Clouds 22 1012 69 10000 2.06 0 18:19 19.02.2022
3051 Clouds 22 1012 66 10000 3.6 320 17:33 19.02.2022
3052 Clear 24 1012 51 10000 5.14 320 15:59 19.02.2022
3053 Smoke 25 1011 43 4300 4.63 310 14:56 19.02.2022
3054 Clear 25 1011 43 10000 8.75 310 13:59 19.02.2022
3055 Clear 22 1010 68 10000 9.77 310 11:59 19.02.2022
3056 Clear 23 1010 66 10000 9.77 310 11:36 19.02.2022
3057 Clouds 22 1010 69 10000 7.2 340 09:27 19.02.2022
3058 Clear 17 1009 69 10000 5.14 340 06:52 19.02.2022
3059 Clear 19 1008 69 10000 4.12 330 01:39 19.02.2022
3060 Clear 20 1008 70 10000 1.03 0 22:54 18.02.2022
3061 Clear 21 1008 69 10000 1.03 0 21:28 18.02.2022
3062 Clear 21 1009 68 10000 2.06 200 20:33 18.02.2022
3063 Clear 22 1009 58 10000 2.06 230 19:51 18.02.2022
3064 Clear 23 1009 55 10000 4.12 230 18:49 18.02.2022
3065 Clear 24 1009 52 10000 4.12 230 18:19 18.02.2022
3066 Clear 26 1009 47 10000 4.63 220 17:21 18.02.2022
3067 Clear 28 1008 35 10000 5.66 210 14:47 18.02.2022
3068 Clear 30 1009 31 10000 6.17 220 13:54 18.02.2022
3069 Clear 30 1009 28 10000 2.57 190 12:51 18.02.2022
3070 Clear 30 1010 30 10000 4.12 180 11:58 18.02.2022
3071 Clear 28 1010 41 10000 4.12 190 10:58 18.02.2022
3072 Clear 26 1010 47 10000 5.66 150 09:30 18.02.2022
3073 Clear 19 1011 70 10000 7.2 160 06:50 18.02.2022
3074 Clear 17 1010 74 10000 4.12 190 05:37 18.02.2022
3075 Clear 19 1013 66 10000 6.17 190 22:46 17.02.2022
3076 Clear 19 1013 72 10000 5.66 170 21:43 17.02.2022
3077 Clear 19 1013 68 10000 6.69 230 20:52 17.02.2022
3078 Clear 20 1013 68 10000 6.69 230 20:34 17.02.2022
3079 Clear 20 1013 67 10000 8.75 230 19:43 17.02.2022
3080 Clear 21 1012 62 10000 8.23 230 18:37 17.02.2022
3081 Clear 23 1013 51 10000 7.72 230 17:47 17.02.2022
3082 Clear 25 1013 45 10000 6.69 210 16:20 17.02.2022
3083 Clear 25 1014 49 10000 6.17 210 14:57 17.02.2022
3084 Clear 26 1015 47 10000 6.17 210 14:19 17.02.2022
3085 Clear 27 1016 39 10000 7.2 180 11:59 17.02.2022
3086 Clear 26 1016 39 10000 7.2 180 11:21 17.02.2022
3087 Clear 22 1016 54 10000 6.69 200 08:38 17.02.2022
3088 Clear 18 1018 62 10000 10.8 160 00:29 17.02.2022
3089 Clear 18 1019 64 10000 11.32 170 22:41 16.02.2022
3090 Clouds 18 1020 71 10000 10.8 180 20:46 16.02.2022
3091 Clouds 18 1020 71 10000 10.29 180 19:43 16.02.2022
3092 Clouds 19 1020 66 10000 11.32 170 18:36 16.02.2022
3093 Clouds 20 1020 54 10000 13.38 170 17:39 16.02.2022
3094 Clouds 22 1020 45 10000 12.86 170 15:36 16.02.2022
3095 Clouds 23 1020 48 10000 13.38 170 14:57 16.02.2022
3096 Clouds 23 1021 54 10000 11.32 160 12:35 16.02.2022
3097 Clouds 23 1022 58 10000 10.29 170 11:53 16.02.2022
3098 Clouds 22 1022 59 10000 10.29 170 11:24 16.02.2022
3099 Clouds 23 1020 61 10000 9.26 170 10:30 16.02.2022
3100 Clouds 20 1019 84 10000 8.75 190 06:57 16.02.2022
3101 Clear 19 1018 82 10000 3.09 180 04:43 16.02.2022
3102 Clouds 21 1018 75 10000 3.6 180 23:44 15.02.2022
3103 Clouds 22 1017 74 10000 0.45 203 22:19 15.02.2022
3104 Clouds 22 1017 75 10000 4.63 180 21:45 15.02.2022
3105 Clouds 22 1017 74 10000 4.63 180 21:27 15.02.2022
3106 Clouds 22 1016 74 10000 4.12 160 20:55 15.02.2022
3107 Clouds 22 1015 73 10000 4.63 180 19:55 15.02.2022
3108 Clouds 22 1014 69 10000 4.63 170 18:52 15.02.2022
3109 Clouds 22 1014 67 10000 4.63 170 18:20 15.02.2022
3110 Clear 24 1014 59 10000 2.06 230 17:48 15.02.2022
3111 Clear 26 1013 53 10000 5.66 350 16:32 15.02.2022
3112 Clear 25 1013 45 10000 5.66 340 15:22 15.02.2022
3113 Clear 28 1012 6 10000 7.72 320 13:27 15.02.2022
3114 Clear 28 1011 28 10000 7.72 310 11:58 15.02.2022
3115 Clear 30 1011 36 10000 5.66 340 10:59 15.02.2022
3116 Clear 31 1010 40 10000 3.6 10 09:28 15.02.2022
3117 Clear 24 1011 61 10000 5.14 10 06:50 15.02.2022
3118 Clear 22 1009 69 10000 2.57 300 03:55 15.02.2022
3119 Clear 23 1011 64 10000 2.57 220 22:36 14.02.2022
3120 Clear 24 1011 63 10000 3.09 210 21:35 14.02.2022
3121 Clear 24 1010 61 10000 4.63 210 20:37 14.02.2022
3122 Clear 25 1011 61 10000 4.63 220 19:34 14.02.2022
3123 Clear 26 1010 54 10000 0.89 225 18:42 14.02.2022
3124 Clear 28 1010 50 10000 5.66 220 17:58 14.02.2022
3125 Clear 28 1009 47 10000 5.66 220 17:25 14.02.2022
3126 Clear 29 1009 40 10000 5.66 220 16:19 14.02.2022
3127 Clear 32 1010 31 10000 6.17 220 14:29 14.02.2022
3128 Clear 33 1010 32 10000 5.14 190 13:31 14.02.2022
3129 Clear 33 1011 40 10000 5.14 190 12:48 14.02.2022
3130 Clear 31 1011 43 10000 6.17 150 11:54 14.02.2022
3131 Clear 30 1013 51 10000 7.72 170 10:44 14.02.2022
3132 Clear 26 1013 52 10000 4.63 140 08:45 14.02.2022
3133 Clear 22 1013 70 10000 3.6 150 07:32 14.02.2022
3134 Clouds 19 1014 79 10000 10.29 190 02:27 14.02.2022
3135 Clouds 19 1016 83 10000 9.26 190 22:42 13.02.2022
3136 Clouds 19 1017 83 10000 9.26 190 22:24 13.02.2022
3137 Clouds 20 1017 83 10000 10.29 180 21:32 13.02.2022
3138 Clouds 20 1017 83 10000 9.77 180 20:36 13.02.2022
3139 Clouds 21 1016 80 10000 9.26 180 19:45 13.02.2022
3140 Clouds 21 1016 76 10000 11.83 180 18:54 13.02.2022
3141 Clouds 22 1015 77 10000 11.83 180 18:35 13.02.2022
3142 Clouds 24 1016 65 10000 12.86 190 16:34 13.02.2022
3143 Clouds 25 1014 61 10000 12.86 190 15:25 13.02.2022
3144 Clouds 25 1013 53 10000 11.83 190 14:36 13.02.2022
3145 Clouds 26 1016 58 10000 10.8 190 12:52 13.02.2022
3146 Clouds 25 1016 63 10000 11.83 190 11:59 13.02.2022
3147 Clouds 24 1016 67 10000 12.35 180 10:35 13.02.2022
3148 Clouds 24 1016 67 10000 11.83 190 09:47 13.02.2022
3149 Clear 22 1014 74 10000 7.72 190 07:52 13.02.2022
3150 Clouds 21 1014 78 10000 8.23 210 00:36 13.02.2022
3151 Clouds 21 1014 78 10000 7.2 210 23:54 12.02.2022
3152 Clear 21 1015 79 10000 7.2 200 22:34 12.02.2022
3153 Clear 21 1015 80 10000 6.69 180 21:36 12.02.2022
3154 Clear 21 1014 81 10000 7.2 190 20:52 12.02.2022
3155 Clouds 21 1014 78 10000 7.2 180 19:48 12.02.2022
3156 Clear 21 1014 76 10000 6.17 170 18:53 12.02.2022
3157 Clear 22 1014 76 10000 6.17 170 18:35 12.02.2022
3158 Clear 23 1014 71 10000 6.17 170 17:38 12.02.2022
3159 Clear 23 1014 67 10000 6.17 160 16:44 12.02.2022
3160 Clear 24 1013 65 10000 6.69 170 15:52 12.02.2022
3161 Clear 24 1013 65 10000 6.69 170 15:20 12.02.2022
3162 Clear 25 1013 61 10000 6.69 170 14:25 12.02.2022
3163 Clear 28 1013 47 10000 4.12 210 11:26 12.02.2022
3164 Clear 28 1013 46 10000 2.57 250 10:29 12.02.2022
3165 Clear 27 1012 50 10000 4.63 220 09:36 12.02.2022
3166 Clear 26 1012 56 10000 3.6 240 08:46 12.02.2022
3167 Clear 20 1011 81 10000 3.09 240 06:52 12.02.2022
3168 Clear 19 1011 83 10000 6.69 230 04:47 12.02.2022
3169 Clear 19 1013 80 10000 4.63 220 02:19 12.02.2022
3170 Clear 20 1016 78 10000 2.68 0 23:21 11.02.2022
3171 Clouds 21 1016 78 10000 10.8 200 22:21 11.02.2022
3172 Clouds 21 1015 79 10000 9.77 200 21:32 11.02.2022
3173 Clear 20 1015 78 10000 8.23 200 20:26 11.02.2022
3174 Clear 21 1014 75 10000 7.72 190 19:28 11.02.2022
3175 Clear 21 1013 71 10000 1.34 225 18:41 11.02.2022
3176 Clear 24 1013 61 10000 8.23 180 17:27 11.02.2022
3177 Clear 24 1012 53 10000 8.23 180 16:40 11.02.2022
3178 Clear 25 1013 46 10000 7.2 170 15:19 11.02.2022
3179 Clear 26 1013 47 10000 6.69 170 14:38 11.02.2022
3180 Clear 26 1013 45 10000 5.63 194 14:19 11.02.2022
3181 Clear 26 1014 47 10000 6.17 170 13:44 11.02.2022
3182 Clear 26 1014 46 10000 6.17 170 13:25 11.02.2022
3183 Clear 25 1016 52 10000 6.17 180 11:23 11.02.2022
3184 Clear 24 1016 57 10000 8.23 190 09:37 11.02.2022
3185 Clear 22 1016 60 10000 6.69 180 08:35 11.02.2022
3186 Clear 21 1016 72 10000 1.34 158 07:46 11.02.2022
3187 Clear 21 1016 66 10000 4.12 200 07:46 11.02.2022
3188 Clear 18 1015 78 10000 3.6 190 06:24 11.02.2022
3189 Clear 17 1015 72 10000 1.03 170 02:22 11.02.2022
3190 Clear 18 1016 66 10000 2.06 180 23:48 10.02.2022
3191 Clear 18 1016 62 10000 3.09 190 22:33 10.02.2022
3192 Clear 18 1016 62 10000 3.6 180 21:42 10.02.2022
3193 Clear 19 1016 60 10000 3.09 150 20:50 10.02.2022
3194 Clear 20 1015 55 10000 4.63 180 19:58 10.02.2022
3195 Clear 21 1015 54 10000 1.34 0 19:23 10.02.2022
3196 Clear 22 1014 51 10000 6.69 180 18:33 10.02.2022
3197 Clear 24 1013 54 10000 6.17 180 17:23 10.02.2022
3198 Clouds 24 1013 52 10000 4.63 150 16:43 10.02.2022
3199 Clouds 25 1013 48 10000 4.12 330 15:42 10.02.2022
3200 Clouds 25 1013 49 10000 4.12 330 15:24 10.02.2022
3201 Clouds 26 1013 49 10000 5.14 320 14:35 10.02.2022
3202 Clouds 25 1014 52 10000 5.14 330 13:59 10.02.2022
3203 Clouds 25 1014 41 10000 3.57 238 13:19 10.02.2022
3204 Clouds 24 1014 58 10000 3.6 300 11:57 10.02.2022
3205 Clouds 24 1015 54 10000 1.34 203 11:32 10.02.2022
3206 Clouds 23 1015 66 10000 1.54 0 10:32 10.02.2022
3207 Clouds 21 1015 76 10000 1.03 0 09:46 10.02.2022
3208 Clouds 20 1015 83 10000 2.06 0 08:42 10.02.2022
3209 Clouds 19 1014 90 10000 1.54 120 06:34 10.02.2022
3210 Drizzle 19 1013 90 8000 3.09 300 03:39 10.02.2022
3211 Clouds 20 1014 83 10000 2.57 310 01:18 10.02.2022
3212 Clouds 20 1014 82 10000 1.54 0 00:41 10.02.2022
3213 Clouds 21 1014 81 10000 1.54 0 00:23 10.02.2022
3214 Clouds 20 1014 81 10000 2.57 90 22:57 09.02.2022
3215 Clouds 20 1014 81 10000 2.57 90 22:33 09.02.2022
3216 Clear 20 1014 79 10000 0.51 0 21:49 09.02.2022
3217 Clear 20 1014 79 10000 0.51 0 21:28 09.02.2022
3218 Clear 21 1014 81 10000 3.09 350 20:45 09.02.2022
3219 Clear 21 1014 80 10000 3.09 350 20:23 09.02.2022
3220 Clear 21 1013 75 10000 4.12 340 19:43 09.02.2022
3221 Clear 22 1012 71 10000 5.66 320 18:55 09.02.2022
3222 Clear 23 1011 68 10000 7.2 320 17:24 09.02.2022
3223 Clouds 24 1011 64 10000 7.72 310 16:25 09.02.2022
3224 Clouds 25 1011 62 10000 7.72 320 15:27 09.02.2022
3225 Clouds 25 1012 57 10000 6.69 310 13:32 09.02.2022
3226 Clouds 26 1014 55 10000 6.69 310 12:25 09.02.2022
3227 Clouds 24 1013 58 10000 6.17 320 10:37 09.02.2022
3228 Clouds 24 1014 66 10000 1.79 45 09:56 09.02.2022
3229 Clouds 22 1013 67 10000 1.54 0 09:22 09.02.2022
3230 Clouds 22 1014 68 10000 2.57 350 08:51 09.02.2022
3231 Clouds 20 1014 79 10000 1.54 0 07:28 09.02.2022
3232 Clouds 16 1012 90 10000 1.03 70 05:29 09.02.2022
3233 Clouds 16 1011 89 10000 2.06 340 03:49 09.02.2022
3234 Clear 18 1014 83 10000 1.54 140 23:57 08.02.2022
3235 Clear 18 1014 80 10000 1.54 140 23:19 08.02.2022
3236 Clear 18 1013 79 10000 3.09 150 22:39 08.02.2022
3237 Clouds 19 1013 74 10000 1.08 208 22:20 08.02.2022
3238 Clear 19 1013 73 10000 4.63 170 21:23 08.02.2022
3239 Clear 20 1013 72 10000 5.14 170 20:59 08.02.2022
3240 Clear 20 1013 72 10000 5.14 170 20:41 08.02.2022
3241 Clear 21 1012 69 10000 6.69 160 19:31 08.02.2022
3242 Clear 23 1011 63 10000 5.66 150 18:24 08.02.2022
3243 Clear 25 1011 54 10000 6.17 160 17:33 08.02.2022
3244 Clear 26 1010 50 10000 6.69 170 15:52 08.02.2022
3245 Clear 26 1010 49 10000 6.69 170 15:28 08.02.2022
3246 Clear 27 1011 48 10000 5.66 170 13:54 08.02.2022
3247 Clear 28 1012 48 10000 5.66 170 12:39 08.02.2022
3248 Clear 27 1012 45 10000 4.63 190 10:55 08.02.2022
3249 Clear 25 1012 56 10000 5.14 200 09:50 08.02.2022
3250 Clouds 24 1012 68 10000 4.63 200 08:54 08.02.2022
3251 Fog 19 1012 92 300 0.89 180 06:50 08.02.2022
3252 Fog 18 1012 91 300 4.12 210 04:40 08.02.2022
3253 Fog 19 1012 90 300 4.12 210 04:22 08.02.2022
3254 Fog 20 1012 90 300 5.14 210 03:36 08.02.2022
3255 Fog 20 1012 90 300 5.14 210 03:18 08.02.2022
3256 Fog 20 1013 90 300 5.14 200 02:59 08.02.2022
3257 Fog 20 1013 91 300 5.14 200 02:36 08.02.2022
3258 Fog 20 1013 90 300 5.14 200 02:18 08.02.2022
3259 Fog 19 1014 91 300 6.17 190 01:45 08.02.2022
3260 Fog 19 1014 91 300 6.17 190 01:25 08.02.2022
3261 Fog 19 1014 91 400 7.72 200 00:55 08.02.2022
3262 Fog 19 1014 91 400 7.72 200 00:36 08.02.2022
3263 Fog 19 1014 91 600 7.72 200 23:45 07.02.2022
3264 Clouds 20 1015 88 10000 0.89 0 23:18 07.02.2022
3265 Clouds 20 1014 88 10000 6.17 210 22:59 07.02.2022
3266 Clouds 20 1014 87 10000 6.17 210 22:19 07.02.2022
3267 Clouds 20 1014 87 10000 5.66 210 21:51 07.02.2022
3268 Clouds 20 1014 87 10000 5.66 210 21:28 07.02.2022
3269 Clouds 20 1014 85 10000 6.17 200 20:47 07.02.2022
3270 Clouds 21 1014 84 10000 6.17 200 20:29 07.02.2022
3271 Clouds 21 1014 81 10000 6.69 200 19:47 07.02.2022
3272 Clear 23 1014 71 10000 7.2 190 18:40 07.02.2022
3273 Clear 25 1013 63 10000 7.72 180 17:38 07.02.2022
3274 Clear 25 1013 55 10000 8.23 180 16:52 07.02.2022
3275 Clear 26 1013 48 10000 6.69 180 15:48 07.02.2022
3276 Clear 28 1014 47 10000 5.14 180 14:30 07.02.2022
3277 Clear 27 1014 53 10000 4.12 180 13:27 07.02.2022
3278 Clear 27 1014 54 10000 4.12 190 12:36 07.02.2022
3279 Clear 27 1016 48 10000 1.79 180 11:52 07.02.2022
3280 Clear 26 1015 56 10000 4.12 190 11:24 07.02.2022
3281 Clear 25 1015 59 10000 3.6 200 10:43 07.02.2022
3282 Clear 25 1016 60 10000 1.34 180 10:24 07.02.2022
3283 Clear 24 1016 64 10000 1.34 180 09:52 07.02.2022
3284 Clear 24 1016 66 10000 0.89 203 09:18 07.02.2022
3285 Clouds 21 1016 77 10000 0.45 0 07:58 07.02.2022
3286 Clouds 19 1016 86 10000 0.89 0 06:34 07.02.2022
3287 Clouds 17 1015 88 10000 2.06 140 05:18 07.02.2022
3288 Clouds 17 1015 87 10000 2.06 190 02:56 07.02.2022
3289 Clouds 17 1015 82 8000 1.03 140 00:29 07.02.2022
3290 Clouds 18 1015 82 10000 2.06 130 23:33 06.02.2022
3291 Clouds 18 1015 80 10000 2.06 140 22:45 06.02.2022
3292 Clouds 18 1015 80 10000 3.09 120 21:47 06.02.2022
3293 Clouds 18 1015 75 10000 3.09 120 21:21 06.02.2022
3294 Clouds 18 1015 75 10000 3.09 120 21:21 06.02.2022
3295 Clouds 18 1015 75 10000 3.09 120 21:21 06.02.2022
3296 Clouds 18 1015 75 10000 3.09 120 21:21 06.02.2022
3297 Clouds 19 1015 76 10000 0.45 0 20:48 06.02.2022
3298 Clouds 19 1015 76 10000 0.45 0 20:24 06.02.2022
3299 Clouds 20 1015 68 10000 2.57 40 19:30 06.02.2022
3300 Clear 21 1014 61 10000 0.45 0 18:35 06.02.2022
3301 Clear 25 1013 44 10000 0.45 135 17:54 06.02.2022
3302 Clear 23 1012 53 10000 7.72 330 16:52 06.02.2022
3303 Clear 23 1012 53 10000 7.72 330 16:30 06.02.2022
3304 Clear 24 1012 50 10000 9.77 310 15:47 06.02.2022
3305 Clear 24 1012 50 10000 9.77 310 15:25 06.02.2022
3306 Clear 26 1012 50 10000 7.72 330 14:25 06.02.2022
3307 Clear 29 1012 34 10000 7.72 320 13:24 06.02.2022
3308 Clear 26 1013 51 10000 8.23 330 12:34 06.02.2022
3309 Clear 27 1013 47 10000 8.75 320 10:43 06.02.2022
3310 Clear 29 1012 42 10000 6.17 310 09:48 06.02.2022
3311 Clear 27 1011 48 10000 2.57 340 08:47 06.02.2022
3312 Clear 24 1012 60 10000 3.09 30 07:36 06.02.2022
3313 Clear 17 1010 88 10000 1.03 0 05:29 06.02.2022
3314 Clear 20 1011 70 10000 0.45 0 02:26 06.02.2022
3315 Clear 20 1011 70 10000 0.45 0 01:21 06.02.2022
3316 Clear 20 1012 66 10000 0.45 0 00:24 06.02.2022
3317 Clear 22 1012 62 10000 0.45 0 22:18 05.02.2022
3318 Clear 22 1013 61 10000 0.45 0 20:52 05.02.2022
3319 Clear 22 1011 57 10000 5.14 220 20:24 05.02.2022
3320 Clear 23 1012 60 10000 0.45 225 19:45 05.02.2022
3321 Clear 24 1013 62 10000 1.79 293 18:49 05.02.2022
3322 Clear 26 1013 48 10000 1.79 225 17:37 05.02.2022
3323 Clear 27 1013 42 10000 2.24 248 16:48 05.02.2022
3324 Clear 28 1014 41 10000 2.24 225 15:33 05.02.2022
3325 Clear 29 1014 41 10000 2.24 180 14:47 05.02.2022
3326 Clear 31 1015 34 10000 1.34 180 12:47 05.02.2022
3327 Clear 30 1016 42 10000 1.34 225 11:49 05.02.2022
3328 Clear 28 1015 41 10000 6.69 180 10:46 05.02.2022
3329 Clear 27 1016 45 10000 0.89 203 09:52 05.02.2022
3330 Clear 25 1015 46 10000 2.06 190 09:29 05.02.2022
3331 Clear 20 1015 62 10000 2.06 230 07:38 05.02.2022
3332 Clear 19 1016 67 10000 2.24 0 06:56 05.02.2022
3333 Clear 18 1015 68 10000 1.34 0 03:55 05.02.2022
3334 Clear 18 1018 58 10000 3.13 0 01:19 05.02.2022
3335 Clear 18 1017 59 10000 2.68 0 00:51 05.02.2022
3336 Clear 18 1017 64 10000 0.89 0 23:38 04.02.2022
3337 Clear 18 1018 63 10000 2.68 0 23:20 04.02.2022
3338 Clear 19 1018 63 10000 2.68 0 21:37 04.02.2022
3339 Clear 19 1018 63 10000 1.34 0 21:18 04.02.2022
3340 Clear 19 1018 62 10000 0.89 0 20:50 04.02.2022
3341 Clear 19 1018 63 10000 3.58 0 19:33 04.02.2022
3342 Clear 21 1019 51 10000 3.13 248 17:28 04.02.2022
3343 Clear 22 1020 47 10000 2.68 248 15:39 04.02.2022
3344 Clear 22 1020 46 10000 3.13 225 14:52 04.02.2022
3345 Clouds 22 1019 39 10000 13.89 180 12:43 04.02.2022
3346 Clear 22 1021 44 10000 2.68 225 11:47 04.02.2022
3347 Clouds 22 1022 43 10000 2.68 225 11:22 04.02.2022
3348 Clear 22 1021 43 10000 2.24 203 10:32 04.02.2022
3349 Clear 20 1021 52 10000 4.02 180 08:34 04.02.2022
3350 Clouds 16 1021 71 10000 1.79 0 05:23 04.02.2022
3351 Clouds 17 1021 64 10000 1.34 0 02:40 04.02.2022
3352 Clouds 18 1021 65 10000 1.34 0 00:31 04.02.2022
3353 Clouds 18 1021 66 10000 1.34 0 23:21 03.02.2022
3354 Clouds 18 1021 67 10000 0.89 0 22:31 03.02.2022
3355 Clouds 18 1020 67 10000 0.89 0 21:48 03.02.2022
3356 Clouds 19 1019 65 10000 0.89 0 20:27 03.02.2022
3357 Clouds 19 1019 64 10000 0.45 0 19:59 03.02.2022
3358 Clouds 19 1019 63 10000 0.89 0 19:26 03.02.2022
3359 Clouds 20 1018 59 10000 1.34 0 18:28 03.02.2022
3360 Clouds 23 1016 45 10000 5.66 200 17:32 03.02.2022
3361 Clouds 24 1017 51 10000 2.24 203 15:53 03.02.2022
3362 Clouds 24 1017 55 10000 2.68 203 14:28 03.02.2022
3363 Clouds 22 1015 56 10000 3.09 220 12:40 03.02.2022
3364 Clouds 20 1016 81 10000 3.13 0 10:36 03.02.2022
3365 Rain 18 1015 90 2500 1.79 0 08:23 03.02.2022
3366 Clouds 18 1010 87 10000 1.34 0 03:57 03.02.2022
3367 Clouds 18 1011 90 10000 0.45 0 00:30 03.02.2022
3368 Clouds 18 1011 90 8000 0.45 0 22:55 02.02.2022
3369 Clouds 19 1011 88 7000 0.89 0 21:53 02.02.2022
3370 Clouds 19 1010 87 7000 0.89 0 21:30 02.02.2022
3371 Mist 19 1010 85 3000 3.13 0 20:38 02.02.2022
3372 Mist 19 1010 88 2000 2.24 0 19:55 02.02.2022
3373 Mist 19 1009 90 4000 0.89 0 19:26 02.02.2022
3374 Drizzle 20 1009 87 2000 0.89 0 18:34 02.02.2022
3375 Rain 20 1008 89 3000 1.79 0 17:38 02.02.2022
3376 Rain 20 1008 89 3000 1.34 0 17:19 02.02.2022
3377 Rain 21 1008 87 10000 0.45 0 16:31 02.02.2022
3378 Clouds 22 1008 81 10000 2.68 0 12:55 02.02.2022
3379 Clouds 22 1008 80 10000 2.24 0 12:18 02.02.2022
3380 Clouds 22 1008 79 10000 1.79 0 11:32 02.02.2022
3381 Clouds 22 1008 78 10000 3.13 0 09:46 02.02.2022
3382 Clouds 21 1007 80 10000 6.69 360 07:32 02.02.2022
3383 Clouds 20 1008 85 10000 4.12 320 22:46 01.02.2022
3384 Clouds 20 1009 83 10000 0.45 0 21:40 01.02.2022
3385 Clouds 21 1008 74 10000 4.63 310 19:58 01.02.2022
3386 Smoke 25 1007 52 4000 0.89 203 17:41 01.02.2022
3387 Clouds 27 1007 43 10000 0.89 225 16:36 01.02.2022
3388 Clouds 29 1007 49 10000 7.2 310 13:56 01.02.2022
3389 Clear 29 1007 48 10000 6.17 310 12:42 01.02.2022
3390 Clear 29 1008 46 10000 3.95 307 11:20 01.02.2022
3391 Clear 21 1007 80 10000 1.54 200 02:34 01.02.2022
3392 Clear 22 1008 78 10000 0.45 0 23:41 31.01.2022
3393 Clear 22 1008 78 10000 0.45 0 22:57 31.01.2022
3394 Clear 23 1008 77 10000 0.89 0 21:39 31.01.2022
3395 Clear 23 1008 76 10000 0.45 0 21:19 31.01.2022
3396 Clear 23 1008 77 10000 0.45 0 20:29 31.01.2022
3397 Clear 23 1008 77 10000 1.34 203 19:29 31.01.2022
3398 Clear 24 1007 58 10000 1.34 248 18:26 31.01.2022
3399 Clear 25 1008 61 10000 1.34 225 17:32 31.01.2022
3400 Clear 26 1008 59 10000 3.13 203 16:29 31.01.2022
3401 Clear 26 1007 51 10000 6.69 210 14:54 31.01.2022
3402 Clear 28 1010 54 10000 2.68 180 13:52 31.01.2022
3403 Clear 28 1010 49 10000 2.24 180 12:38 31.01.2022
3404 Clear 29 1010 47 10000 2.68 180 11:47 31.01.2022
3405 Clear 29 1010 44 10000 2.24 180 10:50 31.01.2022
3406 Clear 29 1010 47 10000 1.79 225 10:25 31.01.2022
3407 Clouds 28 1009 55 10000 2.97 153 09:23 31.01.2022
3408 Clear 27 1010 58 10000 0.89 225 08:47 31.01.2022
3409 Clear 26 1009 60 10000 3.6 200 08:20 31.01.2022
3410 Clear 19 1010 81 10000 1.03 0 06:18 31.01.2022
3411 Clear 20 1009 78 10000 0.89 0 00:46 31.01.2022
3412 Clear 19 1010 79 10000 1.34 0 22:55 30.01.2022
3413 Clear 19 1010 79 10000 1.79 0 22:25 30.01.2022
3414 Clear 20 1011 77 10000 3.13 0 21:40 30.01.2022
3415 Clear 20 1011 82 10000 1.79 0 21:18 30.01.2022
3416 Clear 20 1010 82 10000 2.68 0 20:46 30.01.2022
3417 Clear 20 1010 83 10000 2.68 0 20:27 30.01.2022
3418 Clear 21 1010 81 10000 1.79 0 19:45 30.01.2022
3419 Clear 21 1009 70 10000 0.89 0 18:43 30.01.2022
3420 Clear 22 1009 61 10000 2.68 0 18:18 30.01.2022
3421 Clear 24 1008 56 10000 2.68 203 17:22 30.01.2022
3422 Clear 24 1008 53 10000 3.13 180 16:40 30.01.2022
3423 Clear 25 1009 52 10000 2.24 180 16:21 30.01.2022
3424 Clear 26 1010 53 10000 3.13 180 15:50 30.01.2022
3425 Clear 25 1010 56 10000 3.58 180 15:31 30.01.2022
3426 Clear 26 1010 50 10000 3.13 180 14:46 30.01.2022
3427 Clear 27 1010 44 10000 2.24 180 12:47 30.01.2022
3428 Clear 27 1011 48 10000 2.68 203 11:58 30.01.2022
3429 Clear 27 1011 41 10000 2.68 225 10:36 30.01.2022
3430 Clear 26 1011 44 10000 2.68 225 09:51 30.01.2022
3431 Clear 23 1011 52 10000 2.68 203 08:55 30.01.2022
3432 Clear 21 1011 65 10000 3.13 203 07:29 30.01.2022
3433 Clear 19 1011 69 10000 2.68 0 01:56 30.01.2022
3434 Clear 19 1012 70 10000 1.79 0 00:34 30.01.2022
3435 Clear 19 1014 70 10000 2.68 0 23:20 29.01.2022
3436 Clouds 20 1013 71 10000 1.79 0 21:50 29.01.2022
3437 Clouds 20 1014 71 10000 2.68 0 21:24 29.01.2022
3438 Clear 19 1015 74 10000 2.68 0 20:35 29.01.2022
3439 Clouds 20 1014 72 10000 3.13 0 19:35 29.01.2022
3440 Clouds 20 1014 69 10000 2.68 0 18:53 29.01.2022
3441 Clouds 21 1014 66 10000 3.13 0 18:24 29.01.2022
3442 Clear 22 1014 63 10000 2.68 0 17:31 29.01.2022
3443 Clear 23 1015 60 10000 4.47 293 16:37 29.01.2022
3444 Clear 25 1015 53 10000 2.24 225 14:23 29.01.2022
3445 Clear 25 1015 53 10000 2.68 180 13:45 29.01.2022
3446 Clear 26 1015 51 10000 2.68 203 13:24 29.01.2022
3447 Clear 27 1015 42 10000 3.13 203 11:50 29.01.2022
3448 Clear 28 1013 35 10000 4.63 200 11:27 29.01.2022
3449 Clear 24 1015 56 10000 1.79 180 09:29 29.01.2022
3450 Clear 19 1015 71 10000 3.13 0 06:55 29.01.2022
3451 Clear 19 1016 69 10000 0.89 0 00:37 29.01.2022
3452 Clear 19 1016 69 10000 0.89 0 00:37 29.01.2022
3453 Clear 19 1016 71 10000 3.13 0 23:59 28.01.2022
3454 Clear 19 1017 72 10000 3.58 0 22:51 28.01.2022
3455 Clear 19 1017 71 10000 3.58 0 22:26 28.01.2022
3456 Clear 19 1017 71 10000 3.58 0 21:50 28.01.2022
3457 Clouds 19 1015 70 10000 9.26 180 20:30 28.01.2022
3458 Clear 20 1015 65 10000 11.83 180 19:42 28.01.2022
3459 Clear 21 1014 59 10000 12.35 170 18:47 28.01.2022
3460 Clear 22 1014 50 10000 12.86 180 17:42 28.01.2022
3461 Clear 23 1015 45 10000 12.86 180 15:28 28.01.2022
3462 Clouds 24 1015 45 10000 12.35 180 13:59 28.01.2022
3463 Clouds 24 1016 47 10000 9.26 180 12:32 28.01.2022
3464 Clouds 24 1016 50 10000 10.8 180 11:38 28.01.2022
3465 Clouds 21 1015 67 10000 5.28 176 09:59 28.01.2022
3466 Clouds 22 1015 69 10000 6.17 180 08:41 28.01.2022
3467 Clouds 21 1015 68 10000 5.66 190 07:36 28.01.2022
3468 Clouds 18 1014 76 10000 2.79 163 05:23 28.01.2022
3469 Clouds 18 1014 76 10000 3.6 200 03:45 28.01.2022
3470 Clouds 18 1014 80 10000 3.6 180 02:23 28.01.2022
3471 Clouds 18 1014 72 10000 4.63 180 01:33 28.01.2022
3472 Clouds 19 1014 69 10000 7.2 190 23:30 27.01.2022
3473 Clouds 20 1015 71 10000 1.79 0 21:49 27.01.2022
3474 Clouds 20 1015 71 10000 1.79 0 21:29 27.01.2022
3475 Clouds 20 1015 71 10000 1.34 0 20:44 27.01.2022
3476 Clouds 21 1014 68 10000 2.24 0 19:21 27.01.2022
3477 Clouds 22 1012 62 10000 10.8 190 17:56 27.01.2022
3478 Clear 24 1013 60 10000 2.68 180 15:30 27.01.2022
3479 Clear 26 1014 56 10000 1.79 180 13:37 27.01.2022
3480 Clear 26 1014 54 10000 3.13 225 12:45 27.01.2022
3481 Clear 24 1013 58 10000 2.24 203 10:46 27.01.2022
3482 Clear 23 1013 68 10000 1.79 203 09:19 27.01.2022
3483 Clear 22 1011 70 10000 4.12 230 08:34 27.01.2022
3484 Clear 18 1011 83 10000 5.14 210 05:59 27.01.2022
3485 Clear 18 1011 79 10000 0.89 0 02:57 27.01.2022
3486 Clear 19 1012 77 10000 0.89 0 23:32 26.01.2022
3487 Clear 19 1013 78 10000 2.68 0 22:25 26.01.2022
3488 Clear 20 1013 77 10000 1.79 0 21:36 26.01.2022
3489 Clear 20 1013 78 10000 1.79 0 20:41 26.01.2022
3490 Clear 20 1013 78 10000 2.24 0 20:22 26.01.2022
3491 Clouds 20 1013 77 10000 2.68 0 19:20 26.01.2022
3492 Clouds 21 1014 76 10000 3.13 0 18:45 26.01.2022
3493 Clouds 21 1014 71 10000 2.24 0 17:51 26.01.2022
3494 Clouds 22 1014 70 10000 3.13 0 17:23 26.01.2022
3495 Clouds 22 1014 70 10000 1.79 0 16:33 26.01.2022
3496 Clouds 22 1014 68 10000 2.68 248 15:49 26.01.2022
3497 Clouds 23 1015 78 10000 2.68 203 14:20 26.01.2022
3498 Clouds 26 1013 61 10000 9.26 190 11:52 26.01.2022
3499 Clouds 25 1014 61 10000 9.26 190 10:28 26.01.2022
3500 Clouds 25 1014 62 10000 8.23 190 09:48 26.01.2022
3501 Clouds 22 1015 70 10000 2.24 225 07:44 26.01.2022
3502 Clear 18 1014 83 10000 2.24 0 04:24 26.01.2022
3503 Clear 19 1015 75 10000 2.68 0 23:58 25.01.2022
3504 Clear 19 1016 75 10000 2.24 0 23:19 25.01.2022
3505 Clear 19 1016 75 10000 2.68 0 22:21 25.01.2022
3506 Clear 19 1016 73 10000 2.68 0 21:58 25.01.2022
3507 Clear 19 1017 72 10000 3.13 0 20:47 25.01.2022
3508 Clear 19 1016 71 10000 3.58 0 20:28 25.01.2022
3509 Clear 19 1016 71 10000 3.58 0 20:28 25.01.2022
3510 Clear 19 1016 71 10000 3.58 0 20:28 25.01.2022
3511 Clouds 19 1016 70 10000 3.13 0 19:52 25.01.2022
3512 Clouds 21 1016 59 10000 2.24 0 18:37 25.01.2022
3513 Clouds 22 1016 56 10000 2.68 203 17:44 25.01.2022
3514 Clouds 23 1016 49 10000 3.13 248 16:45 25.01.2022
3515 Clouds 24 1016 51 10000 2.24 225 16:21 25.01.2022
3516 Clouds 24 1017 51 10000 3.13 225 15:38 25.01.2022
3517 Clouds 24 1017 51 10000 3.58 203 14:57 25.01.2022
3518 Clouds 24 1017 49 10000 4.02 225 13:42 25.01.2022
3519 Clouds 24 1017 56 10000 3.13 248 10:51 25.01.2022
3520 Clouds 23 1017 65 10000 3.13 225 08:38 25.01.2022
3521 Clouds 21 1017 77 10000 3.13 248 07:29 25.01.2022
3522 Clouds 20 1016 82 10000 1.79 0 06:49 25.01.2022
3523 Clouds 20 1016 85 10000 2.68 0 05:22 25.01.2022
3524 Clouds 20 1016 85 10000 8.23 190 23:37 24.01.2022
3525 Clouds 21 1016 84 10000 8.23 190 23:19 24.01.2022
3526 Clouds 21 1016 84 10000 8.75 200 22:59 24.01.2022
3527 Clouds 21 1018 84 10000 1.79 225 22:41 24.01.2022
3528 Clouds 21 1018 86 10000 2.24 293 21:54 24.01.2022
3529 Clouds 21 1018 86 10000 2.24 248 21:29 24.01.2022
3530 Clouds 21 1018 83 10000 1.34 203 20:30 24.01.2022
3531 Clouds 21 1017 82 10000 3.13 248 19:52 24.01.2022
3532 Clouds 21 1017 80 10000 2.24 225 19:30 24.01.2022
3533 Clouds 22 1017 75 10000 2.24 225 18:18 24.01.2022
3534 Clouds 22 1017 71 10000 3.13 225 17:24 24.01.2022
3535 Clouds 23 1017 68 10000 3.58 225 16:55 24.01.2022
3536 Clouds 24 1016 66 10000 3.58 203 16:19 24.01.2022
3537 Clouds 26 1017 60 10000 2.68 225 14:43 24.01.2022
3538 Clouds 25 1017 69 10000 3.13 203 13:24 24.01.2022
3539 Clouds 26 1018 70 10000 2.68 225 12:23 24.01.2022
3540 Clouds 25 1017 70 10000 2.68 158 10:31 24.01.2022
3541 Clouds 25 1017 71 10000 3.13 180 09:48 24.01.2022
3542 Clouds 24 1018 73 10000 2.68 158 08:41 24.01.2022
3543 Clouds 21 1018 85 10000 1.34 0 06:40 24.01.2022
3544 Clouds 20 1015 86 7000 4.12 180 01:31 24.01.2022
3545 Clouds 20 1015 87 10000 4.63 170 00:36 24.01.2022
3546 Clouds 20 1015 91 10000 5.66 180 23:52 23.01.2022
3547 Clouds 20 1015 88 10000 5.66 180 22:32 23.01.2022
3548 Clouds 20 1015 88 8000 6.69 160 21:50 23.01.2022
3549 Clouds 21 1016 88 8000 0.89 0 21:26 23.01.2022
3550 Clouds 21 1015 87 10000 1.79 0 20:45 23.01.2022
3551 Clouds 21 1015 86 6000 0.89 0 19:52 23.01.2022
3552 Clouds 23 1014 80 10000 0.45 0 18:52 23.01.2022
3553 Clouds 26 1015 72 10000 1.34 113 17:49 23.01.2022
3554 Clear 28 1013 63 10000 6.17 140 16:47 23.01.2022
3555 Clear 30 1013 59 10000 4.63 140 15:18 23.01.2022
3556 Clear 31 1013 54 10000 4.12 340 14:25 23.01.2022
3557 Clear 30 1014 54 10000 3.09 320 13:22 23.01.2022
3558 Clear 32 1014 27 10000 4.12 330 12:36 23.01.2022
3559 Clear 33 1015 38 10000 0.89 45 12:18 23.01.2022
3560 Clear 32 1015 40 10000 0.45 68 11:23 23.01.2022
3561 Clear 31 1015 42 10000 0.89 113 10:28 23.01.2022
3562 Clear 31 1015 40 10000 0.45 90 09:51 23.01.2022
3563 Clear 31 1015 42 10000 0.45 68 08:59 23.01.2022
3564 Clear 24 1014 65 10000 3.09 330 05:58 23.01.2022
3565 Clear 27 1015 62 10000 0.45 135 01:53 23.01.2022
3566 Clear 27 1015 61 10000 0.89 68 01:33 23.01.2022
3567 Clear 28 1015 59 10000 1.03 0 00:23 23.01.2022
3568 Clouds 27 1016 61 10000 0.45 225 23:57 22.01.2022
3569 Clear 27 1015 58 10000 1.54 0 22:46 22.01.2022
3570 Clear 28 1015 55 10000 0.89 203 21:38 22.01.2022
3571 Clear 29 1015 48 10000 0.89 203 20:23 22.01.2022
3572 Clouds 30 1015 49 10000 0.89 180 19:21 22.01.2022
3573 Clouds 31 1015 47 10000 1.34 225 18:25 22.01.2022
3574 Clouds 31 1013 41 10000 6.69 190 17:41 22.01.2022
3575 Clouds 33 1014 39 10000 7.72 200 16:56 22.01.2022
3576 Clouds 34 1014 32 10000 6.69 210 15:55 22.01.2022
3577 Clouds 34 1014 31 10000 6.69 210 15:37 22.01.2022
3578 Clear 36 1016 36 10000 2.24 180 13:59 22.01.2022
3579 Clear 35 1017 37 10000 1.79 180 12:55 22.01.2022
3580 Clear 35 1017 37 10000 1.79 225 12:30 22.01.2022
3581 Clear 35 1017 35 10000 2.24 180 11:57 22.01.2022
3582 Clear 35 1017 36 10000 1.34 203 10:38 22.01.2022
3583 Clear 35 1016 40 10000 2.06 220 10:19 22.01.2022
3584 Clear 31 1016 47 10000 1.54 0 08:54 22.01.2022
3585 Clear 30 1016 51 10000 1.54 0 08:27 22.01.2022
3586 Clear 21 1015 73 10000 1.03 0 05:20 22.01.2022
3587 Clear 21 1016 70 10000 0.89 0 01:58 22.01.2022
3588 Clear 21 1017 66 10000 0.45 0 23:49 21.01.2022
3589 Clear 22 1017 65 10000 0.45 0 22:44 21.01.2022
3590 Clear 22 1017 65 10000 0.45 0 20:46 21.01.2022
3591 Clear 24 1017 61 10000 1.34 225 18:41 21.01.2022
3592 Clear 25 1017 53 10000 2.24 270 17:48 21.01.2022
3593 Clear 27 1018 51 10000 2.68 180 15:48 21.01.2022
3594 Clear 27 1018 51 10000 2.68 225 14:37 21.01.2022
3595 Clear 26 1019 49 10000 2.68 225 12:42 21.01.2022
3596 Clear 26 1018 44 10000 2.24 225 11:29 21.01.2022
3597 Clear 26 1018 43 10000 2.24 180 10:27 21.01.2022
3598 Clear 24 1018 56 10000 1.79 180 08:50 21.01.2022
3599 Clear 22 1018 65 10000 1.34 225 07:37 21.01.2022
3600 Clear 18 1018 77 10000 1.34 0 01:48 21.01.2022
3601 Clear 19 1018 75 10000 1.34 0 22:47 20.01.2022
3602 Clear 19 1018 73 10000 1.79 0 21:48 20.01.2022
3603 Clear 19 1018 78 10000 2.24 0 21:24 20.01.2022
3604 Clear 20 1017 68 10000 0.89 0 19:47 20.01.2022
3605 Clear 20 1017 67 10000 1.34 0 19:18 20.01.2022
3606 Clear 22 1016 58 10000 2.68 203 17:37 20.01.2022
3607 Clear 24 1016 54 10000 2.68 180 16:19 20.01.2022
3608 Clear 25 1016 48 10000 8.75 180 15:29 20.01.2022
3609 Clear 25 1015 43 10000 6.48 200 14:19 20.01.2022
3610 Clear 27 1017 49 10000 1.79 180 12:49 20.01.2022
3611 Clear 27 1017 49 10000 2.24 158 12:29 20.01.2022
3612 Clear 27 1017 50 10000 1.34 135 11:19 20.01.2022
3613 Clear 25 1016 50 10000 0.89 180 09:50 20.01.2022
3614 Clear 23 1015 63 10000 0.45 68 08:51 20.01.2022
3615 Clear 18 1013 82 10000 0 0 06:57 20.01.2022
3616 Clear 17 1013 78 10000 2.06 200 00:40 20.01.2022
3617 Clear 18 1016 74 10000 0.89 0 22:38 19.01.2022
3618 Clear 18 1016 71 10000 0.89 0 21:34 19.01.2022
3619 Clear 18 1017 69 10000 2.24 0 20:58 19.01.2022
3620 Clear 19 1017 69 10000 1.34 0 20:40 19.01.2022
3621 Clear 20 1016 63 10000 1.79 0 18:59 19.01.2022
3622 Clear 22 1016 51 10000 1.79 180 17:51 19.01.2022
3623 Clear 23 1015 43 10000 9.26 180 17:18 19.01.2022
3624 Clear 23 1016 49 10000 2.68 180 17:18 19.01.2022
3625 Clear 23 1015 43 10000 9.26 180 17:18 19.01.2022
3626 Clear 25 1016 41 10000 2.24 203 15:32 19.01.2022
3627 Clear 26 1016 29 10000 6.17 180 13:26 19.01.2022
3628 Clear 25 1017 41 10000 4.12 210 11:59 19.01.2022
3629 Clear 23 1017 43 10000 4.12 210 11:38 19.01.2022
3630 Clear 22 1019 53 10000 1.79 180 09:36 19.01.2022
3631 Clear 21 1020 57 10000 1.79 158 08:38 19.01.2022
3632 Clouds 15 1019 79 10000 3.6 180 05:29 19.01.2022
3633 Clouds 16 1021 70 10000 0.45 0 00:22 19.01.2022
3634 Clouds 18 1020 54 10000 3.67 184 23:18 18.01.2022
3635 Clouds 19 1019 63 10000 0.45 0 21:50 18.01.2022
3636 Clouds 20 1019 59 10000 1.34 0 20:38 18.01.2022
3637 Clouds 20 1018 57 10000 0.45 0 19:51 18.01.2022
3638 Clouds 20 1018 56 10000 0.45 0 19:33 18.01.2022
3639 Clouds 22 1017 52 10000 1.79 0 18:23 18.01.2022
3640 Clouds 22 1016 58 10000 1.79 0 17:32 18.01.2022
3641 Clouds 24 1016 56 10000 2.24 225 16:22 18.01.2022
3642 Clouds 24 1015 72 10000 3.58 315 15:25 18.01.2022
3643 Clouds 24 1015 76 10000 4.02 315 14:23 18.01.2022
3644 Rain 22 1015 85 10000 2.24 0 11:45 18.01.2022
3645 Drizzle 21 1015 89 2500 0.89 0 10:30 18.01.2022
3646 Rain 22 1014 77 10000 1.34 158 08:29 18.01.2022
3647 Clouds 22 1013 74 10000 1.34 135 07:45 18.01.2022
3648 Clear 19 1012 88 10000 1.54 240 00:42 18.01.2022
3649 Clear 19 1012 81 10000 3.6 210 22:47 17.01.2022
3650 Clear 20 1012 81 10000 4.63 210 21:50 17.01.2022
3651 Clear 20 1012 80 10000 0.45 0 21:29 17.01.2022
3652 Clouds 21 1013 76 10000 0.45 0 19:37 17.01.2022
3653 Clouds 23 1013 68 10000 1.79 0 18:26 17.01.2022
3654 Clear 24 1012 63 10000 1.79 225 17:22 17.01.2022
3655 Clear 26 1014 57 10000 2.68 180 15:58 17.01.2022
3656 Clear 26 1013 48 10000 8.75 190 14:58 17.01.2022
3657 Clear 26 1013 47 10000 8.75 190 14:32 17.01.2022
3658 Clear 26 1013 45 10000 7.72 200 13:19 17.01.2022
3659 Clear 27 1015 48 10000 2.24 180 12:27 17.01.2022
3660 Clear 26 1015 43 10000 6.17 190 11:33 17.01.2022
3661 Clear 26 1016 46 10000 1.79 180 10:21 17.01.2022
3662 Clear 24 1017 66 10000 1.79 180 08:44 17.01.2022
3663 Clear 22 1017 68 10000 1.79 248 07:21 17.01.2022
3664 Clear 18 1017 75 10000 0.45 0 01:52 17.01.2022
3665 Clear 18 1017 70 10000 0.45 0 23:44 16.01.2022
3666 Clouds 20 1016 60 10000 2.23 269 21:22 16.01.2022
3667 Clear 21 1016 58 10000 0.45 0 20:28 16.01.2022
3668 Clear 23 1015 52 10000 2.68 293 18:46 16.01.2022
3669 Clear 24 1013 59 10000 4.47 293 17:50 16.01.2022
3670 Clear 25 1013 58 10000 3.58 293 16:54 16.01.2022
3671 Clear 26 1013 56 10000 3.13 293 15:43 16.01.2022
3672 Clear 26 1012 53 10000 8.23 300 14:29 16.01.2022
3673 Clear 26 1012 53 10000 8.23 300 14:29 16.01.2022
3674 Clear 26 1012 52 10000 7.2 310 13:33 16.01.2022
3675 Clouds 26 1013 54 10000 4.69 297 12:21 16.01.2022
3676 Clouds 26 1013 57 10000 6.17 290 11:27 16.01.2022
3677 Clouds 25 1013 63 10000 6.17 300 10:27 16.01.2022
3678 Clouds 24 1013 68 10000 5.66 320 09:57 16.01.2022
3679 Clouds 23 1013 71 10000 5.66 320 09:23 16.01.2022
3680 Clouds 22 1012 76 10000 4.12 320 08:53 16.01.2022
3681 Clouds 20 1010 83 10000 4.12 350 05:52 16.01.2022
3682 Clouds 20 1011 83 10000 3.6 350 00:19 16.01.2022
3683 Clear 20 1010 87 10000 4.63 340 22:49 15.01.2022
3684 Clear 20 1011 86 10000 6.69 330 21:21 15.01.2022
3685 Clear 20 1010 86 10000 5.66 330 20:44 15.01.2022
3686 Clouds 21 1009 58 9021 2.77 318 20:18 15.01.2022
3687 Clear 21 1008 81 10000 8.75 320 19:25 15.01.2022
3688 Clear 22 1007 75 10000 9.26 320 17:58 15.01.2022
3689 Clear 23 1008 68 10000 9.77 310 16:43 15.01.2022
3690 Rain 25 1008 63 10000 8.75 310 14:36 15.01.2022
3691 Clear 26 1009 60 10000 8.23 310 12:38 15.01.2022
3692 Clear 25 1009 65 10000 7.2 310 11:20 15.01.2022
3693 Clear 24 1010 63 10000 6.17 330 09:35 15.01.2022
3694 Drizzle 19 1009 84 5000 0.45 0 01:27 15.01.2022
3695 Clear 21 1009 70 10000 5.66 320 22:40 14.01.2022
3696 Clear 22 1009 75 10000 2.57 300 20:54 14.01.2022
3697 Clear 23 1009 57 10000 0.45 0 20:23 14.01.2022
3698 Clear 25 1009 56 10000 3.09 300 19:49 14.01.2022
3699 Clear 27 1009 49 10000 3.09 300 18:33 14.01.2022
3700 Clear 29 1008 34 10000 4.63 330 16:57 14.01.2022
3701 Clear 29 1008 34 10000 4.63 330 16:38 14.01.2022
3702 Clear 32 1009 35 10000 3.6 280 14:50 14.01.2022
3703 Clear 32 1009 35 10000 3.6 280 14:20 14.01.2022
3704 Clear 32 1010 46 10000 2.06 0 12:37 14.01.2022
3705 Clear 31 1010 39 10000 3.6 170 11:51 14.01.2022
3706 Clear 33 1010 44 10000 2.06 240 10:24 14.01.2022
3707 Clear 30 1011 53 10000 0.45 180 08:52 14.01.2022
3708 Clear 25 1011 60 10000 0.45 180 07:29 14.01.2022
3709 Clear 22 1011 67 10000 0.89 0 01:43 14.01.2022
3710 Clear 23 1012 65 10000 0.89 203 23:40 13.01.2022
3711 Clear 24 1014 63 10000 1.79 315 21:46 13.01.2022
3712 Clear 24 1013 62 10000 1.34 225 21:27 13.01.2022
3713 Clear 25 1013 59 10000 1.79 315 19:44 13.01.2022
3714 Clear 26 1012 56 10000 2.68 315 19:23 13.01.2022
3715 Clear 27 1012 53 10000 1.34 248 18:36 13.01.2022
3716 Clear 29 1010 43 10000 10.8 150 16:48 13.01.2022
3717 Clear 30 1011 41 10000 11.32 170 15:38 13.01.2022
3718 Clouds 30 1011 40 10000 5.44 173 15:18 13.01.2022
3719 Clear 30 1011 47 10000 10.8 170 13:22 13.01.2022
3720 Clear 29 1012 50 10000 10.29 160 10:29 13.01.2022
3721 Clear 27 1012 55 10000 9.26 170 09:23 13.01.2022
3722 Clear 25 1012 58 10000 7.2 180 08:28 13.01.2022
3723 Clear 25 1011 60 10000 5.14 160 07:58 13.01.2022
3724 Clear 23 1012 61 10000 0.45 0 07:18 13.01.2022
3725 Clear 20 1011 67 10000 0.45 0 05:20 13.01.2022
3726 Clear 20 1010 67 10000 4.63 160 03:33 13.01.2022
3727 Clear 20 1013 69 10000 1.79 0 01:38 13.01.2022
3728 Clear 20 1013 69 10000 2.24 0 23:53 12.01.2022
3729 Clear 20 1013 69 10000 1.79 0 23:33 12.01.2022
3730 Clear 21 1013 64 10000 0.45 0 21:59 12.01.2022
3731 Clear 21 1013 63 10000 1.34 0 21:39 12.01.2022
3732 Clouds 21 1014 62 10000 0.89 0 21:18 12.01.2022
3733 Clear 21 1013 64 10000 1.34 0 20:41 12.01.2022
3734 Clear 22 1013 62 10000 0.89 0 18:48 12.01.2022
3735 Clear 23 1014 56 10000 0.89 203 17:54 12.01.2022
3736 Clear 24 1011 42 10000 8.23 210 16:43 12.01.2022
3737 Clear 26 1012 42 10000 7.2 210 14:49 12.01.2022
3738 Clear 27 1013 47 10000 2.24 203 14:19 12.01.2022
3739 Clear 27 1013 38 10000 6.17 220 12:57 12.01.2022
3740 Clear 25 1014 52 10000 8.23 170 09:26 12.01.2022
3741 Clear 22 1015 65 10000 0.89 180 07:57 12.01.2022
3742 Clear 21 1015 67 10000 1.79 180 07:33 12.01.2022
3743 Clear 18 1015 75 10000 2.24 0 02:20 12.01.2022
3744 Clear 18 1017 68 10000 2.24 0 23:26 11.01.2022
3745 Clear 18 1017 64 10000 2.68 0 22:26 11.01.2022
3746 Clear 18 1018 64 10000 2.24 0 21:58 11.01.2022
3747 Clouds 18 1018 71 10000 1.79 0 20:39 11.01.2022
3748 Clouds 19 1016 56 10000 9.26 190 19:35 11.01.2022
3749 Clear 21 1016 53 10000 2.24 225 17:54 11.01.2022
3750 Clouds 22 1016 49 10000 2.24 180 16:40 11.01.2022
3751 Clouds 23 1016 49 10000 2.24 180 16:40 11.01.2022
3752 Clouds 23 1016 49 10000 2.24 225 16:18 11.01.2022
3753 Clouds 23 1016 44 10000 6.17 170 14:53 11.01.2022
3754 Clouds 23 1016 60 10000 2.24 180 14:34 11.01.2022
3755 Clouds 23 1016 64 10000 0.89 315 13:52 11.01.2022
3756 Clouds 22 1017 55 10000 0.45 203 13:28 11.01.2022
3757 Clouds 22 1016 59 10000 0.89 180 12:34 11.01.2022
3758 Clouds 23 1016 72 10000 1.79 225 10:40 11.01.2022
3759 Clouds 21 1016 73 10000 2.24 248 08:26 11.01.2022
3760 Clouds 19 1013 86 10000 0.89 0 04:28 11.01.2022
3761 Clouds 19 1012 85 10000 0.45 0 00:27 11.01.2022
3762 Clouds 20 1012 83 10000 0.45 0 23:39 10.01.2022
3763 Clouds 20 1012 79 10000 0.45 0 22:42 10.01.2022
3764 Clouds 20 1012 79 10000 1.34 0 22:18 10.01.2022
3765 Clouds 20 1012 79 10000 0.45 135 21:36 10.01.2022
3766 Clouds 20 1012 77 10000 2.87 301 21:18 10.01.2022
3767 Clouds 21 1011 78 10000 0.45 158 20:54 10.01.2022
3768 Clouds 21 1011 75 10000 1.34 225 20:19 10.01.2022
3769 Clouds 21 1011 83 10000 1.79 225 19:39 10.01.2022
3770 Clouds 21 1011 72 10000 0.89 225 19:19 10.01.2022
3771 Clouds 21 1010 80 10000 2.24 225 18:47 10.01.2022
3772 Clouds 23 1009 71 10000 2.68 248 16:49 10.01.2022
3773 Clouds 23 1009 71 10000 1.79 203 16:27 10.01.2022
3774 Clouds 24 1009 62 10000 2.68 315 14:44 10.01.2022
3775 Clouds 25 1009 56 10000 2.24 68 13:35 10.01.2022
3776 Clouds 24 1009 58 10000 1.79 338 11:57 10.01.2022
3777 Clouds 24 1010 65 10000 2.68 315 10:50 10.01.2022
3778 Drizzle 22 1010 64 10000 0.89 338 09:40 10.01.2022
3779 Clouds 19 1008 79 10000 1.79 0 05:52 10.01.2022
3780 Clouds 20 1007 79 10000 1.79 0 04:48 10.01.2022
3781 Clouds 19 1009 80 10000 5.66 350 01:22 10.01.2022
3782 Clouds 20 1010 77 10000 8.75 330 00:22 10.01.2022
3783 Clear 21 1009 72 10000 0.45 68 22:48 09.01.2022
3784 Clear 21 1009 71 10000 0.89 225 22:21 09.01.2022
3785 Clear 22 1008 65 10000 0.45 135 21:42 09.01.2022
3786 Clear 23 1008 65 10000 1.54 0 21:22 09.01.2022
3787 Clear 23 1008 65 10000 0.45 225 20:47 09.01.2022
3788 Clear 23 1008 65 10000 0.45 225 20:29 09.01.2022
3789 Clear 24 1008 60 10000 0.45 225 19:42 09.01.2022
3790 Clear 25 1009 60 10000 0.45 225 19:21 09.01.2022
3791 Clear 25 1008 61 10000 0.89 248 18:47 09.01.2022
3792 Clear 25 1008 62 10000 5.66 70 18:28 09.01.2022
3793 Clear 24 1009 65 10000 3.6 30 17:30 09.01.2022
3794 Clear 23 1009 68 10000 2.06 10 16:51 09.01.2022
3795 Rain 21 1010 85 10000 9.26 320 15:52 09.01.2022
3796 Rain 21 1010 85 10000 9.26 320 15:33 09.01.2022
3797 Rain 21 1009 78 10000 7.2 320 14:39 09.01.2022
3798 Rain 22 1009 74 10000 6.69 330 13:50 09.01.2022
3799 Clear 24 1009 61 10000 7.72 330 12:31 09.01.2022
3800 Clear 25 1009 66 10000 7.2 320 11:47 09.01.2022
3801 Clear 25 1009 47 10000 6.69 320 09:56 09.01.2022
3802 Clear 23 1009 71 10000 6.69 320 09:29 09.01.2022
3803 Clear 23 1009 68 10000 7.2 320 08:30 09.01.2022
3804 Clear 21 1008 83 10000 3.6 340 02:31 09.01.2022
3805 Clear 22 1007 75 10000 1.54 0 01:20 09.01.2022
3806 Clear 23 1008 66 10000 1.54 180 23:38 08.01.2022
3807 Clear 24 1009 66 10000 0.89 225 22:59 08.01.2022
3808 Clear 25 1009 63 10000 0.45 225 21:33 08.01.2022
3809 Clear 25 1009 63 10000 0.45 225 20:45 08.01.2022
3810 Clear 25 1009 61 10000 0.45 225 20:24 08.01.2022
3811 Clear 25 1008 61 10000 0.45 203 19:58 08.01.2022
3812 Clear 28 1007 45 10000 5.14 220 17:51 08.01.2022
3813 Clear 30 1007 39 10000 5.05 168 17:21 08.01.2022
3814 Clear 32 1008 36 10000 5.66 210 15:47 08.01.2022
3815 Clear 33 1009 34 10000 6.17 200 14:41 08.01.2022
3816 Clear 33 1009 33 10000 5.14 210 12:44 08.01.2022
3817 Clear 31 1010 44 10000 3.6 200 11:24 08.01.2022
3818 Clear 32 1010 43 10000 4.12 200 10:25 08.01.2022
3819 Clear 31 1010 46 10000 3.6 200 09:47 08.01.2022
3820 Clear 25 1012 58 10000 0.89 225 07:19 08.01.2022
3821 Clear 22 1011 67 10000 0.89 225 02:45 08.01.2022
3822 Clear 22 1013 67 10000 0.45 315 00:41 08.01.2022
3823 Clear 23 1015 65 10000 2.24 293 22:47 07.01.2022
3824 Clear 24 1014 62 10000 2.24 180 20:56 07.01.2022
3825 Clear 24 1015 60 10000 1.79 293 20:19 07.01.2022
3826 Clear 25 1013 57 10000 1.34 315 19:18 07.01.2022
3827 Clear 26 1013 52 10000 0.89 225 18:44 07.01.2022
3828 Clear 28 1012 46 10000 2.24 203 17:26 07.01.2022
3829 Clear 29 1012 43 10000 0.89 248 16:30 07.01.2022
3830 Clear 29 1014 43 10000 2.68 203 13:54 07.01.2022
3831 Clear 28 1015 44 10000 3.13 203 13:22 07.01.2022
3832 Clear 29 1014 43 10000 2.24 203 12:49 07.01.2022
3833 Clear 27 1014 57 10000 1.79 203 09:37 07.01.2022
3834 Clear 20 1014 67 10000 2.68 0 02:56 07.01.2022
3835 Clear 20 1014 66 10000 3.13 0 01:54 07.01.2022
3836 Clear 20 1014 65 10000 2.24 0 01:28 07.01.2022
3837 Clear 20 1015 65 10000 1.79 0 00:58 07.01.2022
3838 Clear 20 1015 65 10000 1.79 0 00:58 07.01.2022
3839 Clear 20 1015 63 10000 2.24 0 23:53 06.01.2022
3840 Clear 21 1016 63 10000 3.13 0 21:28 06.01.2022
3841 Clear 20 1015 65 10000 2.24 0 20:22 06.01.2022
3842 Clear 21 1015 64 10000 3.13 0 19:45 06.01.2022
3843 Clouds 21 1015 63 10000 2.68 0 18:34 06.01.2022
3844 Clouds 22 1015 62 10000 2.68 293 17:40 06.01.2022
3845 Clouds 23 1015 58 10000 2.68 270 16:52 06.01.2022
3846 Clear 23 1015 68 10000 2.24 225 15:48 06.01.2022
3847 Clear 24 1015 68 10000 2.24 203 15:26 06.01.2022
3848 Clear 24 1016 67 10000 2.68 248 14:51 06.01.2022
3849 Clear 25 1016 63 10000 2.68 225 14:18 06.01.2022
3850 Clear 26 1015 54 10000 2.68 225 12:56 06.01.2022
3851 Clear 27 1014 46 10000 4.63 200 11:43 06.01.2022
3852 Clear 27 1014 47 10000 4.63 200 11:23 06.01.2022
3853 Clear 24 1015 62 10000 0.89 180 08:59 06.01.2022
3854 Clear 18 1014 77 10000 0.45 225 01:51 06.01.2022
3855 Clear 18 1015 74 10000 1.34 203 23:40 05.01.2022
3856 Clear 18 1015 74 10000 0.45 203 22:59 05.01.2022
3857 Clear 18 1015 73 10000 1.34 0 22:33 05.01.2022
3858 Clear 19 1016 71 10000 1.34 0 21:54 05.01.2022
3859 Clear 19 1016 72 10000 1.79 0 21:21 05.01.2022
3860 Clouds 19 1017 73 10000 1.79 0 20:19 05.01.2022
3861 Clear 20 1016 67 10000 2.24 0 18:54 05.01.2022
3862 Clear 21 1016 64 10000 2.24 270 17:50 05.01.2022
3863 Clear 21 1016 64 10000 3.13 248 16:56 05.01.2022
3864 Clouds 22 1016 60 10000 2.68 225 15:46 05.01.2022
3865 Clouds 21 1017 65 10000 1.79 225 14:28 05.01.2022
3866 Clouds 21 1017 70 10000 4.02 0 13:32 05.01.2022
3867 Clouds 25 1016 50 10000 4.63 190 11:46 05.01.2022
3868 Clouds 22 1017 66 10000 0.89 68 08:20 05.01.2022
3869 Clouds 19 1017 79 10000 1.54 50 06:36 05.01.2022
3870 Clouds 16 1016 81 10000 2.57 10 00:59 05.01.2022
3871 Clouds 17 1016 75 10000 1.03 0 23:38 04.01.2022
3872 Clouds 17 1016 74 10000 1.03 0 23:18 04.01.2022
3873 Clouds 18 1016 72 10000 0.45 270 21:32 04.01.2022
3874 Clouds 19 1015 67 10000 0.89 225 20:27 04.01.2022
3875 Clouds 21 1014 59 10000 3.13 248 18:35 04.01.2022
3876 Clouds 23 1012 56 10000 2.68 270 17:18 04.01.2022
3877 Clouds 24 1012 53 10000 3.58 270 16:31 04.01.2022
3878 Clear 25 1011 51 10000 6.69 180 14:58 04.01.2022
3879 Clear 25 1011 51 10000 6.69 180 14:36 04.01.2022
3880 Clear 26 1011 48 10000 2.57 210 13:48 04.01.2022
3881 Clear 25 1012 45 10000 4.63 290 11:44 04.01.2022
3882 Clear 23 1012 55 10000 2.57 0 10:18 04.01.2022
3883 Clear 21 1013 66 10000 1.79 203 08:36 04.01.2022
3884 Clear 18 1013 78 10000 1.79 0 06:28 04.01.2022
3885 Clear 17 1014 78 10000 2.24 0 00:42 04.01.2022
3886 Clear 18 1014 75 10000 1.79 0 23:49 03.01.2022
3887 Clear 18 1014 75 10000 1.79 0 22:21 03.01.2022
3888 Clear 18 1014 72 10000 2.24 0 21:38 03.01.2022
3889 Clear 18 1014 72 10000 1.79 0 20:40 03.01.2022
3890 Clear 20 1013 65 10000 1.34 0 18:55 03.01.2022
3891 Clear 20 1013 64 10000 1.79 0 18:30 03.01.2022
3892 Clear 21 1013 62 10000 1.79 180 17:20 03.01.2022
3893 Clear 22 1013 58 10000 3.13 225 16:53 03.01.2022
3894 Clear 23 1013 56 10000 1.79 180 14:31 03.01.2022
3895 Clear 23 1014 58 10000 3.13 225 12:52 03.01.2022
3896 Clear 23 1014 58 10000 3.13 203 11:50 03.01.2022
3897 Clear 22 1014 58 10000 2.24 225 10:52 03.01.2022
3898 Clear 22 1014 65 10000 2.24 248 09:28 03.01.2022
3899 Clear 20 1014 70 10000 2.24 225 07:54 03.01.2022
3900 Clear 17 1014 84 10000 2.68 0 03:22 03.01.2022
3901 Clear 17 1016 78 10000 1.79 0 23:32 02.01.2022
3902 Clear 18 1017 78 10000 1.79 0 22:56 02.01.2022
3903 Clear 18 1017 78 10000 1.79 0 22:20 02.01.2022
3904 Clouds 18 1017 75 10000 1.34 0 20:52 02.01.2022
3905 Clouds 18 1017 76 10000 1.34 0 20:30 02.01.2022
3906 Clouds 18 1016 75 10000 1.79 0 19:32 02.01.2022
3907 Clouds 19 1016 70 10000 1.79 0 18:56 02.01.2022
3908 Clouds 20 1016 69 10000 1.34 0 18:23 02.01.2022
3909 Clouds 20 1016 66 10000 1.34 0 17:42 02.01.2022
3910 Clouds 21 1016 65 10000 1.79 0 17:21 02.01.2022
3911 Clouds 22 1016 62 10000 2.24 180 16:28 02.01.2022
3912 Clouds 22 1016 54 10000 7.72 170 15:39 02.01.2022
3913 Clouds 23 1017 52 10000 2.24 293 13:57 02.01.2022
3914 Clouds 24 1018 51 10000 1.79 225 12:32 02.01.2022
3915 Clouds 24 1018 51 10000 1.34 180 11:55 02.01.2022
3916 Clouds 23 1019 53 10000 1.79 225 10:55 02.01.2022
3917 Clouds 23 1019 51 10000 1.34 248 10:18 02.01.2022
3918 Clouds 21 1019 62 10000 0.89 203 07:44 02.01.2022
3919 Clear 15 1019 79 10000 2.06 50 02:57 02.01.2022
3920 Clear 15 1019 74 10000 2.06 60 23:54 01.01.2022
3921 Clear 15 1019 73 10000 2.06 60 23:35 01.01.2022
3922 Clear 15 1020 73 10000 1.03 10 22:39 01.01.2022
3923 Clouds 16 1021 73 10000 2.65 221 22:18 01.01.2022
3924 Clouds 16 1021 73 10000 2.65 221 22:18 01.01.2022
3925 Clear 16 1020 70 10000 0.45 0 21:42 01.01.2022
3926 Clear 17 1020 63 10000 0.45 0 20:36 01.01.2022
3927 Clear 18 1020 56 10000 0.89 0 19:45 01.01.2022
3928 Clouds 18 1019 55 10000 0.89 0 18:53 01.01.2022
3929 Clouds 20 1018 49 10000 1.34 203 17:45 01.01.2022
3930 Clouds 22 1018 46 10000 3.13 225 16:35 01.01.2022
3931 Clouds 23 1018 49 10000 2.24 248 15:45 01.01.2022
3932 Clouds 23 1019 50 10000 3.13 225 14:40 01.01.2022
3933 Clouds 22 1018 53 10000 2.24 225 13:42 01.01.2022
3934 Clouds 22 1018 53 10000 2.24 225 13:42 01.01.2022
3935 Clouds 20 1019 66 10000 2.68 203 12:26 01.01.2022
3936 Clouds 20 1019 72 10000 1.79 248 11:30 01.01.2022
3937 Clouds 19 1019 79 10000 2.24 203 10:59 01.01.2022
3938 Drizzle 17 1019 92 4000 1.34 0 09:48 01.01.2022
3939 Drizzle 16 1018 96 5000 0.45 0 08:45 01.01.2022
3940 Drizzle 16 1018 94 5000 0.45 0 08:18 01.01.2022
3941 Drizzle 16 1017 92 4000 1.34 0 07:39 01.01.2022
3942 Drizzle 16 1017 87 4000 0.89 0 06:44 01.01.2022
3943 Rain 16 1016 81 10000 1.79 0 05:25 01.01.2022
3944 Rain 16 1015 82 10000 2.68 0 04:36 01.01.2022
3945 Clouds 16 1016 78 10000 0.89 0 00:25 01.01.2022
3946 Clouds 17 1017 73 10000 0.45 0 22:34 31.12.2021
3947 Clouds 17 1016 70 10000 0.45 0 21:49 31.12.2021
3948 Clouds 18 1015 71 10000 1.79 0 19:56 31.12.2021
3949 Clouds 18 1015 71 10000 2.24 0 19:28 31.12.2021
3950 Clouds 19 1014 68 10000 4.12 340 18:30 31.12.2021
3951 Clear 21 1013 61 10000 3.13 293 17:37 31.12.2021
3952 Clear 21 1013 61 10000 3.13 293 17:18 31.12.2021
3953 Clear 23 1013 47 10000 4.92 270 16:19 31.12.2021
3954 Clear 23 1012 42 10000 7.2 320 15:51 31.12.2021
3955 Clear 24 1012 40 10000 7.2 320 15:28 31.12.2021
3956 Clear 23 1012 47 10000 10.29 320 14:41 31.12.2021
3957 Clear 24 1012 42 10000 8.75 310 13:58 31.12.2021
3958 Clear 24 1012 44 10000 8.75 310 13:35 31.12.2021
3959 Clear 24 1012 44 10000 7.2 320 12:44 31.12.2021
3960 Clear 24 1012 44 10000 7.2 310 11:43 31.12.2021
3961 Clear 24 1012 46 10000 7.2 310 11:20 31.12.2021
3962 Clear 23 1013 46 10000 6.17 300 10:30 31.12.2021
3963 Clear 24 1014 49 10000 1.34 45 09:35 31.12.2021
3964 Clear 22 1014 54 10000 0.89 180 08:56 31.12.2021
3965 Clear 21 1014 54 10000 3.09 290 08:25 31.12.2021
3966 Clear 17 1014 73 10000 1.54 0 06:39 31.12.2021
3967 Clear 16 1016 71 10000 1.79 248 23:23 30.12.2021
3968 Clear 17 1017 69 10000 2.24 293 22:33 30.12.2021
3969 Clear 17 1017 68 10000 2.24 293 21:41 30.12.2021
3970 Clear 17 1017 67 10000 2.68 293 21:22 30.12.2021
3971 Clear 17 1017 67 10000 3.13 293 20:44 30.12.2021
3972 Clear 17 1017 67 10000 3.58 293 20:24 30.12.2021
3973 Clouds 17 1017 67 10000 2.24 270 19:43 30.12.2021
3974 Clouds 18 1017 61 10000 2.24 270 18:29 30.12.2021
3975 Clouds 19 1017 61 10000 2.24 293 17:45 30.12.2021
3976 Clouds 20 1018 64 10000 1.79 203 15:58 30.12.2021
3977 Clouds 20 1018 64 10000 1.79 135 15:39 30.12.2021
3978 Clouds 21 1018 63 10000 0.89 293 14:37 30.12.2021
3979 Clouds 22 1018 57 10000 1.79 180 13:33 30.12.2021
3980 Clouds 21 1019 58 10000 1.34 180 12:29 30.12.2021
3981 Rain 20 1019 66 10000 2.24 315 10:50 30.12.2021
3982 Clouds 20 1018 68 10000 1.34 180 09:56 30.12.2021
3983 Clouds 20 1018 68 10000 0.89 113 08:56 30.12.2021
3984 Clouds 18 1017 75 10000 1.54 0 06:52 30.12.2021
3985 Clouds 14 1016 87 10000 2.06 40 03:42 30.12.2021
3986 Clouds 15 1016 86 10000 1.03 30 02:47 30.12.2021
3987 Clouds 18 1017 78 10000 0.89 203 23:43 29.12.2021
3988 Clouds 18 1018 77 10000 0.89 180 23:22 29.12.2021
3989 Clouds 17 1018 78 10000 1.34 315 22:21 29.12.2021
3990 Clouds 18 1018 75 10000 1.79 248 21:33 29.12.2021
3991 Clouds 18 1017 72 10000 0.89 225 20:38 29.12.2021
3992 Clouds 18 1017 67 10000 1.34 270 19:48 29.12.2021
3993 Clouds 19 1016 61 10000 1.34 203 18:52 29.12.2021
3994 Clouds 20 1016 56 10000 2.24 270 17:56 29.12.2021
3995 Clouds 21 1016 53 10000 2.24 293 17:28 29.12.2021
3996 Clouds 22 1016 49 10000 1.79 315 16:41 29.12.2021
3997 Clear 23 1015 35 10000 4.94 264 15:59 29.12.2021
3998 Clouds 22 1016 44 10000 1.79 338 14:24 29.12.2021
3999 Clouds 23 1016 48 10000 1.79 315 12:42 29.12.2021
4000 Clouds 22 1016 53 10000 2.24 225 11:49 29.12.2021
4001 Clouds 20 1017 62 10000 3.58 293 09:59 29.12.2021
4002 Clear 20 1016 60 10000 2.24 270 07:52 29.12.2021
4003 Clear 20 1016 60 10000 2.24 270 07:52 29.12.2021
4004 Clouds 18 1016 72 10000 0.45 135 06:43 29.12.2021
4005 Clouds 16 1016 79 10000 1.54 20 06:23 29.12.2021
4006 Clouds 15 1015 81 10000 1.54 20 05:40 29.12.2021
4007 Clouds 15 1015 79 10000 2.06 220 03:18 29.12.2021
4008 Clear 16 1016 79 10000 0.89 248 00:24 29.12.2021
4009 Clear 16 1016 81 10000 0.45 248 23:45 28.12.2021
4010 Clear 16 1016 81 10000 0.45 0 22:42 28.12.2021
4011 Clear 16 1016 81 10000 0.89 0 22:24 28.12.2021
4012 Clouds 17 1016 78 10000 0.45 0 21:52 28.12.2021
4013 Clouds 18 1016 76 10000 0.45 0 20:40 28.12.2021
4014 Clouds 18 1015 74 10000 0.89 0 19:39 28.12.2021
4015 Clouds 19 1015 68 10000 1.34 180 18:44 28.12.2021
4016 Clouds 19 1014 65 10000 5.66 170 18:19 28.12.2021
4017 Clouds 22 1013 53 10000 6.17 160 16:35 28.12.2021
4018 Clouds 21 1013 56 10000 6.69 180 15:51 28.12.2021
4019 Clouds 22 1014 53 10000 1.79 270 15:23 28.12.2021
4020 Clouds 22 1013 53 10000 6.69 160 14:51 28.12.2021
4021 Clouds 23 1014 52 10000 2.68 225 14:21 28.12.2021
4022 Clouds 23 1014 49 10000 2.24 270 13:51 28.12.2021
4023 Clouds 23 1014 49 10000 2.24 270 13:51 28.12.2021
4024 Clouds 23 1014 50 10000 0.89 225 13:28 28.12.2021
4025 Clouds 22 1015 52 10000 1.34 225 12:49 28.12.2021
4026 Clouds 22 1015 54 10000 0.89 338 11:51 28.12.2021
4027 Rain 20 1015 75 10000 0.89 248 09:27 28.12.2021
4028 Rain 18 1015 88 10000 0.45 270 07:28 28.12.2021
4029 Rain 17 1012 95 3000 6.17 290 02:22 28.12.2021
4030 Clouds 18 1013 85 10000 2.24 248 23:26 27.12.2021
4031 Clouds 18 1013 87 10000 0.45 90 21:54 27.12.2021
4032 Clouds 18 1013 87 10000 0.45 113 21:26 27.12.2021
4033 Clouds 18 1013 86 10000 0.45 180 20:24 27.12.2021
4034 Clouds 18 1013 86 10000 0.45 180 20:24 27.12.2021
4035 Clouds 18 1011 87 10000 4.63 310 19:45 27.12.2021
4036 Clouds 20 1011 75 10000 2.24 293 18:54 27.12.2021
4037 Clouds 21 1010 70 10000 3.13 293 17:50 27.12.2021
4038 Clouds 22 1010 68 10000 2.68 270 17:18 27.12.2021
4039 Clouds 22 1010 67 10000 3.58 315 15:53 27.12.2021
4040 Clouds 21 1010 78 8000 4.12 230 14:35 27.12.2021
4041 Clouds 21 1010 78 8000 4.12 230 14:35 27.12.2021
4042 Clouds 21 1010 78 10000 4.02 338 13:59 27.12.2021
4043 Clouds 21 1011 80 10000 1.79 180 12:49 27.12.2021
4044 Clouds 22 1010 74 10000 1.34 180 10:37 27.12.2021
4045 Clouds 21 1009 73 10000 1.79 0 10:18 27.12.2021
4046 Rain 20 1010 79 10000 1.34 23 08:42 27.12.2021
4047 Rain 19 1009 80 10000 7.2 20 08:42 27.12.2021
4048 Rain 19 1009 82 10000 6.69 10 07:34 27.12.2021
4049 Clouds 17 1008 91 10000 0.45 225 02:29 27.12.2021
4050 Clouds 17 1008 89 10000 4.63 320 00:57 27.12.2021
4051 Clouds 17 1009 90 10000 5.14 320 23:43 26.12.2021
4052 Clouds 17 1009 89 10000 5.14 320 23:18 26.12.2021
4053 Clouds 17 1009 85 10000 4.63 330 21:33 26.12.2021
4054 Clear 19 1008 82 10000 7.72 300 19:54 26.12.2021
4055 Clear 22 1008 73 10000 4.12 250 18:39 26.12.2021
4056 Clear 22 1008 71 10000 1.34 180 18:19 26.12.2021
4057 Clear 25 1008 61 10000 1.79 158 15:35 26.12.2021
4058 Clear 25 1009 57 10000 3.6 250 13:43 26.12.2021
4059 Clear 25 1009 57 10000 3.6 250 13:21 26.12.2021
4060 Clear 25 1010 58 10000 4.63 300 12:35 26.12.2021
4061 Clear 24 1011 62 6474 3.1 253 11:18 26.12.2021
4062 Clear 24 1011 68 10000 1.34 225 09:31 26.12.2021
4063 Clear 24 1012 69 10000 1.79 180 08:45 26.12.2021
4064 Clear 22 1012 71 10000 1.34 180 08:26 26.12.2021
4065 Clear 20 1011 77 10000 1.34 248 01:50 26.12.2021
4066 Clear 20 1012 78 10000 2.24 225 00:39 26.12.2021
4067 Clear 21 1012 77 10000 2.24 270 23:37 25.12.2021
4068 Clear 21 1012 73 10000 2.68 293 22:38 25.12.2021
4069 Clear 21 1012 73 10000 2.24 293 22:20 25.12.2021
4070 Clear 21 1011 70 10000 1.79 248 20:26 25.12.2021
4071 Clear 23 1010 65 10000 1.79 225 19:19 25.12.2021
4072 Clear 25 1010 60 10000 2.24 248 18:37 25.12.2021
4073 Clear 27 1009 53 10000 2.24 315 16:50 25.12.2021
4074 Clear 28 1010 51 10000 2.24 203 15:38 25.12.2021
4075 Clear 28 1011 53 10000 1.79 203 14:23 25.12.2021
4076 Clear 28 1011 50 10000 1.79 225 12:40 25.12.2021
4077 Clear 27 1012 51 10000 1.34 225 10:49 25.12.2021
4078 Clear 25 1012 55 10000 1.79 203 09:49 25.12.2021
4079 Clear 21 1012 67 10000 1.34 225 07:39 25.12.2021
4080 Clear 17 1011 76 10000 1.34 0 01:45 25.12.2021
4081 Clear 17 1012 79 10000 1.34 0 00:23 25.12.2021
4082 Clear 18 1013 76 10000 1.34 0 22:26 24.12.2021
4083 Clouds 19 1013 73 10000 2.24 0 19:36 24.12.2021
4084 Clouds 19 1014 75 10000 2.68 0 19:18 24.12.2021
4085 Clear 22 1012 64 10000 3.58 0 16:50 24.12.2021
4086 Clear 23 1012 60 10000 3.13 203 15:53 24.12.2021
4087 Clear 24 1012 59 10000 2.68 203 15:34 24.12.2021
4088 Clear 25 1012 56 10000 2.68 225 14:40 24.12.2021
4089 Clear 25 1012 56 10000 1.79 203 14:19 24.12.2021
4090 Clear 25 1012 54 10000 2.68 225 13:34 24.12.2021
4091 Clear 26 1013 54 10000 2.24 203 12:47 24.12.2021
4092 Clear 25 1013 56 10000 2.24 180 11:52 24.12.2021
4093 Clear 25 1013 56 10000 1.79 180 11:25 24.12.2021
4094 Clear 25 1013 56 10000 1.34 225 10:46 24.12.2021
4095 Clear 24 1013 60 10000 1.34 225 09:32 24.12.2021
4096 Clear 22 1013 64 10000 1.79 225 08:23 24.12.2021
4097 Clear 21 1013 66 10000 2.24 225 07:47 24.12.2021
4098 Clear 17 1012 76 10000 0.89 0 02:33 24.12.2021
4099 Clear 17 1013 75 10000 0.89 0 23:56 23.12.2021
4100 Clear 18 1013 72 10000 1.34 0 22:58 23.12.2021
4101 Clear 18 1013 72 10000 0.45 0 22:37 23.12.2021
4102 Clear 18 1013 72 10000 1.34 0 22:18 23.12.2021
4103 Clear 18 1013 72 10000 1.79 203 20:56 23.12.2021
4104 Clear 18 1014 73 10000 1.79 0 20:18 23.12.2021
4105 Clear 18 1014 73 10000 1.79 0 20:18 23.12.2021
4106 Clear 19 1013 69 10000 2.24 0 18:36 23.12.2021
4107 Clear 20 1013 70 10000 2.68 225 17:57 23.12.2021
4108 Clouds 23 1012 60 10000 2.68 225 16:44 23.12.2021
4109 Clouds 23 1012 59 10000 1.79 225 16:24 23.12.2021
4110 Clouds 25 1012 58 10000 2.68 203 15:31 23.12.2021
4111 Clouds 25 1012 58 10000 2.68 203 14:52 23.12.2021
4112 Clouds 25 1013 58 10000 3.13 248 14:31 23.12.2021
4113 Clouds 26 1011 53 10000 6.69 140 12:57 23.12.2021
4114 Clouds 25 1014 58 10000 2.68 225 10:52 23.12.2021
4115 Clouds 24 1014 61 10000 2.24 248 09:47 23.12.2021
4116 Clouds 22 1014 68 10000 2.24 225 08:59 23.12.2021
4117 Clouds 22 1014 68 10000 2.24 225 08:59 23.12.2021
4118 Clouds 20 1014 76 10000 1.34 0 06:58 23.12.2021
4119 Clear 18 1012 81 10000 1.34 0 04:33 23.12.2021
4120 Clear 19 1013 79 10000 1.34 0 23:26 22.12.2021
4121 Clouds 19 1014 80 10000 1.34 0 23:26 22.12.2021
4122 Clear 19 1013 79 10000 1.34 0 22:47 22.12.2021
4123 Clouds 19 1013 80 10000 1.79 0 21:57 22.12.2021
4124 Clouds 19 1013 79 10000 2.24 0 21:29 22.12.2021
4125 Clouds 20 1013 76 10000 2.68 0 20:50 22.12.2021
4126 Clouds 20 1013 77 10000 1.79 0 20:30 22.12.2021
4127 Clouds 20 1013 76 10000 2.24 0 19:32 22.12.2021
4128 Clouds 22 1012 72 10000 2.68 0 17:55 22.12.2021
4129 Clouds 24 1010 65 10000 8.75 170 17:34 22.12.2021
4130 Clouds 25 1010 62 10000 8.23 170 15:42 22.12.2021
4131 Clouds 25 1013 67 10000 2.24 248 13:37 22.12.2021
4132 Clouds 25 1014 68 10000 2.68 225 12:41 22.12.2021
4133 Clouds 25 1014 67 10000 2.24 180 10:36 22.12.2021
4134 Clouds 24 1013 69 10000 2.24 225 09:39 22.12.2021
4135 Clear 24 1013 67 10000 0.89 158 07:31 22.12.2021
4136 Clouds 20 1012 82 10000 2.06 150 05:50 22.12.2021
4137 Clouds 19 1012 83 10000 0.45 0 05:27 22.12.2021
4138 Clear 20 1012 81 10000 1.54 290 04:52 22.12.2021
4139 Clear 20 1012 81 10000 1.54 290 04:29 22.12.2021
4140 Clear 20 1012 80 10000 0.45 0 03:33 22.12.2021
4141 Rain 22 1011 72 10000 0.45 0 00:50 22.12.2021
4142 Rain 22 1012 74 10000 0.89 180 23:32 21.12.2021
4143 Clouds 22 1011 72 10000 0.45 293 22:29 21.12.2021
4144 Clear 22 1009 73 10000 0.89 315 21:44 21.12.2021
4145 Clear 22 1009 73 10000 0.89 225 21:23 21.12.2021
4146 Clouds 22 1009 75 10000 0.89 225 20:22 21.12.2021
4147 Clear 21 1009 75 10000 1.34 270 19:43 21.12.2021
4148 Clear 23 1008 71 10000 1.34 248 18:48 21.12.2021
4149 Clear 24 1010 69 10000 2.24 225 18:22 21.12.2021
4150 Clear 25 1009 66 10000 2.24 225 17:47 21.12.2021
4151 Clear 27 1008 53 10000 5.14 210 16:35 21.12.2021
4152 Clear 29 1009 48 10000 6.69 200 15:25 21.12.2021
4153 Clear 30 1011 49 10000 2.24 180 13:51 21.12.2021
4154 Clear 31 1011 48 10000 2.68 180 13:31 21.12.2021
4155 Clear 30 1012 47 10000 4.12 170 11:57 21.12.2021
4156 Clear 30 1012 45 10000 1.54 0 10:25 21.12.2021
4157 Clear 28 1013 50 10000 2.57 300 09:33 21.12.2021
4158 Clear 26 1012 55 10000 3.09 330 08:28 21.12.2021
4159 Clear 25 1013 61 10000 0.45 203 07:32 21.12.2021
4160 Clear 24 1013 66 10000 1.54 0 06:54 21.12.2021
4161 Clear 21 1012 76 10000 4.63 250 03:20 21.12.2021
4162 Clear 21 1013 75 10000 0.45 0 00:46 21.12.2021
4163 Clear 21 1015 73 10000 0.89 293 23:34 20.12.2021
4164 Clear 21 1015 73 10000 0.89 293 22:34 20.12.2021
4165 Clear 23 1015 71 10000 1.34 293 21:48 20.12.2021
4166 Clear 24 1014 64 10000 0.89 45 21:24 20.12.2021
4167 Clear 24 1014 66 10000 1.79 225 20:48 20.12.2021
4168 Clear 25 1013 64 10000 1.79 203 19:55 20.12.2021
4169 Clear 25 1013 62 10000 2.24 270 19:32 20.12.2021
4170 Clear 25 1012 62 10000 1.34 270 18:55 20.12.2021
4171 Clear 28 1011 53 10000 1.79 225 17:56 20.12.2021
4172 Clear 28 1011 52 10000 1.34 158 17:37 20.12.2021
4173 Clear 29 1011 51 10000 1.34 180 16:43 20.12.2021
4174 Clear 30 1011 48 10000 1.79 203 15:52 20.12.2021
4175 Clear 30 1012 48 10000 1.79 225 14:56 20.12.2021
4176 Clear 32 1012 41 10000 1.34 203 13:24 20.12.2021
4177 Clear 32 1012 42 10000 7.2 170 11:27 20.12.2021
4178 Clouds 29 1013 47 10000 0.89 203 09:51 20.12.2021
4179 Clouds 28 1012 47 10000 2.57 170 09:31 20.12.2021
4180 Clear 26 1013 56 10000 3.13 225 08:42 20.12.2021
4181 Clear 24 1013 62 10000 2.24 225 07:57 20.12.2021
4182 Clear 24 1013 62 10000 2.68 225 07:31 20.12.2021
4183 Clear 20 1012 72 10000 1.34 0 05:25 20.12.2021
4184 Clear 21 1011 70 10000 1.34 0 00:19 20.12.2021
4185 Clear 22 1011 67 10000 5.14 220 22:55 19.12.2021
4186 Clear 22 1012 71 10000 0.89 225 21:58 19.12.2021
4187 Clear 22 1012 71 10000 1.79 0 21:32 19.12.2021
4188 Clear 21 1012 73 10000 0.45 225 20:35 19.12.2021
4189 Clear 21 1012 72 10000 1.34 248 19:53 19.12.2021
4190 Clear 21 1012 72 10000 0.89 270 19:32 19.12.2021
4191 Clear 23 1012 69 10000 0.89 225 18:30 19.12.2021
4192 Clear 24 1012 65 10000 1.34 203 17:53 19.12.2021
4193 Clear 25 1012 64 10000 1.34 225 17:27 19.12.2021
4194 Clear 26 1012 60 10000 2.24 180 16:27 19.12.2021
4195 Clear 26 1013 57 10000 1.34 180 15:50 19.12.2021
4196 Clear 27 1013 53 10000 1.79 180 15:23 19.12.2021
4197 Clear 27 1013 51 10000 1.79 180 14:44 19.12.2021
4198 Clear 26 1014 55 10000 2.24 180 13:26 19.12.2021
4199 Clear 26 1014 55 10000 1.79 180 12:50 19.12.2021
4200 Clear 25 1014 48 10000 1.79 180 12:28 19.12.2021
4201 Clear 25 1015 48 10000 2.24 180 11:30 19.12.2021
4202 Clear 25 1015 57 10000 1.79 180 10:30 19.12.2021
4203 Clear 25 1015 57 10000 1.79 225 09:53 19.12.2021
4204 Clear 24 1015 59 10000 0.89 248 08:45 19.12.2021
4205 Clear 13 1013 94 10000 1.03 340 05:37 19.12.2021
4206 Clear 16 1011 83 10000 2.57 310 01:39 19.12.2021
4207 Clear 16 1011 81 10000 4.63 310 00:53 19.12.2021
4208 Clear 18 1012 74 10000 0.45 0 22:50 18.12.2021
4209 Clear 19 1011 73 10000 1.03 0 22:20 18.12.2021
4210 Clear 19 1012 71 10000 5.66 210 21:41 18.12.2021
4211 Clear 20 1012 70 10000 0.89 0 21:22 18.12.2021
4212 Clouds 21 1011 68 10000 0.89 0 20:25 18.12.2021
4213 Clear 21 1011 67 10000 0.89 0 19:27 18.12.2021
4214 Clear 24 1010 60 10000 0.89 180 18:23 18.12.2021
4215 Clear 26 1010 54 10000 0.89 248 17:49 18.12.2021
4216 Clear 28 1009 43 10000 6.17 200 16:27 18.12.2021
4217 Clear 29 1010 42 10000 5.66 200 15:48 18.12.2021
4218 Clear 30 1011 40 10000 1.34 180 14:53 18.12.2021
4219 Clear 30 1012 39 10000 2.24 180 13:42 18.12.2021
4220 Clear 30 1012 35 10000 1.79 225 11:48 18.12.2021
4221 Clear 27 1012 38 10000 5.66 180 09:53 18.12.2021
4222 Clear 26 1012 38 10000 5.66 180 09:30 18.12.2021
4223 Clear 25 1013 45 10000 0.89 203 08:36 18.12.2021
4224 Clear 19 1013 62 10000 0.89 248 06:27 18.12.2021
4225 Clear 18 1016 66 10000 0.89 0 00:42 18.12.2021
4226 Clear 18 1016 68 10000 0.89 0 23:47 17.12.2021
4227 Clear 19 1016 62 10000 1.34 0 22:37 17.12.2021
4228 Clear 19 1016 61 10000 1.79 0 21:29 17.12.2021
4229 Clear 20 1016 57 10000 1.79 0 20:43 17.12.2021
4230 Clear 21 1016 54 10000 1.79 0 19:51 17.12.2021
4231 Clear 22 1016 49 10000 1.79 248 18:39 17.12.2021
4232 Clear 26 1014 36 10000 9.26 140 17:47 17.12.2021
4233 Clear 28 1014 32 10000 9.26 140 16:50 17.12.2021
4234 Clear 29 1014 31 10000 9.26 140 16:27 17.12.2021
4235 Clear 30 1015 29 10000 9.26 140 15:27 17.12.2021
4236 Clear 29 1017 31 10000 2.68 203 14:42 17.12.2021
4237 Clear 29 1018 31 10000 1.34 180 13:45 17.12.2021
4238 Clear 28 1019 31 10000 2.24 248 12:36 17.12.2021
4239 Clear 26 1020 34 10000 2.24 270 10:42 17.12.2021
4240 Clear 25 1020 32 10000 4.12 160 09:47 17.12.2021
4241 Clear 22 1021 45 10000 1.34 248 08:32 17.12.2021
4242 Clear 20 1021 55 10000 1.79 270 07:30 17.12.2021
4243 Clear 15 1021 71 10000 2.24 0 04:40 17.12.2021
4244 Clear 16 1022 69 10000 1.79 0 00:22 17.12.2021
4245 Clear 17 1022 65 10000 2.24 0 22:25 16.12.2021
4246 Clear 17 1023 66 10000 2.68 0 21:54 16.12.2021
4247 Clear 17 1022 66 10000 1.79 0 21:36 16.12.2021
4248 Clouds 17 1022 64 10000 1.79 0 20:40 16.12.2021
4249 Clouds 17 1022 64 10000 1.79 0 19:52 16.12.2021
4250 Clouds 18 1022 61 10000 1.79 0 18:45 16.12.2021
4251 Clouds 18 1022 60 10000 2.68 0 18:26 16.12.2021
4252 Clouds 19 1020 56 10000 11.83 160 17:35 16.12.2021
4253 Clouds 20 1021 55 10000 1.79 0 16:23 16.12.2021
4254 Clouds 20 1022 52 10000 2.68 203 15:26 16.12.2021
4255 Clouds 20 1023 48 10000 2.24 0 13:45 16.12.2021
4256 Clouds 20 1023 50 10000 3.13 0 11:48 16.12.2021
4257 Clouds 20 1024 55 10000 2.24 0 11:18 16.12.2021
4258 Clouds 19 1023 55 10000 3.13 0 10:39 16.12.2021
4259 Clouds 19 1023 54 10000 3.58 203 09:42 16.12.2021
4260 Rain 15 1021 71 10000 1.79 0 06:23 16.12.2021
4261 Clouds 14 1020 68 10000 1.34 0 03:54 16.12.2021
4262 Clouds 15 1020 58 10000 1.79 0 23:36 15.12.2021
4263 Clouds 15 1020 61 10000 1.79 0 22:49 15.12.2021
4264 Clouds 15 1020 64 10000 1.34 0 22:20 15.12.2021
4265 Clouds 16 1019 64 10000 1.79 0 21:31 15.12.2021
4266 Clouds 16 1019 70 10000 1.34 0 20:36 15.12.2021
4267 Rain 16 1018 73 10000 1.79 0 19:53 15.12.2021
4268 Clouds 16 1017 75 10000 1.34 0 18:41 15.12.2021
4269 Rain 16 1016 74 10000 1.34 0 18:18 15.12.2021
4270 Rain 17 1015 76 10000 1.79 0 17:43 15.12.2021
4271 Rain 18 1015 74 10000 1.34 0 16:59 15.12.2021
4272 Clouds 21 1014 57 10000 2.68 225 15:47 15.12.2021
4273 Clouds 20 1014 54 10000 4.02 225 15:29 15.12.2021
4274 Clouds 21 1014 51 10000 4.02 225 14:44 15.12.2021
4275 Rain 21 1014 54 10000 3.58 225 13:27 15.12.2021
4276 Clouds 21 1014 54 10000 3.13 225 11:40 15.12.2021
4277 Rain 19 1014 65 10000 1.79 0 09:38 15.12.2021
4278 Clouds 19 1013 67 10000 1.79 0 07:52 15.12.2021
4279 Clouds 17 1012 75 10000 0.89 0 04:22 15.12.2021
4280 Clouds 17 1013 75 10000 0.89 0 23:53 14.12.2021
4281 Clouds 17 1014 75 10000 1.34 0 22:55 14.12.2021
4282 Clouds 17 1014 75 10000 1.34 0 22:37 14.12.2021
4283 Clouds 18 1014 74 10000 1.34 0 21:38 14.12.2021
4284 Clouds 18 1014 71 10000 0.89 0 20:20 14.12.2021
4285 Clouds 18 1014 69 10000 0.89 0 19:21 14.12.2021
4286 Clouds 19 1014 63 10000 1.34 0 18:38 14.12.2021
4287 Clouds 20 1013 57 10000 1.79 0 17:51 14.12.2021
4288 Clear 21 1013 55 10000 2.24 225 16:43 14.12.2021
4289 Clear 22 1014 54 10000 1.79 180 16:18 14.12.2021
4290 Clouds 22 1015 60 10000 2.24 225 13:58 14.12.2021
4291 Clear 22 1015 63 10000 1.79 225 12:48 14.12.2021
4292 Clouds 23 1015 62 10000 1.79 180 11:25 14.12.2021
4293 Clouds 22 1015 64 10000 1.79 135 10:45 14.12.2021
4294 Clouds 21 1016 65 10000 2.24 180 09:54 14.12.2021
4295 Clouds 21 1016 68 10000 1.34 225 08:48 14.12.2021
4296 Clouds 19 1017 59 10000 1.79 0 08:21 14.12.2021
4297 Clouds 19 1016 64 10000 1.34 0 07:23 14.12.2021
4298 Clouds 18 1018 68 10000 2.24 0 23:51 13.12.2021
4299 Clouds 18 1018 75 10000 1.79 0 22:24 13.12.2021
4300 Clouds 18 1018 82 10000 1.34 0 21:39 13.12.2021
4301 Clouds 18 1018 79 10000 1.79 0 20:51 13.12.2021
4302 Clouds 18 1017 78 10000 1.79 0 20:21 13.12.2021
4303 Clouds 18 1017 77 10000 1.79 0 19:49 13.12.2021
4304 Clouds 19 1017 68 10000 1.79 0 17:27 13.12.2021
4305 Clouds 20 1014 62 10000 11.32 170 16:32 13.12.2021
4306 Clouds 20 1015 63 10000 2.24 0 15:43 13.12.2021
4307 Clouds 21 1015 60 10000 1.79 0 14:30 13.12.2021
4308 Clouds 21 1015 65 10000 1.34 203 13:36 13.12.2021
4309 Clouds 22 1014 62 10000 2.68 203 12:39 13.12.2021
4310 Clouds 22 1015 62 10000 1.34 158 11:50 13.12.2021
4311 Clouds 22 1015 61 10000 2.24 225 11:29 13.12.2021
4312 Clouds 23 1014 56 10000 2.68 180 10:36 13.12.2021
4313 Clouds 22 1014 69 10000 2.24 180 08:43 13.12.2021
4314 Clouds 22 1014 69 10000 2.24 180 08:43 13.12.2021
4315 Clouds 19 1014 84 10000 1.79 0 06:54 13.12.2021
4316 Clouds 18 1012 85 10000 1.34 0 05:19 13.12.2021
4317 Clouds 19 1013 79 10000 0.89 0 23:55 12.12.2021
4318 Clouds 18 1014 83 10000 1.34 0 21:58 12.12.2021
4319 Clouds 19 1014 82 10000 1.34 0 20:50 12.12.2021
4320 Clouds 19 1014 77 10000 1.79 248 19:35 12.12.2021
4321 Clouds 20 1014 68 10000 1.34 203 18:22 12.12.2021
4322 Clouds 22 1013 51 10000 6.17 170 16:32 12.12.2021
4323 Clouds 23 1014 62 10000 0.89 225 15:55 12.12.2021
4324 Clouds 24 1014 61 10000 1.34 158 15:28 12.12.2021
4325 Clouds 24 1014 50 10000 0.89 270 14:46 12.12.2021
4326 Clouds 23 1015 63 10000 0.45 225 14:18 12.12.2021
4327 Clouds 23 1015 52 10000 0.45 180 12:48 12.12.2021
4328 Clouds 22 1015 53 10000 0.89 203 11:59 12.12.2021
4329 Clouds 22 1015 53 10000 1.79 225 11:32 12.12.2021
4330 Clouds 22 1015 65 10000 1.34 225 10:44 12.12.2021
4331 Clouds 21 1015 66 10000 0.89 158 10:20 12.12.2021
4332 Clouds 21 1015 68 10000 4.12 320 08:46 12.12.2021
4333 Clouds 18 1015 84 10000 3.09 350 07:25 12.12.2021
4334 Clouds 16 1014 87 10000 0.45 0 05:29 12.12.2021
4335 Clouds 16 1014 82 10000 4.12 320 04:51 12.12.2021
4336 Clouds 16 1014 83 10000 0.45 0 00:57 12.12.2021
4337 Clouds 17 1014 81 10000 3.6 330 22:56 11.12.2021
4338 Clouds 17 1014 80 10000 3.6 330 22:20 11.12.2021
4339 Clouds 17 1014 76 10000 0.45 0 21:35 11.12.2021
4340 Clouds 18 1013 70 10000 0.89 0 20:19 11.12.2021
4341 Clouds 18 1013 68 10000 2.68 0 19:21 11.12.2021
4342 Clouds 19 1012 62 10000 1.34 0 18:48 11.12.2021
4343 Clouds 20 1012 70 10000 1.79 0 17:54 11.12.2021
4344 Clouds 21 1011 62 10000 2.24 203 16:37 11.12.2021
4345 Clouds 22 1011 62 10000 2.68 180 15:41 11.12.2021
4346 Clouds 22 1012 63 10000 2.68 203 14:46 11.12.2021
4347 Clouds 22 1012 61 10000 3.13 270 12:41 11.12.2021
4348 Clouds 22 1012 63 10000 1.79 113 10:58 11.12.2021
4349 Clouds 21 1012 65 10000 2.24 113 09:44 11.12.2021
4350 Clouds 16 1012 87 8000 3.09 320 03:58 11.12.2021
4351 Clouds 17 1012 81 10000 4.63 320 00:49 11.12.2021
4352 Clouds 17 1012 77 10000 0.45 0 23:44 10.12.2021
4353 Clouds 18 1012 74 10000 0.45 0 22:50 10.12.2021
4354 Clouds 18 1012 75 10000 0.89 0 21:51 10.12.2021
4355 Clouds 19 1012 74 10000 0.89 0 20:32 10.12.2021
4356 Clouds 20 1011 66 10000 2.68 0 19:19 10.12.2021
4357 Clouds 22 1009 55 10000 1.34 203 17:54 10.12.2021
4358 Clouds 22 1008 53 10000 6.69 330 16:41 10.12.2021
4359 Clear 23 1008 50 10000 5.14 350 15:47 10.12.2021
4360 Clear 23 1008 50 10000 5.14 350 15:28 10.12.2021
4361 Clear 22 1009 64 10000 6.69 310 14:56 10.12.2021
4362 Clouds 24 1009 45 10000 7.72 310 13:50 10.12.2021
4363 Clouds 23 1009 49 10000 7.72 310 13:18 10.12.2021
4364 Clouds 25 1010 35 10000 7.72 310 11:43 10.12.2021
4365 Clouds 21 1010 68 10000 7.72 310 11:19 10.12.2021
4366 Clear 25 1010 33 10000 4.12 310 09:53 10.12.2021
4367 Clear 23 1011 71 10000 0.89 113 08:23 10.12.2021
4368 Clear 18 1011 84 10000 2.57 250 05:46 10.12.2021
4369 Clouds 17 1011 84 10000 0.45 0 02:47 10.12.2021
4370 Clouds 18 1012 80 10000 1.34 0 23:43 09.12.2021
4371 Clouds 19 1014 78 10000 1.79 0 22:49 09.12.2021
4372 Clouds 18 1014 79 10000 1.79 0 22:23 09.12.2021
4373 Clouds 18 1014 79 10000 1.79 0 22:23 09.12.2021
4374 Clouds 18 1014 78 10000 1.79 0 21:48 09.12.2021
4375 Clouds 18 1015 79 10000 1.79 0 20:40 09.12.2021
4376 Clouds 18 1014 77 10000 2.68 0 19:46 09.12.2021
4377 Clouds 18 1015 78 10000 2.68 0 19:21 09.12.2021
4378 Clouds 18 1015 74 10000 2.68 0 18:25 09.12.2021
4379 Clouds 19 1015 68 10000 2.68 0 17:51 09.12.2021
4380 Clouds 19 1015 68 10000 2.24 0 17:25 09.12.2021
4381 Clouds 19 1015 68 10000 2.24 0 17:25 09.12.2021
4382 Clouds 21 1014 63 10000 1.34 180 16:53 09.12.2021
4383 Clouds 22 1014 62 10000 2.24 225 15:31 09.12.2021
4384 Clouds 21 1015 67 10000 2.24 203 14:44 09.12.2021
4385 Clear 24 1015 59 10000 2.24 203 13:18 09.12.2021
4386 Clouds 24 1015 58 10000 2.68 203 12:34 09.12.2021
4387 Clear 25 1015 55 10000 2.24 158 10:50 09.12.2021
4388 Clear 22 1014 72 10000 1.79 203 08:49 09.12.2021
4389 Clouds 19 1014 81 10000 1.79 0 06:19 09.12.2021
4390 Clear 17 1013 85 10000 1.34 0 02:49 09.12.2021
4391 Clear 18 1013 77 10000 1.34 0 23:42 08.12.2021
4392 Clear 18 1013 76 10000 1.79 0 23:20 08.12.2021
4393 Clear 18 1013 73 10000 0.89 0 22:45 08.12.2021
4394 Clear 19 1013 69 10000 0.45 0 21:40 08.12.2021
4395 Clear 19 1013 66 10000 0.89 0 20:59 08.12.2021
4396 Clear 20 1014 68 10000 1.34 0 19:58 08.12.2021
4397 Clear 20 1015 68 10000 0.45 0 19:33 08.12.2021
4398 Clear 20 1015 64 10000 1.79 225 18:31 08.12.2021
4399 Clear 23 1014 55 10000 1.79 225 17:26 08.12.2021
4400 Clear 24 1015 52 10000 3.13 225 15:47 08.12.2021
4401 Clear 25 1015 52 10000 3.13 203 15:26 08.12.2021
4402 Clear 25 1016 51 10000 3.58 225 14:28 08.12.2021
4403 Clear 24 1018 59 10000 1.79 225 10:54 08.12.2021
4404 Clear 24 1018 58 10000 2.24 225 10:28 08.12.2021
4405 Clear 23 1018 60 10000 1.34 270 08:54 08.12.2021
4406 Clear 21 1018 64 10000 1.79 293 07:25 08.12.2021
4407 Clouds 18 1018 74 10000 0.45 0 02:30 08.12.2021
4408 Clouds 17 1021 80 10000 1.79 0 23:33 07.12.2021
4409 Clouds 17 1022 80 10000 2.68 0 21:40 07.12.2021
4410 Clouds 17 1022 80 10000 1.79 0 21:18 07.12.2021
4411 Clouds 18 1020 75 10000 2.24 0 20:20 07.12.2021
4412 Clouds 19 1020 71 10000 2.68 0 18:43 07.12.2021
4413 Clouds 20 1019 64 10000 3.13 0 17:48 07.12.2021
4414 Clouds 20 1019 63 10000 1.79 0 17:19 07.12.2021
4415 Clouds 22 1017 54 10000 9.77 170 16:28 07.12.2021
4416 Clouds 22 1018 53 10000 11.83 180 15:23 07.12.2021
4417 Clouds 23 1018 49 10000 11.32 180 14:18 07.12.2021
4418 Clouds 22 1021 60 10000 2.24 203 12:49 07.12.2021
4419 Clouds 23 1021 57 10000 2.68 225 11:27 07.12.2021
4420 Clouds 23 1021 62 10000 2.68 203 10:33 07.12.2021
4421 Clouds 21 1021 71 10000 1.79 248 08:26 07.12.2021
4422 Clouds 18 1020 79 10000 2.24 293 06:19 07.12.2021
4423 Clouds 17 1019 80 10000 1.34 0 05:37 07.12.2021
4424 Clear 16 1020 72 10000 0.45 248 23:47 06.12.2021
4425 Clear 16 1021 70 10000 1.34 293 22:57 06.12.2021
4426 Clear 16 1020 66 10000 3.6 200 22:35 06.12.2021
4427 Clear 16 1021 68 10000 0.89 0 21:51 06.12.2021
4428 Clear 16 1020 64 10000 1.34 248 20:34 06.12.2021
4429 Clear 17 1019 56 10000 5.66 180 19:56 06.12.2021
4430 Clear 18 1020 59 10000 0.89 0 19:21 06.12.2021
4431 Clear 19 1019 55 10000 1.34 0 18:28 06.12.2021
4432 Clouds 20 1018 51 10000 1.34 225 17:40 06.12.2021
4433 Clear 21 1017 56 10000 4.63 170 16:48 06.12.2021
4434 Clouds 21 1017 57 10000 5.66 180 15:39 06.12.2021
4435 Clouds 21 1019 62 10000 1.79 270 13:46 06.12.2021
4436 Clouds 20 1019 63 10000 2.24 293 12:39 06.12.2021
4437 Clouds 20 1019 61 10000 1.79 225 11:38 06.12.2021
4438 Clouds 17 1018 79 10000 1.34 0 08:51 06.12.2021
4439 Clouds 16 1018 89 10000 0.89 0 06:42 06.12.2021
4440 Rain 16 1017 90 10000 1.34 0 23:44 05.12.2021
4441 Drizzle 16 1017 90 7000 1.34 0 21:52 05.12.2021
4442 Drizzle 17 1017 90 7000 0.89 0 21:19 05.12.2021
4443 Drizzle 17 1017 90 8000 1.79 0 20:19 05.12.2021
4444 Rain 17 1015 89 10000 2.24 0 19:36 05.12.2021
4445 Rain 17 1015 89 10000 2.68 0 19:18 05.12.2021
4446 Rain 17 1015 88 10000 2.24 0 18:20 05.12.2021
4447 Rain 17 1015 87 10000 2.24 0 17:49 05.12.2021
4448 Clouds 18 1014 85 10000 1.79 0 16:50 05.12.2021
4449 Clouds 18 1014 84 10000 2.24 0 16:27 05.12.2021
4450 Clouds 19 1012 77 10000 10.8 180 15:58 05.12.2021
4451 Clouds 19 1014 79 10000 2.24 0 14:45 05.12.2021
4452 Clouds 19 1014 76 10000 1.34 0 14:26 05.12.2021
4453 Rain 20 1014 69 10000 1.34 0 13:27 05.12.2021
4454 Rain 19 1015 74 10000 2.24 0 12:40 05.12.2021
4455 Rain 19 1015 73 10000 1.79 0 12:18 05.12.2021
4456 Rain 19 1014 70 10000 7.72 170 11:35 05.12.2021
4457 Clouds 19 1015 73 10000 1.34 0 10:19 05.12.2021
4458 Clouds 19 1015 73 10000 1.79 0 08:45 05.12.2021
4459 Clouds 17 1012 86 10000 5.66 150 04:56 05.12.2021
4460 Rain 16 1015 91 8000 0.89 0 01:22 05.12.2021
4461 Rain 18 1015 79 10000 1.34 0 22:24 04.12.2021
4462 Rain 18 1014 75 6000 1.34 0 21:20 04.12.2021
4463 Rain 18 1014 69 10000 1.79 0 20:27 04.12.2021
4464 Rain 18 1014 73 10000 2.24 0 19:32 04.12.2021
4465 Rain 19 1012 69 10000 3.13 293 18:23 04.12.2021
4466 Rain 18 1014 73 10000 2.24 0 17:45 04.12.2021
4467 Rain 19 1012 63 10000 2.68 0 17:20 04.12.2021
4468 Rain 20 1011 60 10000 3.13 225 16:42 04.12.2021
4469 Rain 20 1011 59 10000 2.68 225 16:24 04.12.2021
4470 Clear 22 1012 48 10000 2.68 270 12:44 04.12.2021
4471 Clear 21 1013 48 10000 2.24 225 11:34 04.12.2021
4472 Clear 21 1013 61 10000 2.68 248 10:57 04.12.2021
4473 Clear 21 1012 54 10000 1.79 203 09:40 04.12.2021
4474 Clear 19 1011 56 10000 9.77 160 08:28 04.12.2021
4475 Clouds 16 1011 72 10000 3.13 0 04:43 04.12.2021
4476 Clouds 17 1013 67 10000 2.24 0 00:56 04.12.2021
4477 Clouds 16 1014 66 10000 2.68 0 23:43 03.12.2021
4478 Clouds 16 1014 65 10000 3.13 0 22:53 03.12.2021
4479 Clouds 17 1015 63 10000 2.24 0 21:54 03.12.2021
4480 Clouds 17 1015 62 10000 2.24 0 21:22 03.12.2021
4481 Clouds 17 1016 62 10000 2.68 0 20:42 03.12.2021
4482 Clouds 17 1015 60 10000 2.24 0 19:28 03.12.2021
4483 Clouds 18 1015 59 10000 2.24 0 18:23 03.12.2021
4484 Clear 18 1015 58 10000 1.79 0 17:31 03.12.2021
4485 Clouds 22 1016 53 10000 2.24 180 13:38 03.12.2021
4486 Clouds 23 1016 53 10000 2.24 180 12:30 03.12.2021
4487 Clear 23 1016 50 10000 3.13 225 11:23 03.12.2021
4488 Clear 22 1016 56 10000 1.79 180 09:22 03.12.2021
4489 Clear 21 1016 57 10000 1.34 203 08:18 03.12.2021
4490 Clouds 17 1016 60 10000 1.34 0 06:44 03.12.2021
4491 Clouds 16 1019 67 10000 1.34 0 00:50 03.12.2021
4492 Clouds 16 1019 66 10000 0.89 0 00:21 03.12.2021
4493 Clouds 16 1020 64 10000 1.34 0 23:38 02.12.2021
4494 Clouds 16 1021 61 10000 1.34 0 21:41 02.12.2021
4495 Clouds 16 1021 61 10000 1.34 0 20:48 02.12.2021
4496 Clouds 17 1021 62 10000 0.89 0 20:29 02.12.2021
4497 Clouds 17 1019 54 10000 9.26 160 19:23 02.12.2021
4498 Clouds 19 1018 42 10000 8.75 170 17:30 02.12.2021
4499 Clouds 19 1020 45 10000 10.8 170 15:42 02.12.2021
4500 Clouds 19 1020 54 10000 8.75 160 14:57 02.12.2021
4501 Clouds 19 1021 56 10000 9.26 170 13:54 02.12.2021
4502 Clouds 19 1021 53 10000 8.75 160 12:52 02.12.2021
4503 Clouds 18 1021 67 10000 7.72 160 11:55 02.12.2021
4504 Clouds 17 1020 70 10000 8.75 180 09:29 02.12.2021
4505 Rain 16 1020 78 10000 9.26 190 08:27 02.12.2021
4506 Clouds 14 1016 69 10000 2.57 190 03:39 02.12.2021
4507 Clouds 16 1018 65 10000 5.14 190 00:51 02.12.2021
4508 Clouds 17 1018 62 10000 7.2 190 22:52 01.12.2021
4509 Clouds 17 1018 63 10000 7.2 190 22:23 01.12.2021
4510 Clouds 17 1017 64 10000 8.75 180 20:36 01.12.2021
4511 Clouds 17 1017 71 10000 9.77 180 19:53 01.12.2021
4512 Clouds 17 1017 62 10000 9.77 180 19:25 01.12.2021
4513 Clouds 19 1016 57 10000 11.32 170 17:45 01.12.2021
4514 Clouds 19 1015 58 10000 12.35 180 16:42 01.12.2021
4515 Clouds 22 1014 50 10000 10.8 180 14:52 01.12.2021
4516 Clouds 23 1014 52 10000 9.26 180 13:44 01.12.2021
4517 Clouds 23 1013 53 10000 7.2 220 12:37 01.12.2021
4518 Clouds 23 1014 48 10000 2.57 330 10:42 01.12.2021
4519 Clear 22 1015 57 10000 2.45 201 09:19 01.12.2021
4520 Clouds 20 1014 60 10000 4.12 310 08:26 01.12.2021
4521 Clear 19 1014 70 10000 3.6 320 07:33 01.12.2021
4522 Clear 18 1014 75 10000 3.09 250 06:34 01.12.2021
4523 Clear 16 1012 78 10000 3.09 220 03:45 01.12.2021
4524 Clear 16 1015 79 10000 2.06 210 00:56 01.12.2021
4525 Clear 16 1016 74 10000 3.09 230 23:54 30.11.2021
4526 Clear 17 1017 73 10000 3.09 230 23:23 30.11.2021
4527 Clouds 17 1018 78 10000 3.6 180 21:39 30.11.2021
4528 Clouds 18 1018 67 10000 5.66 170 20:44 30.11.2021
4529 Clouds 18 1017 67 10000 5.66 170 19:53 30.11.2021
4530 Clouds 18 1017 66 10000 5.66 170 19:34 30.11.2021
4531 Clouds 19 1017 63 10000 5.66 160 18:37 30.11.2021
4532 Clouds 21 1015 59 10000 5.66 150 16:50 30.11.2021
4533 Clouds 22 1016 54 10000 6.69 170 15:38 30.11.2021
4534 Clouds 24 1017 49 10000 5.14 180 14:20 30.11.2021
4535 Clouds 25 1017 41 10000 4.63 190 13:27 30.11.2021
4536 Clouds 22 1017 56 10000 2.57 210 12:46 30.11.2021
4537 Clouds 23 1017 48 10000 2.06 130 11:50 30.11.2021
4538 Clouds 23 1018 49 10000 2.06 130 11:23 30.11.2021
4539 Clouds 23 1018 51 10000 1.03 0 10:33 30.11.2021
4540 Clouds 21 1018 69 10000 1.54 0 08:53 30.11.2021
4541 Clouds 20 1018 69 10000 1.54 0 08:26 30.11.2021
4542 Clouds 20 1017 74 10000 1.03 0 07:47 30.11.2021
4543 Rain 17 1015 88 6000 4.63 330 02:41 30.11.2021
4544 Rain 17 1015 83 10000 3.6 10 01:42 30.11.2021
4545 Clouds 18 1016 76 10000 3.6 20 00:33 30.11.2021
4546 Clouds 17 1016 82 10000 4.63 20 23:25 29.11.2021
4547 Clouds 17 1016 75 10000 3.09 10 22:57 29.11.2021
4548 Clouds 17 1016 75 10000 3.09 10 22:34 29.11.2021
4549 Clouds 17 1017 72 10000 3.09 360 21:39 29.11.2021
4550 Clouds 17 1017 71 10000 2.26 322 21:18 29.11.2021
4551 Clouds 17 1016 86 10000 4.63 330 20:40 29.11.2021
4552 Clouds 17 1016 83 10000 4.12 310 19:56 29.11.2021
4553 Clouds 17 1016 83 10000 4.12 310 19:36 29.11.2021
4554 Clouds 17 1016 83 10000 4.12 310 19:36 29.11.2021
4555 Clouds 19 1015 62 10000 6.69 310 18:52 29.11.2021
4556 Clear 19 1014 70 10000 2.92 293 18:26 29.11.2021
4557 Clear 19 1014 70 10000 3.61 285 17:20 29.11.2021
4558 Clouds 19 1013 71 10000 4.21 283 16:32 29.11.2021
4559 Clouds 20 1013 70 10000 4.17 284 15:52 29.11.2021
4560 Clouds 20 1013 69 10000 4.8 288 14:43 29.11.2021
4561 Clouds 21 1014 61 10000 4.68 296 13:36 29.11.2021
4562 Clouds 20 1014 62 10000 5.03 296 12:42 29.11.2021
4563 Clouds 20 1014 61 10000 4.74 303 11:41 29.11.2021
4564 Clouds 20 1014 62 10000 4.29 311 10:59 29.11.2021
4565 Clouds 21 1015 60 10000 5.14 310 09:50 29.11.2021
4566 Mist 16 1014 100 2500 3.6 320 06:22 29.11.2021
4567 Mist 16 1014 100 3000 2.57 310 03:46 29.11.2021
4568 Fog 16 1015 100 4000 1.54 340 00:44 29.11.2021
4569 Clouds 16 1015 94 10000 2.06 340 23:44 28.11.2021
4570 Clouds 16 1015 94 10000 2.06 340 23:25 28.11.2021
4571 Clouds 17 1015 94 10000 2.06 330 21:53 28.11.2021
4572 Clouds 17 1015 94 10000 2.06 330 21:26 28.11.2021
4573 Clouds 18 1015 88 10000 2.06 330 20:35 28.11.2021
4574 Clouds 20 1014 73 10000 2.06 260 19:28 28.11.2021
4575 Clouds 21 1013 68 10000 3.6 250 18:35 28.11.2021
4576 Clouds 22 1013 60 10000 5.14 250 17:56 28.11.2021
4577 Clouds 22 1013 60 10000 5.14 250 17:32 28.11.2021
4578 Clouds 22 1013 60 10000 5.14 230 16:44 28.11.2021
4579 Clouds 22 1013 60 10000 5.14 230 16:22 28.11.2021
4580 Clouds 22 1013 68 10000 4.63 0 15:33 28.11.2021
4581 Clouds 22 1012 68 10000 4.63 290 14:49 28.11.2021
4582 Clouds 21 1012 78 10000 6.17 310 13:49 28.11.2021
4583 Clouds 22 1012 78 10000 3.09 310 12:52 28.11.2021
4584 Rain 20 1012 88 10000 3.6 270 11:19 28.11.2021
4585 Rain 19 1012 94 10000 2.57 300 10:22 28.11.2021
4586 Rain 17 1012 100 4500 2.57 320 09:40 28.11.2021
4587 Rain 17 1011 100 10000 5.66 320 08:19 28.11.2021
4588 Rain 17 1009 94 10000 9.26 320 00:39 28.11.2021
4589 Rain 17 1009 94 10000 8.75 320 21:40 27.11.2021
4590 Rain 18 1009 88 10000 6.69 330 19:49 27.11.2021
4591 Clouds 19 1008 82 10000 9.26 320 18:20 27.11.2021
4592 Clouds 20 1008 68 10000 11.83 320 15:59 27.11.2021
4593 Clouds 21 1008 68 10000 11.83 320 14:30 27.11.2021
4594 Clouds 21 1008 64 10000 10.29 320 12:58 27.11.2021
4595 Rain 22 1008 60 10000 7.72 320 10:52 27.11.2021
4596 Rain 20 1009 68 10000 6.17 320 09:54 27.11.2021
4597 Clouds 19 1009 68 10000 6.69 350 08:45 27.11.2021
4598 Clouds 16 1009 88 10000 7.72 340 06:35 27.11.2021
4599 Clouds 17 1009 82 10000 8.23 350 02:25 27.11.2021
4600 Clouds 17 1010 88 10000 7.72 340 00:19 27.11.2021
4601 Clouds 17 1011 94 10000 4.12 40 22:41 26.11.2021
4602 Clouds 17 1011 94 10000 4.12 40 22:19 26.11.2021
4603 Thunderstorm 17 1011 94 8000 2.06 360 21:22 26.11.2021
4604 Thunderstorm 17 1010 94 4500 4.63 20 20:40 26.11.2021
4605 Thunderstorm 17 1010 88 2000 6.17 330 19:55 26.11.2021
4606 Rain 17 1009 82 10000 5.14 340 18:45 26.11.2021
4607 Rain 17 1008 77 10000 7.2 320 17:27 26.11.2021
4608 Rain 18 1007 72 10000 8.23 320 16:50 26.11.2021
4609 Rain 21 1007 68 10000 5.66 300 15:21 26.11.2021
4610 Thunderstorm 25 1009 45 10000 4.63 230 13:35 26.11.2021
4611 Clear 27 1009 34 10000 7.2 200 10:45 26.11.2021
4612 Clear 26 1010 36 10000 3.6 210 09:53 26.11.2021
4613 Clear 23 1011 46 10000 5.14 170 08:53 26.11.2021
4614 Clear 23 1011 55 10000 5.14 170 08:20 26.11.2021
4615 Clear 20 1011 46 10000 5.66 240 06:37 26.11.2021
4616 Clear 21 1011 49 10000 5.66 240 06:37 26.11.2021
4617 Clear 20 1011 53 10000 5.66 240 06:19 26.11.2021
4618 Clear 18 1011 60 10000 2.57 210 03:44 26.11.2021
4619 Clear 18 1012 59 10000 6.17 130 00:47 26.11.2021
4620 Clear 19 1014 56 10000 8.75 130 22:38 25.11.2021
4621 Clear 20 1014 53 10000 6.92 129 21:19 25.11.2021
4622 Clear 21 1014 49 10000 7.72 140 19:54 25.11.2021
4623 Clear 22 1014 48 10000 10.29 140 18:38 25.11.2021
4624 Clear 26 1013 38 10000 9.26 140 17:28 25.11.2021
4625 Clear 26 1013 35 10000 10.29 140 16:58 25.11.2021
4626 Clear 27 1013 33 10000 10.29 140 16:29 25.11.2021
4627 Clear 29 1013 26 10000 4.12 60 14:56 25.11.2021
4628 Clear 29 1014 25 10000 4.12 50 13:25 25.11.2021
4629 Clear 30 1013 22 10000 2.06 0 12:20 25.11.2021
4630 Clear 29 1013 19 10000 3.6 0 11:48 25.11.2021
4631 Clear 25 1014 33 10000 2.57 0 09:25 25.11.2021
4632 Clear 16 1015 58 10000 4.63 140 04:24 25.11.2021
4633 Clear 16 1016 57 10000 3.6 140 02:48 25.11.2021
4634 Clear 18 1017 52 10000 5.66 140 22:45 24.11.2021
4635 Clear 18 1017 52 10000 5.66 140 22:23 24.11.2021
4636 Clear 18 1017 46 10000 6.17 140 21:28 24.11.2021
4637 Clear 19 1018 44 10000 7.2 140 20:46 24.11.2021
4638 Clear 19 1018 44 10000 7.2 140 20:46 24.11.2021
4639 Clear 19 1017 44 10000 7.2 140 20:18 24.11.2021
4640 Clear 21 1017 47 10000 10.8 150 18:30 24.11.2021
4641 Clear 21 1017 48 10000 10.8 170 17:24 24.11.2021
4642 Clouds 23 1017 46 10000 12.86 170 15:23 24.11.2021
4643 Clouds 23 1017 44 10000 12.86 170 14:47 24.11.2021
4644 Clouds 23 1017 44 10000 12.86 170 14:19 24.11.2021
4645 Clouds 23 1018 48 10000 10.8 180 12:28 24.11.2021
4646 Clouds 23 1019 43 10000 7.55 170 11:20 24.11.2021
4647 Clouds 23 1019 43 10000 7.55 170 10:47 24.11.2021
4648 Clouds 22 1020 45 10000 6.37 167 10:21 24.11.2021
4649 Clear 20 1019 56 10000 9.26 160 07:54 24.11.2021
4650 Clear 19 1019 62 10000 5.66 180 06:54 24.11.2021
4651 Clear 17 1018 64 10000 8.75 160 03:51 24.11.2021
4652 Clear 17 1019 56 10000 10.29 160 00:43 24.11.2021
4653 Clear 17 1021 64 10000 10.8 170 22:40 23.11.2021
4654 Clear 17 1021 67 10000 10.8 170 22:20 23.11.2021
4655 Clear 17 1021 67 10000 9.26 160 21:44 23.11.2021
4656 Clouds 18 1021 67 10000 10.29 180 19:43 23.11.2021
4657 Clouds 18 1020 64 10000 10.8 180 18:42 23.11.2021
4658 Clouds 19 1021 61 10000 9.43 161 18:21 23.11.2021
4659 Clouds 20 1019 56 10000 12.86 170 16:58 23.11.2021
4660 Clouds 21 1019 52 10000 12.86 170 16:20 23.11.2021
4661 Clouds 22 1019 49 10000 13.38 170 15:22 23.11.2021
4662 Clouds 22 1019 46 10000 12.35 170 14:26 23.11.2021
4663 Clouds 22 1021 50 10000 10.8 180 11:43 23.11.2021
4664 Clear 22 1020 46 10000 10.29 190 10:19 23.11.2021
4665 Clear 22 1021 49 10000 10.29 160 09:18 23.11.2021
4666 Clear 18 1020 65 10000 8.23 160 06:45 23.11.2021
4667 Clear 16 1020 68 10000 9.26 150 03:54 23.11.2021
4668 Clear 16 1020 66 10000 10.8 160 02:57 23.11.2021
4669 Clear 17 1020 67 10000 9.77 160 23:21 22.11.2021
4670 Clear 17 1020 61 10000 10.29 150 22:52 22.11.2021
4671 Clouds 18 1020 55 10000 8.39 153 22:25 22.11.2021
4672 Clear 18 1018 56 10000 10.29 160 21:41 22.11.2021
4673 Clear 18 1018 63 10000 9.26 160 20:52 22.11.2021
4674 Clouds 18 1018 63 10000 9.77 180 19:57 22.11.2021
4675 Clouds 18 1018 64 10000 9.77 180 19:19 22.11.2021
4676 Clouds 19 1017 63 10000 10.8 160 18:39 22.11.2021
4677 Clouds 20 1017 60 10000 11.32 170 17:43 22.11.2021
4678 Clouds 21 1016 55 10000 11.32 160 16:19 22.11.2021
4679 Clouds 23 1017 62 10000 9.81 152 14:18 22.11.2021
4680 Clouds 24 1015 44 10000 11.83 160 12:26 22.11.2021
4681 Clouds 23 1016 56 10000 11.32 160 10:43 22.11.2021
4682 Clouds 22 1016 58 10000 11.83 160 09:43 22.11.2021
4683 Clouds 21 1016 63 10000 11.83 150 08:40 22.11.2021
4684 Clouds 20 1013 70 10000 11.32 160 06:22 22.11.2021
4685 Clear 18 1013 81 10000 9.77 160 23:30 21.11.2021
4686 Clear 18 1013 81 10000 9.26 170 22:50 21.11.2021
4687 Clear 18 1014 82 10000 9.72 149 22:18 21.11.2021
4688 Clear 18 1012 79 10000 11.83 170 20:42 21.11.2021
4689 Clouds 18 1011 75 10000 10.29 160 19:59 21.11.2021
4690 Clouds 20 1010 69 10000 9.77 160 18:25 21.11.2021
4691 Clouds 21 1009 64 10000 10.29 170 17:39 21.11.2021
4692 Clouds 23 1007 55 10000 9.77 180 16:46 21.11.2021
4693 Clouds 23 1010 55 10000 10.29 190 14:46 21.11.2021
4694 Clouds 24 1011 52 10000 10.8 190 13:49 21.11.2021
4695 Clouds 25 1011 47 10000 12.35 170 12:38 21.11.2021
4696 Clouds 25 1010 44 10000 9.26 160 11:57 21.11.2021
4697 Clouds 25 1010 44 10000 9.26 160 11:35 21.11.2021
4698 Clear 25 1011 53 10000 5.22 161 10:19 21.11.2021
4699 Clouds 24 1011 56 10000 6.17 160 09:20 21.11.2021
4700 Clouds 23 1009 52 10000 5.66 140 08:30 21.11.2021
4701 Clear 22 1010 59 10000 4.63 150 07:50 21.11.2021
4702 Clear 19 1010 64 10000 3.09 140 06:20 21.11.2021
4703 Clear 17 1010 68 10000 3.6 140 05:37 21.11.2021
4704 Clear 17 1009 67 10000 1.03 0 03:21 21.11.2021
4705 Clear 17 1009 66 10000 3.09 200 02:53 21.11.2021
4706 Clear 17 1009 66 10000 2.57 170 01:23 21.11.2021
4707 Clear 17 1010 67 10000 1.54 130 00:40 21.11.2021
4708 Clouds 19 1013 61 10000 5.14 140 21:51 20.11.2021
4709 Clouds 19 1013 61 10000 5.14 140 21:30 20.11.2021
4710 Clouds 20 1013 62 10000 6.69 140 19:24 20.11.2021
4711 Clouds 21 1011 53 10000 8.75 150 18:45 20.11.2021
4712 Clouds 22 1011 53 10000 8.75 150 18:19 20.11.2021
4713 Clouds 23 1011 52 10000 9.77 150 17:21 20.11.2021
4714 Clouds 23 1014 53 10000 10.29 190 14:51 20.11.2021
4715 Clouds 23 1015 53 10000 10.29 190 14:28 20.11.2021
4716 Clouds 24 1015 51 10000 10.8 190 13:35 20.11.2021
4717 Clouds 24 1017 48 10000 7.2 190 11:25 20.11.2021
4718 Clouds 23 1016 40 10000 2.57 130 09:55 20.11.2021
4719 Clouds 21 1017 54 10000 2.06 160 08:32 20.11.2021
4720 Clear 16 1017 66 10000 5.66 160 05:30 20.11.2021
4721 Clear 16 1017 65 10000 8.75 150 04:51 20.11.2021
4722 Clear 16 1017 68 10000 9.77 160 03:54 20.11.2021
4723 Clear 17 1019 69 10000 9.26 160 00:42 20.11.2021
4724 Clear 17 1019 69 10000 9.77 170 23:45 19.11.2021
4725 Clear 17 1020 70 10000 10.29 170 22:53 19.11.2021
4726 Clear 17 1020 73 10000 9.26 180 21:24 19.11.2021
4727 Clear 17 1020 72 10000 9.77 170 20:40 19.11.2021
4728 Clear 17 1020 72 10000 9.77 170 20:22 19.11.2021
4729 Clouds 17 1020 72 10000 9.77 170 19:43 19.11.2021
4730 Clouds 18 1020 66 10000 10.8 170 18:45 19.11.2021
4731 Clear 19 1020 59 10000 12.86 170 17:44 19.11.2021
4732 Clear 20 1019 54 10000 11.83 190 16:43 19.11.2021
4733 Clear 22 1020 44 10000 11.32 180 14:51 19.11.2021
4734 Clouds 22 1021 49 10000 9.77 180 11:32 19.11.2021
4735 Clouds 21 1022 59 10000 8.75 180 10:24 19.11.2021
4736 Clouds 20 1022 57 10000 10.29 170 08:35 19.11.2021
4737 Clouds 17 1021 62 10000 7.2 180 05:36 19.11.2021
4738 Clouds 16 1020 65 10000 6.69 180 04:19 19.11.2021
4739 Clouds 16 1022 70 10000 6.69 170 23:54 18.11.2021
4740 Clouds 17 1022 69 10000 6.69 170 23:18 18.11.2021
4741 Clouds 17 1023 66 10000 6.69 180 21:18 18.11.2021
4742 Clouds 17 1022 66 10000 7.72 170 20:44 18.11.2021
4743 Clouds 17 1022 67 10000 7.72 170 20:23 18.11.2021
4744 Clear 17 1022 63 10000 10.29 180 19:42 18.11.2021
4745 Clear 18 1022 57 10000 9.77 180 18:38 18.11.2021
4746 Clear 18 1021 52 10000 9.77 190 17:52 18.11.2021
4747 Clear 19 1021 50 10000 9.77 190 17:31 18.11.2021
4748 Clear 20 1021 44 10000 9.77 180 16:42 18.11.2021
4749 Clear 21 1021 41 10000 11.32 180 15:23 18.11.2021
4750 Clear 21 1022 41 10000 10.8 170 13:21 18.11.2021
4751 Clear 21 1022 44 10000 8.75 190 11:45 18.11.2021
4752 Clear 21 1022 45 10000 8.75 190 11:26 18.11.2021
4753 Clouds 21 1022 48 10000 7.72 180 10:44 18.11.2021
4754 Clouds 20 1023 55 10000 6.69 170 08:49 18.11.2021
4755 Clouds 18 1022 47 10000 7.2 160 07:31 18.11.2021
4756 Clouds 14 1022 62 10000 3.6 130 05:47 18.11.2021
4757 Clouds 15 1020 56 10000 4.63 150 02:35 18.11.2021
4758 Clouds 15 1020 55 10000 6.69 170 01:21 18.11.2021
4759 Clouds 16 1020 64 10000 5.14 150 22:41 17.11.2021
4760 Clouds 16 1020 64 10000 5.14 150 22:20 17.11.2021
4761 Clouds 16 1020 67 10000 3.6 140 21:36 17.11.2021
4762 Rain 16 1018 67 10000 4.12 130 20:18 17.11.2021
4763 Clouds 17 1015 70 10000 12.35 160 17:44 17.11.2021
4764 Rain 17 1014 71 10000 12.35 160 16:59 17.11.2021
4765 Thunderstorm 17 1013 79 6000 9.77 160 13:59 17.11.2021
4766 Clouds 20 1012 59 10000 1.03 0 12:39 17.11.2021
4767 Clouds 18 1011 71 10000 1.03 0 11:41 17.11.2021
4768 Rain 16 1010 81 10000 5.14 330 10:28 17.11.2021
4769 Rain 16 1011 88 6000 3.6 330 09:23 17.11.2021
4770 Rain 17 1010 80 10000 4.63 310 07:42 17.11.2021
4771 Rain 15 1009 79 10000 2.06 10 03:35 17.11.2021
4772 Clear 16 1011 71 10000 2.57 260 00:47 17.11.2021
4773 Clear 18 1012 68 10000 4.12 220 22:44 16.11.2021
4774 Clouds 19 1013 67 10000 5.66 190 20:37 16.11.2021
4775 Clouds 19 1013 66 10000 5.66 190 20:18 16.11.2021
4776 Clouds 19 1012 64 10000 7.72 190 18:53 16.11.2021
4777 Clouds 19 1012 62 10000 7.72 190 18:30 16.11.2021
4778 Clouds 20 1013 60 10000 7.2 180 17:38 16.11.2021
4779 Clouds 21 1013 54 10000 8.23 170 16:35 16.11.2021
4780 Clouds 22 1013 53 10000 7.72 170 15:49 16.11.2021
4781 Clouds 23 1013 49 10000 6.69 170 14:39 16.11.2021
4782 Clouds 24 1015 48 10000 6.17 200 11:29 16.11.2021
4783 Clouds 22 1016 61 10000 4.12 160 09:46 16.11.2021
4784 Clouds 21 1017 63 10000 4.12 190 08:27 16.11.2021
4785 Clouds 20 1017 70 10000 4.12 150 07:32 16.11.2021
4786 Clouds 18 1017 86 10000 2.57 180 01:44 16.11.2021
4787 Clouds 20 1018 68 10000 3.6 200 23:20 15.11.2021
4788 Clouds 20 1018 67 10000 2.57 150 22:33 15.11.2021
4789 Clouds 20 1018 66 10000 4.12 180 21:53 15.11.2021
4790 Clouds 20 1018 66 10000 4.12 180 21:28 15.11.2021
4791 Clear 20 1017 63 10000 4.63 190 19:42 15.11.2021
4792 Clear 20 1016 56 10000 5.14 170 18:33 15.11.2021
4793 Clear 23 1015 57 10000 5.66 170 16:20 15.11.2021
4794 Clear 24 1016 55 10000 7.2 170 15:42 15.11.2021
4795 Clear 24 1016 55 10000 7.2 170 15:24 15.11.2021
4796 Clear 25 1016 57 10000 6.17 170 13:32 15.11.2021
4797 Clouds 24 1016 62 10000 5.66 150 11:21 15.11.2021
4798 Clear 23 1016 62 10000 4.12 160 09:28 15.11.2021
4799 Clouds 22 1017 63 10000 6.69 200 07:52 15.11.2021
4800 Clouds 17 1015 83 10000 0.45 0 05:23 15.11.2021
4801 Clear 18 1017 75 10000 5.66 210 23:57 14.11.2021
4802 Clear 18 1017 74 10000 6.17 210 22:37 14.11.2021
4803 Clear 19 1018 76 10000 0.89 225 19:57 14.11.2021
4804 Clear 20 1018 68 10000 0.45 225 19:18 14.11.2021
4805 Clear 20 1017 65 10000 0.89 270 18:54 14.11.2021
4806 Clear 21 1017 64 10000 1.34 225 18:36 14.11.2021
4807 Clouds 21 1018 61 10000 0.89 180 18:18 14.11.2021
4808 Clear 21 1017 61 10000 0.89 180 17:57 14.11.2021
4809 Clear 22 1018 61 10000 1.34 203 17:39 14.11.2021
4810 Clear 22 1017 60 10000 1.34 203 17:21 14.11.2021
4811 Clear 22 1015 53 10000 6.69 180 16:47 14.11.2021
4812 Clear 23 1015 50 10000 6.69 180 16:20 14.11.2021
4813 Clear 24 1015 46 10000 6.17 190 15:23 14.11.2021
4814 Clear 25 1016 42 10000 6.17 190 14:49 14.11.2021
4815 Clear 25 1016 39 10000 6.17 190 14:29 14.11.2021
4816 Clear 26 1016 35 10000 5.14 200 13:57 14.11.2021
4817 Clear 26 1016 33 10000 5.14 200 13:39 14.11.2021
4818 Clouds 27 1016 33 10000 4.03 199 12:28 14.11.2021
4819 Clouds 28 1016 34 10000 4.04 199 11:58 14.11.2021
4820 Clear 26 1018 43 10000 1.34 180 10:45 14.11.2021
4821 Clear 26 1017 39 10000 4.12 200 10:26 14.11.2021
4822 Clear 23 1019 53 10000 1.34 225 08:56 14.11.2021
4823 Clear 21 1018 62 10000 0.89 158 07:24 14.11.2021
4824 Clear 18 1019 78 10000 1.34 0 01:24 14.11.2021
4825 Clear 18 1020 77 10000 1.34 0 22:27 13.11.2021
4826 Clear 18 1020 77 10000 1.34 0 22:27 13.11.2021
4827 Clear 18 1020 73 10000 1.34 0 21:57 13.11.2021
4828 Clear 18 1020 72 10000 1.34 0 21:25 13.11.2021
4829 Clear 18 1019 70 10000 0.89 0 19:48 13.11.2021
4830 Clouds 19 1019 65 10000 1.34 0 18:48 13.11.2021
4831 Clouds 20 1019 62 10000 0.89 0 18:26 13.11.2021
4832 Clouds 22 1018 63 10000 2.24 180 16:40 13.11.2021
4833 Clouds 23 1018 62 10000 0.45 23 15:37 13.11.2021
4834 Clouds 23 1018 49 10000 2.68 203 14:33 13.11.2021
4835 Clouds 24 1018 48 10000 2.68 270 13:38 13.11.2021
4836 Clouds 24 1018 49 10000 1.34 203 12:33 13.11.2021
4837 Clouds 23 1018 58 10000 1.79 203 11:38 13.11.2021
4838 Clouds 23 1018 58 10000 1.34 248 10:45 13.11.2021
4839 Clouds 23 1018 58 10000 1.79 203 10:23 13.11.2021
4840 Clouds 22 1018 60 10000 0.45 135 09:38 13.11.2021
4841 Clouds 22 1018 64 10000 0.89 203 08:56 13.11.2021
4842 Clouds 21 1018 67 10000 0.45 90 08:31 13.11.2021
4843 Clouds 19 1017 77 10000 0.89 158 06:27 13.11.2021
4844 Clouds 17 1016 89 10000 0.89 0 04:32 13.11.2021
4845 Clouds 18 1016 79 10000 0.45 0 01:54 13.11.2021
4846 Clouds 19 1017 76 10000 0.89 0 22:59 12.11.2021
4847 Clouds 19 1018 74 10000 0.89 0 21:50 12.11.2021
4848 Clouds 19 1018 84 10000 0.89 0 20:18 12.11.2021
4849 Clouds 19 1018 81 10000 1.34 0 19:28 12.11.2021
4850 Clear 20 1017 63 10000 0.89 0 18:46 12.11.2021
4851 Clear 22 1015 60 10000 8.75 170 16:40 12.11.2021
4852 Clear 23 1015 56 10000 8.75 170 15:34 12.11.2021
4853 Clouds 24 1015 42 10000 6.69 170 13:21 12.11.2021
4854 Clouds 23 1017 60 10000 1.79 180 10:58 12.11.2021
4855 Clouds 23 1017 51 10000 1.79 203 09:45 12.11.2021
4856 Clouds 22 1017 56 10000 1.79 203 08:44 12.11.2021
4857 Clouds 18 1017 86 10000 1.79 0 05:54 12.11.2021
4858 Clear 18 1017 84 10000 2.24 0 23:43 11.11.2021
4859 Clear 18 1017 83 10000 2.68 0 22:40 11.11.2021
4860 Clouds 18 1017 80 10000 1.79 0 21:29 11.11.2021
4861 Clouds 18 1017 78 10000 1.79 0 20:48 11.11.2021
4862 Clouds 18 1016 76 10000 2.24 0 19:24 11.11.2021
4863 Clouds 19 1016 73 10000 2.24 0 18:22 11.11.2021
4864 Clouds 20 1016 70 10000 1.34 0 17:37 11.11.2021
4865 Clear 22 1017 62 10000 1.79 0 15:19 11.11.2021
4866 Clouds 23 1017 59 10000 2.68 180 14:30 11.11.2021
4867 Clear 23 1016 54 10000 8.23 200 13:41 11.11.2021
4868 Clear 24 1018 55 10000 2.24 158 12:52 11.11.2021
4869 Clear 24 1018 51 10000 1.34 158 11:30 11.11.2021
4870 Clear 23 1018 50 10000 1.34 180 09:50 11.11.2021
4871 Clear 21 1018 63 10000 1.34 225 08:21 11.11.2021
4872 Clouds 18 1020 78 10000 0.89 0 06:18 11.11.2021
4873 Clouds 17 1021 79 10000 1.34 0 00:36 11.11.2021
4874 Clouds 18 1022 73 10000 0.45 0 22:32 10.11.2021
4875 Clouds 19 1022 69 10000 0.89 0 21:33 10.11.2021
4876 Clear 19 1022 67 10000 0.89 0 20:51 10.11.2021
4877 Clear 19 1021 65 10000 1.79 0 19:48 10.11.2021
4878 Clear 18 1021 73 10000 0.89 0 19:30 10.11.2021
4879 Clear 21 1020 60 10000 2.24 203 16:50 10.11.2021
4880 Clear 23 1019 53 10000 6.17 180 15:46 10.11.2021
4881 Clear 23 1020 54 10000 2.68 225 14:23 10.11.2021
4882 Clear 24 1020 53 10000 1.34 225 13:27 10.11.2021
4883 Clear 24 1020 50 10000 1.34 225 11:39 10.11.2021
4884 Clear 21 1021 53 10000 0.45 23 09:18 10.11.2021
4885 Clear 21 1021 58 10000 0.89 158 08:40 10.11.2021
4886 Clear 17 1021 75 10000 0.45 203 06:44 10.11.2021
4887 Clear 15 1019 76 10000 1.03 0 05:57 10.11.2021
4888 Clear 15 1019 79 10000 2.57 220 01:44 10.11.2021
4889 Clear 15 1021 76 10000 0.45 0 21:59 09.11.2021
4890 Clear 16 1021 72 10000 3.09 160 20:34 09.11.2021
4891 Clear 17 1021 63 10000 1.34 0 19:28 09.11.2021
4892 Clear 18 1021 61 10000 2.24 0 18:47 09.11.2021
4893 Clear 22 1020 47 10000 0.89 248 16:40 09.11.2021
4894 Clear 22 1020 45 10000 2.24 203 15:20 09.11.2021
4895 Clouds 22 1021 47 10000 2.24 270 13:31 09.11.2021
4896 Clouds 23 1021 46 10000 1.79 203 12:28 09.11.2021
4897 Clouds 22 1022 47 10000 0.89 23 10:55 09.11.2021
4898 Clouds 21 1023 50 10000 0.45 180 09:44 09.11.2021
4899 Clouds 19 1023 55 10000 0.89 270 08:53 09.11.2021
4900 Clouds 16 1023 76 10000 0.51 0 06:59 09.11.2021
4901 Clouds 11 1022 82 10000 1.03 70 02:35 09.11.2021
4902 Clouds 13 1022 79 10000 1.03 240 01:50 09.11.2021
4903 Clouds 13 1022 78 10000 0.51 0 00:30 09.11.2021
4904 Clouds 13 1022 78 10000 0.51 0 00:30 09.11.2021
4905 Clouds 13 1022 78 10000 0.51 0 00:30 09.11.2021
4906 Clouds 13 1022 78 10000 0.51 0 00:30 09.11.2021
4907 Clouds 14 1022 74 10000 2.06 230 23:29 08.11.2021
4908 Clouds 15 1021 70 10000 2.57 230 22:37 08.11.2021
4909 Clouds 16 1021 68 10000 2.57 200 21:31 08.11.2021
4910 Clouds 15 1022 72 10000 0.45 0 20:33 08.11.2021
4911 Clouds 16 1021 67 10000 0.89 0 19:20 08.11.2021
4912 Clouds 19 1019 58 10000 1.34 0 17:39 08.11.2021
4913 Clouds 20 1018 53 10000 0.89 0 15:49 08.11.2021
4914 Clouds 20 1018 50 10000 2.24 0 14:56 08.11.2021
4915 Clouds 20 1018 48 10000 1.79 0 14:24 08.11.2021
4916 Clouds 21 1018 49 10000 1.34 203 12:59 08.11.2021
4917 Clouds 20 1018 52 10000 1.79 0 11:54 08.11.2021
4918 Clouds 20 1018 57 10000 1.79 0 10:42 08.11.2021
4919 Clouds 19 1017 52 10000 8.23 170 08:57 08.11.2021
4920 Clouds 19 1017 56 10000 5.49 184 08:18 08.11.2021
4921 Clouds 18 1017 64 10000 0.89 0 06:56 08.11.2021
4922 Clear 15 1015 73 10000 1.79 0 03:35 08.11.2021
4923 Clouds 16 1016 71 10000 0.89 0 00:20 08.11.2021
4924 Clouds 16 1016 70 10000 1.34 0 22:58 07.11.2021
4925 Clouds 16 1016 68 10000 1.79 0 21:25 07.11.2021
4926 Clouds 16 1016 68 10000 1.79 0 21:25 07.11.2021
4927 Clouds 16 1016 68 10000 1.34 0 20:25 07.11.2021
4928 Clouds 17 1016 65 10000 1.79 0 18:35 07.11.2021
4929 Clouds 18 1015 62 10000 2.24 0 17:42 07.11.2021
4930 Clouds 19 1015 57 10000 2.68 225 16:22 07.11.2021
4931 Clouds 19 1015 57 10000 1.79 203 14:54 07.11.2021
4932 Clouds 20 1016 57 10000 0.89 180 14:27 07.11.2021
4933 Clouds 19 1017 55 10000 1.34 113 12:50 07.11.2021
4934 Clouds 19 1017 51 10000 2.24 180 11:41 07.11.2021
4935 Clear 18 1017 54 10000 1.34 0 08:59 07.11.2021
4936 Clear 14 1017 75 10000 0.89 0 02:56 07.11.2021
4937 Clear 14 1017 75 10000 1.34 0 02:22 07.11.2021
4938 Clear 15 1019 70 10000 1.34 0 22:56 06.11.2021
4939 Clear 15 1020 69 10000 0.89 0 21:58 06.11.2021
4940 Clear 16 1019 68 10000 0.89 0 20:59 06.11.2021
4941 Clear 16 1020 66 10000 0.89 0 20:18 06.11.2021
4942 Clouds 18 1018 56 10000 1.34 0 17:31 06.11.2021
4943 Clouds 19 1018 51 10000 2.68 0 16:32 06.11.2021
4944 Clouds 21 1019 51 10000 1.79 180 13:41 06.11.2021
4945 Clouds 20 1018 54 10000 0.45 0 12:56 06.11.2021
4946 Clouds 20 1019 54 10000 0.89 0 11:18 06.11.2021
4947 Clouds 19 1020 59 10000 0.45 293 08:48 06.11.2021
4948 Clouds 12 1018 80 10000 2.57 230 04:50 06.11.2021
4949 Clear 12 1020 84 10000 0.45 0 00:36 06.11.2021
4950 Clear 13 1021 80 10000 2.06 190 23:29 05.11.2021
4951 Clear 14 1021 80 10000 0.45 0 22:33 05.11.2021
4952 Clouds 15 1021 74 10000 0.45 0 20:41 05.11.2021
4953 Clouds 16 1020 70 10000 0.45 0 19:51 05.11.2021
4954 Clouds 17 1020 64 10000 4.12 140 18:51 05.11.2021
4955 Clouds 17 1020 62 10000 0.45 0 18:29 05.11.2021
4956 Clouds 20 1018 50 10000 5.14 170 16:45 05.11.2021
4957 Clouds 21 1018 46 10000 5.14 170 14:33 05.11.2021
4958 Clouds 21 1018 50 10000 5.14 170 12:27 05.11.2021
4959 Clouds 20 1019 56 10000 1.79 225 09:47 05.11.2021
4960 Clouds 19 1020 59 10000 0.45 270 08:31 05.11.2021
4961 Clouds 17 1019 75 10000 0.89 0 06:40 05.11.2021
4962 Clouds 16 1017 86 10000 0.89 0 03:38 05.11.2021
4963 Clouds 15 1017 89 10000 0.45 0 02:21 05.11.2021
4964 Clouds 15 1018 89 10000 0.45 0 23:58 04.11.2021
4965 Clear 15 1019 87 10000 0.45 0 22:37 04.11.2021
4966 Clear 15 1019 87 10000 0.45 0 22:18 04.11.2021
4967 Clouds 16 1019 86 10000 0.45 0 21:28 04.11.2021
4968 Clouds 17 1019 85 10000 0.45 0 20:29 04.11.2021
4969 Clouds 17 1018 84 10000 0.45 0 19:49 04.11.2021
4970 Clouds 17 1018 84 10000 0.45 0 19:28 04.11.2021
4971 Clouds 18 1018 78 10000 0.45 0 18:29 04.11.2021
4972 Clouds 20 1018 70 10000 2.68 0 17:27 04.11.2021
4973 Clouds 21 1017 69 10000 1.79 180 16:23 04.11.2021
4974 Clouds 22 1018 56 10000 6.17 310 13:50 04.11.2021
4975 Clouds 21 1019 61 10000 1.34 338 10:48 04.11.2021
4976 Clouds 19 1019 71 10000 2.24 0 08:48 04.11.2021
4977 Clouds 19 1019 72 10000 1.34 0 08:25 04.11.2021
4978 Clouds 18 1018 74 10000 1.79 0 07:33 04.11.2021
4979 Rain 17 1019 81 10000 0.89 0 23:23 03.11.2021
4980 Clouds 16 1019 80 10000 4.12 20 22:29 03.11.2021
4981 Clouds 16 1019 80 10000 3.09 360 21:37 03.11.2021
4982 Clouds 16 1018 80 10000 3.6 350 20:45 03.11.2021
4983 Clouds 16 1018 80 10000 3.6 350 20:26 03.11.2021
4984 Clouds 17 1019 77 10000 0.89 0 19:37 03.11.2021
4985 Clouds 17 1018 76 10000 0.89 0 18:33 03.11.2021
4986 Clouds 18 1018 74 10000 1.79 0 17:56 03.11.2021
4987 Clouds 19 1017 71 10000 2.24 0 16:49 03.11.2021
4988 Clouds 19 1017 69 10000 2.68 0 15:51 03.11.2021
4989 Clouds 20 1017 69 10000 1.34 0 15:30 03.11.2021
4990 Clouds 19 1017 69 10000 3.13 0 15:30 03.11.2021
4991 Clouds 20 1018 63 10000 2.68 180 13:42 03.11.2021
4992 Clouds 21 1018 56 10000 1.34 0 11:37 03.11.2021
4993 Clouds 20 1019 58 10000 1.79 270 10:51 03.11.2021
4994 Clouds 19 1019 62 10000 1.79 158 09:48 03.11.2021
4995 Rain 17 1018 66 10000 3.13 68 08:58 03.11.2021
4996 Clouds 16 1019 72 10000 3.13 0 07:59 03.11.2021
4997 Clouds 16 1019 67 10000 2.24 0 07:35 03.11.2021
4998 Clouds 13 1017 76 10000 0.89 0 04:23 03.11.2021
4999 Clouds 14 1017 74 10000 4.12 30 01:32 03.11.2021
5000 Clouds 14 1018 71 10000 0.45 0 23:30 02.11.2021
5001 Clouds 15 1019 66 10000 0.45 0 22:20 02.11.2021
5002 Clouds 16 1019 64 10000 1.79 0 20:45 02.11.2021
5003 Clouds 16 1019 64 10000 1.34 0 20:21 02.11.2021
5004 Clouds 16 1019 61 10000 0.45 0 19:31 02.11.2021
5005 Clouds 17 1018 57 10000 0.89 0 18:36 02.11.2021
5006 Clouds 17 1018 57 10000 0.89 0 18:36 02.11.2021
5007 Clouds 17 1018 64 10000 1.34 225 17:47 02.11.2021
5008 Clouds 17 1018 63 10000 1.79 225 17:25 02.11.2021
5009 Clear 19 1017 57 10000 2.68 225 16:19 02.11.2021
5010 Clouds 20 1018 48 10000 2.24 225 14:57 02.11.2021
5011 Clouds 20 1018 45 10000 1.79 180 13:32 02.11.2021
5012 Clouds 20 1018 45 10000 0.89 45 12:59 02.11.2021
5013 Clouds 20 1018 44 10000 1.79 225 12:18 02.11.2021
5014 Clouds 20 1018 46 10000 2.24 225 11:26 02.11.2021
5015 Clouds 19 1019 45 10000 1.79 158 10:38 02.11.2021
5016 Clouds 19 1019 46 10000 0.89 158 10:18 02.11.2021
5017 Clouds 18 1019 56 10000 1.34 23 08:22 02.11.2021
5018 Clear 14 1019 77 10000 3.09 50 06:29 02.11.2021
5019 Clouds 11 1017 86 10000 3.6 40 03:27 02.11.2021
5020 Clouds 13 1018 77 10000 1.34 0 00:25 02.11.2021
5021 Rain 13 1019 80 10000 1.03 0 22:19 01.11.2021
5022 Clouds 14 1018 74 10000 0.45 0 20:46 01.11.2021
5023 Clouds 14 1018 73 10000 0.45 0 20:26 01.11.2021
5024 Clouds 14 1018 69 10000 1.54 0 19:43 01.11.2021
5025 Clouds 15 1017 69 10000 2.57 260 18:50 01.11.2021
5026 Clouds 16 1017 68 10000 0.45 0 17:56 01.11.2021
5027 Rain 16 1016 68 10000 1.79 0 16:58 01.11.2021
5028 Rain 15 1016 70 10000 2.24 0 16:32 01.11.2021
5029 Rain 17 1015 60 10000 3.13 0 15:39 01.11.2021
5030 Rain 18 1015 59 10000 3.58 0 15:19 01.11.2021
5031 Rain 17 1015 61 9000 1.79 0 14:38 01.11.2021
5032 Rain 18 1014 59 10000 3.58 0 14:19 01.11.2021
5033 Rain 18 1013 72 10000 2.24 0 12:50 01.11.2021
5034 Rain 16 1013 82 10000 2.68 0 11:39 01.11.2021
5035 Rain 15 1012 88 1700 6.26 0 10:20 01.11.2021
5036 Rain 16 1010 76 10000 2.24 0 08:20 01.11.2021
5037 Rain 17 1011 72 10000 3.13 0 07:46 01.11.2021
5038 Rain 15 1011 83 10000 0.45 0 03:55 01.11.2021
5039 Rain 17 1011 72 10000 0.89 0 01:44 01.11.2021
5040 Rain 17 1012 73 10000 1.79 0 23:52 31.10.2021
5041 Clouds 17 1013 82 10000 1.54 130 20:58 31.10.2021
5042 Clouds 18 1012 70 10000 2.57 150 19:49 31.10.2021
5043 Clouds 18 1012 66 10000 0.89 0 18:43 31.10.2021
5044 Clouds 18 1012 65 10000 0.89 0 18:20 31.10.2021
5045 Clear 21 1011 58 10000 2.68 203 16:41 31.10.2021
5046 Clear 22 1011 57 10000 1.34 135 14:45 31.10.2021
5047 Clear 23 1011 54 10000 1.79 225 12:55 31.10.2021
5048 Clear 23 1012 54 10000 1.34 180 11:44 31.10.2021
5049 Clear 24 1012 51 10000 0.89 180 10:48 31.10.2021
5050 Clear 22 1012 57 10000 1.34 45 09:26 31.10.2021
5051 Clear 22 1012 59 10000 0.89 68 08:45 31.10.2021
5052 Clear 15 1012 88 10000 0.45 0 02:52 31.10.2021
5053 Clear 16 1013 79 10000 3.09 230 00:32 31.10.2021
5054 Clear 17 1015 78 10000 0.89 0 22:20 30.10.2021
5055 Clear 17 1015 74 10000 0.45 0 21:27 30.10.2021
5056 Clear 18 1015 63 10000 1.34 0 19:42 30.10.2021
5057 Clear 21 1016 54 10000 2.24 180 17:49 30.10.2021
5058 Clear 23 1016 52 10000 2.68 180 15:42 30.10.2021
5059 Clouds 23 1016 48 10000 1.79 158 13:59 30.10.2021
5060 Clouds 23 1016 48 10000 1.79 158 13:59 30.10.2021
5061 Clouds 23 1016 48 10000 1.34 180 13:38 30.10.2021
5062 Clouds 23 1016 48 10000 2.24 203 13:20 30.10.2021
5063 Clouds 22 1018 52 10000 2.24 180 11:49 30.10.2021
5064 Clouds 22 1018 54 10000 0.89 180 10:56 30.10.2021
5065 Clouds 19 1018 65 10000 1.79 225 08:57 30.10.2021
5066 Clouds 18 1018 72 10000 1.34 0 07:57 30.10.2021
5067 Clouds 16 1018 78 10000 1.34 0 05:47 30.10.2021
5068 Clouds 16 1017 85 10000 0.89 0 02:59 30.10.2021
5069 Clouds 17 1019 82 10000 0.45 0 23:21 29.10.2021
5070 Clouds 17 1018 82 10000 3.09 150 22:35 29.10.2021
5071 Clouds 17 1018 77 10000 0.89 0 21:18 29.10.2021
5072 Clouds 18 1018 77 10000 0.45 0 20:32 29.10.2021
5073 Clouds 19 1017 69 10000 0.45 0 19:26 29.10.2021
5074 Rain 20 1016 69 10000 1.34 225 17:43 29.10.2021
5075 Clouds 21 1015 69 10000 1.79 113 15:42 29.10.2021
5076 Clouds 22 1014 65 10000 0.89 338 13:19 29.10.2021
5077 Clouds 20 1014 60 10000 7.2 340 10:49 29.10.2021
5078 Clouds 19 1014 73 10000 7.2 340 10:30 29.10.2021
5079 Clouds 16 1012 70 10000 2.24 0 02:46 29.10.2021
5080 Clouds 16 1013 69 10000 0.89 0 00:32 29.10.2021
5081 Clouds 16 1012 86 10000 5.14 350 22:32 28.10.2021
5082 Clear 17 1012 83 10000 0.45 0 20:59 28.10.2021
5083 Clear 18 1011 70 10000 6.17 320 19:57 28.10.2021
5084 Clear 19 1011 73 10000 0.45 180 18:47 28.10.2021
5085 Clear 19 1010 74 10000 8.23 320 17:42 28.10.2021
5086 Clear 20 1010 67 10000 7.72 320 16:38 28.10.2021
5087 Clear 22 1011 59 10000 6.17 320 14:42 28.10.2021
5088 Clear 21 1012 62 10000 7.2 320 13:33 28.10.2021
5089 Clouds 22 1013 44 10000 7.2 310 12:50 28.10.2021
5090 Clouds 24 1013 38 10000 1.79 203 11:50 28.10.2021
5091 Clouds 22 1014 49 10000 0.89 158 10:38 28.10.2021
5092 Clouds 21 1014 52 10000 1.34 180 09:37 28.10.2021
5093 Clouds 20 1014 62 10000 0.89 158 08:36 28.10.2021
5094 Rain 17 1014 81 10000 0.45 180 07:41 28.10.2021
5095 Rain 17 1013 86 10000 0.45 270 02:33 28.10.2021
5096 Clear 18 1015 75 10000 0.45 225 22:57 27.10.2021
5097 Clear 18 1015 73 10000 4.12 320 22:26 27.10.2021
5098 Clear 19 1015 69 10000 0.89 293 21:32 27.10.2021
5099 Clear 20 1014 66 10000 2.24 45 20:46 27.10.2021
5100 Clouds 19 1013 74 10000 2.06 360 19:48 27.10.2021
5101 Rain 20 1013 68 10000 0.45 225 18:56 27.10.2021
5102 Rain 20 1013 68 10000 5.14 340 18:36 27.10.2021
5103 Rain 24 1011 32 10000 9.77 320 16:25 27.10.2021
5104 Rain 24 1010 53 10000 6.17 310 15:28 27.10.2021
5105 Rain 26 1010 36 10000 6.17 320 14:28 27.10.2021
5106 Clouds 26 1012 47 10000 1.1 111 11:19 27.10.2021
5107 Clear 26 1012 47 10000 2.57 190 10:56 27.10.2021
5108 Clear 22 1012 64 10000 2.57 200 09:28 27.10.2021
5109 Clear 21 1013 65 10000 0.45 225 07:47 27.10.2021
5110 Clear 18 1013 72 10000 0.89 0 06:34 27.10.2021
5111 Clear 19 1015 62 10000 1.34 0 01:27 27.10.2021
5112 Clear 19 1016 59 10000 1.34 0 00:55 27.10.2021
5113 Clear 19 1016 64 10000 2.24 0 23:56 26.10.2021
5114 Clear 19 1017 63 10000 2.68 0 22:55 26.10.2021
5115 Clear 20 1017 62 10000 1.79 0 22:27 26.10.2021
5116 Clear 20 1017 61 10000 1.79 0 21:51 26.10.2021
5117 Clear 21 1016 57 10000 2.24 203 20:26 26.10.2021
5118 Clear 22 1016 53 10000 0.89 248 19:25 26.10.2021
5119 Clear 23 1017 50 10000 0.45 203 18:32 26.10.2021
5120 Clear 25 1016 46 10000 2.24 203 15:54 26.10.2021
5121 Clouds 27 1017 41 10000 1.79 158 14:18 26.10.2021
5122 Clear 25 1016 43 10000 7.72 150 11:31 26.10.2021
5123 Clear 21 1016 57 10000 3.09 150 09:29 26.10.2021
5124 Clear 17 1017 63 10000 1.34 0 07:24 26.10.2021
5125 Clear 17 1019 63 10000 0.89 0 00:50 26.10.2021
5126 Clear 17 1020 65 10000 1.34 0 23:48 25.10.2021
5127 Clear 17 1020 64 10000 0.45 0 22:37 25.10.2021
5128 Clear 17 1020 64 10000 2.24 0 21:49 25.10.2021
5129 Clear 17 1020 64 10000 1.34 0 21:25 25.10.2021
5130 Clear 18 1019 62 10000 1.79 0 19:45 25.10.2021
5131 Clear 18 1019 63 10000 1.34 0 19:24 25.10.2021
5132 Clear 19 1019 61 10000 1.79 0 18:50 25.10.2021
5133 Clear 20 1019 58 10000 2.24 203 17:42 25.10.2021
5134 Clear 22 1019 52 10000 1.79 293 15:38 25.10.2021
5135 Clear 24 1020 42 10000 2.24 180 13:54 25.10.2021
5136 Clear 24 1021 42 10000 1.79 203 11:58 25.10.2021
5137 Clear 20 1021 51 10000 1.34 225 09:58 25.10.2021
5138 Clear 16 1022 61 10000 2.24 0 07:40 25.10.2021
5139 Clear 14 1022 70 10000 1.79 0 05:55 25.10.2021
5140 Clear 14 1023 69 10000 0.89 0 00:53 25.10.2021
5141 Clear 14 1023 69 10000 1.34 0 00:35 25.10.2021
5142 Clear 15 1024 68 10000 1.79 0 23:45 24.10.2021
5143 Clear 15 1024 70 10000 1.79 0 22:40 24.10.2021
5144 Clear 15 1024 70 10000 2.24 0 22:20 24.10.2021
5145 Clouds 15 1024 71 10000 2.24 0 21:37 24.10.2021
5146 Clouds 15 1024 71 10000 2.24 0 21:37 24.10.2021
5147 Clouds 16 1024 67 10000 3.13 0 20:42 24.10.2021
5148 Clear 16 1024 63 10000 1.79 0 19:49 24.10.2021
5149 Clear 17 1024 57 10000 1.79 0 18:47 24.10.2021
5150 Clear 18 1023 48 10000 2.24 270 17:48 24.10.2021
5151 Clear 20 1024 43 10000 2.24 203 16:32 24.10.2021
5152 Clear 20 1023 32 10000 10.29 170 15:24 24.10.2021
5153 Clear 21 1026 36 10000 1.79 158 13:43 24.10.2021
5154 Clear 21 1027 37 10000 2.68 203 12:29 24.10.2021
5155 Clouds 20 1027 43 10000 2.24 203 11:36 24.10.2021
5156 Clouds 19 1027 45 10000 1.79 203 10:43 24.10.2021
5157 Clear 17 1027 58 10000 0.89 180 08:50 24.10.2021
5158 Clouds 12 1025 73 10000 3.09 190 03:30 24.10.2021
5159 Clouds 13 1025 74 10000 2.57 170 23:56 23.10.2021
5160 Clouds 14 1025 73 10000 0.45 0 22:55 23.10.2021
5161 Clouds 15 1025 71 10000 0.45 0 21:20 23.10.2021
5162 Rain 16 1023 66 10000 0.45 0 19:37 23.10.2021
5163 Clouds 17 1022 58 10000 1.79 0 18:45 23.10.2021
5164 Clouds 18 1021 51 10000 3.13 0 17:46 23.10.2021
5165 Clouds 19 1021 50 10000 3.13 0 17:18 23.10.2021
5166 Rain 20 1018 40 10000 6.69 250 15:57 23.10.2021
5167 Clouds 20 1018 45 10000 3.13 0 13:47 23.10.2021
5168 Rain 14 1007 85 10000 3.13 0 02:20 23.10.2021
5169 Rain 14 1007 88 4000 3.13 0 23:41 22.10.2021
5170 Rain 15 1007 82 10000 5.36 0 21:37 22.10.2021
5171 Rain 16 1007 80 10000 1.79 0 19:43 22.10.2021
5172 Rain 16 1007 79 10000 1.34 0 18:27 22.10.2021
5173 Rain 16 1008 72 10000 3.13 0 16:44 22.10.2021
5174 Rain 18 1008 61 10000 4.47 0 14:58 22.10.2021
5175 Clouds 19 1007 59 10000 1.79 0 12:45 22.10.2021
5176 Clouds 18 1008 61 10000 3.13 0 10:57 22.10.2021
5177 Clouds 18 1008 58 10000 10.8 350 10:36 22.10.2021
5178 Clouds 17 1008 74 10000 2.68 0 09:35 22.10.2021
5179 Clouds 16 1008 72 10000 2.24 0 07:46 22.10.2021
5180 Clouds 16 1008 72 10000 1.79 0 07:21 22.10.2021
5181 Clouds 16 1010 70 10000 1.79 0 02:37 22.10.2021
5182 Clouds 16 1009 65 10000 6.71 0 23:51 21.10.2021
5183 Clouds 16 1008 61 10000 7.2 350 22:44 21.10.2021
5184 Clouds 17 1008 61 10000 3.13 0 21:38 21.10.2021
5185 Clouds 17 1008 61 10000 2.68 0 20:24 21.10.2021
5186 Clouds 18 1009 61 10000 4.02 0 19:56 21.10.2021
5187 Clouds 18 1010 61 10000 3.58 0 19:25 21.10.2021
5188 Clouds 18 1010 72 10000 3.13 0 18:34 21.10.2021
5189 Clear 18 1010 69 10000 5.36 0 17:53 21.10.2021
5190 Clear 19 1009 69 10000 10.29 320 16:50 21.10.2021
5191 Clear 20 1010 64 10000 8.75 320 15:33 21.10.2021
5192 Clear 20 1010 65 10000 7.72 310 14:56 21.10.2021
5193 Clear 20 1010 63 10000 7.72 310 14:37 21.10.2021
5194 Clear 20 1010 63 10000 7.72 310 14:37 21.10.2021
5195 Clear 23 1012 41 10000 4.47 315 11:59 21.10.2021
5196 Clear 19 1012 51 10000 7.72 360 09:42 21.10.2021
5197 Clouds 16 1012 71 10000 6.69 350 07:54 21.10.2021
5198 Clear 15 1012 74 10000 6.69 350 06:54 21.10.2021
5199 Clear 16 1012 75 10000 0.89 0 00:51 21.10.2021
5200 Clear 18 1010 72 10000 0.45 0 22:36 20.10.2021
5201 Clear 19 1010 70 10000 0.89 0 21:50 20.10.2021
5202 Clear 19 1010 70 10000 1.34 0 21:18 20.10.2021
5203 Clear 19 1009 72 10000 0.89 0 20:39 20.10.2021
5204 Clear 19 1009 73 10000 0.89 0 20:21 20.10.2021
5205 Clear 19 1009 72 10000 1.34 0 19:26 20.10.2021
5206 Clear 20 1010 68 10000 0.89 0 18:45 20.10.2021
5207 Clear 21 1010 60 10000 1.34 225 17:36 20.10.2021
5208 Clear 24 1011 49 10000 2.24 180 14:56 20.10.2021
5209 Clear 24 1012 46 10000 3.09 200 09:57 20.10.2021
5210 Clear 17 1014 71 10000 0.45 248 07:43 20.10.2021
5211 Clear 16 1014 69 10000 3.6 210 02:38 20.10.2021
5212 Clear 16 1017 71 10000 0.89 0 00:34 20.10.2021
5213 Clear 17 1017 59 10000 4.12 190 22:58 19.10.2021
5214 Clear 18 1017 57 10000 4.12 200 21:38 19.10.2021
5215 Clear 18 1017 57 10000 4.12 210 20:29 19.10.2021
5216 Clear 18 1018 62 10000 0.89 0 19:59 19.10.2021
5217 Clear 18 1018 62 10000 0.45 0 19:37 19.10.2021
5218 Clear 19 1019 60 10000 1.34 0 18:45 19.10.2021
5219 Clear 21 1019 53 10000 1.34 225 17:52 19.10.2021
5220 Clear 24 1019 42 10000 2.24 180 15:30 19.10.2021
5221 Clear 25 1020 38 10000 2.24 203 14:44 19.10.2021
5222 Clear 25 1020 33 10000 2.24 180 13:56 19.10.2021
5223 Clear 24 1021 40 10000 1.34 203 12:24 19.10.2021
5224 Clear 23 1021 40 10000 5.14 190 11:30 19.10.2021
5225 Clear 20 1022 48 10000 1.79 225 09:55 19.10.2021
5226 Clear 18 1021 52 10000 2.06 240 08:57 19.10.2021
5227 Clear 14 1023 60 10000 0.89 0 02:38 19.10.2021
5228 Clear 15 1025 58 10000 1.79 0 00:20 19.10.2021
5229 Clear 15 1026 58 10000 2.24 0 23:41 18.10.2021
5230 Clear 15 1026 59 10000 2.68 0 22:59 18.10.2021
5231 Clear 15 1026 60 10000 2.24 0 22:31 18.10.2021
5232 Clear 15 1026 60 10000 2.24 0 22:31 18.10.2021
5233 Clear 15 1026 64 10000 2.24 0 20:53 18.10.2021
5234 Clear 15 1026 64 10000 2.24 0 20:32 18.10.2021
5235 Clear 16 1026 59 10000 3.13 0 19:49 18.10.2021
5236 Clear 16 1026 57 10000 1.79 0 19:22 18.10.2021
5237 Clear 17 1026 53 10000 1.79 0 18:49 18.10.2021
5238 Clear 19 1027 42 10000 2.24 225 14:58 18.10.2021
5239 Clear 19 1029 44 10000 3.13 225 12:41 18.10.2021
5240 Clear 18 1029 44 10000 3.13 203 10:26 18.10.2021
5241 Clear 17 1030 47 10000 1.79 203 09:26 18.10.2021
5242 Clear 12 1029 67 10000 2.06 150 01:35 18.10.2021
5243 Clear 13 1030 65 10000 1.34 0 23:20 17.10.2021
5244 Clear 13 1029 68 10000 0.89 0 21:45 17.10.2021
5245 Clouds 14 1029 67 10000 0.89 0 20:59 17.10.2021
5246 Clouds 14 1029 67 10000 0.89 0 20:31 17.10.2021
5247 Clouds 15 1027 60 10000 6.69 180 19:39 17.10.2021
5248 Clouds 16 1026 54 10000 4.58 159 18:54 17.10.2021
5249 Clouds 16 1027 57 10000 0.45 0 17:32 17.10.2021
5250 Clouds 17 1027 60 10000 0.45 0 14:58 17.10.2021
5251 Rain 16 1027 66 10000 0.89 0 14:24 17.10.2021
5252 Rain 17 1027 71 10000 0.45 0 13:34 17.10.2021
5253 Rain 17 1027 68 10000 2.24 225 11:54 17.10.2021
5254 Rain 16 1027 74 10000 0.89 0 10:23 17.10.2021
5255 Rain 14 1027 82 10000 0.89 0 09:28 17.10.2021
5256 Rain 12 1024 80 10000 0.45 0 06:58 17.10.2021
5257 Clouds 11 1023 61 10000 2.06 290 00:52 17.10.2021
5258 Clouds 12 1024 64 10000 0.45 0 00:22 17.10.2021
5259 Clouds 12 1024 59 10000 0.45 0 21:38 16.10.2021
5260 Clouds 13 1022 51 10000 2.57 260 20:31 16.10.2021
5261 Clouds 14 1022 54 10000 0.45 0 19:45 16.10.2021
5262 Clouds 14 1021 47 10000 5.14 230 19:21 16.10.2021
5263 Clouds 15 1022 50 10000 1.34 0 18:54 16.10.2021
5264 Clouds 15 1022 49 10000 1.79 0 18:36 16.10.2021
5265 Clouds 16 1022 48 10000 2.24 0 18:18 16.10.2021
5266 Clouds 16 1021 51 10000 3.13 0 17:23 16.10.2021
5267 Rain 15 1021 65 8000 2.24 0 14:52 16.10.2021
5268 Rain 15 1021 61 10000 3.58 0 11:52 16.10.2021
5269 Rain 15 1021 64 10000 4.47 0 10:43 16.10.2021
5270 Clouds 14 1020 54 10000 4.47 0 08:20 16.10.2021
5271 Clouds 13 1019 64 10000 1.79 0 01:25 16.10.2021
5272 Clouds 13 1018 67 10000 1.34 0 23:55 15.10.2021
5273 Rain 14 1018 69 10000 0.45 0 23:20 15.10.2021
5274 Rain 13 1018 83 10000 1.34 0 22:19 15.10.2021
5275 Rain 13 1017 78 10000 0.89 0 21:26 15.10.2021
5276 Rain 14 1017 77 10000 0.89 0 20:47 15.10.2021
5277 Rain 14 1017 68 10000 1.34 0 19:31 15.10.2021
5278 Rain 15 1016 62 10000 0.89 0 18:40 15.10.2021
5279 Clouds 17 1015 55 10000 3.58 0 16:29 15.10.2021
5280 Clouds 18 1015 48 10000 4.02 270 15:36 15.10.2021
5281 Clouds 19 1015 50 10000 3.13 293 13:29 15.10.2021
5282 Clouds 18 1015 53 10000 2.24 203 11:36 15.10.2021
5283 Clouds 17 1015 54 10000 2.24 203 10:57 15.10.2021
5284 Clouds 17 1015 47 10000 1.34 338 09:49 15.10.2021
5285 Clouds 14 1014 81 10000 0.89 0 05:44 15.10.2021
5286 Rain 14 1014 80 10000 1.54 300 01:47 15.10.2021
5287 Clouds 15 1014 76 10000 0.45 0 00:22 15.10.2021
5288 Clouds 15 1015 73 10000 2.57 220 22:52 14.10.2021
5289 Clouds 15 1015 71 10000 0.45 0 21:45 14.10.2021
5290 Clouds 15 1015 77 10000 0.45 0 20:50 14.10.2021
5291 Clouds 15 1015 77 10000 0.45 0 20:50 14.10.2021
5292 Clouds 15 1015 78 10000 0.45 0 20:19 14.10.2021
5293 Clouds 16 1014 77 10000 0.45 0 19:38 14.10.2021
5294 Rain 17 1014 66 10000 4.63 170 17:37 14.10.2021
5295 Clouds 18 1014 60 10000 0.45 0 16:51 14.10.2021
5296 Clouds 18 1014 57 10000 0.45 0 16:21 14.10.2021
5297 Clouds 18 1014 59 10000 1.34 0 14:43 14.10.2021
5298 Rain 18 1014 71 10000 0.89 0 14:22 14.10.2021
5299 Rain 18 1014 70 10000 0.89 0 11:50 14.10.2021
5300 Rain 18 1013 73 10000 1.34 225 09:57 14.10.2021
5301 Rain 15 1012 93 10000 0.45 0 07:32 14.10.2021
5302 Rain 16 1009 86 10000 3.13 0 02:41 14.10.2021
5303 Rain 16 1007 88 10000 4.47 0 00:29 14.10.2021
5304 Rain 17 1007 81 10000 1.79 0 22:29 13.10.2021
5305 Clouds 17 1008 78 10000 3.58 0 21:33 13.10.2021
5306 Clouds 17 1007 64 10000 4.02 0 20:22 13.10.2021
5307 Clear 17 1005 63 10000 8.75 320 18:59 13.10.2021
5308 Clear 18 1005 63 10000 8.75 320 18:36 13.10.2021
5309 Clear 20 1006 70 10000 7.2 310 15:32 13.10.2021
5310 Clear 21 1007 65 10000 5.66 320 14:46 13.10.2021
5311 Clear 24 1007 54 10000 1.34 0 14:22 13.10.2021
5312 Clear 22 1008 53 10000 7.2 310 12:23 13.10.2021
5313 Clear 23 1008 48 10000 6.17 310 11:35 13.10.2021
5314 Clear 19 1010 75 10000 0.89 90 08:48 13.10.2021
5315 Clear 16 1010 89 10000 0.45 0 07:43 13.10.2021
5316 Clear 16 1012 83 10000 0.45 0 02:30 13.10.2021
5317 Clear 17 1013 82 10000 0.45 0 01:47 13.10.2021
5318 Clouds 17 1014 81 10000 0.89 0 23:31 12.10.2021
5319 Clouds 18 1014 81 10000 0.45 0 22:47 12.10.2021
5320 Clouds 18 1014 81 10000 1.34 0 22:23 12.10.2021
5321 Clear 18 1015 77 10000 0.45 0 20:48 12.10.2021
5322 Clear 18 1015 77 10000 0.45 0 20:19 12.10.2021
5323 Clear 20 1015 64 10000 0.89 0 18:57 12.10.2021
5324 Clouds 20 1015 58 10000 0.89 225 18:18 12.10.2021
5325 Clear 22 1014 52 10000 2.24 203 16:44 12.10.2021
5326 Clear 22 1013 48 10000 7.2 170 16:18 12.10.2021
5327 Clear 23 1014 46 10000 6.17 180 14:46 12.10.2021
5328 Clear 23 1015 50 10000 0.89 158 13:44 12.10.2021
5329 Clear 23 1016 48 10000 1.34 180 12:40 12.10.2021
5330 Clear 23 1016 48 10000 1.79 180 12:40 12.10.2021
5331 Clear 21 1017 60 10000 1.79 180 10:38 12.10.2021
5332 Clouds 19 1017 78 10000 1.34 158 08:49 12.10.2021
5333 Clear 17 1016 85 10000 0.89 180 07:54 12.10.2021
5334 Clear 16 1014 86 10000 6.17 210 06:41 12.10.2021
5335 Clear 16 1015 86 10000 0.89 0 04:33 12.10.2021
5336 Clear 17 1016 85 10000 5.14 210 01:30 12.10.2021
5337 Clear 17 1017 84 10000 0.89 0 23:41 11.10.2021
5338 Clear 18 1016 84 10000 3.6 190 22:59 11.10.2021
5339 Clear 18 1016 83 10000 3.6 190 22:29 11.10.2021
5340 Clear 18 1016 79 10000 0.89 0 21:18 11.10.2021
5341 Clear 20 1016 74 10000 0.89 0 19:46 11.10.2021
5342 Clear 21 1016 64 10000 1.34 0 18:59 11.10.2021
5343 Clear 22 1014 47 10000 7.2 160 17:59 11.10.2021
5344 Clear 24 1014 37 10000 6.17 150 16:39 11.10.2021
5345 Clear 27 1013 27 10000 6.69 170 15:52 11.10.2021
5346 Clear 27 1013 26 10000 6.69 170 15:32 11.10.2021
5347 Clear 28 1013 11 10000 3.09 180 14:46 11.10.2021
5348 Clear 31 1014 11 10000 2.57 0 13:39 11.10.2021
5349 Clouds 28 1015 26 10000 2.1 207 12:20 11.10.2021
5350 Clear 27 1015 27 10000 2.06 190 10:48 11.10.2021
5351 Clear 24 1016 51 10000 0.45 90 09:44 11.10.2021
5352 Clear 10 1016 87 10000 1.03 120 07:30 11.10.2021
5353 Clear 13 1018 94 10000 1.03 100 01:42 11.10.2021
5354 Clear 14 1018 86 10000 1.54 60 00:52 11.10.2021
5355 Clear 14 1018 88 10000 1.54 60 00:31 11.10.2021
5356 Clear 17 1019 65 10000 2.06 210 21:57 10.10.2021
5357 Clear 17 1019 64 10000 2.06 210 21:35 10.10.2021
5358 Clear 17 1019 64 10000 2.06 200 20:48 10.10.2021
5359 Clear 18 1019 64 10000 2.06 200 20:22 10.10.2021
5360 Clear 18 1020 62 10000 0.45 0 19:59 10.10.2021
5361 Clear 18 1020 62 10000 0.45 0 19:38 10.10.2021
5362 Clear 21 1021 50 10000 4.12 190 18:37 10.10.2021
5363 Clouds 24 1020 22 10000 2.93 179 17:19 10.10.2021
5364 Clear 25 1020 22 10000 3.6 180 15:47 10.10.2021
5365 Clear 25 1021 22 10000 3.6 190 14:42 10.10.2021
5366 Clear 26 1021 22 10000 3.6 170 13:34 10.10.2021
5367 Clear 26 1022 22 10000 3.09 180 12:40 10.10.2021
5368 Clear 23 1023 30 10000 0.51 0 10:44 10.10.2021
5369 Clear 19 1022 50 10000 0.51 0 09:31 10.10.2021
5370 Clear 19 1022 50 10000 0.51 0 09:31 10.10.2021
5371 Clear 17 1022 63 10000 0.51 0 08:54 10.10.2021
5372 Clear 16 1023 58 10000 2.06 360 07:53 10.10.2021
5373 Clear 14 1023 67 10000 1.54 220 03:28 10.10.2021
5374 Clear 15 1024 65 10000 4.12 160 01:28 10.10.2021
5375 Clear 15 1024 63 10000 4.63 200 00:33 10.10.2021
5376 Clear 15 1024 64 10000 2.57 170 23:20 09.10.2021
5377 Clear 16 1024 72 10000 4.63 170 21:48 09.10.2021
5378 Clear 16 1024 72 10000 4.63 170 21:29 09.10.2021
5379 Clear 17 1023 57 10000 5.14 180 19:45 09.10.2021
5380 Clear 17 1023 56 10000 5.14 180 19:22 09.10.2021
5381 Clouds 19 1023 63 10000 7.72 180 18:33 09.10.2021
5382 Clouds 19 1023 63 10000 7.72 180 18:33 09.10.2021
5383 Clouds 20 1022 44 10000 7.72 170 17:21 09.10.2021
5384 Clouds 21 1022 42 10000 8.23 170 16:19 09.10.2021
5385 Clouds 21 1021 51 10000 5.14 180 13:46 09.10.2021
5386 Clouds 20 1021 64 10000 3.6 170 12:54 09.10.2021
5387 Clouds 20 1021 61 10000 1.03 0 11:48 09.10.2021
5388 Clouds 19 1021 76 10000 2.57 330 10:42 09.10.2021
5389 Rain 17 1020 86 10000 2.57 340 09:53 09.10.2021
5390 Rain 15 1019 89 4000 2.57 350 08:30 09.10.2021
5391 Clouds 15 1019 87 10000 3.09 340 07:49 09.10.2021
5392 Drizzle 14 1017 80 10000 2.57 340 05:39 09.10.2021
5393 Clouds 14 1017 82 10000 1.54 0 03:44 09.10.2021
5394 Clouds 14 1017 93 10000 2.06 330 02:41 09.10.2021
5395 Clouds 14 1016 97 10000 3.09 320 23:52 08.10.2021
5396 Clouds 14 1016 93 10000 3.09 310 22:59 08.10.2021
5397 Clouds 14 1016 93 10000 3.09 310 22:24 08.10.2021
5398 Clouds 14 1015 93 10000 4.63 320 21:35 08.10.2021
5399 Clouds 14 1014 93 10000 5.14 320 19:39 08.10.2021
5400 Clouds 16 1013 53 10000 4.63 280 17:36 08.10.2021
5401 Clouds 17 1014 51 10000 6.69 310 16:53 08.10.2021
5402 Drizzle 17 1014 50 10000 6.69 310 16:24 08.10.2021
5403 Clouds 18 1014 60 10000 8.23 300 13:58 08.10.2021
5404 Clouds 19 1014 46 10000 8.23 300 13:36 08.10.2021
5405 Clouds 19 1014 44 10000 6.17 360 11:40 08.10.2021
5406 Clouds 18 1014 48 10000 6.17 10 10:41 08.10.2021
5407 Clouds 16 1014 63 10000 8.75 30 09:44 08.10.2021
5408 Clouds 14 1014 72 10000 7.2 340 00:35 08.10.2021
5409 Clouds 14 1014 70 10000 7.2 350 23:22 07.10.2021
5410 Clouds 14 1013 87 10000 5.66 340 21:46 07.10.2021
5411 Clouds 14 1013 86 10000 5.66 340 21:27 07.10.2021
5412 Clouds 14 1013 87 10000 6.17 320 20:28 07.10.2021
5413 Clear 16 1012 64 10000 7.72 320 19:30 07.10.2021
5414 Clear 18 1011 41 10000 7.72 310 18:24 07.10.2021
5415 Clouds 17 1011 77 10000 8.75 310 17:27 07.10.2021
5416 Clear 21 1011 56 10000 9.26 320 15:55 07.10.2021
5417 Clear 24 1010 32 10000 10.29 310 14:24 07.10.2021
5418 Clear 23 1009 55 10000 10.8 310 13:43 07.10.2021
5419 Clear 24 1010 50 10000 5.66 310 12:48 07.10.2021
5420 Clear 23 1010 49 10000 4.12 360 10:57 07.10.2021
5421 Clear 21 1010 54 10000 4.63 350 10:20 07.10.2021
5422 Clear 21 1010 50 10000 6.17 330 09:34 07.10.2021
5423 Clear 20 1010 46 10000 0.89 293 08:52 07.10.2021
5424 Clear 16 1010 60 10000 2.57 320 07:56 07.10.2021
5425 Clear 15 1010 63 10000 2.57 320 07:36 07.10.2021
5426 Clear 17 1010 54 10000 0.89 0 03:54 07.10.2021
5427 Clear 18 1013 56 10000 0.45 0 00:29 07.10.2021
5428 Clear 18 1014 53 10000 0.89 0 22:55 06.10.2021
5429 Clear 18 1014 56 10000 1.79 0 22:23 06.10.2021
5430 Clear 19 1014 58 10000 1.34 0 20:43 06.10.2021
5431 Clear 19 1014 59 10000 0.89 0 20:20 06.10.2021
5432 Clear 21 1014 56 10000 2.24 0 18:42 06.10.2021
5433 Clear 25 1014 41 10000 1.79 180 16:58 06.10.2021
5434 Clear 25 1014 41 10000 1.79 180 16:58 06.10.2021
5435 Clear 25 1014 41 10000 1.79 180 16:58 06.10.2021
5436 Clear 27 1015 40 10000 1.79 203 15:33 06.10.2021
5437 Clear 27 1016 37 10000 1.34 203 14:30 06.10.2021
5438 Clear 26 1017 37 10000 1.79 225 13:23 06.10.2021
5439 Clear 25 1017 39 10000 1.34 203 12:44 06.10.2021
5440 Clear 25 1017 39 10000 1.34 203 12:22 06.10.2021
5441 Clear 21 1016 46 10000 2.57 200 10:23 06.10.2021
5442 Clear 20 1017 43 10000 1.34 225 09:39 06.10.2021
5443 Clear 18 1017 51 10000 1.34 225 08:57 06.10.2021
5444 Clear 16 1017 65 10000 2.24 270 07:53 06.10.2021
5445 Clear 15 1017 71 10000 2.24 0 05:27 06.10.2021
5446 Clear 15 1017 71 10000 2.24 0 05:27 06.10.2021
5447 Clear 15 1017 68 10000 0.45 0 01:23 06.10.2021
5448 Clear 16 1018 60 10000 1.34 0 00:20 06.10.2021
5449 Clear 17 1019 58 10000 0.45 0 00:20 06.10.2021
5450 Clear 16 1018 60 10000 1.79 0 23:48 05.10.2021
5451 Clear 16 1018 60 10000 1.34 0 23:29 05.10.2021
5452 Clear 16 1018 62 10000 1.34 0 22:30 05.10.2021
5453 Clear 16 1018 64 10000 0.89 0 21:50 05.10.2021
5454 Clear 16 1018 75 10000 0.45 0 20:49 05.10.2021
5455 Clear 16 1018 67 10000 1.34 0 20:25 05.10.2021
5456 Clear 17 1018 65 10000 0.89 0 19:50 05.10.2021
5457 Clouds 18 1018 60 10000 0.45 0 19:18 05.10.2021
5458 Clear 23 1018 46 10000 1.34 180 17:23 05.10.2021
5459 Clear 25 1016 33 10000 4.63 190 15:22 05.10.2021
5460 Clear 25 1018 25 10000 3.6 210 13:43 05.10.2021
5461 Clear 24 1018 28 10000 4.12 160 12:55 05.10.2021
5462 Clear 24 1018 27 10000 4.12 160 12:19 05.10.2021
5463 Clear 22 1018 32 10000 5.14 220 11:22 05.10.2021
5464 Clear 19 1019 51 10000 1.79 225 09:50 05.10.2021
5465 Clear 12 1017 69 10000 1.34 0 05:36 05.10.2021
5466 Clear 14 1021 61 10000 1.79 0 23:54 04.10.2021
5467 Clear 14 1021 58 10000 2.24 0 22:39 04.10.2021
5468 Clear 15 1021 53 10000 1.79 0 20:45 04.10.2021
5469 Clear 17 1021 52 10000 2.24 0 18:47 04.10.2021
5470 Clear 21 1021 44 10000 2.68 225 16:39 04.10.2021
5471 Clear 21 1021 36 10000 2.68 203 15:32 04.10.2021
5472 Clear 21 1022 36 10000 1.79 180 14:43 04.10.2021
5473 Clear 21 1023 36 10000 1.79 90 13:58 04.10.2021
5474 Clear 21 1023 35 10000 3.58 225 13:30 04.10.2021
5475 Clear 20 1024 36 10000 2.24 270 12:30 04.10.2021
5476 Clear 19 1025 40 10000 1.79 203 11:31 04.10.2021
5477 Clear 17 1026 44 10000 1.79 225 10:34 04.10.2021
5478 Clear 14 1025 51 10000 1.79 180 08:45 04.10.2021
5479 Clear 13 1023 55 10000 7.2 160 07:52 04.10.2021
5480 Clouds 12 1024 54 10000 4.63 140 03:34 04.10.2021
5481 Clouds 13 1025 60 10000 4.63 140 22:44 03.10.2021
5482 Clouds 12 1025 61 10000 2.57 140 21:43 03.10.2021
5483 Clouds 13 1025 61 10000 2.57 140 21:24 03.10.2021
5484 Clouds 14 1024 55 10000 5.66 160 20:25 03.10.2021
5485 Clouds 14 1023 52 10000 5.66 170 19:31 03.10.2021
5486 Clouds 15 1023 48 10000 7.2 170 18:28 03.10.2021
5487 Clouds 16 1022 52 10000 9.26 170 17:30 03.10.2021
5488 Clouds 17 1022 45 10000 6.69 180 14:49 03.10.2021
5489 Clouds 17 1022 46 10000 6.69 180 14:27 03.10.2021
5490 Clouds 16 1022 59 10000 5.14 170 13:34 03.10.2021
5491 Clouds 16 1023 48 10000 2.06 0 12:41 03.10.2021
5492 Clouds 16 1023 46 10000 1.03 0 10:57 03.10.2021
5493 Clouds 14 1023 64 10000 2.06 240 09:34 03.10.2021
5494 Clouds 9 1022 71 10000 1.03 0 03:36 03.10.2021
5495 Clouds 11 1023 61 10000 3.09 130 22:46 02.10.2021
5496 Clouds 12 1023 62 10000 3.6 160 21:35 02.10.2021
5497 Clouds 13 1022 55 10000 5.66 150 19:54 02.10.2021
5498 Clouds 14 1021 60 10000 7.72 180 18:56 02.10.2021
5499 Clouds 14 1021 44 10000 7.72 180 18:18 02.10.2021
5500 Clouds 14 1021 49 10000 1.34 0 17:36 02.10.2021
5501 Clouds 16 1020 40 10000 8.75 170 15:53 02.10.2021
5502 Clouds 13 1017 84 10000 1.54 0 06:39 02.10.2021
5503 Clear 23 1015 34 10000 5.66 190 15:37 30.09.2021
5504 Clear 24 1016 34 10000 3.6 200 13:54 30.09.2021
5505 Clear 21 1017 46 10000 2.57 190 11:42 30.09.2021
5506 Clear 21 1017 48 10000 2.57 210 10:46 30.09.2021
5507 Clear 19 1017 56 10000 2.57 190 09:44 30.09.2021
5508 Clear 16 1018 57 10000 1.54 0 08:30 30.09.2021
5509 Clear 15 1018 60 10000 2.57 190 07:34 30.09.2021
5510 Clear 14 1017 65 10000 1.03 0 05:23 30.09.2021
5511 Clear 15 1019 60 10000 5.14 130 01:36 30.09.2021
5512 Clear 15 1020 59 10000 5.66 140 00:23 30.09.2021
5513 Clouds 16 1021 59 10000 6.69 130 22:37 29.09.2021
5514 Clouds 16 1021 59 10000 6.69 130 21:25 29.09.2021
5515 Clouds 16 1020 70 10000 6.69 130 20:27 29.09.2021
5516 Clouds 17 1020 65 10000 8.23 130 19:54 29.09.2021
5517 Clouds 17 1019 60 10000 9.77 130 18:50 29.09.2021
5518 Clouds 19 1019 59 10000 8.23 140 17:41 29.09.2021
5519 Clouds 20 1019 58 10000 10.29 140 16:48 29.09.2021
5520 Clouds 21 1018 54 10000 10.29 140 15:58 29.09.2021
5521 Clouds 21 1019 56 10000 11.83 160 14:39 29.09.2021
5522 Clouds 21 1019 53 10000 9.26 140 13:58 29.09.2021
5523 Clouds 21 1019 54 10000 9.26 140 13:18 29.09.2021
5524 Clouds 21 1020 48 10000 10.8 150 12:35 29.09.2021
5525 Clouds 20 1021 52 10000 10.8 160 10:49 29.09.2021
5526 Clouds 19 1021 54 10000 10.29 150 09:53 29.09.2021
5527 Clouds 18 1021 55 10000 10.29 150 09:34 29.09.2021
5528 Clouds 16 1020 66 10000 10.29 160 07:33 29.09.2021
5529 Clear 15 1019 71 10000 7.2 160 04:19 29.09.2021
5530 Clear 15 1019 75 10000 9.26 170 23:29 28.09.2021
5531 Clear 15 1019 75 10000 9.77 170 22:24 28.09.2021
5532 Clouds 16 1019 78 10000 8.23 180 21:44 28.09.2021
5533 Clouds 16 1018 74 10000 7.2 180 20:43 28.09.2021
5534 Clouds 16 1018 73 10000 6.69 180 19:46 28.09.2021
5535 Clouds 17 1018 68 10000 7.72 200 18:50 28.09.2021
5536 Clouds 17 1018 68 10000 7.72 200 18:18 28.09.2021
5537 Clouds 20 1017 58 10000 8.75 180 16:38 28.09.2021
5538 Clouds 20 1018 51 10000 6.17 180 14:30 28.09.2021
5539 Clouds 20 1018 47 10000 5.66 190 13:19 28.09.2021
5540 Clouds 20 1019 41 10000 4.12 180 12:21 28.09.2021
5541 Clouds 19 1019 47 10000 3.09 210 11:47 28.09.2021
5542 Clouds 19 1019 48 10000 3.09 210 11:22 28.09.2021
5543 Clouds 18 1019 42 10000 2.57 140 10:21 28.09.2021
5544 Clouds 18 1019 42 10000 2.57 140 10:21 28.09.2021
5545 Clear 17 1019 61 10000 2.57 170 09:18 28.09.2021
5546 Clear 16 1019 66 10000 0.51 0 08:39 28.09.2021
5547 Clear 13 1019 73 10000 1.54 90 07:48 28.09.2021
5548 Clouds 10 1018 77 10000 1.03 0 05:31 28.09.2021
5549 Clear 12 1019 67 10000 3.6 230 01:25 28.09.2021
5550 Clear 13 1019 66 10000 3.09 220 00:26 28.09.2021
5551 Clouds 14 1019 63 10000 4.12 210 23:42 27.09.2021
5552 Clouds 14 1019 63 10000 4.12 210 23:22 27.09.2021
5553 Clouds 14 1019 63 10000 3.6 210 22:19 27.09.2021
5554 Clouds 15 1018 59 10000 3.6 210 20:45 27.09.2021
5555 Clouds 15 1017 59 10000 4.63 190 19:57 27.09.2021
5556 Clouds 16 1017 57 10000 4.63 190 19:29 27.09.2021
5557 Clouds 16 1017 51 10000 6.17 180 18:51 27.09.2021
5558 Clouds 18 1016 46 10000 6.69 200 17:33 27.09.2021
5559 Clouds 18 1016 47 10000 6.17 180 16:51 27.09.2021
5560 Clouds 18 1016 47 10000 6.17 180 16:51 27.09.2021
5561 Clouds 18 1016 60 10000 6.17 200 15:46 27.09.2021
5562 Clouds 18 1016 60 10000 6.17 200 15:27 27.09.2021
5563 Drizzle 16 1016 70 10000 6.17 190 13:34 27.09.2021
5564 Clouds 18 1015 63 10000 5.14 170 11:59 27.09.2021
5565 Clouds 18 1015 62 10000 4.12 200 10:42 27.09.2021
5566 Clouds 17 1015 68 10000 5.66 210 09:31 27.09.2021
5567 Clear 15 1013 79 10000 0.89 0 06:33 27.09.2021
5568 Clear 15 1013 76 10000 1.34 0 03:29 27.09.2021
5569 Clear 16 1015 82 10000 0.89 0 22:39 26.09.2021
5570 Clear 16 1014 76 10000 0.89 0 21:55 26.09.2021
5571 Clear 16 1014 75 10000 1.34 0 21:26 26.09.2021
5572 Clear 17 1015 71 10000 0.45 0 20:24 26.09.2021
5573 Clear 17 1014 72 10000 0.89 0 19:53 26.09.2021
5574 Clear 19 1014 66 10000 0.89 0 18:52 26.09.2021
5575 Clear 21 1013 43 10000 2.57 50 17:59 26.09.2021
5576 Clear 23 1013 46 10000 2.57 50 17:36 26.09.2021
5577 Clear 23 1013 46 10000 2.57 50 17:18 26.09.2021
5578 Clear 22 1014 49 10000 1.54 0 16:22 26.09.2021
5579 Clear 22 1015 57 10000 2.57 100 15:22 26.09.2021
5580 Clouds 22 1017 58 10000 3.09 170 14:18 26.09.2021
5581 Clouds 21 1017 61 10000 3.6 200 13:42 26.09.2021
5582 Clouds 20 1017 65 10000 2.06 180 12:26 26.09.2021
5583 Clouds 19 1018 72 10000 0.89 203 11:52 26.09.2021
5584 Clouds 18 1019 78 10000 1.34 225 10:52 26.09.2021
5585 Clouds 17 1019 85 10000 0.45 0 09:37 26.09.2021
5586 Clouds 16 1019 90 10000 1.03 0 08:30 26.09.2021
5587 Clouds 15 1019 86 10000 0.89 0 00:28 26.09.2021
5588 Clouds 16 1019 86 10000 0.45 0 23:43 25.09.2021
5589 Clouds 16 1019 83 10000 3.09 320 22:39 25.09.2021
5590 Clouds 16 1019 83 10000 3.09 320 22:18 25.09.2021
5591 Clouds 16 1019 82 10000 3.09 350 21:40 25.09.2021
5592 Clear 16 1019 81 10000 0.45 0 20:52 25.09.2021
5593 Clear 16 1018 79 10000 7.2 320 19:33 25.09.2021
5594 Clear 17 1018 75 10000 0.45 0 18:28 25.09.2021
5595 Clear 18 1016 71 10000 7.2 340 17:21 25.09.2021
5596 Clear 20 1017 56 10000 10.29 310 14:30 25.09.2021
5597 Clear 21 1017 50 10000 10.29 310 13:54 25.09.2021
5598 Clear 21 1017 52 10000 7.2 310 12:37 25.09.2021
5599 Clear 21 1017 53 10000 5.66 350 11:27 25.09.2021
5600 Clear 19 1017 68 10000 0.89 135 10:18 25.09.2021
5601 Clouds 14 1018 86 10000 0.89 338 08:55 25.09.2021
5602 Clear 12 1017 91 10000 4.63 340 07:47 25.09.2021
5603 Clear 13 1019 84 10000 1.03 0 00:52 25.09.2021
5604 Clear 14 1019 80 10000 4.63 350 22:18 24.09.2021
5605 Clear 14 1019 77 10000 3.6 350 21:32 24.09.2021
5606 Clear 15 1019 77 10000 0.45 0 20:32 24.09.2021
5607 Clear 15 1019 77 10000 0.45 0 20:32 24.09.2021
5608 Clear 16 1019 71 10000 0.45 0 19:31 24.09.2021
5609 Clear 18 1019 63 10000 6.17 320 18:20 24.09.2021
5610 Clear 18 1018 60 10000 7.2 310 17:50 24.09.2021
5611 Clear 18 1018 60 10000 7.2 310 17:31 24.09.2021
5612 Clear 20 1019 57 10000 6.69 310 15:39 24.09.2021
5613 Clouds 20 1019 57 10000 2.85 308 13:21 24.09.2021
5614 Clouds 20 1021 57 10000 0.89 293 12:43 24.09.2021
5615 Clouds 20 1021 58 10000 0.89 113 12:25 24.09.2021
5616 Clouds 19 1022 67 10000 0.89 45 10:53 24.09.2021
5617 Clouds 17 1022 80 10000 0.45 135 09:37 24.09.2021
5618 Clouds 14 1021 93 10000 5.14 20 07:57 24.09.2021
5619 Clouds 14 1020 92 10000 3.09 10 06:59 24.09.2021
5620 Clouds 15 1020 92 10000 0.45 0 05:57 24.09.2021
5621 Clouds 13 1019 93 10000 5.66 350 03:56 24.09.2021
5622 Clouds 16 1019 85 10000 0.45 0 22:37 23.09.2021
5623 Clouds 16 1018 85 10000 5.14 330 21:59 23.09.2021
5624 Clouds 16 1018 83 10000 0.45 0 20:54 23.09.2021
5625 Clouds 16 1018 82 10000 0.45 0 20:31 23.09.2021
5626 Clouds 18 1017 76 10000 0.45 0 18:36 23.09.2021
5627 Clouds 19 1016 68 10000 0.45 338 16:39 23.09.2021
5628 Clouds 20 1015 63 10000 3.13 225 15:19 23.09.2021
5629 Clouds 21 1015 60 10000 4.02 225 14:25 23.09.2021
5630 Clouds 21 1015 58 10000 2.68 225 13:27 23.09.2021
5631 Clouds 20 1015 66 10000 3.58 248 12:57 23.09.2021
5632 Clouds 20 1014 61 10000 3.58 248 12:37 23.09.2021
5633 Clouds 20 1014 63 10000 2.68 203 12:18 23.09.2021
5634 Clear 20 1012 45 10000 6.69 330 10:31 23.09.2021
5635 Clear 18 1012 55 10000 7.2 340 09:54 23.09.2021
5636 Clear 17 1012 68 10000 0.89 113 08:56 23.09.2021
5637 Clear 14 1010 58 10000 5.66 300 05:32 23.09.2021
5638 Clear 13 1010 82 10000 2.57 50 00:21 23.09.2021
5639 Clear 15 1011 82 10000 1.54 0 22:52 22.09.2021
5640 Clear 15 1011 82 10000 1.54 0 22:20 22.09.2021
5641 Clear 17 1012 66 10000 2.06 180 21:42 22.09.2021
5642 Clear 18 1012 63 10000 0.89 0 20:57 22.09.2021
5643 Clear 18 1013 63 10000 0.45 203 19:48 22.09.2021
5644 Clear 19 1013 63 10000 0.89 248 19:26 22.09.2021
5645 Clear 21 1014 61 10000 0.45 180 18:30 22.09.2021
5646 Clouds 23 1015 53 10000 0.89 225 17:33 22.09.2021
5647 Clouds 23 1014 37 10000 2.96 179 15:51 22.09.2021
5648 Clear 27 1015 24 10000 3.6 190 14:28 22.09.2021
5649 Clear 27 1016 26 10000 2.06 170 13:19 22.09.2021
5650 Clear 24 1018 39 10000 1.57 125 11:20 22.09.2021
5651 Clear 17 1020 57 10000 0.45 158 09:30 22.09.2021
5652 Clear 14 1020 81 10000 0.51 0 08:45 22.09.2021
5653 Clear 6 1020 93 10000 1.03 60 07:33 22.09.2021
5654 Clear 7 1020 87 10000 1.03 0 06:51 22.09.2021
5655 Clear 9 1021 82 10000 1.03 0 05:48 22.09.2021
5656 Clear 10 1021 76 10000 0.89 0 04:20 22.09.2021
5657 Clear 10 1022 79 10000 2.57 150 03:23 22.09.2021
5658 Clear 12 1025 76 10000 1.34 0 23:54 21.09.2021
5659 Clear 13 1025 78 10000 0.89 0 22:27 21.09.2021
5660 Clear 14 1026 75 10000 1.34 0 20:58 21.09.2021
5661 Clear 15 1026 71 10000 1.34 0 19:37 21.09.2021
5662 Clear 15 1026 72 10000 1.34 0 19:18 21.09.2021
5663 Clear 19 1025 52 10000 7.72 200 16:48 21.09.2021
5664 Clear 20 1027 56 10000 2.68 225 15:57 21.09.2021
5665 Clear 20 1026 50 10000 2.24 225 15:24 21.09.2021
5666 Clear 20 1026 40 10000 4.63 190 14:43 21.09.2021
5667 Clear 20 1027 46 10000 2.68 203 13:40 21.09.2021
5668 Clear 18 1027 42 10000 5.66 240 12:45 21.09.2021
5669 Clear 16 1027 44 10000 4.12 260 10:51 21.09.2021
5670 Clear 15 1027 47 10000 6.17 160 09:53 21.09.2021
5671 Clear 13 1027 54 10000 6.69 200 07:44 21.09.2021
5672 Clouds 11 1027 71 10000 4.63 180 05:42 21.09.2021
5673 Clouds 10 1028 76 10000 2.57 110 23:58 20.09.2021
5674 Clouds 11 1028 66 10000 4.12 160 21:53 20.09.2021
5675 Clouds 11 1028 66 10000 4.12 160 21:32 20.09.2021
5676 Clouds 13 1027 62 10000 4.63 170 20:26 20.09.2021
5677 Clouds 14 1027 64 10000 0.89 0 19:20 20.09.2021
5678 Clouds 16 1026 55 10000 0.45 0 17:39 20.09.2021
5679 Clouds 17 1026 53 10000 1.34 0 16:26 20.09.2021
5680 Clouds 18 1025 52 10000 1.79 180 15:47 20.09.2021
5681 Clouds 18 1025 51 10000 1.79 225 14:59 20.09.2021
5682 Clouds 18 1025 45 10000 3.58 203 13:42 20.09.2021
5683 Clouds 17 1024 48 10000 8.75 190 12:34 20.09.2021
5684 Clouds 16 1024 63 10000 3.58 203 11:18 20.09.2021
5685 Clouds 14 1023 83 10000 4.02 0 09:55 20.09.2021
5686 Rain 13 1023 88 10000 2.68 0 09:34 20.09.2021
5687 Rain 13 1022 91 6000 2.24 0 08:56 20.09.2021
5688 Rain 15 1019 83 10000 2.24 0 06:46 20.09.2021
5689 Rain 13 1018 90 10000 0.45 203 23:44 19.09.2021
5690 Clouds 14 1018 85 10000 0.45 0 21:56 19.09.2021
5691 Clouds 14 1017 83 10000 0.45 0 21:34 19.09.2021
5692 Clouds 14 1017 81 10000 0.45 90 20:33 19.09.2021
5693 Clouds 15 1016 76 10000 0.89 90 19:18 19.09.2021
5694 Clouds 17 1015 69 10000 1.34 0 18:25 19.09.2021
5695 Clouds 17 1015 66 10000 4.92 0 17:22 19.09.2021
5696 Clouds 18 1014 69 10000 3.13 315 15:52 19.09.2021
5697 Clouds 17 1015 72 10000 4.47 315 14:50 19.09.2021
5698 Clouds 18 1015 70 10000 2.68 315 14:30 19.09.2021
5699 Drizzle 18 1015 74 10000 3.13 315 13:20 19.09.2021
5700 Rain 17 1016 74 10000 1.79 0 12:47 19.09.2021
5701 Clouds 17 1015 76 10000 1.34 0 11:27 19.09.2021
5702 Clouds 16 1015 84 10000 2.68 0 10:24 19.09.2021
5703 Clouds 15 1015 83 10000 2.68 0 09:38 19.09.2021
5704 Clouds 14 1013 83 10000 3.13 0 07:31 19.09.2021
5705 Clouds 14 1013 83 10000 2.68 0 05:55 19.09.2021
5706 Clear 15 1014 72 10000 2.24 0 23:36 18.09.2021
5707 Clouds 13 1014 88 10000 7.72 340 21:59 18.09.2021
5708 Clear 15 1013 80 10000 0.45 0 20:48 18.09.2021
5709 Clear 15 1012 77 10000 0.45 0 20:27 18.09.2021
5710 Clear 17 1011 61 10000 0.45 0 19:39 18.09.2021
5711 Clear 17 1011 61 10000 0.45 0 19:39 18.09.2021
5712 Clear 17 1011 60 10000 0.89 0 19:20 18.09.2021
5713 Clear 21 1011 50 10000 0.45 0 18:31 18.09.2021
5714 Clear 25 1011 39 10000 1.34 315 17:29 18.09.2021
5715 Clear 25 1012 34 10000 0.89 180 15:50 18.09.2021
5716 Clear 26 1013 36 10000 0.89 158 13:46 18.09.2021
5717 Clear 24 1013 29 10000 3.6 190 13:27 18.09.2021
5718 Clear 25 1014 32 10000 0.89 180 12:49 18.09.2021
5719 Clear 23 1015 34 10000 1.34 180 11:40 18.09.2021
5720 Clear 20 1016 50 10000 3.13 225 10:31 18.09.2021
5721 Clear 18 1016 58 10000 1.79 225 09:27 18.09.2021
5722 Clear 16 1016 60 10000 1.79 203 08:55 18.09.2021
5723 Clear 13 1021 78 10000 1.79 0 02:50 18.09.2021
5724 Clear 13 1023 79 10000 2.68 0 00:41 18.09.2021
5725 Clear 14 1023 78 10000 1.79 0 23:47 17.09.2021
5726 Clear 14 1024 74 10000 3.13 0 22:33 17.09.2021
5727 Clear 14 1023 72 10000 2.68 0 21:55 17.09.2021
5728 Clear 15 1023 72 10000 1.79 0 20:45 17.09.2021
5729 Clear 17 1024 69 10000 1.34 0 18:54 17.09.2021
5730 Clear 19 1023 64 10000 1.34 0 17:20 17.09.2021
5731 Clear 21 1024 56 10000 1.34 180 16:24 17.09.2021
5732 Clear 21 1027 61 10000 2.24 180 12:37 17.09.2021
5733 Clear 19 1028 60 10000 2.24 225 10:41 17.09.2021
5734 Clear 15 1028 69 10000 1.34 203 08:45 17.09.2021
5735 Clear 13 1027 77 10000 1.79 0 06:50 17.09.2021
5736 Clear 14 1029 71 10000 2.24 0 00:59 17.09.2021
5737 Clear 13 1030 71 10000 1.34 0 22:54 16.09.2021
5738 Clear 13 1030 71 10000 1.79 0 22:25 16.09.2021
5739 Clear 13 1030 70 10000 2.24 270 21:41 16.09.2021
5740 Clear 13 1030 71 10000 1.79 270 21:20 16.09.2021
5741 Clear 13 1029 71 10000 1.79 270 20:18 16.09.2021
5742 Clear 14 1029 72 10000 1.34 0 18:19 16.09.2021
5743 Clouds 15 1028 67 10000 2.68 0 17:32 16.09.2021
5744 Clouds 19 1029 55 10000 2.68 180 14:55 16.09.2021
5745 Clouds 19 1029 55 10000 2.24 203 13:55 16.09.2021
5746 Clouds 19 1029 60 10000 2.68 180 12:48 16.09.2021
5747 Clouds 19 1030 59 10000 1.79 180 12:28 16.09.2021
5748 Clouds 18 1028 61 10000 2.68 135 11:25 16.09.2021
5749 Clouds 16 1029 70 10000 1.79 0 10:31 16.09.2021
5750 Clouds 16 1028 75 10000 3.13 203 09:53 16.09.2021
5751 Clouds 14 1028 78 10000 1.79 203 08:42 16.09.2021
5752 Clouds 13 1027 83 10000 1.79 0 07:22 16.09.2021
5753 Clouds 12 1026 86 10000 1.79 0 06:43 16.09.2021
5754 Clouds 12 1025 84 10000 2.24 0 04:55 16.09.2021
5755 Clouds 12 1026 87 10000 1.34 0 01:27 16.09.2021
5756 Clouds 12 1026 83 10000 0.89 0 23:37 15.09.2021
5757 Clouds 13 1026 82 10000 0.89 0 22:47 15.09.2021
5758 Clouds 13 1026 80 10000 1.79 0 21:44 15.09.2021
5759 Clouds 13 1026 80 10000 1.79 0 21:25 15.09.2021
5760 Clouds 14 1025 78 10000 1.79 0 19:52 15.09.2021
5761 Clouds 14 1025 78 10000 1.79 0 19:52 15.09.2021
5762 Clouds 14 1025 76 10000 1.79 0 19:19 15.09.2021
5763 Clouds 16 1023 63 10000 1.79 0 17:57 15.09.2021
5764 Clouds 17 1022 45 10000 7.2 180 16:54 15.09.2021
5765 Clouds 18 1023 57 10000 1.34 180 15:34 15.09.2021
5766 Clouds 18 1024 56 10000 2.24 180 14:44 15.09.2021
5767 Clouds 18 1024 58 10000 1.79 0 13:51 15.09.2021
5768 Clouds 18 1024 59 10000 1.34 158 13:30 15.09.2021
5769 Clouds 16 1024 60 10000 2.68 0 12:44 15.09.2021
5770 Clouds 16 1025 61 10000 1.34 0 11:52 15.09.2021
5771 Clouds 16 1025 61 10000 1.34 0 11:21 15.09.2021
5772 Clouds 15 1025 63 10000 1.34 0 10:55 15.09.2021
5773 Clouds 15 1024 65 10000 0.45 248 09:28 15.09.2021
5774 Clear 8 1022 81 10000 1.03 0 07:43 15.09.2021
5775 Clouds 10 1021 81 10000 2.57 240 04:24 15.09.2021
5776 Clouds 12 1022 75 10000 0.45 0 22:59 14.09.2021
5777 Clouds 13 1022 70 10000 1.79 0 21:40 14.09.2021
5778 Clouds 13 1021 73 10000 0.89 0 20:39 14.09.2021
5779 Clouds 13 1020 70 10000 0.89 0 19:41 14.09.2021
5780 Clouds 14 1019 69 10000 1.79 0 17:40 14.09.2021
5781 Clouds 14 1019 69 10000 1.79 0 17:40 14.09.2021
5782 Clouds 15 1019 71 10000 2.68 0 16:58 14.09.2021
5783 Clouds 15 1019 71 10000 1.79 0 15:30 14.09.2021
5784 Rain 15 1018 73 10000 1.34 0 14:31 14.09.2021
5785 Clouds 16 1018 63 10000 5.14 190 11:52 14.09.2021
5786 Clouds 17 1018 59 10000 5.66 180 10:54 14.09.2021
5787 Clouds 16 1019 73 10000 1.79 0 09:50 14.09.2021
5788 Clouds 13 1018 81 10000 1.79 0 08:39 14.09.2021
5789 Clear 11 1017 87 10000 1.79 0 06:24 14.09.2021
5790 Clear 12 1018 76 10000 1.34 0 23:57 13.09.2021
5791 Clouds 13 1019 74 10000 1.79 0 22:46 13.09.2021
5792 Clouds 13 1019 73 10000 1.79 0 22:23 13.09.2021
5793 Clouds 14 1019 73 10000 1.79 0 21:45 13.09.2021
5794 Clouds 14 1019 73 10000 1.79 0 20:50 13.09.2021
5795 Clouds 14 1019 68 10000 2.24 0 18:46 13.09.2021
5796 Clouds 15 1019 63 10000 1.79 0 17:49 13.09.2021
5797 Clouds 16 1019 63 10000 2.24 0 16:50 13.09.2021
5798 Clouds 16 1019 63 10000 3.13 0 15:30 13.09.2021
5799 Clouds 17 1022 57 10000 2.68 180 11:55 13.09.2021
5800 Clouds 17 1022 62 10000 1.79 0 10:58 13.09.2021
5801 Clouds 14 1022 69 10000 2.24 0 09:36 13.09.2021
5802 Clouds 10 1020 87 10000 1.03 200 04:57 13.09.2021
5803 Clear 10 1023 89 10000 0.45 225 23:32 12.09.2021
5804 Clear 12 1023 82 10000 0.89 248 22:25 12.09.2021
5805 Clouds 12 1022 81 10000 0.89 0 21:37 12.09.2021
5806 Clouds 13 1022 79 10000 0.45 0 20:29 12.09.2021
5807 Clouds 13 1021 76 10000 0.45 0 19:51 12.09.2021
5808 Clouds 14 1021 74 10000 0.45 0 19:19 12.09.2021
5809 Clouds 14 1021 74 10000 0.45 0 19:19 12.09.2021
5810 Clouds 15 1021 66 10000 1.79 0 18:20 12.09.2021
5811 Clouds 17 1020 69 10000 1.79 0 16:31 12.09.2021
5812 Clouds 16 1020 85 10000 2.24 0 14:54 12.09.2021
5813 Rain 16 1020 83 10000 2.68 0 13:20 12.09.2021
5814 Rain 16 1020 85 10000 2.68 0 11:31 12.09.2021
5815 Rain 14 1020 93 2500 0.45 0 09:00 12.09.2021
5816 Rain 14 1020 93 2500 0.89 0 08:37 12.09.2021
5817 Drizzle 14 1019 88 10000 0.89 0 01:50 12.09.2021
5818 Drizzle 15 1019 92 7000 0.89 0 23:20 11.09.2021
5819 Clouds 15 1019 86 10000 0.89 0 21:50 11.09.2021
5820 Clouds 15 1018 86 10000 1.34 0 20:31 11.09.2021
5821 Clouds 16 1018 84 10000 0.45 0 19:20 11.09.2021
5822 Clouds 16 1017 78 10000 2.24 0 17:34 11.09.2021
5823 Clouds 17 1015 72 10000 9.26 310 15:48 11.09.2021
5824 Clouds 18 1016 65 10000 4.92 315 13:33 11.09.2021
5825 Clouds 19 1017 64 10000 4.02 315 12:50 11.09.2021
5826 Clouds 19 1017 63 10000 3.58 315 11:19 11.09.2021
5827 Clouds 13 1018 82 10000 6.17 20 09:38 11.09.2021
5828 Clouds 12 1018 88 10000 1.34 0 07:45 11.09.2021
5829 Clouds 11 1018 89 10000 0.89 0 06:48 11.09.2021
5830 Clear 13 1018 82 10000 1.79 0 23:37 10.09.2021
5831 Clear 14 1019 77 10000 1.79 0 22:24 10.09.2021
5832 Clear 15 1018 70 10000 1.79 0 21:54 10.09.2021
5833 Clear 14 1018 77 10000 8.23 320 19:58 10.09.2021
5834 Clear 15 1017 72 10000 9.26 320 18:26 10.09.2021
5835 Clouds 16 1017 67 10000 11.83 310 16:51 10.09.2021
5836 Clouds 19 1017 62 10000 4.02 315 14:41 10.09.2021
5837 Clouds 18 1019 63 10000 3.13 293 11:56 10.09.2021
5838 Clouds 15 1016 78 10000 5.81 0 08:36 10.09.2021
5839 Clouds 14 1016 81 10000 5.36 0 07:49 10.09.2021
5840 Clouds 15 1016 83 10000 4.92 0 02:27 10.09.2021
5841 Clear 21 1012 26 10000 7.2 310 22:31 09.09.2021
5842 Clear 18 1013 47 10000 1.34 180 21:45 09.09.2021
5843 Clear 18 1013 47 10000 1.34 180 21:45 09.09.2021
5844 Clear 18 1012 52 10000 0.89 23 20:46 09.09.2021
5845 Clear 19 1012 50 10000 0.89 338 19:54 09.09.2021
5846 Clear 21 1012 55 10000 0.89 293 18:31 09.09.2021
5847 Clear 27 1011 29 10000 3.6 170 16:40 09.09.2021
5848 Clear 28 1012 28 10000 3.09 130 15:36 09.09.2021
5849 Clear 25 1015 31 10000 2.57 180 12:53 09.09.2021
5850 Clear 24 1015 31 10000 2.06 150 11:45 09.09.2021
5851 Clear 19 1018 62 10000 0.45 180 09:50 09.09.2021
5852 Clear 14 1018 88 10000 1.54 0 08:47 09.09.2021
5853 Clear 8 1017 93 10000 1.03 170 06:26 09.09.2021
5854 Clear 13 1019 82 10000 1.34 0 02:36 09.09.2021
5855 Clear 14 1022 83 10000 1.79 0 22:42 08.09.2021
5856 Clear 13 1022 75 10000 1.34 0 21:31 08.09.2021
5857 Clear 14 1023 77 10000 1.79 0 19:56 08.09.2021
5858 Clear 14 1023 76 10000 1.34 0 18:58 08.09.2021
5859 Clear 15 1023 73 10000 1.79 0 18:29 08.09.2021
5860 Clear 15 1023 72 10000 1.34 0 17:56 08.09.2021
5861 Clear 18 1023 65 10000 2.24 225 16:32 08.09.2021
5862 Clear 17 1022 63 10000 6.69 170 14:26 08.09.2021
5863 Clear 18 1023 67 10000 5.14 170 12:47 08.09.2021
5864 Clear 18 1023 67 10000 5.14 170 12:27 08.09.2021
5865 Clear 17 1023 67 10000 4.12 180 11:30 08.09.2021
5866 Clouds 17 1024 76 10000 1.34 158 10:38 08.09.2021
5867 Clouds 17 1024 77 10000 1.34 158 10:20 08.09.2021
5868 Fog 10 1024 98 800 0.89 270 08:36 08.09.2021
5869 Fog 6 1023 100 100 2.06 120 07:35 08.09.2021
5870 Clear 9 1022 93 10000 0.51 0 05:34 08.09.2021
5871 Clear 13 1025 88 10000 4.12 230 22:46 07.09.2021
5872 Clear 13 1024 88 10000 3.09 210 21:59 07.09.2021
5873 Clear 12 1025 83 10000 0.89 248 19:54 07.09.2021
5874 Clear 13 1025 75 10000 0.45 0 18:45 07.09.2021
5875 Clear 16 1026 62 10000 0.89 0 17:49 07.09.2021
5876 Clear 18 1025 42 10000 4.12 170 16:42 07.09.2021
5877 Clear 18 1025 39 10000 4.12 180 15:37 07.09.2021
5878 Clear 19 1026 37 10000 4.63 180 14:42 07.09.2021
5879 Clear 17 1028 39 10000 1.03 0 12:43 07.09.2021
5880 Clear 19 1029 50 10000 0.89 180 11:45 07.09.2021
5881 Clear 16 1030 55 10000 1.79 225 10:41 07.09.2021
5882 Clear 11 1030 79 10000 0.45 180 08:39 07.09.2021
5883 Clear 6 1029 87 10000 1.54 0 07:44 07.09.2021
5884 Clear 9 1029 80 10000 0.89 0 05:41 07.09.2021
5885 Clear 10 1029 71 10000 5.66 160 02:36 07.09.2021
5886 Clear 10 1029 71 10000 6.17 160 00:52 07.09.2021
5887 Clear 11 1031 75 10000 0.89 0 23:35 06.09.2021
5888 Clear 11 1031 82 10000 1.34 0 22:54 06.09.2021
5889 Clear 11 1031 82 10000 1.34 0 22:35 06.09.2021
5890 Clear 10 1031 86 10000 1.34 0 21:25 06.09.2021
5891 Clouds 12 1030 77 10000 0.89 203 19:31 06.09.2021
5892 Clouds 13 1030 76 10000 1.34 0 18:53 06.09.2021
5893 Clouds 13 1030 74 10000 1.34 0 18:24 06.09.2021
5894 Clouds 14 1029 70 10000 0.45 0 17:36 06.09.2021
5895 Clouds 15 1029 67 10000 1.34 0 15:55 06.09.2021
5896 Clouds 15 1028 68 10000 1.34 0 14:25 06.09.2021
5897 Clouds 15 1029 64 10000 1.34 203 12:48 06.09.2021
5898 Clouds 14 1029 75 10000 1.79 0 10:54 06.09.2021
5899 Clouds 10 1028 91 10000 0.89 248 08:35 06.09.2021
5900 Clouds 7 1026 100 10000 1.03 0 07:21 06.09.2021
5901 Clouds 9 1024 81 10000 0.51 0 23:40 05.09.2021
5902 Clouds 9 1024 81 10000 0.51 0 23:18 05.09.2021
5903 Clouds 10 1024 76 10000 0.51 0 22:28 05.09.2021
5904 Clouds 12 1024 62 10000 1.54 240 21:49 05.09.2021
5905 Clouds 12 1023 62 10000 2.06 250 20:50 05.09.2021
5906 Clouds 13 1023 70 10000 0.45 0 18:59 05.09.2021
5907 Clouds 14 1023 68 10000 1.34 0 17:34 05.09.2021
5908 Rain 14 1021 72 10000 2.68 0 15:40 05.09.2021
5909 Rain 15 1021 77 10000 2.68 0 14:37 05.09.2021
5910 Drizzle 15 1021 79 10000 3.58 270 12:34 05.09.2021
5911 Rain 15 1020 82 10000 3.58 0 10:59 05.09.2021
5912 Rain 16 1020 80 10000 3.13 0 10:34 05.09.2021
5913 Rain 15 1019 81 10000 2.68 225 09:25 05.09.2021
5914 Rain 13 1019 85 10000 2.24 0 08:22 05.09.2021
5915 Rain 13 1018 88 10000 1.79 0 03:19 05.09.2021
5916 Clouds 13 1018 78 10000 2.24 0 00:32 05.09.2021
5917 Clouds 13 1018 75 10000 0.89 0 23:43 04.09.2021
5918 Clouds 14 1018 75 10000 1.79 0 22:36 04.09.2021
5919 Clouds 14 1018 75 10000 2.24 0 21:59 04.09.2021
5920 Clouds 14 1018 74 10000 2.24 45 19:54 04.09.2021
5921 Clouds 14 1017 75 10000 0.89 0 19:29 04.09.2021
5922 Clouds 16 1017 68 10000 2.24 225 16:27 04.09.2021
5923 Clouds 17 1017 63 10000 2.24 0 13:36 04.09.2021
5924 Clouds 16 1018 71 10000 1.79 0 11:21 04.09.2021
5925 Clouds 13 1019 80 10000 2.24 45 09:33 04.09.2021
5926 Clouds 11 1018 90 10000 0.89 90 06:55 04.09.2021
5927 Clouds 13 1019 86 10000 0.89 113 00:28 04.09.2021
5928 Clouds 13 1020 80 10000 1.34 90 23:32 03.09.2021
5929 Clouds 13 1020 83 10000 0.89 135 22:40 03.09.2021
5930 Rain 13 1020 84 10000 0.89 135 21:36 03.09.2021
5931 Rain 12 1019 87 10000 0.89 135 20:52 03.09.2021
5932 Rain 12 1019 88 10000 0.45 0 19:56 03.09.2021
5933 Rain 12 1019 88 10000 0.89 0 19:23 03.09.2021
5934 Clouds 15 1017 73 10000 4.02 225 17:57 03.09.2021
5935 Rain 15 1017 73 10000 3.58 270 16:40 03.09.2021
5936 Rain 15 1016 74 10000 4.02 203 15:20 03.09.2021
5937 Rain 14 1017 81 10000 3.13 225 12:59 03.09.2021
5938 Rain 15 1016 78 10000 3.58 315 10:43 03.09.2021
5939 Rain 14 1015 84 10000 1.79 225 09:19 03.09.2021
5940 Rain 12 1014 88 10000 2.68 0 07:51 03.09.2021
5941 Rain 13 1014 83 10000 0.89 315 05:30 03.09.2021
5942 Rain 13 1014 83 10000 0.89 315 05:30 03.09.2021
5943 Rain 13 1014 83 8000 1.34 135 23:25 02.09.2021
5944 Rain 14 1013 73 10000 1.79 315 21:41 02.09.2021
5945 Clouds 15 1012 71 10000 1.79 338 20:18 02.09.2021
5946 Clear 17 1011 62 10000 4.47 315 17:33 02.09.2021
5947 Clear 17 1010 67 10000 8.23 330 16:19 02.09.2021
5948 Clear 20 1010 40 10000 6.17 320 13:59 02.09.2021
5949 Clear 20 1011 42 10000 5.66 320 12:58 02.09.2021
5950 Clear 20 1011 42 10000 3.09 330 11:40 02.09.2021
5951 Clear 19 1012 49 10000 4.12 20 10:37 02.09.2021
5952 Clear 11 1011 81 10000 1.03 0 08:40 02.09.2021
5953 Clear 5 1011 93 10000 2.06 40 07:20 02.09.2021
5954 Clear 9 1013 81 10000 0.45 0 02:58 02.09.2021
5955 Clear 10 1013 79 10000 1.54 0 02:35 02.09.2021
5956 Clear 9 1014 80 10000 0.89 0 01:34 02.09.2021
5957 Clear 11 1015 72 10000 0.89 315 23:40 01.09.2021
5958 Clear 11 1016 74 10000 1.34 203 22:42 01.09.2021
5959 Clear 11 1017 73 10000 0.89 0 21:41 01.09.2021
5960 Clear 12 1017 73 10000 0.89 0 20:53 01.09.2021
5961 Clear 12 1017 74 10000 0.45 0 19:22 01.09.2021
5962 Clear 15 1018 66 10000 1.34 270 17:47 01.09.2021
5963 Clear 16 1018 60 10000 1.34 225 16:48 01.09.2021
5964 Clear 17 1019 52 10000 1.79 180 15:52 01.09.2021
5965 Clear 17 1020 53 10000 1.34 158 13:40 01.09.2021
5966 Clouds 15 1022 58 10000 1.34 158 11:46 01.09.2021
5967 Clear 13 1022 65 10000 0.89 0 09:25 01.09.2021
5968 Clear 9 1023 76 10000 0.89 0 07:53 01.09.2021
5969 Clear 10 1023 71 10000 2.24 0 05:40 01.09.2021
5970 Clouds 10 1025 79 10000 0.89 0 23:19 31.08.2021
5971 Clouds 11 1026 77 10000 0.89 0 21:40 31.08.2021
5972 Clouds 11 1025 72 10000 1.34 0 19:48 31.08.2021
5973 Clouds 13 1025 67 10000 1.34 0 18:44 31.08.2021
5974 Clouds 14 1024 67 10000 0.89 0 17:39 31.08.2021
5975 Clouds 13 1024 67 10000 0.45 225 17:20 31.08.2021
5976 Clouds 15 1024 58 10000 1.34 180 16:24 31.08.2021
5977 Clouds 15 1023 62 10000 2.68 225 13:46 31.08.2021
5978 Clouds 15 1023 58 10000 3.13 0 11:36 31.08.2021
5979 Clouds 15 1023 66 10000 2.24 248 10:55 31.08.2021
5980 Clouds 13 1022 71 10000 2.24 225 09:45 31.08.2021
5981 Rain 12 1021 78 10000 1.79 0 08:41 31.08.2021
5982 Clouds 11 1021 78 10000 0.45 225 07:38 31.08.2021
5983 Clouds 12 1019 83 10000 0.45 248 05:55 31.08.2021
5984 Rain 13 1018 87 10000 1.79 248 23:35 30.08.2021
5985 Rain 13 1017 93 3000 0.45 315 21:53 30.08.2021
5986 Rain 13 1017 93 3000 0.45 270 21:32 30.08.2021
5987 Rain 13 1017 96 3000 6.17 330 20:32 30.08.2021
5988 Rain 13 1017 93 4000 6.69 340 19:29 30.08.2021
5989 Rain 14 1016 93 3000 2.24 203 18:44 30.08.2021
5990 Rain 14 1016 92 2000 1.79 293 17:47 30.08.2021
5991 Rain 14 1016 89 10000 1.79 315 16:24 30.08.2021
5992 Rain 14 1015 86 7000 2.24 90 15:39 30.08.2021
5993 Rain 14 1016 89 7000 1.34 293 13:46 30.08.2021
5994 Rain 13 1016 89 7000 3.58 68 12:40 30.08.2021
5995 Rain 13 1017 82 9000 2.68 338 10:34 30.08.2021
5996 Clear 9 1017 76 10000 3.6 60 23:29 29.08.2021
5997 Clear 10 1018 66 10000 0.89 338 21:33 29.08.2021
5998 Clear 11 1018 65 10000 0.45 113 20:27 29.08.2021
5999 Clear 12 1019 53 10000 0.89 158 19:20 29.08.2021
6000 Clear 15 1019 40 10000 1.34 158 17:58 29.08.2021
6001 Clear 15 1020 38 10000 7.2 310 15:49 29.08.2021
6002 Clear 16 1021 40 10000 1.34 180 14:21 29.08.2021
6003 Clear 16 1021 42 10000 2.68 23 13:44 29.08.2021
6004 Clear 16 1021 42 10000 2.68 23 13:44 29.08.2021
6005 Clear 16 1023 41 10000 2.68 23 12:40 29.08.2021
6006 Clear 15 1024 46 10000 2.24 0 11:51 29.08.2021
6007 Clear 14 1024 49 10000 1.79 180 11:27 29.08.2021
6008 Clear 13 1025 57 10000 2.57 330 10:46 29.08.2021
6009 Clear 13 1025 59 10000 0.89 113 10:26 29.08.2021
6010 Clear 9 1026 78 10000 0.45 90 09:21 29.08.2021
6011 Clear 5 1030 87 10000 3.09 40 00:40 29.08.2021
6012 Clear 8 1031 71 10000 0.51 0 21:58 28.08.2021
6013 Clear 9 1031 66 10000 0.51 0 20:29 28.08.2021
6014 Clouds 10 1032 66 10000 0.89 225 18:51 28.08.2021
6015 Clouds 11 1032 65 10000 0.45 225 18:21 28.08.2021
6016 Clouds 12 1032 62 10000 0.45 45 17:27 28.08.2021
6017 Clouds 14 1032 48 10000 0.45 45 15:57 28.08.2021
6018 Clouds 13 1031 47 10000 3.09 160 14:42 28.08.2021
6019 Rain 13 1032 57 10000 0.89 180 13:46 28.08.2021
6020 Clouds 13 1033 65 10000 0.45 158 12:44 28.08.2021
6021 Clouds 12 1033 75 10000 0.45 68 11:55 28.08.2021
6022 Rain 10 1033 83 10000 0.89 90 10:43 28.08.2021
6023 Rain 9 1032 90 10000 0.45 23 09:24 28.08.2021
6024 Rain 6 1030 92 10000 0.89 248 07:25 28.08.2021
6025 Rain 8 1024 88 2000 2.24 248 22:42 27.08.2021
6026 Rain 10 1022 76 10000 2.24 293 21:24 27.08.2021
6027 Rain 9 1022 78 10000 1.34 315 20:33 27.08.2021
6028 Rain 10 1020 63 10000 3.13 315 18:58 27.08.2021
6029 Rain 12 1020 60 10000 3.13 225 18:37 27.08.2021
6030 Clouds 13 1019 52 10000 2.24 225 17:20 27.08.2021
6031 Clouds 14 1018 48 10000 2.24 0 15:55 27.08.2021
6032 Clouds 14 1018 48 10000 2.68 0 14:43 27.08.2021
6033 Clouds 13 1018 58 10000 4.02 203 12:54 27.08.2021
6034 Clouds 12 1017 55 10000 2.68 0 11:26 27.08.2021
6035 Clouds 11 1017 62 10000 3.58 0 10:43 27.08.2021
6036 Clouds 10 1016 65 10000 4.02 225 09:47 27.08.2021
6037 Clouds 10 1014 71 10000 2.24 0 08:48 27.08.2021
6038 Rain 9 1013 83 10000 0.89 248 06:58 27.08.2021
6039 Rain 9 1012 86 9000 0.89 270 05:28 27.08.2021
6040 Rain 9 1011 91 10000 0.89 158 00:36 27.08.2021
6041 Rain 10 1011 92 10000 2.06 270 23:19 26.08.2021
6042 Rain 10 1010 92 10000 0.45 248 22:19 26.08.2021
6043 Rain 11 1009 88 6000 2.68 203 20:44 26.08.2021
6044 Rain 11 1008 86 2000 4.47 248 18:53 26.08.2021
6045 Rain 12 1007 90 6000 3.58 0 17:45 26.08.2021
6046 Drizzle 13 1006 91 3000 3.13 225 16:35 26.08.2021
6047 Rain 14 1006 88 3000 3.58 293 15:55 26.08.2021
6048 Rain 15 1005 79 10000 3.13 90 13:53 26.08.2021
6049 Rain 16 1007 75 10000 2.68 113 12:56 26.08.2021
6050 Rain 16 1007 75 10000 3.13 68 12:31 26.08.2021
6051 Rain 16 1009 79 10000 2.68 113 10:21 26.08.2021
6052 Rain 15 1010 78 10000 2.68 0 08:34 26.08.2021
6053 Rain 15 1009 78 10000 3.13 0 07:47 26.08.2021
6054 Clouds 13 1010 88 10000 5.14 350 22:55 25.08.2021
6055 Clouds 15 1010 79 10000 1.34 203 22:36 25.08.2021
6056 Clear 12 1010 90 10000 0.89 293 21:54 25.08.2021
6057 Clear 12 1011 82 10000 0.89 293 20:49 25.08.2021
6058 Clear 12 1011 82 10000 0.45 315 20:28 25.08.2021
6059 Clear 15 1011 71 10000 0.45 180 18:45 25.08.2021
6060 Clear 18 1011 61 10000 0.45 135 17:43 25.08.2021
6061 Clear 19 1011 55 10000 6.69 310 15:45 25.08.2021
6062 Clouds 18 1012 63 10000 6.17 320 14:48 25.08.2021
6063 Clouds 18 1012 63 10000 6.17 320 14:30 25.08.2021
6064 Clouds 18 1014 63 10000 6.69 320 13:25 25.08.2021
6065 Clouds 17 1015 77 10000 6.17 330 11:28 25.08.2021
6066 Clouds 17 1016 75 10000 0.89 68 10:43 25.08.2021
6067 Clouds 15 1017 86 10000 2.57 20 09:58 25.08.2021
6068 Clear 13 1017 92 10000 3.13 8 09:18 25.08.2021
6069 Clouds 12 1017 91 10000 0.45 0 08:30 25.08.2021
6070 Clear 12 1018 91 10000 3.57 6 04:19 25.08.2021
6071 Clouds 14 1019 86 10000 0.89 113 00:53 25.08.2021
6072 Clouds 14 1020 87 10000 1.34 0 22:50 24.08.2021
6073 Rain 14 1020 87 10000 0.45 203 20:48 24.08.2021
6074 Rain 15 1020 83 10000 0.45 0 19:52 24.08.2021
6075 Clouds 16 1019 77 10000 1.34 180 18:51 24.08.2021
6076 Clouds 16 1019 75 10000 0.89 113 17:50 24.08.2021
6077 Clouds 16 1019 80 10000 0.45 0 17:19 24.08.2021
6078 Clouds 17 1018 74 10000 0.89 0 14:34 24.08.2021
6079 Clouds 17 1019 76 10000 0.89 0 13:29 24.08.2021
6080 Clouds 16 1020 82 10000 0.89 0 12:36 24.08.2021
6081 Clouds 15 1020 87 10000 0.45 90 10:48 24.08.2021
6082 Clouds 15 1020 86 10000 1.34 0 10:28 24.08.2021
6083 Rain 14 1019 90 10000 0.89 135 08:59 24.08.2021
6084 Drizzle 14 1018 89 10000 0.45 135 06:55 24.08.2021
6085 Rain 13 1018 90 10000 1.34 0 05:19 24.08.2021
6086 Clouds 13 1018 88 10000 0.45 135 00:48 24.08.2021
6087 Clear 15 1018 83 10000 0.45 113 23:21 23.08.2021
6088 Clouds 14 1018 84 10000 2.24 0 22:40 23.08.2021
6089 Clear 13 1016 90 10000 0.45 203 20:49 23.08.2021
6090 Clouds 14 1016 83 10000 2.57 50 19:27 23.08.2021
6091 Clear 18 1015 59 10000 3.09 320 16:42 23.08.2021
6092 Clear 20 1016 61 10000 0.89 113 15:21 23.08.2021
6093 Clear 18 1016 59 10000 1.54 0 13:26 23.08.2021
6094 Clear 17 1017 60 10000 0.96 229 12:20 23.08.2021
6095 Clear 17 1018 77 10000 0.45 0 10:39 23.08.2021
6096 Clear 13 1018 89 10000 0.45 203 09:51 23.08.2021
6097 Clear 6 1018 100 10000 2.57 50 08:34 23.08.2021
6098 Clear 6 1018 100 10000 1.54 70 06:51 23.08.2021
6099 Clear 6 1018 100 10000 1.54 70 06:33 23.08.2021
6100 Mist 8 1021 100 5000 1.03 70 00:55 23.08.2021
6101 Clear 10 1022 93 10000 1.03 0 22:46 22.08.2021
6102 Clear 10 1022 93 10000 1.03 0 22:28 22.08.2021
6103 Clear 12 1022 82 10000 2.06 80 20:23 22.08.2021
6104 Clear 12 1023 80 10000 1.54 40 19:46 22.08.2021
6105 Clear 17 1023 68 10000 4.63 320 17:26 22.08.2021
6106 Clouds 17 1023 59 10000 3.6 300 15:32 22.08.2021
6107 Clouds 17 1023 63 10000 3.6 300 14:51 22.08.2021
6108 Clouds 19 1025 57 10000 0.89 45 13:37 22.08.2021
6109 Clear 19 1026 63 10000 1.34 68 13:18 22.08.2021
6110 Clear 18 1026 61 10000 1.34 68 12:28 22.08.2021
6111 Clear 17 1027 64 10000 0.89 113 11:43 22.08.2021
6112 Clear 15 1027 69 10000 0.89 90 10:32 22.08.2021
6113 Clear 7 1026 87 10000 1.03 80 08:20 22.08.2021
6114 Clear 6 1026 87 10000 2.57 60 04:58 22.08.2021
6115 Clear 7 1027 87 10000 2.57 40 00:32 22.08.2021
6116 Clear 9 1027 76 10000 1.54 80 22:34 21.08.2021
6117 Clear 11 1027 73 10000 0.89 203 20:56 21.08.2021
6118 Clouds 13 1026 66 10000 1.34 180 18:46 21.08.2021
6119 Clouds 14 1026 68 10000 1.79 0 17:59 21.08.2021
6120 Clouds 15 1025 64 10000 2.68 225 16:55 21.08.2021
6121 Clouds 15 1025 63 10000 3.13 203 16:28 21.08.2021
6122 Clouds 17 1025 55 10000 3.13 225 15:36 21.08.2021
6123 Clouds 17 1025 54 10000 2.68 0 14:47 21.08.2021
6124 Clouds 18 1025 58 10000 2.68 0 13:34 21.08.2021
6125 Clouds 18 1025 54 10000 0.89 225 12:38 21.08.2021
6126 Clouds 13 1025 76 10000 1.79 203 09:31 21.08.2021
6127 Clear 10 1022 87 10000 3.6 210 06:19 21.08.2021
6128 Clear 11 1022 86 10000 0.89 248 23:45 20.08.2021
6129 Clouds 11 1022 82 10000 0.89 225 21:53 20.08.2021
6130 Clouds 14 1021 78 10000 0.89 0 18:27 20.08.2021
6131 Clouds 16 1021 67 10000 1.34 180 16:21 20.08.2021
6132 Clouds 17 1021 45 10000 2.57 160 13:48 20.08.2021
6133 Clear 16 1022 55 10000 2.06 200 11:41 20.08.2021
6134 Clear 14 1022 67 10000 0.51 0 10:55 20.08.2021
6135 Clear 13 1023 76 10000 0.45 180 09:42 20.08.2021
6136 Clear 10 1023 91 10000 0.45 180 08:46 20.08.2021
6137 Clear 8 1021 87 10000 1.03 0 07:56 20.08.2021
6138 Clear 8 1021 88 10000 0.89 225 04:23 20.08.2021
6139 Clear 10 1023 83 10000 0.89 225 00:36 20.08.2021
6140 Clear 12 1023 79 10000 1.34 293 23:20 19.08.2021
6141 Clear 13 1023 78 10000 1.34 270 22:35 19.08.2021
6142 Clear 13 1023 78 10000 1.34 270 22:35 19.08.2021
6143 Clouds 13 1023 81 10000 1.34 0 20:48 19.08.2021
6144 Clouds 13 1022 78 10000 1.34 270 19:44 19.08.2021
6145 Clouds 15 1021 72 10000 1.34 0 17:28 19.08.2021
6146 Clouds 15 1021 71 10000 1.34 225 16:32 19.08.2021
6147 Clouds 17 1022 68 10000 2.24 158 13:58 19.08.2021
6148 Clouds 16 1022 57 10000 3.13 225 12:38 19.08.2021
6149 Clouds 17 1022 55 10000 1.34 180 11:36 19.08.2021
6150 Clouds 15 1022 63 10000 2.24 225 10:24 19.08.2021
6151 Clouds 13 1021 69 10000 0.89 293 09:48 19.08.2021
6152 Clouds 13 1021 70 10000 0.89 248 09:22 19.08.2021
6153 Clouds 12 1020 74 10000 0.89 270 07:40 19.08.2021
6154 Clouds 12 1020 75 10000 1.34 270 02:26 19.08.2021
6155 Clouds 12 1020 75 10000 1.79 270 01:55 19.08.2021
6156 Clouds 13 1020 77 10000 2.24 0 22:56 18.08.2021
6157 Clouds 13 1020 77 10000 2.24 0 22:56 18.08.2021
6158 Clouds 13 1020 81 10000 2.24 293 21:41 18.08.2021
6159 Rain 12 1019 87 10000 1.79 225 20:33 18.08.2021
6160 Clouds 12 1019 92 10000 1.79 293 19:51 18.08.2021
6161 Rain 13 1018 89 10000 2.24 293 18:55 18.08.2021
6162 Clouds 13 1018 89 10000 2.24 225 18:32 18.08.2021
6163 Rain 15 1017 84 10000 0.45 293 16:33 18.08.2021
6164 Rain 14 1017 86 10000 5.66 180 15:39 18.08.2021
6165 Rain 14 1017 84 10000 0.45 270 15:20 18.08.2021
6166 Rain 16 1017 77 10000 0.45 45 12:44 18.08.2021
6167 Rain 16 1017 72 10000 0.51 0 12:25 18.08.2021
6168 Rain 13 1017 94 10000 1.03 0 10:50 18.08.2021
6169 Rain 13 1016 92 10000 1.79 315 07:48 18.08.2021
6170 Clouds 13 1017 93 10000 0.45 135 00:45 18.08.2021
6171 Rain 14 1018 90 10000 0.45 293 22:31 17.08.2021
6172 Clouds 13 1019 92 10000 0.45 225 21:29 17.08.2021
6173 Clouds 14 1019 88 10000 0.45 225 20:45 17.08.2021
6174 Clouds 14 1018 84 10000 0.45 90 19:19 17.08.2021
6175 Clouds 16 1018 75 10000 1.34 225 17:33 17.08.2021
6176 Clouds 16 1017 73 10000 0.89 225 16:46 17.08.2021
6177 Clouds 17 1017 71 10000 2.68 248 15:40 17.08.2021
6178 Clouds 17 1017 70 10000 1.79 0 14:39 17.08.2021
6179 Clouds 16 1018 73 10000 2.68 225 12:35 17.08.2021
6180 Rain 14 1017 84 10000 1.34 90 09:22 17.08.2021
6181 Rain 13 1016 86 10000 2.24 90 07:54 17.08.2021
6182 Rain 13 1015 83 10000 2.68 90 05:48 17.08.2021
6183 Clouds 14 1014 87 10000 2.24 68 23:18 16.08.2021
6184 Clouds 14 1014 82 10000 3.58 45 22:47 16.08.2021
6185 Clouds 14 1014 81 10000 3.13 45 22:28 16.08.2021
6186 Clouds 14 1013 83 10000 3.13 338 21:36 16.08.2021
6187 Clouds 15 1013 81 10000 2.68 315 20:50 16.08.2021
6188 Clouds 15 1012 80 10000 1.79 203 19:25 16.08.2021
6189 Clouds 17 1011 69 10000 1.34 338 18:25 16.08.2021
6190 Clear 18 1011 71 10000 4.02 338 17:52 16.08.2021
6191 Clear 19 1010 56 10000 8.75 300 15:53 16.08.2021
6192 Clear 25 1010 36 10000 8.23 300 14:57 16.08.2021
6193 Clear 26 1010 34 10000 3.09 340 13:39 16.08.2021
6194 Clear 26 1011 34 10000 3.6 290 12:56 16.08.2021
6195 Clear 23 1012 33 10000 1.54 0 11:29 16.08.2021
6196 Clear 13 1013 76 10000 1.54 100 08:54 16.08.2021
6197 Clear 9 1014 81 10000 1.03 110 07:45 16.08.2021
6198 Clear 9 1014 81 10000 1.03 110 07:26 16.08.2021
6199 Clear 9 1017 87 10000 1.54 60 02:45 16.08.2021
6200 Clear 11 1018 87 10000 0.51 140 23:32 15.08.2021
6201 Clear 11 1019 87 10000 2.57 150 20:51 15.08.2021
6202 Clear 13 1020 73 10000 0.89 315 18:48 15.08.2021
6203 Clear 14 1020 66 10000 0.45 315 18:20 15.08.2021
6204 Clear 15 1020 65 10000 0.45 315 17:42 15.08.2021
6205 Clear 21 1021 47 10000 0.89 315 16:28 15.08.2021
6206 Clear 21 1020 37 10000 3.09 150 15:28 15.08.2021
6207 Clear 22 1021 35 10000 2.57 190 14:30 15.08.2021
6208 Clear 18 1023 42 10000 1.03 0 11:54 15.08.2021
6209 Clear 14 1023 67 10000 1.03 0 09:41 15.08.2021
6210 Clear 6 1022 87 10000 1.03 0 06:31 15.08.2021
6211 Clear 9 1025 80 10000 0.45 203 00:43 15.08.2021
6212 Clear 10 1025 79 10000 0.45 270 23:25 14.08.2021
6213 Clear 12 1027 69 10000 0.89 270 21:21 14.08.2021
6214 Clear 12 1026 71 10000 0.89 0 19:44 14.08.2021
6215 Clear 12 1026 69 10000 0.45 203 19:25 14.08.2021
6216 Clear 14 1026 64 10000 0.89 248 17:31 14.08.2021
6217 Clear 20 1026 28 10000 4.12 190 15:58 14.08.2021
6218 Clear 19 1027 34 10000 4.63 200 14:32 14.08.2021
6219 Clear 17 1029 36 10000 4.12 230 12:41 14.08.2021
6220 Clear 16 1031 56 10000 1.79 180 10:54 14.08.2021
6221 Clear 8 1031 86 10000 0.89 248 07:49 14.08.2021
6222 Clear 11 1035 73 10000 1.34 270 23:54 13.08.2021
6223 Clear 11 1035 72 10000 0.89 0 23:18 13.08.2021
6224 Clear 12 1035 69 10000 1.79 270 21:46 13.08.2021
6225 Clear 14 1035 61 10000 0.89 293 18:54 13.08.2021
6226 Clear 14 1035 64 10000 0.45 270 18:35 13.08.2021
6227 Clear 16 1035 47 10000 1.79 0 16:35 13.08.2021
6228 Clouds 19 1035 43 10000 1.34 68 15:41 13.08.2021
6229 Clear 16 1038 50 10000 1.34 180 11:21 13.08.2021
6230 Clear 15 1038 55 10000 1.79 203 10:37 13.08.2021
6231 Clear 11 1037 70 10000 1.79 315 08:37 13.08.2021
6232 Clear 10 1036 74 10000 1.34 293 07:48 13.08.2021
6233 Clear 9 1034 76 10000 0.89 0 04:59 13.08.2021
6234 Clouds 10 1034 80 10000 0.89 270 23:57 12.08.2021
6235 Rain 10 1032 83 10000 0.89 293 21:34 12.08.2021
6236 Clouds 11 1032 77 10000 1.34 293 20:25 12.08.2021
6237 Clouds 11 1031 75 10000 0.89 293 19:49 12.08.2021
6238 Clouds 13 1029 71 10000 0.89 0 17:55 12.08.2021
6239 Clouds 13 1028 64 10000 1.79 0 16:50 12.08.2021
6240 Clouds 14 1028 59 10000 0.89 68 15:34 12.08.2021
6241 Clouds 14 1028 60 10000 1.79 180 13:39 12.08.2021
6242 Clouds 14 1028 56 10000 2.68 180 11:33 12.08.2021
6243 Rain 10 1025 85 10000 1.79 0 08:30 12.08.2021
6244 Rain 10 1023 89 10000 1.79 270 06:41 12.08.2021
6245 Rain 12 1019 92 6000 2.24 203 23:20 11.08.2021
6246 Rain 13 1017 87 10000 2.68 270 21:37 11.08.2021
6247 Rain 15 1016 74 10000 1.34 293 18:48 11.08.2021
6248 Clouds 15 1016 73 10000 2.68 293 18:24 11.08.2021
6249 Clouds 16 1015 63 10000 3.58 270 15:21 11.08.2021
6250 Clouds 17 1015 59 10000 1.79 293 14:37 11.08.2021
6251 Clouds 17 1016 64 10000 1.34 225 12:37 11.08.2021
6252 Clouds 17 1016 69 10000 0.89 90 11:57 11.08.2021
6253 Clouds 16 1016 71 10000 0.45 23 11:39 11.08.2021
6254 Clouds 15 1016 73 10000 0.45 113 11:18 11.08.2021
6255 Clouds 15 1016 73 10000 0.45 113 11:18 11.08.2021
6256 Clouds 7 1015 100 6000 1.03 100 08:50 11.08.2021
6257 Clear 7 1017 93 10000 0.51 0 02:40 11.08.2021
6258 Clear 10 1020 87 10000 1.03 190 22:33 10.08.2021
6259 Clear 11 1021 82 10000 3.09 200 21:38 10.08.2021
6260 Clear 10 1022 89 10000 0.45 248 20:49 10.08.2021
6261 Clear 10 1023 87 10000 0.45 270 19:25 10.08.2021
6262 Clear 15 1024 74 10000 0.45 180 16:51 10.08.2021
6263 Clear 18 1026 57 10000 1.34 180 15:22 10.08.2021
6264 Clear 17 1026 51 10000 4.12 170 14:39 10.08.2021
6265 Clear 15 1030 66 10000 0.45 113 10:47 10.08.2021
6266 Clear 7 1030 87 10000 1.03 0 08:41 10.08.2021
6267 Clear 5 1030 93 10000 0.51 0 05:24 10.08.2021
6268 Clear 9 1033 81 10000 2.06 230 00:37 10.08.2021
6269 Clear 9 1032 76 10000 1.54 0 23:24 09.08.2021
6270 Clear 9 1032 81 10000 3.09 170 21:53 09.08.2021
6271 Clear 9 1032 81 10000 3.09 170 21:19 09.08.2021
6272 Clouds 13 1032 68 10000 0.89 293 17:57 09.08.2021
6273 Clouds 15 1032 62 10000 0.89 180 15:35 09.08.2021
6274 Clouds 15 1032 65 10000 1.79 180 14:37 09.08.2021
6275 Clouds 15 1032 63 10000 1.79 293 13:29 09.08.2021
6276 Rain 15 1031 64 10000 2.24 203 11:48 09.08.2021
6277 Rain 12 1029 77 10000 1.34 293 09:41 09.08.2021
6278 Clouds 11 1028 78 10000 0.89 203 08:18 09.08.2021
6279 Rain 14 1017 90 10000 2.24 315 21:32 08.08.2021
6280 Rain 14 1016 91 6000 3.13 180 20:36 08.08.2021
6281 Rain 16 1015 73 10000 2.68 45 17:36 08.08.2021
6282 Clouds 16 1015 71 10000 4.02 315 16:38 08.08.2021
6283 Rain 16 1015 74 10000 4.02 293 14:34 08.08.2021
6284 Clouds 16 1016 73 10000 3.13 0 12:47 08.08.2021
6285 Mist 13 1016 88 4000 4.47 315 10:37 08.08.2021
6286 Fog 8 1013 100 100 0.51 0 06:42 08.08.2021
6287 Fog 10 1014 100 600 1.54 0 03:40 08.08.2021
6288 Clouds 10 1015 100 6000 1.54 0 00:25 08.08.2021
6289 Fog 11 1017 100 200 2.57 170 21:47 07.08.2021
6290 Fog 11 1017 100 200 2.57 170 21:47 07.08.2021
6291 Fog 11 1017 100 200 2.57 170 21:47 07.08.2021
6292 Fog 11 1017 100 200 2.57 170 21:47 07.08.2021
6293 Fog 11 1017 100 200 2.57 170 21:47 07.08.2021
6294 Fog 11 1017 100 200 2.57 170 21:19 07.08.2021
6295 Fog 13 1018 89 800 0.89 203 18:29 07.08.2021
6296 Clouds 16 1018 76 6000 0.89 203 16:52 07.08.2021
6297 Clouds 19 1019 67 8000 0.89 180 15:37 07.08.2021
6298 Clouds 18 1020 78 6000 0.45 113 13:53 07.08.2021
6299 Fog 11 1021 100 900 0.51 0 11:41 07.08.2021
6300 Fog 8 1022 100 100 0.51 0 09:35 07.08.2021
6301 Fog 10 1021 100 100 1.03 0 04:56 07.08.2021
6302 Fog 11 1021 89 100 1.54 110 23:21 06.08.2021
6303 Mist 13 1021 79 4000 1.03 150 20:39 06.08.2021
6304 Mist 13 1021 79 4000 1.03 150 20:18 06.08.2021
6305 Clear 13 1022 78 10000 0.45 270 19:45 06.08.2021
6306 Clear 16 1021 68 10000 2.57 170 17:51 06.08.2021
6307 Clear 20 1020 55 10000 1.54 0 13:33 06.08.2021
6308 Clear 13 1022 93 10000 1.03 40 09:57 06.08.2021
6309 Clear 9 1021 99 10000 2.06 60 08:29 06.08.2021
6310 Mist 13 1021 86 3000 3.09 250 00:35 06.08.2021
6311 Clear 13 1022 84 7000 0.45 225 23:18 05.08.2021
6312 Clear 14 1022 86 10000 0.89 225 20:48 05.08.2021
6313 Clear 15 1022 87 10000 1.34 248 19:53 05.08.2021
6314 Clouds 16 1022 74 10000 2.24 225 18:26 05.08.2021
6315 Clouds 19 1021 51 10000 2.06 300 15:43 05.08.2021
6316 Clouds 18 1023 70 10000 1.54 0 12:48 05.08.2021
6317 Fog 13 1023 93 500 0.89 248 08:52 05.08.2021
6318 Fog 13 1023 94 500 0.89 225 07:50 05.08.2021
6319 Clouds 14 1023 92 10000 2.24 248 02:19 05.08.2021
6320 Clouds 14 1023 89 10000 1.79 293 22:21 04.08.2021
6321 Clouds 15 1023 88 10000 1.34 270 21:26 04.08.2021
6322 Clouds 15 1022 88 10000 2.24 270 19:24 04.08.2021
6323 Clouds 16 1021 73 10000 1.34 203 17:22 04.08.2021
6324 Clouds 17 1021 68 10000 1.34 0 14:45 04.08.2021
6325 Clouds 16 1022 74 10000 1.34 248 12:21 04.08.2021
6326 Clear 12 1020 90 10000 0.89 248 07:38 04.08.2021
6327 Clouds 15 1019 78 10000 0.45 158 20:58 03.08.2021
6328 Clouds 15 1019 77 10000 0.45 270 20:26 03.08.2021
6329 Clouds 15 1018 78 10000 0.45 90 18:42 03.08.2021
6330 Clear 17 1017 69 10000 4.12 160 16:58 03.08.2021
6331 Clear 21 1016 57 10000 1.54 0 13:57 03.08.2021
6332 Clear 17 1017 73 10000 0.45 45 10:57 03.08.2021
6333 Clear 13 1016 92 10000 0.51 0 09:42 03.08.2021
6334 Fog 12 1019 94 800 1.03 110 22:58 02.08.2021
6335 Clear 19 1021 59 10000 0.45 248 16:40 02.08.2021
6336 Clear 20 1021 49 10000 2.57 190 15:33 02.08.2021
6337 Clear 20 1024 52 10000 3.6 160 12:40 02.08.2021
6338 Clear 19 1024 67 10000 3.09 190 11:57 02.08.2021
6339 Clear 16 1026 82 10000 1.79 180 10:25 02.08.2021
6340 Clear 14 1025 89 10000 2.24 225 06:22 02.08.2021
6341 Clouds 14 1027 71 10000 0.45 270 19:21 01.08.2021
6342 Clouds 18 1025 53 10000 1.34 315 15:52 01.08.2021
6343 Clouds 16 1025 73 10000 2.57 350 11:39 01.08.2021
6344 Clouds 16 1025 73 10000 2.57 350 11:39 01.08.2021
6345 Clouds 14 1026 87 10000 0.45 90 09:50 01.08.2021
6346 Clouds 12 1024 93 8000 1.03 0 03:49 01.08.2021
6347 Clouds 13 1025 92 10000 0.45 315 23:37 31.07.2021
6348 Mist 13 1025 87 2000 0.89 315 21:45 31.07.2021
6349 Clear 15 1025 87 10000 0.45 225 18:20 31.07.2021
6350 Clear 19 1025 61 10000 3.6 160 16:37 31.07.2021
6351 Clear 21 1026 59 10000 0.45 113 13:31 31.07.2021
6352 Clear 15 1027 92 10000 0.45 45 10:28 31.07.2021
6353 Mist 10 1027 95 1500 1.54 350 02:48 31.07.2021
6354 Clear 13 1030 89 10000 2.06 140 20:54 30.07.2021
6355 Clear 13 1030 89 10000 2.06 140 20:22 30.07.2021
6356 Clouds 19 1029 59 10000 1.05 307 14:18 30.07.2021
6357 Clouds 13 1029 86 10000 0.89 45 18:53 29.07.2021
6358 Rain 12 1024 89 7000 1.79 315 07:41 29.07.2021
6359 Rain 12 1023 79 8000 1.79 90 04:51 29.07.2021
6360 Clouds 12 1023 69 10000 0.89 45 22:21 28.07.2021
6361 Clouds 14 1021 57 10000 1.79 225 17:47 28.07.2021
6362 Clouds 15 1021 61 10000 1.34 158 16:54 28.07.2021
6363 Clouds 11 1022 88 7000 0.45 203 09:39 28.07.2021
6364 Rain 12 1020 84 10000 1.79 248 23:45 27.07.2021
6365 Rain 13 1019 87 10000 2.68 248 21:31 27.07.2021
6366 Clouds 17 1015 63 10000 1.34 68 14:53 27.07.2021
6367 Clouds 17 1016 67 10000 2.68 225 12:58 27.07.2021
6368 Clouds 14 1016 82 10000 2.24 180 10:20 27.07.2021
6369 Clear 16 1013 68 10000 4.63 330 20:43 26.07.2021
6370 Clear 24 1014 21 10000 7.72 360 15:32 26.07.2021
6371 Clear 12 1018 55 10000 2.06 10 08:28 26.07.2021
6372 Clear 12 1018 55 10000 2.06 10 08:28 26.07.2021
6373 Clear 13 1022 54 10000 0.51 130 20:57 25.07.2021
6374 Clear 17 1022 42 10000 2.57 140 18:45 25.07.2021
6375 Clear 21 1024 46 10000 0.89 293 16:22 25.07.2021
6376 Clear 16 1027 46 10000 0.51 0 10:57 25.07.2021
6377 Clear 8 1026 65 10000 2.06 90 08:20 25.07.2021
6378 Mist 9 1027 77 3000 1.03 0 02:34 25.07.2021
6379 Clear 11 1028 69 10000 1.54 130 20:20 24.07.2021
6380 Clear 20 1027 30 10000 2.06 0 15:50 24.07.2021
6381 Clear 6 1031 82 10000 1.54 40 04:21 24.07.2021
6382 Clear 16 1035 33 10000 1.54 0 14:46 23.07.2021
6383 Clear 15 1036 37 10000 1.54 0 12:43 23.07.2021
6384 Clear 7 1037 71 10000 2.24 270 07:47 23.07.2021
6385 Clear 8 1037 66 10000 5.14 160 22:44 22.07.2021
6386 Clouds 13 1038 65 10000 0.45 270 13:59 22.07.2021
6387 Rain 10 1037 84 10000 0.89 225 09:58 22.07.2021
6388 Rain 8 1036 77 10000 0.89 270 08:23 22.07.2021
6389 Rain 8 1036 77 10000 0.89 270 08:23 22.07.2021
6390 Rain 8 1034 83 10000 0.89 248 22:33 21.07.2021
6391 Rain 9 1033 72 10000 2.68 180 21:30 21.07.2021
6392 Rain 11 1028 78 10000 3.13 248 15:20 21.07.2021
6393 Rain 11 1027 88 10000 2.68 248 09:50 21.07.2021
6394 Rain 11 1027 88 10000 1.34 158 09:18 21.07.2021
6395 Rain 9 1028 87 10000 1.34 293 23:55 20.07.2021
6396 Clouds 12 1026 67 10000 0.89 225 17:46 20.07.2021
6397 Rain 13 1026 66 10000 1.34 203 16:33 20.07.2021
6398 Rain 13 1025 67 10000 1.34 225 15:26 20.07.2021
6399 Rain 13 1026 78 10000 1.34 225 11:18 20.07.2021
6400 Rain 11 1024 86 10000 1.79 225 07:19 20.07.2021
6401 Rain 11 1022 88 10000 1.34 293 00:21 20.07.2021
6402 Drizzle 13 1021 92 4000 1.79 225 15:39 19.07.2021
6403 Rain 18 1021 70 10000 0.89 135 12:37 19.07.2021
6404 Clear 16 1019 66 10000 3.6 20 20:44 18.07.2021
6405 Clear 23 1019 8 10000 8.23 350 15:20 18.07.2021
6406 Clear 14 1024 79 10000 0.45 135 10:19 18.07.2021
6407 Clear 13 1028 92 10000 0.89 248 22:28 17.07.2021
6408 Clouds 13 1028 91 6000 3.6 220 21:55 17.07.2021
6409 Clouds 13 1028 94 6000 0.45 270 21:37 17.07.2021
6410 Clouds 19 1028 64 10000 3.09 180 12:34 17.07.2021
6411 Clear 18 1029 72 10000 0.45 113 11:29 17.07.2021
6412 Clear 5 1026 100 10000 1.54 20 04:47 17.07.2021
6413 Clear 5 1026 100 10000 1.54 20 04:47 17.07.2021
6414 Clear 21 1024 29 10000 2.06 280 14:24 16.07.2021
6415 Clear 17 1026 41 10000 0.51 0 11:42 16.07.2021
6416 Clear 5 1026 81 10000 2.57 60 06:59 16.07.2021
6417 Clear 13 1029 64 10000 3.09 330 17:53 15.07.2021
6418 Clouds 17 1029 55 10000 4.12 330 13:49 15.07.2021
6419 Clear 8 1028 69 10000 4.63 30 08:44 15.07.2021
6420 Clouds 8 1029 90 10000 2.54 6 00:19 15.07.2021
6421 Clouds 14 1031 53 10000 0.45 158 16:48 14.07.2021
6422 Clouds 13 1033 61 10000 0.45 113 11:59 14.07.2021
6423 Clouds 7 1033 83 10000 0.89 248 01:18 14.07.2021
6424 Clouds 9 1032 87 10000 3.09 40 20:21 13.07.2021
6425 Clouds 9 1031 87 10000 1.54 0 19:42 13.07.2021
6426 Clouds 9 1032 87 10000 1.54 0 19:21 13.07.2021
6427 Clouds 10 1032 84 10000 2.57 50 18:43 13.07.2021
6428 Clouds 11 1032 69 10000 0.89 248 18:23 13.07.2021
6429 Clouds 13 1031 68 10000 2.24 180 14:33 13.07.2021
6430 Rain 9 1030 77 10000 0.89 225 09:38 13.07.2021
6431 Rain 9 1022 70 10000 3.58 270 22:45 12.07.2021
6432 Rain 12 1016 62 10000 4.47 225 17:28 12.07.2021
6433 Rain 11 1014 79 10000 2.24 270 15:20 12.07.2021
6434 Clouds 11 1015 82 10000 5.66 50 00:31 12.07.2021
6435 Clouds 12 1017 82 10000 0.89 0 20:53 11.07.2021
6436 Clouds 17 1017 59 10000 6.69 300 15:30 11.07.2021
6437 Clear 9 1022 81 10000 2.06 60 01:54 11.07.2021
6438 Clear 15 1022 66 10000 2.24 180 17:19 10.07.2021
6439 Clouds 10 1024 76 10000 1.34 45 07:52 10.07.2021
6440 Clouds 11 1024 78 10000 0.89 68 02:27 10.07.2021
6441 Clouds 13 1024 72 10000 1.34 90 19:57 09.07.2021
6442 Clouds 15 1025 60 10000 1.79 90 14:51 09.07.2021
6443 Clouds 15 1026 72 10000 1.34 158 12:48 09.07.2021
6444 Rain 11 1023 82 10000 3.13 315 23:55 08.07.2021
6445 Clouds 12 1022 68 10000 3.58 293 22:52 08.07.2021
6446 Clouds 12 1019 79 10000 1.34 248 20:20 08.07.2021
6447 Rain 12 1016 83 10000 3.58 293 18:23 08.07.2021
6448 Rain 15 1008 72 10000 3.58 180 13:50 08.07.2021
6449 Rain 15 1008 71 10000 2.68 135 13:30 08.07.2021
6450 Rain 15 1008 70 10000 3.58 180 13:30 08.07.2021
6451 Rain 15 1010 78 10000 3.58 90 12:35 08.07.2021
6452 Rain 14 1011 78 10000 2.24 135 11:19 08.07.2021
6453 Clouds 12 1011 86 10000 1.34 203 06:52 08.07.2021
6454 Clear 10 1011 94 10000 5.14 10 03:52 08.07.2021
6455 Clear 11 1013 76 10000 4.12 360 22:59 07.07.2021
6456 Clear 11 1013 78 10000 4.12 360 22:20 07.07.2021
6457 Clear 12 1013 89 10000 4.12 360 21:45 07.07.2021
6458 Clear 12 1013 89 10000 4.12 360 21:24 07.07.2021
6459 Clear 12 1013 81 10000 0.51 0 19:59 07.07.2021
6460 Clear 12 1013 80 10000 0.51 0 19:30 07.07.2021
6461 Clear 12 1013 80 10000 0.51 0 19:30 07.07.2021
6462 Clear 12 1013 80 10000 0.51 0 19:30 07.07.2021
6463 Clear 14 1013 70 10000 1.03 160 18:55 07.07.2021
6464 Clear 19 1015 50 10000 0.45 293 15:55 07.07.2021
6465 Clear 20 1016 45 10000 1.03 0 14:58 07.07.2021
6466 Clear 15 1020 65 10000 2.06 190 11:24 07.07.2021
6467 Clear 9 1020 87 10000 0.89 270 07:23 07.07.2021
6468 Clear 11 1021 83 10000 1.34 248 05:51 07.07.2021
6469 Clear 11 1022 85 10000 1.34 248 02:55 07.07.2021
6470 Clear 12 1022 83 10000 4.12 200 20:53 06.07.2021
6471 Clear 12 1023 83 10000 0.89 293 18:57 06.07.2021
6472 Clear 12 1023 82 10000 0.89 293 18:37 06.07.2021
6473 Clouds 14 1023 75 10000 0.45 248 17:43 06.07.2021
6474 Clear 16 1024 67 10000 1.34 180 13:35 06.07.2021
6475 Clear 11 1025 83 10000 0.89 293 09:44 06.07.2021
6476 Fog 8 1024 93 6000 0.51 0 08:36 06.07.2021
6477 Clear 8 1024 92 10000 1.03 170 07:39 06.07.2021
6478 Clear 11 1025 87 10000 4.12 230 01:59 06.07.2021
6479 Clear 11 1026 86 10000 4.12 230 23:57 05.07.2021
6480 Clear 11 1027 83 10000 2.06 220 21:58 05.07.2021
6481 Clear 16 1027 49 10000 5.14 180 17:21 05.07.2021
6482 Clouds 18 1030 52 10000 0.45 180 13:30 05.07.2021
6483 Rain 9 1031 92 10000 0.45 248 05:59 05.07.2021
6484 Rain 10 1030 90 10000 4.12 50 05:40 05.07.2021
6485 Clouds 10 1030 92 10000 3.6 40 00:32 05.07.2021
6486 Clouds 11 1029 87 10000 2.57 360 21:19 04.07.2021
6487 Clouds 13 1029 69 10000 0.45 248 18:25 04.07.2021
6488 Clouds 15 1027 58 10000 2.24 293 15:22 04.07.2021
6489 Rain 15 1028 69 10000 1.34 293 11:26 04.07.2021
6490 Clouds 11 1026 91 10000 0.45 180 08:38 04.07.2021
6491 Rain 13 1023 73 10000 2.06 50 23:29 03.07.2021
6492 Rain 14 1022 70 10000 4.02 315 21:57 03.07.2021
6493 Rain 16 1017 76 10000 3.13 225 13:21 03.07.2021
6494 Rain 16 1017 78 10000 2.68 248 12:37 03.07.2021
6495 Rain 14 1015 89 4000 1.34 158 09:28 03.07.2021
6496 Rain 14 1015 89 2500 2.68 248 08:45 03.07.2021
6497 Clouds 15 1015 77 10000 3.13 90 00:41 03.07.2021
6498 Clouds 16 1020 68 10000 1.79 0 11:33 02.07.2021
6499 Clouds 15 1020 74 10000 2.24 68 07:29 02.07.2021
6500 Clouds 14 1021 83 10000 1.79 45 03:57 02.07.2021
6501 Clouds 14 1022 88 10000 7.2 360 22:32 01.07.2021
6502 Rain 15 1022 86 9000 1.34 68 21:39 01.07.2021
6503 Rain 15 1022 87 7000 1.79 135 20:32 01.07.2021
6504 Clouds 15 1022 80 10000 1.79 158 19:21 01.07.2021
6505 Clouds 15 1021 78 9000 1.34 158 18:48 01.07.2021
6506 Rain 15 1021 75 10000 0.89 113 17:48 01.07.2021
6507 Clouds 16 1022 72 10000 0.45 158 16:49 01.07.2021
6508 Rain 17 1021 68 10000 1.79 203 15:24 01.07.2021
6509 Clouds 16 1021 70 10000 1.79 203 14:21 01.07.2021
6510 Rain 15 1022 79 10000 3.58 225 10:55 01.07.2021
6511 Rain 13 1017 88 10000 1.79 0 05:32 01.07.2021
6512 Rain 14 1012 90 6000 2.68 0 23:19 30.06.2021
6513 Rain 14 1012 89 10000 1.34 158 21:59 30.06.2021
6514 Rain 14 1012 89 10000 3.13 68 21:22 30.06.2021
6515 Rain 14 1012 87 10000 2.24 158 20:26 30.06.2021
6516 Rain 15 1012 80 10000 2.68 135 18:54 30.06.2021
6517 Rain 16 1013 67 10000 3.13 0 14:25 30.06.2021
6518 Rain 16 1013 67 10000 3.13 0 14:25 30.06.2021
6519 Rain 14 1013 84 10000 3.13 158 12:59 30.06.2021
6520 Clouds 12 1013 86 10000 8.75 350 07:57 30.06.2021
6521 Rain 14 1000 92 10000 1.79 158 21:29 29.06.2021
6522 Rain 12 1004 91 4000 0.45 315 18:36 29.06.2021
6523 Rain 12 1004 91 7000 0.45 315 18:36 29.06.2021
6524 Rain 12 1005 90 10000 0.45 293 17:30 29.06.2021
6525 Rain 11 1006 91 10000 0.45 293 15:52 29.06.2021
6526 Rain 11 1006 91 10000 1.34 248 14:58 29.06.2021
6527 Rain 11 1008 92 6000 0.45 270 13:30 29.06.2021
6528 Rain 10 1011 93 10000 1.34 248 12:19 29.06.2021
6529 Clouds 11 1015 92 10000 1.54 20 00:41 29.06.2021
6530 Clouds 11 1016 91 10000 2.06 40 21:47 28.06.2021
6531 Rain 11 1015 94 10000 1.54 20 19:40 28.06.2021
6532 Rain 11 1014 89 10000 2.06 10 17:29 28.06.2021
6533 Rain 12 1013 88 6000 0.45 270 15:22 28.06.2021
6534 Rain 12 1012 91 8000 0.45 0 12:58 28.06.2021
6535 Rain 13 1008 94 2000 0.89 180 07:50 28.06.2021
6536 Rain 13 1008 85 10000 2.68 225 23:45 27.06.2021
6537 Rain 14 1008 76 10000 0.89 248 21:51 27.06.2021
6538 Clouds 15 1008 73 10000 2.24 0 19:40 27.06.2021
6539 Clouds 16 1007 66 10000 2.24 180 16:51 27.06.2021
6540 Clouds 18 1009 46 10000 2.68 45 13:31 27.06.2021
6541 Clouds 12 1011 62 10000 7.2 20 07:38 27.06.2021
6542 Clouds 14 1016 68 10000 1.79 113 23:27 26.06.2021
6543 Rain 14 1017 74 10000 0.45 248 21:19 26.06.2021
6544 Rain 14 1016 72 10000 0.89 203 20:40 26.06.2021
6545 Clouds 14 1017 73 10000 1.34 180 19:25 26.06.2021
6546 Clouds 16 1017 61 10000 1.34 158 15:29 26.06.2021
6547 Rain 16 1018 59 10000 0.45 270 12:29 26.06.2021
6548 Clouds 14 1017 61 10000 1.34 293 09:29 26.06.2021
6549 Rain 14 1015 69 10000 4.02 248 05:41 26.06.2021
6550 Rain 15 1014 77 10000 3.58 248 21:21 25.06.2021
6551 Rain 16 1013 76 9000 4.02 0 19:44 25.06.2021
6552 Rain 15 1011 82 7000 2.24 270 17:53 25.06.2021
6553 Rain 15 1011 85 2500 3.58 203 16:51 25.06.2021
6554 Rain 16 1010 84 10000 4.47 0 14:59 25.06.2021
6555 Rain 15 1009 89 10000 2.24 158 13:18 25.06.2021
6556 Rain 13 1013 66 10000 3.13 90 09:35 25.06.2021
6557 Clear 11 1012 71 10000 6.69 40 07:21 25.06.2021
6558 Clear 8 1014 87 10000 2.57 360 03:55 25.06.2021
6559 Clear 9 1018 86 10000 0.51 0 22:48 24.06.2021
6560 Clear 10 1018 80 10000 1.03 0 21:48 24.06.2021
6561 Clear 11 1019 79 10000 2.06 220 20:41 24.06.2021
6562 Clear 12 1019 62 10000 2.06 160 18:51 24.06.2021
6563 Clear 16 1019 42 10000 3.09 160 16:53 24.06.2021
6564 Clear 18 1020 45 10000 0.89 293 15:22 24.06.2021
6565 Clear 17 1020 48 10000 3.09 190 14:50 24.06.2021
6566 Clear 16 1023 57 10000 0.45 203 12:25 24.06.2021
6567 Clear 11 1023 86 10000 1.03 170 09:36 24.06.2021
6568 Clear 9 1022 94 10000 0.51 0 08:25 24.06.2021
6569 Fog 7 1021 100 350 0.51 0 05:50 24.06.2021
6570 Clouds 11 1021 86 10000 1.03 240 23:31 23.06.2021
6571 Clouds 12 1022 82 10000 1.03 20 21:47 23.06.2021
6572 Rain 13 1021 78 10000 1.03 0 20:58 23.06.2021
6573 Clouds 13 1022 79 10000 0.45 225 19:22 23.06.2021
6574 Clouds 13 1021 89 10000 0.45 225 18:27 23.06.2021
6575 Clouds 15 1020 70 10000 1.34 248 16:51 23.06.2021
6576 Rain 14 1020 78 4000 1.34 203 14:30 23.06.2021
6577 Rain 16 1020 79 10000 0.89 293 12:29 23.06.2021
6578 Rain 15 1020 89 10000 0.89 0 10:40 23.06.2021
6579 Rain 13 1018 90 10000 3.09 350 09:20 23.06.2021
6580 Rain 13 1017 90 10000 6.17 340 08:38 23.06.2021
6581 Rain 14 1018 86 10000 3.13 293 07:48 23.06.2021
6582 Rain 15 1017 83 10000 2.24 248 04:34 23.06.2021
6583 Rain 15 1017 83 10000 2.68 203 00:47 23.06.2021
6584 Rain 14 1016 84 9000 4.63 350 23:58 22.06.2021
6585 Rain 15 1017 85 10000 2.68 270 22:47 22.06.2021
6586 Rain 14 1016 87 10000 6.69 330 22:29 22.06.2021
6587 Rain 15 1017 84 10000 2.24 225 21:39 22.06.2021
6588 Rain 15 1016 81 10000 2.68 0 20:18 22.06.2021
6589 Rain 16 1015 77 10000 5.66 330 18:58 22.06.2021
6590 Rain 16 1016 77 10000 2.68 270 18:27 22.06.2021
6591 Rain 16 1015 76 10000 1.79 0 17:23 22.06.2021
6592 Rain 17 1015 74 10000 3.58 225 16:39 22.06.2021
6593 Rain 17 1013 72 10000 11.32 330 14:49 22.06.2021
6594 Rain 18 1014 68 10000 3.58 203 14:21 22.06.2021
6595 Rain 17 1015 75 10000 3.13 68 13:18 22.06.2021
6596 Rain 16 1015 89 3000 2.24 180 11:53 22.06.2021
6597 Rain 17 1015 81 10000 1.79 90 10:31 22.06.2021
6598 Rain 16 1013 87 10000 9.77 350 07:56 22.06.2021
6599 Drizzle 17 1013 89 8000 2.24 90 00:50 22.06.2021
6600 Rain 17 1013 88 10000 1.34 135 23:32 21.06.2021
6601 Clouds 17 1013 85 10000 8.75 340 22:29 21.06.2021
6602 Clouds 17 1012 88 10000 8.23 340 21:28 21.06.2021
6603 Clouds 17 1012 85 10000 7.2 320 20:46 21.06.2021
6604 Clouds 18 1013 70 10000 4.02 225 19:55 21.06.2021
6605 Clear 18 1012 75 10000 3.58 203 18:58 21.06.2021
6606 Clear 18 1011 64 10000 8.23 330 17:36 21.06.2021
6607 Clear 20 1011 62 10000 9.26 330 16:46 21.06.2021
6608 Clear 20 1011 63 10000 9.26 330 16:25 21.06.2021
6609 Clear 20 1012 62 10000 7.2 320 15:45 21.06.2021
6610 Clear 21 1013 47 10000 3.58 158 14:19 21.06.2021
6611 Clear 22 1014 48 10000 3.13 180 13:34 21.06.2021
6612 Clear 22 1015 48 10000 6.69 320 12:38 21.06.2021
6613 Clear 22 1015 50 10000 5.66 260 11:56 21.06.2021
6614 Clear 22 1015 50 10000 5.66 260 11:56 21.06.2021
6615 Clear 21 1015 49 10000 4.63 270 10:31 21.06.2021
6616 Clear 20 1015 46 10000 2.57 270 09:34 21.06.2021
6617 Clear 19 1015 45 10000 3.09 240 08:24 21.06.2021
6618 Clear 20 1014 36 10000 5.14 330 07:28 21.06.2021
6619 Clear 19 1017 30 10000 1.03 0 00:43 21.06.2021
6620 Clear 21 1017 12 10000 4.12 40 23:35 20.06.2021
6621 Clear 21 1017 13 10000 4.12 50 22:58 20.06.2021
6622 Clouds 21 1018 9 10000 3.62 18 22:19 20.06.2021
6623 Clear 22 1017 12 10000 2.57 50 21:32 20.06.2021
6624 Clear 21 1017 27 10000 2.57 300 19:47 20.06.2021
6625 Clear 21 1017 28 10000 2.57 300 19:24 20.06.2021
6626 Clear 20 1017 49 10000 4.63 300 18:21 20.06.2021
6627 Clear 23 1017 42 10000 5.66 320 16:52 20.06.2021
6628 Clear 25 1017 29 10000 6.17 300 15:55 20.06.2021
6629 Clear 25 1017 29 10000 6.17 300 15:33 20.06.2021
6630 Clear 26 1018 28 10000 6.17 330 14:48 20.06.2021
6631 Clear 26 1018 27 10000 7.2 320 13:51 20.06.2021
6632 Clear 27 1019 25 10000 6.69 10 12:58 20.06.2021
6633 Clear 25 1019 26 10000 6.17 20 11:46 20.06.2021
6634 Clear 23 1019 35 10000 2.57 330 10:46 20.06.2021
6635 Clear 19 1019 45 10000 3.6 20 09:47 20.06.2021
6636 Clear 18 1018 12 10000 4.12 40 07:47 20.06.2021
6637 Clear 20 1020 41 10000 0.89 0 00:31 20.06.2021
6638 Clear 19 1020 43 10000 0.89 0 23:20 19.06.2021
6639 Clear 14 1020 58 10000 0.51 20 21:59 19.06.2021
6640 Clear 14 1020 58 10000 0.51 20 21:39 19.06.2021
6641 Clear 17 1020 56 10000 2.57 140 18:56 19.06.2021
6642 Clear 18 1020 52 10000 2.57 140 18:31 19.06.2021
6643 Clear 22 1020 31 10000 1.54 160 17:27 19.06.2021
6644 Clear 21 1020 9 10000 3.09 10 16:51 19.06.2021
6645 Clear 23 1021 34 10000 3.09 30 15:42 19.06.2021
6646 Clear 25 1021 25<